<?xml version='1.0' encoding='UTF-8'?><gpx version="1.1" creator="JPX - https://github.com/jenetics/jpx" xmlns="http://www.topografix.com/GPX/1/1"><trk><trkseg><trkpt lat="45.40087762386636" lon="11.82772416531943"><ele>15.0</ele><time>2026-04-03T10:55:23Z</time></trkpt><trkpt lat="45.40080707510697" lon="11.827665113529694"><ele>15.0</ele><time>2026-04-03T10:55:25Z</time></trkpt><trkpt lat="45.4008475904487" lon="11.827440641779551"><ele>15.0</ele><time>2026-04-03T10:55:28Z</time></trkpt><trkpt lat="45.400888315756525" lon="11.827279074742952"><ele>15.0</ele><time>2026-04-03T10:55:30Z</time></trkpt><trkpt lat="45.40091748604441" lon="11.827151736960875"><ele>14.6</ele><time>2026-04-03T10:55:32Z</time></trkpt><trkpt lat="45.4009466060706" lon="11.827052519872367"><ele>14.2</ele><time>2026-04-03T10:55:34Z</time></trkpt><trkpt lat="45.40097328728641" lon="11.826956679821057"><ele>13.8</ele><time>2026-04-03T10:55:36Z</time></trkpt><trkpt lat="45.40096855130234" lon="11.82685219390693"><ele>13.4</ele><time>2026-04-03T10:55:39Z</time></trkpt><trkpt lat="45.40084409564052" lon="11.826854379815606"><ele>13.0</ele><time>2026-04-03T10:55:40Z</time></trkpt><trkpt lat="45.40072362599271" lon="11.826868602300367"><ele>12.999999999999998</ele><time>2026-04-03T10:55:42Z</time></trkpt><trkpt lat="45.40065296874861" lon="11.826866113815363"><ele>13.0</ele><time>2026-04-03T10:55:43Z</time></trkpt><trkpt lat="45.400579985856524" lon="11.82683748215606"><ele>13.0</ele><time>2026-04-03T10:55:44Z</time></trkpt><trkpt lat="45.40050385065485" lon="11.826844071795959"><ele>13.0</ele><time>2026-04-03T10:55:45Z</time></trkpt><trkpt lat="45.400437925294696" lon="11.826797401410998"><ele>12.999999999999998</ele><time>2026-04-03T10:55:46Z</time></trkpt><trkpt lat="45.40034660989279" lon="11.826766691850276"><ele>13.0</ele><time>2026-04-03T10:55:47Z</time></trkpt><trkpt lat="45.40023847096764" lon="11.826754115655774"><ele>13.5</ele><time>2026-04-03T10:55:48Z</time></trkpt><trkpt lat="45.40012078175185" lon="11.826708298639478"><ele>14.0</ele><time>2026-04-03T10:55:49Z</time></trkpt><trkpt lat="45.400000051099056" lon="11.826669947575423"><ele>14.5</ele><time>2026-04-03T10:55:50Z</time></trkpt><trkpt lat="45.39986892546294" lon="11.826622474872423"><ele>15.0</ele><time>2026-04-03T10:55:51Z</time></trkpt><trkpt lat="45.399736588906734" lon="11.82657507872852"><ele>14.5</ele><time>2026-04-03T10:55:52Z</time></trkpt><trkpt lat="45.399614679777294" lon="11.826532396972677"><ele>14.0</ele><time>2026-04-03T10:55:53Z</time></trkpt><trkpt lat="45.39948408882966" lon="11.826487276763618"><ele>13.5</ele><time>2026-04-03T10:55:54Z</time></trkpt><trkpt lat="45.39934155599222" lon="11.82644208281317"><ele>13.0</ele><time>2026-04-03T10:55:55Z</time></trkpt><trkpt lat="45.399203160217084" lon="11.82638514841882"><ele>13.0</ele><time>2026-04-03T10:55:56Z</time></trkpt><trkpt lat="45.399050094430905" lon="11.82633425071542"><ele>13.0</ele><time>2026-04-03T10:55:57Z</time></trkpt><trkpt lat="45.39890123402133" lon="11.826288141326073"><ele>13.0</ele><time>2026-04-03T10:55:58Z</time></trkpt><trkpt lat="45.39875122079529" lon="11.826233853257504"><ele>13.0</ele><time>2026-04-03T10:55:59Z</time></trkpt><trkpt lat="45.39859831695525" lon="11.826186539274707"><ele>13.0</ele><time>2026-04-03T10:56:00Z</time></trkpt><trkpt lat="45.398441670430785" lon="11.826131197898048"><ele>13.0</ele><time>2026-04-03T10:56:01Z</time></trkpt><trkpt lat="45.398285504287585" lon="11.826077671767449"><ele>13.0</ele><time>2026-04-03T10:56:02Z</time></trkpt><trkpt lat="45.39812693713682" lon="11.826022841428369"><ele>13.0</ele><time>2026-04-03T10:56:03Z</time></trkpt><trkpt lat="45.39796342826278" lon="11.825964189736363"><ele>13.0</ele><time>2026-04-03T10:56:04Z</time></trkpt><trkpt lat="45.39779845030458" lon="11.825902405766128"><ele>13.333333333333332</ele><time>2026-04-03T10:56:05Z</time></trkpt><trkpt lat="45.39763745069227" lon="11.825840851615725"><ele>13.666666666666668</ele><time>2026-04-03T10:56:06Z</time></trkpt><trkpt lat="45.397479550474266" lon="11.825780453306223"><ele>14.0</ele><time>2026-04-03T10:56:07Z</time></trkpt><trkpt lat="45.39732989244437" lon="11.825718028631824"><ele>14.0</ele><time>2026-04-03T10:56:08Z</time></trkpt><trkpt lat="45.39716297322653" lon="11.825673249500229"><ele>14.0</ele><time>2026-04-03T10:56:09Z</time></trkpt><trkpt lat="45.3970051390364" lon="11.825614861597646"><ele>14.0</ele><time>2026-04-03T10:56:10Z</time></trkpt><trkpt lat="45.39684529452237" lon="11.825558807811701"><ele>14.0</ele><time>2026-04-03T10:56:11Z</time></trkpt><trkpt lat="45.396681182226985" lon="11.82550451342268"><ele>14.0</ele><time>2026-04-03T10:56:12Z</time></trkpt><trkpt lat="45.39651449839645" lon="11.825455713053845"><ele>14.0</ele><time>2026-04-03T10:56:13Z</time></trkpt><trkpt lat="45.39634608109944" lon="11.825418085895173"><ele>13.666666666666668</ele><time>2026-04-03T10:56:14Z</time></trkpt><trkpt lat="45.396185405325156" lon="11.825390680168194"><ele>13.333333333333332</ele><time>2026-04-03T10:56:15Z</time></trkpt><trkpt lat="45.396018340861076" lon="11.825369216530785"><ele>13.0</ele><time>2026-04-03T10:56:16Z</time></trkpt><trkpt lat="45.39587057226655" lon="11.825373332574573"><ele>13.0</ele><time>2026-04-03T10:56:17Z</time></trkpt><trkpt lat="45.39573650917395" lon="11.8253807719481"><ele>13.0</ele><time>2026-04-03T10:56:18Z</time></trkpt><trkpt lat="45.39561913506262" lon="11.825400807037626"><ele>13.0</ele><time>2026-04-03T10:56:19Z</time></trkpt><trkpt lat="45.39551481137015" lon="11.825438909741923"><ele>13.0</ele><time>2026-04-03T10:56:20Z</time></trkpt><trkpt lat="45.395420953051236" lon="11.825476709827628"><ele>13.2</ele><time>2026-04-03T10:56:21Z</time></trkpt><trkpt lat="45.39533759332724" lon="11.82551192897967"><ele>13.4</ele><time>2026-04-03T10:56:22Z</time></trkpt><trkpt lat="45.39527113389964" lon="11.82553265019224"><ele>13.599999999999998</ele><time>2026-04-03T10:56:23Z</time></trkpt><trkpt lat="45.39517640232308" lon="11.82550886699954"><ele>13.799999999999999</ele><time>2026-04-03T10:56:25Z</time></trkpt><trkpt lat="45.39511638403375" lon="11.825326409843088"><ele>14.0</ele><time>2026-04-03T10:56:27Z</time></trkpt><trkpt lat="45.39508750392455" lon="11.825189264438574"><ele>13.799999999999999</ele><time>2026-04-03T10:56:28Z</time></trkpt><trkpt lat="45.39507248681149" lon="11.82504435066301"><ele>13.599999999999998</ele><time>2026-04-03T10:56:29Z</time></trkpt><trkpt lat="45.39504594003051" lon="11.82487839195204"><ele>13.4</ele><time>2026-04-03T10:56:30Z</time></trkpt><trkpt lat="45.39503695748495" lon="11.824730249677772"><ele>13.2</ele><time>2026-04-03T10:56:31Z</time></trkpt><trkpt lat="45.39502263443372" lon="11.824577108166839"><ele>13.0</ele><time>2026-04-03T10:56:32Z</time></trkpt><trkpt lat="45.395004553466734" lon="11.824399997552426"><ele>13.0</ele><time>2026-04-03T10:56:33Z</time></trkpt><trkpt lat="45.394974996644216" lon="11.824220326382575"><ele>13.0</ele><time>2026-04-03T10:56:34Z</time></trkpt><trkpt lat="45.39494291228007" lon="11.824041254799814"><ele>13.0</ele><time>2026-04-03T10:56:35Z</time></trkpt><trkpt lat="45.39491172318952" lon="11.823871677628293"><ele>13.0</ele><time>2026-04-03T10:56:36Z</time></trkpt><trkpt lat="45.39487895273983" lon="11.823735046110585"><ele>12.999999999999998</ele><time>2026-04-03T10:56:37Z</time></trkpt><trkpt lat="45.394854423450674" lon="11.823612704779794"><ele>13.0</ele><time>2026-04-03T10:56:38Z</time></trkpt><trkpt lat="45.39484468485844" lon="11.823510201373393"><ele>13.0</ele><time>2026-04-03T10:56:39Z</time></trkpt><trkpt lat="45.39484211665592" lon="11.823390856253543"><ele>13.0</ele><time>2026-04-03T10:56:40Z</time></trkpt><trkpt lat="45.39483148185918" lon="11.823258843876665"><ele>12.999999999999998</ele><time>2026-04-03T10:56:41Z</time></trkpt><trkpt lat="45.39476129491849" lon="11.823184307550783"><ele>13.0</ele><time>2026-04-03T10:56:42Z</time></trkpt><trkpt lat="45.39469054400319" lon="11.823072613325134"><ele>13.5</ele><time>2026-04-03T10:56:43Z</time></trkpt><trkpt lat="45.39462972180859" lon="11.822926122494057"><ele>14.0</ele><time>2026-04-03T10:56:44Z</time></trkpt><trkpt lat="45.394621566205196" lon="11.8227299196748"><ele>14.5</ele><time>2026-04-03T10:56:45Z</time></trkpt><trkpt lat="45.39456886551886" lon="11.822540911087218"><ele>15.0</ele><time>2026-04-03T10:56:46Z</time></trkpt><trkpt lat="45.39450710398692" lon="11.822347214378588"><ele>15.0</ele><time>2026-04-03T10:56:47Z</time></trkpt><trkpt lat="45.39446227053766" lon="11.822149543786015"><ele>15.0</ele><time>2026-04-03T10:56:48Z</time></trkpt><trkpt lat="45.394425300161835" lon="11.821952880822904"><ele>15.0</ele><time>2026-04-03T10:56:49Z</time></trkpt><trkpt lat="45.394375651852386" lon="11.821746272841985"><ele>15.0</ele><time>2026-04-03T10:56:50Z</time></trkpt><trkpt lat="45.39431778858717" lon="11.82153854667043"><ele>14.666666666666668</ele><time>2026-04-03T10:56:51Z</time></trkpt><trkpt lat="45.394258115730274" lon="11.821321918532188"><ele>14.333333333333334</ele><time>2026-04-03T10:56:52Z</time></trkpt><trkpt lat="45.394202093077716" lon="11.82110642681468"><ele>14.0</ele><time>2026-04-03T10:56:53Z</time></trkpt><trkpt lat="45.394141776249235" lon="11.820890217984234"><ele>13.666666666666668</ele><time>2026-04-03T10:56:54Z</time></trkpt><trkpt lat="45.39408387922957" lon="11.820668583453386"><ele>13.333333333333332</ele><time>2026-04-03T10:56:55Z</time></trkpt><trkpt lat="45.39402507156093" lon="11.820449307105035"><ele>13.0</ele><time>2026-04-03T10:56:56Z</time></trkpt><trkpt lat="45.393969515648514" lon="11.820233974978347"><ele>12.666666666666666</ele><time>2026-04-03T10:56:57Z</time></trkpt><trkpt lat="45.39391686622708" lon="11.82001412217271"><ele>12.333333333333332</ele><time>2026-04-03T10:56:58Z</time></trkpt><trkpt lat="45.393864727970055" lon="11.819793050960422"><ele>12.0</ele><time>2026-04-03T10:56:59Z</time></trkpt><trkpt lat="45.39381746779749" lon="11.819584980182466"><ele>12.0</ele><time>2026-04-03T10:57:00Z</time></trkpt><trkpt lat="45.39377240020298" lon="11.81939675459762"><ele>12.0</ele><time>2026-04-03T10:57:01Z</time></trkpt><trkpt lat="45.39372302724066" lon="11.819219685700292"><ele>12.0</ele><time>2026-04-03T10:57:02Z</time></trkpt><trkpt lat="45.39366362311081" lon="11.819054825533655"><ele>12.0</ele><time>2026-04-03T10:57:03Z</time></trkpt><trkpt lat="45.39360785492785" lon="11.818901072007668"><ele>12.0</ele><time>2026-04-03T10:57:04Z</time></trkpt><trkpt lat="45.39356392195178" lon="11.818728134433277"><ele>12.0</ele><time>2026-04-03T10:57:05Z</time></trkpt><trkpt lat="45.39348293722488" lon="11.818569850591853"><ele>12.0</ele><time>2026-04-03T10:57:06Z</time></trkpt><trkpt lat="45.39341377533068" lon="11.818405016937088"><ele>12.0</ele><time>2026-04-03T10:57:07Z</time></trkpt><trkpt lat="45.393345163418445" lon="11.818228891983786"><ele>12.25</ele><time>2026-04-03T10:57:08Z</time></trkpt><trkpt lat="45.39328067661835" lon="11.818057587892767"><ele>12.5</ele><time>2026-04-03T10:57:09Z</time></trkpt><trkpt lat="45.39321936225001" lon="11.817902947950556"><ele>12.75</ele><time>2026-04-03T10:57:10Z</time></trkpt><trkpt lat="45.3931716086044" lon="11.817771251163826"><ele>13.0</ele><time>2026-04-03T10:57:11Z</time></trkpt><trkpt lat="45.39312162410988" lon="11.81765682978601"><ele>12.999999999999998</ele><time>2026-04-03T10:57:12Z</time></trkpt><trkpt lat="45.393082678898935" lon="11.817556705869"><ele>13.0</ele><time>2026-04-03T10:57:13Z</time></trkpt><trkpt lat="45.39302878640312" lon="11.817391024294372"><ele>13.0</ele><time>2026-04-03T10:57:15Z</time></trkpt><trkpt lat="45.39302248085941" lon="11.817278433843473"><ele>13.0</ele><time>2026-04-03T10:57:16Z</time></trkpt><trkpt lat="45.39301192421434" lon="11.817169616896042"><ele>12.999999999999998</ele><time>2026-04-03T10:57:17Z</time></trkpt><trkpt lat="45.39298016459914" lon="11.81708293598919"><ele>13.0</ele><time>2026-04-03T10:57:18Z</time></trkpt><trkpt lat="45.39292604824706" lon="11.816984670144892"><ele>13.2</ele><time>2026-04-03T10:57:19Z</time></trkpt><trkpt lat="45.392851221296354" lon="11.816884643303455"><ele>13.4</ele><time>2026-04-03T10:57:20Z</time></trkpt><trkpt lat="45.39277354783029" lon="11.8167698872829"><ele>13.599999999999998</ele><time>2026-04-03T10:57:21Z</time></trkpt><trkpt lat="45.39271225531226" lon="11.816647494220652"><ele>13.799999999999999</ele><time>2026-04-03T10:57:22Z</time></trkpt><trkpt lat="45.39265213019997" lon="11.816499954578818"><ele>14.0</ele><time>2026-04-03T10:57:23Z</time></trkpt><trkpt lat="45.39258541563424" lon="11.816331494774687"><ele>14.0</ele><time>2026-04-03T10:57:24Z</time></trkpt><trkpt lat="45.392525386413276" lon="11.816151673154547"><ele>14.0</ele><time>2026-04-03T10:57:25Z</time></trkpt><trkpt lat="45.39247554399196" lon="11.815959305372523"><ele>14.0</ele><time>2026-04-03T10:57:26Z</time></trkpt><trkpt lat="45.392430625218736" lon="11.81576459777618"><ele>14.0</ele><time>2026-04-03T10:57:27Z</time></trkpt><trkpt lat="45.39239460670729" lon="11.815549974451232"><ele>14.0</ele><time>2026-04-03T10:57:28Z</time></trkpt><trkpt lat="45.39235204191975" lon="11.815326408923807"><ele>14.0</ele><time>2026-04-03T10:57:29Z</time></trkpt><trkpt lat="45.392308116904104" lon="11.8150909719375"><ele>14.0</ele><time>2026-04-03T10:57:30Z</time></trkpt><trkpt lat="45.39225852558693" lon="11.814879676862558"><ele>14.0</ele><time>2026-04-03T10:57:31Z</time></trkpt><trkpt lat="45.39222965008414" lon="11.814657004340042"><ele>14.0</ele><time>2026-04-03T10:57:32Z</time></trkpt><trkpt lat="45.392182990207104" lon="11.814420878343324"><ele>14.0</ele><time>2026-04-03T10:57:33Z</time></trkpt><trkpt lat="45.392106076423545" lon="11.814193890465113"><ele>14.0</ele><time>2026-04-03T10:57:34Z</time></trkpt><trkpt lat="45.39206682477408" lon="11.813951693186254"><ele>14.0</ele><time>2026-04-03T10:57:35Z</time></trkpt><trkpt lat="45.39203112273088" lon="11.813700834121562"><ele>14.0</ele><time>2026-04-03T10:57:36Z</time></trkpt><trkpt lat="45.3919899125257" lon="11.813486028957525"><ele>14.0</ele><time>2026-04-03T10:57:37Z</time></trkpt><trkpt lat="45.39196420861209" lon="11.81326842410773"><ele>14.0</ele><time>2026-04-03T10:57:38Z</time></trkpt><trkpt lat="45.39192552615037" lon="11.813067268148439"><ele>14.0</ele><time>2026-04-03T10:57:39Z</time></trkpt><trkpt lat="45.39189744068883" lon="11.812870242797077"><ele>14.0</ele><time>2026-04-03T10:57:40Z</time></trkpt><trkpt lat="45.39186513122041" lon="11.812704954779328"><ele>13.799999999999999</ele><time>2026-04-03T10:57:41Z</time></trkpt><trkpt lat="45.391836383851825" lon="11.812541654772309"><ele>13.599999999999998</ele><time>2026-04-03T10:57:42Z</time></trkpt><trkpt lat="45.391807433571515" lon="11.812425113165633"><ele>13.4</ele><time>2026-04-03T10:57:43Z</time></trkpt><trkpt lat="45.39178796239793" lon="11.812328452370142"><ele>13.2</ele><time>2026-04-03T10:57:44Z</time></trkpt><trkpt lat="45.39177960714133" lon="11.812217458161893"><ele>13.0</ele><time>2026-04-03T10:57:46Z</time></trkpt><trkpt lat="45.39180376761088" lon="11.812078672444166"><ele>13.0</ele><time>2026-04-03T10:57:49Z</time></trkpt><trkpt lat="45.39185445429179" lon="11.811958768816595"><ele>13.0</ele><time>2026-04-03T10:57:51Z</time></trkpt><trkpt lat="45.39175055380039" lon="11.811869446750167"><ele>13.0</ele><time>2026-04-03T10:57:53Z</time></trkpt><trkpt lat="45.391685953612765" lon="11.811788095130286"><ele>13.0</ele><time>2026-04-03T10:57:54Z</time></trkpt><trkpt lat="45.39164302274623" lon="11.811627947462101"><ele>13.0</ele><time>2026-04-03T10:57:56Z</time></trkpt><trkpt lat="45.39162018967653" lon="11.811537685191585"><ele>13.2</ele><time>2026-04-03T10:57:57Z</time></trkpt><trkpt lat="45.39159652475018" lon="11.811425521860983"><ele>13.4</ele><time>2026-04-03T10:57:58Z</time></trkpt><trkpt lat="45.39157438331721" lon="11.811308878479075"><ele>13.599999999999998</ele><time>2026-04-03T10:57:59Z</time></trkpt><trkpt lat="45.39152853309405" lon="11.811174346147798"><ele>13.799999999999999</ele><time>2026-04-03T10:58:00Z</time></trkpt><trkpt lat="45.391482931478514" lon="11.810989690225565"><ele>14.0</ele><time>2026-04-03T10:58:01Z</time></trkpt><trkpt lat="45.39145500682548" lon="11.810801569873169"><ele>14.0</ele><time>2026-04-03T10:58:02Z</time></trkpt><trkpt lat="45.39141172138191" lon="11.810573965165771"><ele>14.0</ele><time>2026-04-03T10:58:03Z</time></trkpt><trkpt lat="45.391374278371195" lon="11.810371823071545"><ele>14.0</ele><time>2026-04-03T10:58:04Z</time></trkpt><trkpt lat="45.39132662612826" lon="11.810152004401088"><ele>14.333333333333334</ele><time>2026-04-03T10:58:05Z</time></trkpt><trkpt lat="45.391286421654684" lon="11.809927216924189"><ele>14.666666666666668</ele><time>2026-04-03T10:58:06Z</time></trkpt><trkpt lat="45.39125015916118" lon="11.809716095735508"><ele>15.0</ele><time>2026-04-03T10:58:07Z</time></trkpt><trkpt lat="45.391238713980776" lon="11.809492573966349"><ele>14.666666666666668</ele><time>2026-04-03T10:58:08Z</time></trkpt><trkpt lat="45.391195326133115" lon="11.809275796147132"><ele>14.333333333333334</ele><time>2026-04-03T10:58:09Z</time></trkpt><trkpt lat="45.39115291239016" lon="11.809063309844184"><ele>14.0</ele><time>2026-04-03T10:58:10Z</time></trkpt><trkpt lat="45.39111156303531" lon="11.80885444154208"><ele>14.0</ele><time>2026-04-03T10:58:11Z</time></trkpt><trkpt lat="45.39106946071519" lon="11.8086478621129"><ele>14.0</ele><time>2026-04-03T10:58:12Z</time></trkpt><trkpt lat="45.39102590366074" lon="11.8084360550178"><ele>14.0</ele><time>2026-04-03T10:58:13Z</time></trkpt><trkpt lat="45.39097919584358" lon="11.808225644699158"><ele>13.75</ele><time>2026-04-03T10:58:14Z</time></trkpt><trkpt lat="45.39093440142652" lon="11.808024428026828"><ele>13.5</ele><time>2026-04-03T10:58:15Z</time></trkpt><trkpt lat="45.39088841689281" lon="11.807822765583433"><ele>13.25</ele><time>2026-04-03T10:58:16Z</time></trkpt><trkpt lat="45.390844562666814" lon="11.80762655569317"><ele>13.0</ele><time>2026-04-03T10:58:17Z</time></trkpt><trkpt lat="45.39080301715423" lon="11.807427888677497"><ele>13.0</ele><time>2026-04-03T10:58:18Z</time></trkpt><trkpt lat="45.39075538367469" lon="11.807226378260374"><ele>13.0</ele><time>2026-04-03T10:58:19Z</time></trkpt><trkpt lat="45.390742004116575" lon="11.80702207267902"><ele>13.0</ele><time>2026-04-03T10:58:20Z</time></trkpt><trkpt lat="45.39073114405521" lon="11.806835546170976"><ele>13.0</ele><time>2026-04-03T10:58:21Z</time></trkpt><trkpt lat="45.3907055758289" lon="11.80665591004308"><ele>13.0</ele><time>2026-04-03T10:58:22Z</time></trkpt><trkpt lat="45.39066746879202" lon="11.806486052667477"><ele>13.0</ele><time>2026-04-03T10:58:23Z</time></trkpt><trkpt lat="45.39063007893195" lon="11.806350361845093"><ele>13.0</ele><time>2026-04-03T10:58:24Z</time></trkpt><trkpt lat="45.39060792726147" lon="11.806238267417559"><ele>13.0</ele><time>2026-04-03T10:58:25Z</time></trkpt><trkpt lat="45.39060406598701" lon="11.806117123501185"><ele>13.0</ele><time>2026-04-03T10:58:26Z</time></trkpt><trkpt lat="45.390607578306295" lon="11.806005310094358"><ele>13.2</ele><time>2026-04-03T10:58:27Z</time></trkpt><trkpt lat="45.39060572666856" lon="11.805876921033583"><ele>13.4</ele><time>2026-04-03T10:58:29Z</time></trkpt><trkpt lat="45.39059534230691" lon="11.805718993900497"><ele>13.599999999999998</ele><time>2026-04-03T10:58:31Z</time></trkpt><trkpt lat="45.390606683190065" lon="11.805595497934451"><ele>13.799999999999999</ele><time>2026-04-03T10:58:32Z</time></trkpt><trkpt lat="45.390594646884715" lon="11.8054905321707"><ele>14.0</ele><time>2026-04-03T10:58:33Z</time></trkpt><trkpt lat="45.39059955951849" lon="11.80532746017306"><ele>14.0</ele><time>2026-04-03T10:58:35Z</time></trkpt><trkpt lat="45.3905615204898" lon="11.805124087362993"><ele>14.0</ele><time>2026-04-03T10:58:37Z</time></trkpt><trkpt lat="45.39053850058961" lon="11.804956542693793"><ele>14.0</ele><time>2026-04-03T10:58:38Z</time></trkpt><trkpt lat="45.3905155470923" lon="11.804759154807407"><ele>14.0</ele><time>2026-04-03T10:58:39Z</time></trkpt><trkpt lat="45.39050709764994" lon="11.80454577564068"><ele>14.0</ele><time>2026-04-03T10:58:40Z</time></trkpt><trkpt lat="45.3904786497521" lon="11.804333316296042"><ele>14.0</ele><time>2026-04-03T10:58:41Z</time></trkpt><trkpt lat="45.39044598975803" lon="11.804109960046954"><ele>14.0</ele><time>2026-04-03T10:58:42Z</time></trkpt><trkpt lat="45.39041393385354" lon="11.803886112724962"><ele>14.0</ele><time>2026-04-03T10:58:43Z</time></trkpt><trkpt lat="45.390381488667096" lon="11.803658485430649"><ele>14.0</ele><time>2026-04-03T10:58:44Z</time></trkpt><trkpt lat="45.39034725111204" lon="11.803412192588945"><ele>14.0</ele><time>2026-04-03T10:58:45Z</time></trkpt><trkpt lat="45.39030517656511" lon="11.803174165367132"><ele>14.0</ele><time>2026-04-03T10:58:46Z</time></trkpt><trkpt lat="45.39025924868862" lon="11.802942782561903"><ele>14.0</ele><time>2026-04-03T10:58:47Z</time></trkpt><trkpt lat="45.3902088071283" lon="11.802710507461681"><ele>14.0</ele><time>2026-04-03T10:58:48Z</time></trkpt><trkpt lat="45.39015543173569" lon="11.802465457367527"><ele>14.0</ele><time>2026-04-03T10:58:49Z</time></trkpt><trkpt lat="45.3901031981804" lon="11.802214311311506"><ele>14.0</ele><time>2026-04-03T10:58:50Z</time></trkpt><trkpt lat="45.39005142845458" lon="11.801968250735223"><ele>14.0</ele><time>2026-04-03T10:58:51Z</time></trkpt><trkpt lat="45.38999422014852" lon="11.80172305871617"><ele>14.0</ele><time>2026-04-03T10:58:52Z</time></trkpt><trkpt lat="45.38994613487818" lon="11.801476953173875"><ele>14.0</ele><time>2026-04-03T10:58:53Z</time></trkpt><trkpt lat="45.389872322534366" lon="11.801228693634863"><ele>14.0</ele><time>2026-04-03T10:58:54Z</time></trkpt><trkpt lat="45.38982603306999" lon="11.800982057400761"><ele>14.0</ele><time>2026-04-03T10:58:55Z</time></trkpt><trkpt lat="45.38976996233562" lon="11.800740130256855"><ele>14.0</ele><time>2026-04-03T10:58:56Z</time></trkpt><trkpt lat="45.38971124030882" lon="11.800510550551033"><ele>14.0</ele><time>2026-04-03T10:58:57Z</time></trkpt><trkpt lat="45.38966066756258" lon="11.800306031937492"><ele>13.75</ele><time>2026-04-03T10:58:58Z</time></trkpt><trkpt lat="45.38961251631299" lon="11.800110158288973"><ele>13.5</ele><time>2026-04-03T10:58:59Z</time></trkpt><trkpt lat="45.389574151701936" lon="11.799942500968761"><ele>13.25</ele><time>2026-04-03T10:59:00Z</time></trkpt><trkpt lat="45.38954219472872" lon="11.799783248164509"><ele>13.0</ele><time>2026-04-03T10:59:01Z</time></trkpt><trkpt lat="45.389534805018535" lon="11.799620106802726"><ele>12.999999999999998</ele><time>2026-04-03T10:59:02Z</time></trkpt><trkpt lat="45.38957247290505" lon="11.799448519951712"><ele>13.0</ele><time>2026-04-03T10:59:03Z</time></trkpt><trkpt lat="45.389618862561925" lon="11.79932461823972"><ele>13.0</ele><time>2026-04-03T10:59:04Z</time></trkpt><trkpt lat="45.38965874784122" lon="11.799221307396426"><ele>13.0</ele><time>2026-04-03T10:59:05Z</time></trkpt><trkpt lat="45.389667089451265" lon="11.799126422912718"><ele>12.999999999999998</ele><time>2026-04-03T10:59:06Z</time></trkpt><trkpt lat="45.38964117945425" lon="11.799030277481883"><ele>13.0</ele><time>2026-04-03T10:59:07Z</time></trkpt><trkpt lat="45.38949850855386" lon="11.79894352611939"><ele>13.0</ele><time>2026-04-03T10:59:09Z</time></trkpt><trkpt lat="45.389416965132455" lon="11.798921098585106"><ele>13.0</ele><time>2026-04-03T10:59:10Z</time></trkpt><trkpt lat="45.38931756978956" lon="11.798900945879678"><ele>13.0</ele><time>2026-04-03T10:59:11Z</time></trkpt><trkpt lat="45.38925215558469" lon="11.798828575452129"><ele>13.0</ele><time>2026-04-03T10:59:12Z</time></trkpt><trkpt lat="45.389190011651436" lon="11.798705589297102"><ele>13.0</ele><time>2026-04-03T10:59:13Z</time></trkpt><trkpt lat="45.389137359457976" lon="11.798560550884309"><ele>13.5</ele><time>2026-04-03T10:59:14Z</time></trkpt><trkpt lat="45.38909032772024" lon="11.79842054248218"><ele>14.0</ele><time>2026-04-03T10:59:15Z</time></trkpt><trkpt lat="45.389039279523516" lon="11.798236127407751"><ele>14.5</ele><time>2026-04-03T10:59:16Z</time></trkpt><trkpt lat="45.388986896454995" lon="11.798035525504838"><ele>15.0</ele><time>2026-04-03T10:59:17Z</time></trkpt><trkpt lat="45.38892348264831" lon="11.79783248357248"><ele>14.666666666666668</ele><time>2026-04-03T10:59:18Z</time></trkpt><trkpt lat="45.388855044929635" lon="11.797635273923524"><ele>14.333333333333334</ele><time>2026-04-03T10:59:19Z</time></trkpt><trkpt lat="45.388787984014" lon="11.797423080725856"><ele>14.0</ele><time>2026-04-03T10:59:20Z</time></trkpt><trkpt lat="45.388727082493595" lon="11.797194952483517"><ele>14.0</ele><time>2026-04-03T10:59:21Z</time></trkpt><trkpt lat="45.38865982173459" lon="11.796958911116421"><ele>14.0</ele><time>2026-04-03T10:59:22Z</time></trkpt><trkpt lat="45.388591018877335" lon="11.796726257660483"><ele>14.0</ele><time>2026-04-03T10:59:23Z</time></trkpt><trkpt lat="45.3885229414243" lon="11.796493515042528"><ele>14.0</ele><time>2026-04-03T10:59:24Z</time></trkpt><trkpt lat="45.38845409859929" lon="11.796263780784738"><ele>14.0</ele><time>2026-04-03T10:59:25Z</time></trkpt><trkpt lat="45.388384899568926" lon="11.79602191826336"><ele>14.0</ele><time>2026-04-03T10:59:26Z</time></trkpt><trkpt lat="45.38831188220244" lon="11.79577862629139"><ele>14.0</ele><time>2026-04-03T10:59:27Z</time></trkpt><trkpt lat="45.38824955883962" lon="11.795509409577235"><ele>14.0</ele><time>2026-04-03T10:59:28Z</time></trkpt><trkpt lat="45.38817012181506" lon="11.795265925193599"><ele>14.0</ele><time>2026-04-03T10:59:29Z</time></trkpt><trkpt lat="45.388093555696884" lon="11.795014808960644"><ele>14.0</ele><time>2026-04-03T10:59:30Z</time></trkpt><trkpt lat="45.38801379992167" lon="11.794757797966597"><ele>14.0</ele><time>2026-04-03T10:59:31Z</time></trkpt><trkpt lat="45.387937472263204" lon="11.794500723538015"><ele>14.0</ele><time>2026-04-03T10:59:32Z</time></trkpt><trkpt lat="45.38786247384109" lon="11.794241844604691"><ele>14.333333333333334</ele><time>2026-04-03T10:59:33Z</time></trkpt><trkpt lat="45.38777970695641" lon="11.793985986816853"><ele>14.666666666666668</ele><time>2026-04-03T10:59:34Z</time></trkpt><trkpt lat="45.387698422391644" lon="11.793726967591365"><ele>15.0</ele><time>2026-04-03T10:59:35Z</time></trkpt><trkpt lat="45.387620367007685" lon="11.793469401346885"><ele>15.333333333333332</ele><time>2026-04-03T10:59:36Z</time></trkpt><trkpt lat="45.387538650481616" lon="11.793215184269163"><ele>15.666666666666666</ele><time>2026-04-03T10:59:37Z</time></trkpt><trkpt lat="45.387459418378214" lon="11.792957652727827"><ele>16.0</ele><time>2026-04-03T10:59:38Z</time></trkpt><trkpt lat="45.387380306771355" lon="11.792692684922802"><ele>16.0</ele><time>2026-04-03T10:59:39Z</time></trkpt><trkpt lat="45.38730242822874" lon="11.792434595874248"><ele>16.0</ele><time>2026-04-03T10:59:40Z</time></trkpt><trkpt lat="45.38723256928878" lon="11.792179075479194"><ele>16.0</ele><time>2026-04-03T10:59:41Z</time></trkpt><trkpt lat="45.38715449082243" lon="11.791920596622061"><ele>15.666666666666666</ele><time>2026-04-03T10:59:42Z</time></trkpt><trkpt lat="45.38707641162465" lon="11.791660767122602"><ele>15.333333333333332</ele><time>2026-04-03T10:59:43Z</time></trkpt><trkpt lat="45.38700354922928" lon="11.79140759494749"><ele>15.0</ele><time>2026-04-03T10:59:44Z</time></trkpt><trkpt lat="45.386930862470585" lon="11.791165371370077"><ele>14.666666666666668</ele><time>2026-04-03T10:59:45Z</time></trkpt><trkpt lat="45.386862373086586" lon="11.790926084325509"><ele>14.333333333333334</ele><time>2026-04-03T10:59:46Z</time></trkpt><trkpt lat="45.38678918603009" lon="11.790687170268514"><ele>14.0</ele><time>2026-04-03T10:59:47Z</time></trkpt><trkpt lat="45.38672152916625" lon="11.790450741563788"><ele>14.0</ele><time>2026-04-03T10:59:48Z</time></trkpt><trkpt lat="45.386653822139635" lon="11.790220512404293"><ele>14.0</ele><time>2026-04-03T10:59:49Z</time></trkpt><trkpt lat="45.38658030960201" lon="11.789984182337461"><ele>14.0</ele><time>2026-04-03T10:59:50Z</time></trkpt><trkpt lat="45.386515701999016" lon="11.78976621059898"><ele>14.0</ele><time>2026-04-03T10:59:51Z</time></trkpt><trkpt lat="45.38644442066474" lon="11.789543548491705"><ele>14.0</ele><time>2026-04-03T10:59:52Z</time></trkpt><trkpt lat="45.38637454195213" lon="11.78932148857388"><ele>14.0</ele><time>2026-04-03T10:59:53Z</time></trkpt><trkpt lat="45.386305099766425" lon="11.789099760611204"><ele>14.0</ele><time>2026-04-03T10:59:54Z</time></trkpt><trkpt lat="45.38624167671533" lon="11.78886740272469"><ele>14.0</ele><time>2026-04-03T10:59:55Z</time></trkpt><trkpt lat="45.38617096285679" lon="11.788632803156846"><ele>14.0</ele><time>2026-04-03T10:59:56Z</time></trkpt><trkpt lat="45.38610246978563" lon="11.788404162244262"><ele>14.0</ele><time>2026-04-03T10:59:57Z</time></trkpt><trkpt lat="45.38603264732908" lon="11.788173307323307"><ele>14.0</ele><time>2026-04-03T10:59:58Z</time></trkpt><trkpt lat="45.385962505402624" lon="11.787944950999547"><ele>14.0</ele><time>2026-04-03T10:59:59Z</time></trkpt><trkpt lat="45.38589313460661" lon="11.787718877540154"><ele>13.666666666666668</ele><time>2026-04-03T11:00:00Z</time></trkpt><trkpt lat="45.385829591139576" lon="11.787494008598937"><ele>13.333333333333332</ele><time>2026-04-03T11:00:01Z</time></trkpt><trkpt lat="45.38576313235646" lon="11.787268239979891"><ele>13.0</ele><time>2026-04-03T11:00:02Z</time></trkpt><trkpt lat="45.3856931088174" lon="11.787047447809355"><ele>13.333333333333332</ele><time>2026-04-03T11:00:03Z</time></trkpt><trkpt lat="45.385630394382716" lon="11.786823682171844"><ele>13.666666666666668</ele><time>2026-04-03T11:00:04Z</time></trkpt><trkpt lat="45.38557325861649" lon="11.786602192956364"><ele>14.0</ele><time>2026-04-03T11:00:05Z</time></trkpt><trkpt lat="45.385520527525486" lon="11.786396128456632"><ele>14.0</ele><time>2026-04-03T11:00:06Z</time></trkpt><trkpt lat="45.38545961618975" lon="11.78620539438944"><ele>14.0</ele><time>2026-04-03T11:00:07Z</time></trkpt><trkpt lat="45.38539292624496" lon="11.786005118076197"><ele>14.0</ele><time>2026-04-03T11:00:08Z</time></trkpt><trkpt lat="45.38533516458854" lon="11.785785841539056"><ele>14.0</ele><time>2026-04-03T11:00:09Z</time></trkpt><trkpt lat="45.38527199159849" lon="11.785584091567406"><ele>14.0</ele><time>2026-04-03T11:00:10Z</time></trkpt><trkpt lat="45.38522075282992" lon="11.785397320564414"><ele>14.0</ele><time>2026-04-03T11:00:11Z</time></trkpt><trkpt lat="45.38516864708607" lon="11.785226810446607"><ele>14.0</ele><time>2026-04-03T11:00:12Z</time></trkpt><trkpt lat="45.385114379028124" lon="11.78507413698884"><ele>14.2</ele><time>2026-04-03T11:00:13Z</time></trkpt><trkpt lat="45.385070930852024" lon="11.784924761384595"><ele>14.399999999999999</ele><time>2026-04-03T11:00:14Z</time></trkpt><trkpt lat="45.385041357086365" lon="11.784792699721244"><ele>14.6</ele><time>2026-04-03T11:00:15Z</time></trkpt><trkpt lat="45.38499986463184" lon="11.784663307336066"><ele>14.8</ele><time>2026-04-03T11:00:16Z</time></trkpt><trkpt lat="45.38496674676108" lon="11.784547073767278"><ele>15.0</ele><time>2026-04-03T11:00:17Z</time></trkpt><trkpt lat="45.38493526403497" lon="11.7844611344489"><ele>15.0</ele><time>2026-04-03T11:00:18Z</time></trkpt><trkpt lat="45.38490041011087" lon="11.784373996499074"><ele>15.0</ele><time>2026-04-03T11:00:19Z</time></trkpt><trkpt lat="45.38486465886716" lon="11.784288055246636"><ele>15.0</ele><time>2026-04-03T11:00:20Z</time></trkpt><trkpt lat="45.38484610356331" lon="11.784166906073368"><ele>15.0</ele><time>2026-04-03T11:00:21Z</time></trkpt><trkpt lat="45.3848030456637" lon="11.784080355864818"><ele>15.0</ele><time>2026-04-03T11:00:22Z</time></trkpt><trkpt lat="45.384782084517" lon="11.78399240337778"><ele>15.0</ele><time>2026-04-03T11:00:23Z</time></trkpt><trkpt lat="45.384756761174884" lon="11.783904040911034"><ele>15.0</ele><time>2026-04-03T11:00:24Z</time></trkpt><trkpt lat="45.38472503846411" lon="11.783799155268493"><ele>14.8</ele><time>2026-04-03T11:00:25Z</time></trkpt><trkpt lat="45.38468949656288" lon="11.783677137171122"><ele>14.6</ele><time>2026-04-03T11:00:26Z</time></trkpt><trkpt lat="45.38464409486584" lon="11.783541198317204"><ele>14.399999999999999</ele><time>2026-04-03T11:00:27Z</time></trkpt><trkpt lat="45.38460390647698" lon="11.783411902627646"><ele>14.2</ele><time>2026-04-03T11:00:28Z</time></trkpt><trkpt lat="45.38456958193911" lon="11.783296113791723"><ele>14.0</ele><time>2026-04-03T11:00:29Z</time></trkpt><trkpt lat="45.38453184488048" lon="11.783158483561698"><ele>13.75</ele><time>2026-04-03T11:00:30Z</time></trkpt><trkpt lat="45.38448840046245" lon="11.783007248885122"><ele>13.5</ele><time>2026-04-03T11:00:31Z</time></trkpt><trkpt lat="45.384441733152514" lon="11.782858344721081"><ele>13.25</ele><time>2026-04-03T11:00:32Z</time></trkpt><trkpt lat="45.384393500468136" lon="11.782698206934583"><ele>13.0</ele><time>2026-04-03T11:00:33Z</time></trkpt><trkpt lat="45.384342722075104" lon="11.782536793014366"><ele>12.8</ele><time>2026-04-03T11:00:34Z</time></trkpt><trkpt lat="45.38430078324482" lon="11.782383747916448"><ele>12.600000000000001</ele><time>2026-04-03T11:00:35Z</time></trkpt><trkpt lat="45.384269699605476" lon="11.782225378570509"><ele>12.399999999999999</ele><time>2026-04-03T11:00:36Z</time></trkpt><trkpt lat="45.38422840008412" lon="11.78209055311578"><ele>12.2</ele><time>2026-04-03T11:00:37Z</time></trkpt><trkpt lat="45.38418301480785" lon="11.781966327296873"><ele>12.0</ele><time>2026-04-03T11:00:38Z</time></trkpt><trkpt lat="45.38415759839479" lon="11.78186891104804"><ele>12.0</ele><time>2026-04-03T11:00:39Z</time></trkpt><trkpt lat="45.38411741242629" lon="11.781736342411312"><ele>12.0</ele><time>2026-04-03T11:00:41Z</time></trkpt><trkpt lat="45.38394817912899" lon="11.781861690290592"><ele>12.0</ele><time>2026-04-03T11:04:34Z</time></trkpt><trkpt lat="45.38406025702639" lon="11.781798557323324"><ele>12.0</ele><time>2026-04-03T11:04:47Z</time></trkpt><trkpt lat="45.38409415229026" lon="11.781675778556139"><ele>12.0</ele><time>2026-04-03T11:04:51Z</time></trkpt><trkpt lat="45.38403519564673" lon="11.78149095345619"><ele>12.0</ele><time>2026-04-03T11:04:53Z</time></trkpt><trkpt lat="45.38399316840352" lon="11.781367528998684"><ele>12.0</ele><time>2026-04-03T11:04:54Z</time></trkpt><trkpt lat="45.38395249960449" lon="11.78122818043847"><ele>12.0</ele><time>2026-04-03T11:04:55Z</time></trkpt><trkpt lat="45.383909196424725" lon="11.781095863107085"><ele>12.0</ele><time>2026-04-03T11:04:56Z</time></trkpt><trkpt lat="45.383883457826286" lon="11.780982655849444"><ele>12.0</ele><time>2026-04-03T11:04:57Z</time></trkpt><trkpt lat="45.38387035430184" lon="11.78089075854293"><ele>12.0</ele><time>2026-04-03T11:04:58Z</time></trkpt><trkpt lat="45.38388172636448" lon="11.780800649768752"><ele>12.0</ele><time>2026-04-03T11:05:00Z</time></trkpt><trkpt lat="45.38389624655391" lon="11.780626897990095"><ele>12.0</ele><time>2026-04-03T11:05:02Z</time></trkpt><trkpt lat="45.383870542197535" lon="11.780508381536134"><ele>12.0</ele><time>2026-04-03T11:05:03Z</time></trkpt><trkpt lat="45.383829459818294" lon="11.780395829875486"><ele>12.0</ele><time>2026-04-03T11:05:04Z</time></trkpt><trkpt lat="45.3837658059363" lon="11.780310403908507"><ele>12.0</ele><time>2026-04-03T11:05:05Z</time></trkpt><trkpt lat="45.38369106553845" lon="11.780230296252054"><ele>12.0</ele><time>2026-04-03T11:05:06Z</time></trkpt><trkpt lat="45.38362645681589" lon="11.780136877843141"><ele>12.0</ele><time>2026-04-03T11:05:07Z</time></trkpt><trkpt lat="45.38358107963232" lon="11.78003763733576"><ele>12.0</ele><time>2026-04-03T11:05:08Z</time></trkpt><trkpt lat="45.38356397890176" lon="11.779890037056573"><ele>12.0</ele><time>2026-04-03T11:05:09Z</time></trkpt><trkpt lat="45.38352611453295" lon="11.7797641308557"><ele>11.5</ele><time>2026-04-03T11:05:10Z</time></trkpt><trkpt lat="45.383476967560114" lon="11.779626152985152"><ele>11.0</ele><time>2026-04-03T11:05:11Z</time></trkpt><trkpt lat="45.383427785980686" lon="11.779469895909834"><ele>10.5</ele><time>2026-04-03T11:05:12Z</time></trkpt><trkpt lat="45.38338312351178" lon="11.779309711039573"><ele>10.0</ele><time>2026-04-03T11:05:13Z</time></trkpt><trkpt lat="45.383330560258884" lon="11.779140488553288"><ele>9.666666666666668</ele><time>2026-04-03T11:05:14Z</time></trkpt><trkpt lat="45.383273122966244" lon="11.778956869330301"><ele>9.333333333333334</ele><time>2026-04-03T11:05:15Z</time></trkpt><trkpt lat="45.38321413278101" lon="11.778752303024808"><ele>9.0</ele><time>2026-04-03T11:05:16Z</time></trkpt><trkpt lat="45.38314899014847" lon="11.778544737266488"><ele>9.333333333333334</ele><time>2026-04-03T11:05:17Z</time></trkpt><trkpt lat="45.383093475239036" lon="11.77832644210989"><ele>9.666666666666668</ele><time>2026-04-03T11:05:18Z</time></trkpt><trkpt lat="45.38301218515238" lon="11.778098695658667"><ele>10.0</ele><time>2026-04-03T11:05:19Z</time></trkpt><trkpt lat="45.38293948636132" lon="11.777855405270962"><ele>10.666666666666668</ele><time>2026-04-03T11:05:20Z</time></trkpt><trkpt lat="45.38286861163324" lon="11.777611043092042"><ele>11.333333333333334</ele><time>2026-04-03T11:05:21Z</time></trkpt><trkpt lat="45.38279687404002" lon="11.77734987357943"><ele>12.0</ele><time>2026-04-03T11:05:22Z</time></trkpt><trkpt lat="45.382721642042654" lon="11.777076294045376"><ele>12.666666666666668</ele><time>2026-04-03T11:05:23Z</time></trkpt><trkpt lat="45.38264569021991" lon="11.776802400164701"><ele>13.333333333333334</ele><time>2026-04-03T11:05:24Z</time></trkpt><trkpt lat="45.382569065169854" lon="11.776531447758153"><ele>14.0</ele><time>2026-04-03T11:05:25Z</time></trkpt><trkpt lat="45.38249030628951" lon="11.776262880652599"><ele>13.333333333333334</ele><time>2026-04-03T11:05:26Z</time></trkpt><trkpt lat="45.38240924227974" lon="11.77599783156815"><ele>12.666666666666668</ele><time>2026-04-03T11:05:27Z</time></trkpt><trkpt lat="45.38233034635869" lon="11.775742336475025"><ele>12.0</ele><time>2026-04-03T11:05:28Z</time></trkpt><trkpt lat="45.38224860747361" lon="11.775473002424992"><ele>12.0</ele><time>2026-04-03T11:05:29Z</time></trkpt><trkpt lat="45.38217154413682" lon="11.775195434215854"><ele>12.0</ele><time>2026-04-03T11:05:30Z</time></trkpt><trkpt lat="45.38209642794329" lon="11.774913772534358"><ele>12.0</ele><time>2026-04-03T11:05:31Z</time></trkpt><trkpt lat="45.38201581964677" lon="11.774635575812686"><ele>12.0</ele><time>2026-04-03T11:05:32Z</time></trkpt><trkpt lat="45.38192889505116" lon="11.774357481121779"><ele>12.0</ele><time>2026-04-03T11:05:33Z</time></trkpt><trkpt lat="45.3818464614783" lon="11.774075480278752"><ele>12.0</ele><time>2026-04-03T11:05:34Z</time></trkpt><trkpt lat="45.38176380041739" lon="11.773794074083265"><ele>12.0</ele><time>2026-04-03T11:05:35Z</time></trkpt><trkpt lat="45.38168152992804" lon="11.773509330169961"><ele>12.0</ele><time>2026-04-03T11:05:36Z</time></trkpt><trkpt lat="45.38159786787119" lon="11.773233686651542"><ele>12.0</ele><time>2026-04-03T11:05:37Z</time></trkpt><trkpt lat="45.38150749433087" lon="11.77294698438256"><ele>12.0</ele><time>2026-04-03T11:05:38Z</time></trkpt><trkpt lat="45.38142069384669" lon="11.77266109287698"><ele>12.0</ele><time>2026-04-03T11:05:39Z</time></trkpt><trkpt lat="45.381337569697365" lon="11.772377814128559"><ele>12.0</ele><time>2026-04-03T11:05:40Z</time></trkpt><trkpt lat="45.381254156210474" lon="11.77209638762495"><ele>12.0</ele><time>2026-04-03T11:05:41Z</time></trkpt><trkpt lat="45.38117147838337" lon="11.771815636060905"><ele>12.0</ele><time>2026-04-03T11:05:42Z</time></trkpt><trkpt lat="45.381087144111135" lon="11.771536448065628"><ele>12.0</ele><time>2026-04-03T11:05:43Z</time></trkpt><trkpt lat="45.38100104087088" lon="11.771263047652798"><ele>12.333333333333332</ele><time>2026-04-03T11:05:44Z</time></trkpt><trkpt lat="45.380917260293735" lon="11.770987641787872"><ele>12.666666666666666</ele><time>2026-04-03T11:05:45Z</time></trkpt><trkpt lat="45.38083478846399" lon="11.770711371733539"><ele>13.0</ele><time>2026-04-03T11:05:46Z</time></trkpt><trkpt lat="45.380753957654754" lon="11.770436875841858"><ele>13.333333333333332</ele><time>2026-04-03T11:05:47Z</time></trkpt><trkpt lat="45.380669900171085" lon="11.770163105522851"><ele>13.666666666666668</ele><time>2026-04-03T11:05:48Z</time></trkpt><trkpt lat="45.38058753178242" lon="11.769887109764532"><ele>14.0</ele><time>2026-04-03T11:05:49Z</time></trkpt><trkpt lat="45.380502730393054" lon="11.769604807878947"><ele>13.666666666666668</ele><time>2026-04-03T11:05:50Z</time></trkpt><trkpt lat="45.38042340949111" lon="11.7693210049376"><ele>13.333333333333332</ele><time>2026-04-03T11:05:51Z</time></trkpt><trkpt lat="45.38034213130632" lon="11.769045675766815"><ele>13.0</ele><time>2026-04-03T11:05:52Z</time></trkpt><trkpt lat="45.38026405313602" lon="11.768787148346687"><ele>13.0</ele><time>2026-04-03T11:05:53Z</time></trkpt><trkpt lat="45.38019116067117" lon="11.76854329804675"><ele>13.0</ele><time>2026-04-03T11:05:54Z</time></trkpt><trkpt lat="45.380125387190475" lon="11.768322807091055"><ele>13.0</ele><time>2026-04-03T11:05:55Z</time></trkpt><trkpt lat="45.38006341289272" lon="11.768122715575533"><ele>13.0</ele><time>2026-04-03T11:05:56Z</time></trkpt><trkpt lat="45.38000824468855" lon="11.767936902264415"><ele>13.0</ele><time>2026-04-03T11:05:57Z</time></trkpt><trkpt lat="45.379961414791005" lon="11.767781215249638"><ele>13.0</ele><time>2026-04-03T11:05:58Z</time></trkpt><trkpt lat="45.379920732805836" lon="11.76765061277937"><ele>13.0</ele><time>2026-04-03T11:05:59Z</time></trkpt><trkpt lat="45.37989070611067" lon="11.767536391278838"><ele>13.0</ele><time>2026-04-03T11:06:00Z</time></trkpt><trkpt lat="45.37989111677893" lon="11.767420979406236"><ele>13.0</ele><time>2026-04-03T11:06:01Z</time></trkpt><trkpt lat="45.37986356705773" lon="11.767316434147483"><ele>13.0</ele><time>2026-04-03T11:06:02Z</time></trkpt><trkpt lat="45.3798220655665" lon="11.767197645778271"><ele>13.0</ele><time>2026-04-03T11:06:03Z</time></trkpt><trkpt lat="45.37975229508088" lon="11.767070227980208"><ele>13.0</ele><time>2026-04-03T11:06:04Z</time></trkpt><trkpt lat="45.37968477068039" lon="11.766911906750464"><ele>13.0</ele><time>2026-04-03T11:06:05Z</time></trkpt><trkpt lat="45.379648985090384" lon="11.766714421216951"><ele>13.0</ele><time>2026-04-03T11:06:06Z</time></trkpt><trkpt lat="45.37956649065879" lon="11.766527699223293"><ele>13.0</ele><time>2026-04-03T11:06:07Z</time></trkpt><trkpt lat="45.37951269650944" lon="11.766326360819463"><ele>13.0</ele><time>2026-04-03T11:06:08Z</time></trkpt><trkpt lat="45.37945371231057" lon="11.766113976714362"><ele>13.333333333333332</ele><time>2026-04-03T11:06:09Z</time></trkpt><trkpt lat="45.379383809191594" lon="11.765887804407233"><ele>13.666666666666668</ele><time>2026-04-03T11:06:10Z</time></trkpt><trkpt lat="45.37932490436226" lon="11.765633756760556"><ele>14.0</ele><time>2026-04-03T11:06:11Z</time></trkpt><trkpt lat="45.37925650867663" lon="11.765388442092542"><ele>14.333333333333334</ele><time>2026-04-03T11:06:12Z</time></trkpt><trkpt lat="45.37917563952801" lon="11.765142877156931"><ele>14.666666666666668</ele><time>2026-04-03T11:06:13Z</time></trkpt><trkpt lat="45.37909603285611" lon="11.764882357161985"><ele>15.0</ele><time>2026-04-03T11:06:14Z</time></trkpt><trkpt lat="45.379016073199786" lon="11.764608702905754"><ele>15.0</ele><time>2026-04-03T11:06:15Z</time></trkpt><trkpt lat="45.378938018858015" lon="11.764336627904314"><ele>15.0</ele><time>2026-04-03T11:06:16Z</time></trkpt><trkpt lat="45.3788557999091" lon="11.76406773581767"><ele>15.0</ele><time>2026-04-03T11:06:17Z</time></trkpt><trkpt lat="45.37876929746401" lon="11.763789141509395"><ele>15.0</ele><time>2026-04-03T11:06:18Z</time></trkpt><trkpt lat="45.378685053928365" lon="11.763511099883823"><ele>15.0</ele><time>2026-04-03T11:06:19Z</time></trkpt><trkpt lat="45.37860670154763" lon="11.763240686990654"><ele>15.0</ele><time>2026-04-03T11:06:20Z</time></trkpt><trkpt lat="45.378529894433626" lon="11.76296568163057"><ele>15.0</ele><time>2026-04-03T11:06:21Z</time></trkpt><trkpt lat="45.3784512838365" lon="11.76269419290629"><ele>15.0</ele><time>2026-04-03T11:06:22Z</time></trkpt><trkpt lat="45.378366223315105" lon="11.762423512164233"><ele>15.0</ele><time>2026-04-03T11:06:23Z</time></trkpt><trkpt lat="45.37828167391578" lon="11.762144855393231"><ele>15.0</ele><time>2026-04-03T11:06:24Z</time></trkpt><trkpt lat="45.37819932265321" lon="11.761870141251444"><ele>15.0</ele><time>2026-04-03T11:06:25Z</time></trkpt><trkpt lat="45.37812345556984" lon="11.761598123357443"><ele>15.0</ele><time>2026-04-03T11:06:26Z</time></trkpt><trkpt lat="45.378037756577136" lon="11.76133938342209"><ele>15.333333333333332</ele><time>2026-04-03T11:06:27Z</time></trkpt><trkpt lat="45.37796460738776" lon="11.76107399702574"><ele>15.666666666666666</ele><time>2026-04-03T11:06:28Z</time></trkpt><trkpt lat="45.3778880304929" lon="11.760822774545462"><ele>16.0</ele><time>2026-04-03T11:06:29Z</time></trkpt><trkpt lat="45.377824284633554" lon="11.760592251628168"><ele>16.0</ele><time>2026-04-03T11:06:30Z</time></trkpt><trkpt lat="45.37775595871262" lon="11.760390168613734"><ele>16.0</ele><time>2026-04-03T11:06:31Z</time></trkpt><trkpt lat="45.37770147941881" lon="11.76019841479194"><ele>16.0</ele><time>2026-04-03T11:06:32Z</time></trkpt><trkpt lat="45.37764871730026" lon="11.760019724084081"><ele>16.0</ele><time>2026-04-03T11:06:33Z</time></trkpt><trkpt lat="45.37759526764694" lon="11.759853223626004"><ele>16.25</ele><time>2026-04-03T11:06:34Z</time></trkpt><trkpt lat="45.3775460272984" lon="11.759684105034818"><ele>16.5</ele><time>2026-04-03T11:06:35Z</time></trkpt><trkpt lat="45.37749704355559" lon="11.759508259095869"><ele>16.75</ele><time>2026-04-03T11:06:36Z</time></trkpt><trkpt lat="45.37744188401118" lon="11.759327419935632"><ele>17.0</ele><time>2026-04-03T11:06:37Z</time></trkpt><trkpt lat="45.3773907885831" lon="11.75916010820355"><ele>16.5</ele><time>2026-04-03T11:06:38Z</time></trkpt><trkpt lat="45.37734361260311" lon="11.758991816805477"><ele>16.0</ele><time>2026-04-03T11:06:39Z</time></trkpt><trkpt lat="45.37728242389475" lon="11.758821510566088"><ele>15.5</ele><time>2026-04-03T11:06:40Z</time></trkpt><trkpt lat="45.377218992435594" lon="11.75864602054074"><ele>15.0</ele><time>2026-04-03T11:06:41Z</time></trkpt><trkpt lat="45.37715760422269" lon="11.758452904802146"><ele>14.666666666666668</ele><time>2026-04-03T11:06:42Z</time></trkpt><trkpt lat="45.377098084933706" lon="11.758242683954872"><ele>14.333333333333334</ele><time>2026-04-03T11:06:43Z</time></trkpt><trkpt lat="45.37703439712646" lon="11.758010896339327"><ele>14.0</ele><time>2026-04-03T11:06:44Z</time></trkpt><trkpt lat="45.37697026343655" lon="11.757787823022934"><ele>14.0</ele><time>2026-04-03T11:06:45Z</time></trkpt><trkpt lat="45.376901043676455" lon="11.757567958348249"><ele>14.0</ele><time>2026-04-03T11:06:46Z</time></trkpt><trkpt lat="45.37682634110242" lon="11.757336263427465"><ele>14.0</ele><time>2026-04-03T11:06:47Z</time></trkpt><trkpt lat="45.376756778570645" lon="11.757110774701735"><ele>14.0</ele><time>2026-04-03T11:06:48Z</time></trkpt><trkpt lat="45.37667738421783" lon="11.756868157229542"><ele>14.0</ele><time>2026-04-03T11:06:49Z</time></trkpt><trkpt lat="45.37661476476743" lon="11.756607727492112"><ele>14.0</ele><time>2026-04-03T11:06:50Z</time></trkpt><trkpt lat="45.37653860597717" lon="11.756357072965589"><ele>14.0</ele><time>2026-04-03T11:06:51Z</time></trkpt><trkpt lat="45.37646218792249" lon="11.756105985392326"><ele>14.0</ele><time>2026-04-03T11:06:52Z</time></trkpt><trkpt lat="45.37637494731078" lon="11.755869509693158"><ele>14.0</ele><time>2026-04-03T11:06:53Z</time></trkpt><trkpt lat="45.376305539102" lon="11.755638457751544"><ele>14.0</ele><time>2026-04-03T11:06:54Z</time></trkpt><trkpt lat="45.376242742176345" lon="11.755418462826762"><ele>14.0</ele><time>2026-04-03T11:06:55Z</time></trkpt><trkpt lat="45.37617547761085" lon="11.755199914164939"><ele>14.0</ele><time>2026-04-03T11:06:56Z</time></trkpt><trkpt lat="45.37610679738549" lon="11.754974266223096"><ele>14.0</ele><time>2026-04-03T11:06:57Z</time></trkpt><trkpt lat="45.37605121651299" lon="11.75473768849625"><ele>14.0</ele><time>2026-04-03T11:06:58Z</time></trkpt><trkpt lat="45.375983532172704" lon="11.754512584257471"><ele>14.0</ele><time>2026-04-03T11:06:59Z</time></trkpt><trkpt lat="45.375913573082926" lon="11.754279646673668"><ele>13.666666666666668</ele><time>2026-04-03T11:07:00Z</time></trkpt><trkpt lat="45.37583949233968" lon="11.75403298536269"><ele>13.333333333333332</ele><time>2026-04-03T11:07:01Z</time></trkpt><trkpt lat="45.37576342233621" lon="11.753782034368879"><ele>13.0</ele><time>2026-04-03T11:07:02Z</time></trkpt><trkpt lat="45.37568659432584" lon="11.753528467336915"><ele>12.666666666666666</ele><time>2026-04-03T11:07:03Z</time></trkpt><trkpt lat="45.37559679103771" lon="11.753288534926954"><ele>12.333333333333332</ele><time>2026-04-03T11:07:04Z</time></trkpt><trkpt lat="45.37552461364498" lon="11.753033373687877"><ele>12.0</ele><time>2026-04-03T11:07:05Z</time></trkpt><trkpt lat="45.37544725486013" lon="11.75278657516872"><ele>12.333333333333332</ele><time>2026-04-03T11:07:06Z</time></trkpt><trkpt lat="45.375384998400676" lon="11.752533617726264"><ele>12.666666666666666</ele><time>2026-04-03T11:07:07Z</time></trkpt><trkpt lat="45.375311105456085" lon="11.75228985480373"><ele>13.0</ele><time>2026-04-03T11:07:08Z</time></trkpt><trkpt lat="45.37523784037969" lon="11.752047041033485"><ele>13.0</ele><time>2026-04-03T11:07:09Z</time></trkpt><trkpt lat="45.375167460073456" lon="11.751813165860796"><ele>13.0</ele><time>2026-04-03T11:07:10Z</time></trkpt><trkpt lat="45.375103733506506" lon="11.751603847951948"><ele>13.0</ele><time>2026-04-03T11:07:11Z</time></trkpt><trkpt lat="45.37504398519868" lon="11.75140712644228"><ele>13.0</ele><time>2026-04-03T11:07:12Z</time></trkpt><trkpt lat="45.374983976293244" lon="11.751209546726178"><ele>13.0</ele><time>2026-04-03T11:07:13Z</time></trkpt><trkpt lat="45.37492692609492" lon="11.751021708794486"><ele>13.0</ele><time>2026-04-03T11:07:14Z</time></trkpt><trkpt lat="45.374866079142656" lon="11.75085634226266"><ele>13.0</ele><time>2026-04-03T11:07:15Z</time></trkpt><trkpt lat="45.3748233879871" lon="11.750691616653882"><ele>13.25</ele><time>2026-04-03T11:07:16Z</time></trkpt><trkpt lat="45.37477725611335" lon="11.750542141167944"><ele>13.5</ele><time>2026-04-03T11:07:17Z</time></trkpt><trkpt lat="45.37473512355409" lon="11.750381162704297"><ele>13.75</ele><time>2026-04-03T11:07:18Z</time></trkpt><trkpt lat="45.37468014225841" lon="11.750207299412173"><ele>14.0</ele><time>2026-04-03T11:07:19Z</time></trkpt><trkpt lat="45.374627123199296" lon="11.750024424206611"><ele>14.0</ele><time>2026-04-03T11:07:20Z</time></trkpt><trkpt lat="45.37456872808575" lon="11.749838437540912"><ele>14.0</ele><time>2026-04-03T11:07:21Z</time></trkpt><trkpt lat="45.37450404822577" lon="11.749643812477409"><ele>14.0</ele><time>2026-04-03T11:07:22Z</time></trkpt><trkpt lat="45.37443982645416" lon="11.749448373699249"><ele>14.0</ele><time>2026-04-03T11:07:23Z</time></trkpt><trkpt lat="45.374374695122604" lon="11.749231648800684"><ele>14.0</ele><time>2026-04-03T11:07:24Z</time></trkpt><trkpt lat="45.374318039091776" lon="11.748998866520237"><ele>14.0</ele><time>2026-04-03T11:07:25Z</time></trkpt><trkpt lat="45.37424576412768" lon="11.7487803851394"><ele>14.0</ele><time>2026-04-03T11:07:26Z</time></trkpt><trkpt lat="45.37418635704389" lon="11.748574079607144"><ele>13.666666666666668</ele><time>2026-04-03T11:07:27Z</time></trkpt><trkpt lat="45.37413269387591" lon="11.74835114915137"><ele>13.333333333333332</ele><time>2026-04-03T11:07:28Z</time></trkpt><trkpt lat="45.3740636822981" lon="11.748147470446016"><ele>13.0</ele><time>2026-04-03T11:07:29Z</time></trkpt><trkpt lat="45.37400077834075" lon="11.747941558174881"><ele>13.0</ele><time>2026-04-03T11:07:30Z</time></trkpt><trkpt lat="45.37393549742513" lon="11.747732893567257"><ele>13.0</ele><time>2026-04-03T11:07:31Z</time></trkpt><trkpt lat="45.373866805783166" lon="11.7475268464359"><ele>13.0</ele><time>2026-04-03T11:07:32Z</time></trkpt><trkpt lat="45.373807047572335" lon="11.747328297571208"><ele>13.25</ele><time>2026-04-03T11:07:33Z</time></trkpt><trkpt lat="45.37373912950522" lon="11.747154491307846"><ele>13.5</ele><time>2026-04-03T11:07:34Z</time></trkpt><trkpt lat="45.373693675146434" lon="11.746978330647899"><ele>13.75</ele><time>2026-04-03T11:07:35Z</time></trkpt><trkpt lat="45.3736411597888" lon="11.746805110244743"><ele>14.0</ele><time>2026-04-03T11:07:36Z</time></trkpt><trkpt lat="45.37358939886154" lon="11.746633966995192"><ele>13.5</ele><time>2026-04-03T11:07:37Z</time></trkpt><trkpt lat="45.373536161330975" lon="11.746476900340976"><ele>13.0</ele><time>2026-04-03T11:07:38Z</time></trkpt><trkpt lat="45.37348025292487" lon="11.74633674395789"><ele>12.5</ele><time>2026-04-03T11:07:39Z</time></trkpt><trkpt lat="45.37341561687456" lon="11.746194037507681"><ele>12.0</ele><time>2026-04-03T11:07:40Z</time></trkpt><trkpt lat="45.3733461412659" lon="11.746064442636955"><ele>12.0</ele><time>2026-04-03T11:07:41Z</time></trkpt><trkpt lat="45.373271018211135" lon="11.745944630052263"><ele>12.0</ele><time>2026-04-03T11:07:42Z</time></trkpt><trkpt lat="45.37320624932356" lon="11.745842563822599"><ele>12.0</ele><time>2026-04-03T11:07:43Z</time></trkpt><trkpt lat="45.37314037555196" lon="11.745741020702363"><ele>12.0</ele><time>2026-04-03T11:07:44Z</time></trkpt><trkpt lat="45.37307153255916" lon="11.745643891150594"><ele>12.0</ele><time>2026-04-03T11:07:45Z</time></trkpt><trkpt lat="45.37299958787976" lon="11.745553158618753"><ele>12.399999999999999</ele><time>2026-04-03T11:07:46Z</time></trkpt><trkpt lat="45.37292320630787" lon="11.745461378335595"><ele>12.799999999999999</ele><time>2026-04-03T11:07:47Z</time></trkpt><trkpt lat="45.372862623284206" lon="11.745381766087455"><ele>13.2</ele><time>2026-04-03T11:07:48Z</time></trkpt><trkpt lat="45.37281357092362" lon="11.745315002923181"><ele>13.6</ele><time>2026-04-03T11:07:49Z</time></trkpt><trkpt lat="45.372743331567335" lon="11.74519968558999"><ele>14.0</ele><time>2026-04-03T11:07:51Z</time></trkpt><trkpt lat="45.372697556089676" lon="11.74504017139399"><ele>14.0</ele><time>2026-04-03T11:07:53Z</time></trkpt><trkpt lat="45.37265009589856" lon="11.744956150377474"><ele>13.999999999999998</ele><time>2026-04-03T11:07:54Z</time></trkpt><trkpt lat="45.37256226348147" lon="11.74486651963359"><ele>13.999999999999998</ele><time>2026-04-03T11:07:56Z</time></trkpt><trkpt lat="45.37245401215434" lon="11.744754259034417"><ele>14.0</ele><time>2026-04-03T11:07:58Z</time></trkpt><trkpt lat="45.3724115850662" lon="11.744643471930573"><ele>14.0</ele><time>2026-04-03T11:07:59Z</time></trkpt><trkpt lat="45.372371671492644" lon="11.744495722871703"><ele>14.0</ele><time>2026-04-03T11:08:00Z</time></trkpt><trkpt lat="45.3723630092392" lon="11.744318641562336"><ele>14.0</ele><time>2026-04-03T11:08:01Z</time></trkpt><trkpt lat="45.37233303875034" lon="11.744141420596888"><ele>14.0</ele><time>2026-04-03T11:08:02Z</time></trkpt><trkpt lat="45.37234384678634" lon="11.743985699840206"><ele>14.0</ele><time>2026-04-03T11:08:03Z</time></trkpt><trkpt lat="45.372359134124274" lon="11.743846936553586"><ele>14.000000000000002</ele><time>2026-04-03T11:08:04Z</time></trkpt><trkpt lat="45.37238946772787" lon="11.743726150337757"><ele>14.0</ele><time>2026-04-03T11:08:05Z</time></trkpt><trkpt lat="45.372419807571156" lon="11.74362663684007"><ele>14.0</ele><time>2026-04-03T11:08:06Z</time></trkpt><trkpt lat="45.37241580090036" lon="11.74352123037251"><ele>14.0</ele><time>2026-04-03T11:08:07Z</time></trkpt><trkpt lat="45.372387770662144" lon="11.743399246597486"><ele>14.000000000000002</ele><time>2026-04-03T11:08:08Z</time></trkpt><trkpt lat="45.3723450960855" lon="11.743262659615844"><ele>14.0</ele><time>2026-04-03T11:08:09Z</time></trkpt><trkpt lat="45.37232335730537" lon="11.743097367720035"><ele>14.0</ele><time>2026-04-03T11:08:10Z</time></trkpt><trkpt lat="45.37228292167983" lon="11.742934443477452"><ele>13.999999999999998</ele><time>2026-04-03T11:08:11Z</time></trkpt><trkpt lat="45.37228673605568" lon="11.74280172492711"><ele>13.999999999999998</ele><time>2026-04-03T11:08:12Z</time></trkpt><trkpt lat="45.37228585498944" lon="11.742701533063286"><ele>14.0</ele><time>2026-04-03T11:08:13Z</time></trkpt><trkpt lat="45.3722860887603" lon="11.742588817737031"><ele>14.0</ele><time>2026-04-03T11:08:15Z</time></trkpt><trkpt lat="45.37226350244147" lon="11.742416528138802"><ele>14.0</ele><time>2026-04-03T11:08:18Z</time></trkpt><trkpt lat="45.37225177391535" lon="11.742272232232402"><ele>14.0</ele><time>2026-04-03T11:08:19Z</time></trkpt><trkpt lat="45.37223943455311" lon="11.742107604690254"><ele>14.0</ele><time>2026-04-03T11:08:20Z</time></trkpt><trkpt lat="45.37223308608433" lon="11.741931715385677"><ele>14.0</ele><time>2026-04-03T11:08:21Z</time></trkpt><trkpt lat="45.372226550878516" lon="11.741737108347841"><ele>14.0</ele><time>2026-04-03T11:08:22Z</time></trkpt><trkpt lat="45.372214151113184" lon="11.74152814514879"><ele>14.0</ele><time>2026-04-03T11:08:23Z</time></trkpt><trkpt lat="45.372211330538306" lon="11.741290932439682"><ele>14.0</ele><time>2026-04-03T11:08:24Z</time></trkpt><trkpt lat="45.37220465990595" lon="11.741059197476583"><ele>14.0</ele><time>2026-04-03T11:08:25Z</time></trkpt><trkpt lat="45.37219524361808" lon="11.740810330374593"><ele>14.0</ele><time>2026-04-03T11:08:26Z</time></trkpt><trkpt lat="45.37218021937837" lon="11.74054756933207"><ele>14.0</ele><time>2026-04-03T11:08:27Z</time></trkpt><trkpt lat="45.37216427067724" lon="11.7402697340552"><ele>13.666666666666668</ele><time>2026-04-03T11:08:28Z</time></trkpt><trkpt lat="45.372149888429966" lon="11.739996494385174"><ele>13.333333333333332</ele><time>2026-04-03T11:08:29Z</time></trkpt><trkpt lat="45.37214011326402" lon="11.739735058603035"><ele>13.0</ele><time>2026-04-03T11:08:30Z</time></trkpt><trkpt lat="45.37212696787855" lon="11.73947240005712"><ele>13.333333333333332</ele><time>2026-04-03T11:08:31Z</time></trkpt><trkpt lat="45.372112670024286" lon="11.739198203949895"><ele>13.666666666666668</ele><time>2026-04-03T11:08:32Z</time></trkpt><trkpt lat="45.372101908386405" lon="11.738936268025022"><ele>14.0</ele><time>2026-04-03T11:08:33Z</time></trkpt><trkpt lat="45.37209016096469" lon="11.738695747428396"><ele>14.0</ele><time>2026-04-03T11:08:34Z</time></trkpt><trkpt lat="45.372077574469955" lon="11.73848550292982"><ele>14.0</ele><time>2026-04-03T11:08:35Z</time></trkpt><trkpt lat="45.37206224630876" lon="11.738280902768787"><ele>14.0</ele><time>2026-04-03T11:08:36Z</time></trkpt><trkpt lat="45.372051468918855" lon="11.738069737277915"><ele>14.0</ele><time>2026-04-03T11:08:37Z</time></trkpt><trkpt lat="45.37204161194338" lon="11.737850863826933"><ele>13.75</ele><time>2026-04-03T11:08:38Z</time></trkpt><trkpt lat="45.372035390795354" lon="11.737655785700488"><ele>13.5</ele><time>2026-04-03T11:08:39Z</time></trkpt><trkpt lat="45.37202464910931" lon="11.737479040037812"><ele>13.25</ele><time>2026-04-03T11:08:40Z</time></trkpt><trkpt lat="45.37201431241405" lon="11.737309181331137"><ele>13.0</ele><time>2026-04-03T11:08:41Z</time></trkpt><trkpt lat="45.3720155827914" lon="11.737160432785268"><ele>13.0</ele><time>2026-04-03T11:08:42Z</time></trkpt><trkpt lat="45.37200962293872" lon="11.737011594530884"><ele>13.0</ele><time>2026-04-03T11:08:43Z</time></trkpt><trkpt lat="45.372000938002365" lon="11.736851945692743"><ele>13.0</ele><time>2026-04-03T11:08:44Z</time></trkpt><trkpt lat="45.37198643461273" lon="11.736705043675112"><ele>13.0</ele><time>2026-04-03T11:08:45Z</time></trkpt><trkpt lat="45.371977352021474" lon="11.736587090037116"><ele>13.0</ele><time>2026-04-03T11:08:46Z</time></trkpt><trkpt lat="45.37196538433511" lon="11.736493526848164"><ele>13.25</ele><time>2026-04-03T11:08:47Z</time></trkpt><trkpt lat="45.371847495799884" lon="11.73647010074784"><ele>13.5</ele><time>2026-04-03T11:08:49Z</time></trkpt><trkpt lat="45.37175124525456" lon="11.736424756443173"><ele>13.75</ele><time>2026-04-03T11:08:50Z</time></trkpt><trkpt lat="45.37163168515427" lon="11.736410070814198"><ele>14.0</ele><time>2026-04-03T11:08:51Z</time></trkpt><trkpt lat="45.37149017701907" lon="11.736386035627456"><ele>13.333333333333334</ele><time>2026-04-03T11:08:52Z</time></trkpt><trkpt lat="45.37133979063815" lon="11.7363600092502"><ele>12.666666666666668</ele><time>2026-04-03T11:08:53Z</time></trkpt><trkpt lat="45.37117609443751" lon="11.736329055534563"><ele>12.0</ele><time>2026-04-03T11:08:54Z</time></trkpt><trkpt lat="45.371003011457276" lon="11.73629403720655"><ele>12.0</ele><time>2026-04-03T11:08:55Z</time></trkpt><trkpt lat="45.370826293995826" lon="11.736259046888986"><ele>12.0</ele><time>2026-04-03T11:08:56Z</time></trkpt><trkpt lat="45.37064908302323" lon="11.736224938704096"><ele>12.0</ele><time>2026-04-03T11:08:57Z</time></trkpt><trkpt lat="45.37046416010669" lon="11.736190436151983"><ele>11.666666666666666</ele><time>2026-04-03T11:08:58Z</time></trkpt><trkpt lat="45.37028085208046" lon="11.73615466788136"><ele>11.333333333333332</ele><time>2026-04-03T11:08:59Z</time></trkpt><trkpt lat="45.370091035527615" lon="11.736119602621079"><ele>11.0</ele><time>2026-04-03T11:09:00Z</time></trkpt><trkpt lat="45.36989860380455" lon="11.736084549944234"><ele>11.333333333333332</ele><time>2026-04-03T11:09:01Z</time></trkpt><trkpt lat="45.36970885241181" lon="11.736044465557402"><ele>11.666666666666666</ele><time>2026-04-03T11:09:02Z</time></trkpt><trkpt lat="45.36951457760789" lon="11.73600626704492"><ele>12.0</ele><time>2026-04-03T11:09:03Z</time></trkpt><trkpt lat="45.36934717795359" lon="11.73596425179017"><ele>12.0</ele><time>2026-04-03T11:09:04Z</time></trkpt><trkpt lat="45.36918725382958" lon="11.735937823396922"><ele>12.0</ele><time>2026-04-03T11:09:05Z</time></trkpt><trkpt lat="45.369053080627175" lon="11.73590822420948"><ele>12.0</ele><time>2026-04-03T11:09:06Z</time></trkpt><trkpt lat="45.36894787001237" lon="11.735890168918845"><ele>12.0</ele><time>2026-04-03T11:09:07Z</time></trkpt><trkpt lat="45.368851699009426" lon="11.735865791915735"><ele>11.8</ele><time>2026-04-03T11:09:08Z</time></trkpt><trkpt lat="45.3687575087566" lon="11.735851580075929"><ele>11.6</ele><time>2026-04-03T11:09:09Z</time></trkpt><trkpt lat="45.3686534589531" lon="11.735822860138414"><ele>11.4</ele><time>2026-04-03T11:09:10Z</time></trkpt><trkpt lat="45.36855300872596" lon="11.735805571702775"><ele>11.200000000000001</ele><time>2026-04-03T11:09:11Z</time></trkpt><trkpt lat="45.36844398945243" lon="11.735787426054872"><ele>11.0</ele><time>2026-04-03T11:09:12Z</time></trkpt><trkpt lat="45.36832615689958" lon="11.735767977732948"><ele>11.0</ele><time>2026-04-03T11:09:13Z</time></trkpt><trkpt lat="45.368209912182834" lon="11.735747260548495"><ele>11.0</ele><time>2026-04-03T11:09:14Z</time></trkpt><trkpt lat="45.36811039308423" lon="11.735714663551125"><ele>11.0</ele><time>2026-04-03T11:09:15Z</time></trkpt><trkpt lat="45.36802769498178" lon="11.735702950753849"><ele>11.0</ele><time>2026-04-03T11:09:16Z</time></trkpt><trkpt lat="45.36796047817307" lon="11.735692628028625"><ele>11.0</ele><time>2026-04-03T11:09:17Z</time></trkpt><trkpt lat="45.36789988456005" lon="11.735645764178999"><ele>11.0</ele><time>2026-04-03T11:09:19Z</time></trkpt><trkpt lat="45.36792266029616" lon="11.735515126711853"><ele>11.333333333333332</ele><time>2026-04-03T11:09:21Z</time></trkpt><trkpt lat="45.367902527342466" lon="11.735420693642087"><ele>11.666666666666666</ele><time>2026-04-03T11:09:22Z</time></trkpt><trkpt lat="45.36790382177627" lon="11.735306654691948"><ele>12.0</ele><time>2026-04-03T11:09:23Z</time></trkpt><trkpt lat="45.36790710985461" lon="11.73517737374788"><ele>12.333333333333332</ele><time>2026-04-03T11:09:24Z</time></trkpt><trkpt lat="45.36792598160368" lon="11.73503321657225"><ele>12.666666666666666</ele><time>2026-04-03T11:09:25Z</time></trkpt><trkpt lat="45.36795295488513" lon="11.734888604563467"><ele>13.0</ele><time>2026-04-03T11:09:26Z</time></trkpt><trkpt lat="45.367969663605386" lon="11.73474317384545"><ele>14.0</ele><time>2026-04-03T11:09:27Z</time></trkpt><trkpt lat="45.3679808357171" lon="11.734595247325016"><ele>15.0</ele><time>2026-04-03T11:09:28Z</time></trkpt><trkpt lat="45.36799033183286" lon="11.734474607093668"><ele>16.0</ele><time>2026-04-03T11:09:29Z</time></trkpt><trkpt lat="45.3680254626202" lon="11.734349110841112"><ele>17.0</ele><time>2026-04-03T11:09:30Z</time></trkpt><trkpt lat="45.36807868005885" lon="11.734224903651958"><ele>18.0</ele><time>2026-04-03T11:09:31Z</time></trkpt><trkpt lat="45.36813624257214" lon="11.734139585866311"><ele>18.0</ele><time>2026-04-03T11:09:32Z</time></trkpt><trkpt lat="45.36820513568067" lon="11.734105936622097"><ele>18.0</ele><time>2026-04-03T11:09:33Z</time></trkpt><trkpt lat="45.36828063703011" lon="11.733971776668822"><ele>18.0</ele><time>2026-04-03T11:09:35Z</time></trkpt><trkpt lat="45.36832277396192" lon="11.733892589003288"><ele>18.0</ele><time>2026-04-03T11:09:36Z</time></trkpt><trkpt lat="45.36831585539938" lon="11.733752988327591"><ele>18.0</ele><time>2026-04-03T11:09:38Z</time></trkpt><trkpt lat="45.36832234496451" lon="11.733660133415434"><ele>18.0</ele><time>2026-04-03T11:09:41Z</time></trkpt><trkpt lat="45.36845489196185" lon="11.733750850132063"><ele>18.0</ele><time>2026-04-03T11:09:46Z</time></trkpt><trkpt lat="45.36843868260755" lon="11.733853849453162"><ele>18.0</ele><time>2026-04-03T11:09:48Z</time></trkpt><trkpt lat="45.36838140434976" lon="11.733912977977042"><ele>18.0</ele><time>2026-04-03T11:09:49Z</time></trkpt><trkpt lat="45.368320216663136" lon="11.733994826626207"><ele>18.0</ele><time>2026-04-03T11:09:50Z</time></trkpt><trkpt lat="45.368248550172865" lon="11.734071740690382"><ele>18.0</ele><time>2026-04-03T11:09:51Z</time></trkpt><trkpt lat="45.368185244672915" lon="11.734131200016897"><ele>18.0</ele><time>2026-04-03T11:09:52Z</time></trkpt><trkpt lat="45.368127091052486" lon="11.734176106027855"><ele>18.0</ele><time>2026-04-03T11:09:54Z</time></trkpt><trkpt lat="45.36808823562535" lon="11.734265200415837"><ele>18.0</ele><time>2026-04-03T11:09:58Z</time></trkpt><trkpt lat="45.36802184351145" lon="11.734412366247593"><ele>18.0</ele><time>2026-04-03T11:10:00Z</time></trkpt><trkpt lat="45.367993928341335" lon="11.734504136529088"><ele>18.0</ele><time>2026-04-03T11:10:01Z</time></trkpt><trkpt lat="45.36800388576613" lon="11.734615838373482"><ele>18.0</ele><time>2026-04-03T11:10:03Z</time></trkpt><trkpt lat="45.36799056795787" lon="11.734495881013332"><ele>18.0</ele><time>2026-04-03T11:10:10Z</time></trkpt><trkpt lat="45.36802429469229" lon="11.734405631288169"><ele>18.0</ele><time>2026-04-03T11:10:11Z</time></trkpt><trkpt lat="45.36806251769208" lon="11.734305169341855"><ele>18.0</ele><time>2026-04-03T11:10:12Z</time></trkpt><trkpt lat="45.36810937493654" lon="11.734203315112472"><ele>18.0</ele><time>2026-04-03T11:10:13Z</time></trkpt><trkpt lat="45.36818623757344" lon="11.734137379893546"><ele>18.0</ele><time>2026-04-03T11:10:14Z</time></trkpt><trkpt lat="45.36824268783561" lon="11.73404309311744"><ele>18.0</ele><time>2026-04-03T11:10:15Z</time></trkpt><trkpt lat="45.3682910262603" lon="11.733927573443594"><ele>18.0</ele><time>2026-04-03T11:10:16Z</time></trkpt><trkpt lat="45.36830928562307" lon="11.733795458680323"><ele>18.0</ele><time>2026-04-03T11:10:17Z</time></trkpt><trkpt lat="45.36831955672449" lon="11.733685053957103"><ele>18.0</ele><time>2026-04-03T11:10:18Z</time></trkpt><trkpt lat="45.368297948092604" lon="11.733597763208172"><ele>18.0</ele><time>2026-04-03T11:10:19Z</time></trkpt><trkpt lat="45.36831360939561" lon="11.733500830374412"><ele>18.0</ele><time>2026-04-03T11:10:26Z</time></trkpt><trkpt lat="45.36832305851525" lon="11.733376898981755"><ele>18.0</ele><time>2026-04-03T11:10:28Z</time></trkpt><trkpt lat="45.36837784376451" lon="11.73319911800583"><ele>18.0</ele><time>2026-04-03T11:10:30Z</time></trkpt><trkpt lat="45.3684261088187" lon="11.73313566691086"><ele>22.2</ele><time>2026-04-03T11:10:31Z</time></trkpt><trkpt lat="45.368504958870645" lon="11.733002462256422"><ele>26.4</ele><time>2026-04-03T11:10:33Z</time></trkpt><trkpt lat="45.36859238577755" lon="11.73288060179644"><ele>30.599999999999998</ele><time>2026-04-03T11:10:35Z</time></trkpt><trkpt lat="45.36863530804571" lon="11.732808061489221"><ele>34.8</ele><time>2026-04-03T11:10:36Z</time></trkpt><trkpt lat="45.36868560863045" lon="11.732679284320291"><ele>39.0</ele><time>2026-04-03T11:10:38Z</time></trkpt><trkpt lat="45.36872093996375" lon="11.732525247984242"><ele>43.666666666666664</ele><time>2026-04-03T11:10:40Z</time></trkpt><trkpt lat="45.36874451665455" lon="11.732416920170923"><ele>48.33333333333333</ele><time>2026-04-03T11:10:41Z</time></trkpt><trkpt lat="45.368767540964754" lon="11.732302578253655"><ele>53.0</ele><time>2026-04-03T11:10:42Z</time></trkpt><trkpt lat="45.368793781493736" lon="11.732183498528581"><ele>57.666666666666664</ele><time>2026-04-03T11:10:43Z</time></trkpt><trkpt lat="45.36881495815843" lon="11.732085495833616"><ele>62.33333333333333</ele><time>2026-04-03T11:10:44Z</time></trkpt><trkpt lat="45.368845881670836" lon="11.731942385438177"><ele>67.0</ele><time>2026-04-03T11:10:46Z</time></trkpt><trkpt lat="45.36885599251242" lon="11.731853385532181"><ele>67.0</ele><time>2026-04-03T11:10:50Z</time></trkpt><trkpt lat="45.36883431751604" lon="11.731995903775434"><ele>67.0</ele><time>2026-04-03T11:10:57Z</time></trkpt><trkpt lat="45.368805467198804" lon="11.732129419532887"><ele>67.0</ele><time>2026-04-03T11:10:59Z</time></trkpt><trkpt lat="45.36877678824708" lon="11.732256365269746"><ele>67.0</ele><time>2026-04-03T11:11:01Z</time></trkpt><trkpt lat="45.36874476855138" lon="11.73241566953011"><ele>67.0</ele><time>2026-04-03T11:11:03Z</time></trkpt><trkpt lat="45.36872566812552" lon="11.732505228761097"><ele>67.0</ele><time>2026-04-03T11:11:05Z</time></trkpt><trkpt lat="45.3687016846804" lon="11.732606776263562"><ele>67.0</ele><time>2026-04-03T11:11:07Z</time></trkpt><trkpt lat="45.36873994165439" lon="11.73278915143452"><ele>67.0</ele><time>2026-04-03T11:11:09Z</time></trkpt><trkpt lat="45.36864575546202" lon="11.732903557149111"><ele>67.0</ele><time>2026-04-03T11:11:11Z</time></trkpt><trkpt lat="45.36857305240119" lon="11.732970536691795"><ele>67.0</ele><time>2026-04-03T11:11:13Z</time></trkpt><trkpt lat="45.36848342110942" lon="11.733036928684909"><ele>63.0</ele><time>2026-04-03T11:11:14Z</time></trkpt><trkpt lat="45.368431364892544" lon="11.733099245408175"><ele>59.0</ele><time>2026-04-03T11:11:15Z</time></trkpt><trkpt lat="45.368382642920096" lon="11.733176090422239"><ele>55.0</ele><time>2026-04-03T11:11:16Z</time></trkpt><trkpt lat="45.36835006941466" lon="11.73327068060392"><ele>51.0</ele><time>2026-04-03T11:11:17Z</time></trkpt><trkpt lat="45.36832566420634" lon="11.733366275689514"><ele>47.0</ele><time>2026-04-03T11:11:18Z</time></trkpt><trkpt lat="45.368311953522586" lon="11.733456800406088"><ele>43.0</ele><time>2026-04-03T11:11:20Z</time></trkpt><trkpt lat="45.368299236323274" lon="11.73355402791453"><ele>39.0</ele><time>2026-04-03T11:11:23Z</time></trkpt><trkpt lat="45.36828153955456" lon="11.733743091533736"><ele>34.8</ele><time>2026-04-03T11:11:25Z</time></trkpt><trkpt lat="45.36824837973474" lon="11.733867748365348"><ele>30.599999999999998</ele><time>2026-04-03T11:11:26Z</time></trkpt><trkpt lat="45.36819277155959" lon="11.733999939484356"><ele>26.4</ele><time>2026-04-03T11:11:27Z</time></trkpt><trkpt lat="45.368128490617536" lon="11.734131260131656"><ele>22.2</ele><time>2026-04-03T11:11:28Z</time></trkpt><trkpt lat="45.368083671034064" lon="11.734258063700679"><ele>18.0</ele><time>2026-04-03T11:11:29Z</time></trkpt><trkpt lat="45.36803347139682" lon="11.734380634743628"><ele>20.0</ele><time>2026-04-03T11:11:30Z</time></trkpt><trkpt lat="45.36799263289603" lon="11.734540484273934"><ele>22.0</ele><time>2026-04-03T11:11:31Z</time></trkpt><trkpt lat="45.36795881477864" lon="11.734688716593121"><ele>23.999999999999996</ele><time>2026-04-03T11:11:32Z</time></trkpt><trkpt lat="45.36797844763513" lon="11.73485545620123"><ele>26.0</ele><time>2026-04-03T11:11:33Z</time></trkpt><trkpt lat="45.36797998262474" lon="11.734984391434852"><ele>28.0</ele><time>2026-04-03T11:11:34Z</time></trkpt><trkpt lat="45.367961367131684" lon="11.735104252071938"><ele>25.500000000000004</ele><time>2026-04-03T11:11:35Z</time></trkpt><trkpt lat="45.36793185728814" lon="11.735224552586544"><ele>23.0</ele><time>2026-04-03T11:11:36Z</time></trkpt><trkpt lat="45.36791276623873" lon="11.735346940015235"><ele>20.5</ele><time>2026-04-03T11:11:37Z</time></trkpt><trkpt lat="45.367914477822524" lon="11.73545120977005"><ele>18.0</ele><time>2026-04-03T11:11:38Z</time></trkpt><trkpt lat="45.367931994665696" lon="11.735541078524784"><ele>15.5</ele><time>2026-04-03T11:11:39Z</time></trkpt><trkpt lat="45.36790569086435" lon="11.735666513276955"><ele>13.0</ele><time>2026-04-03T11:11:41Z</time></trkpt><trkpt lat="45.368027515041724" lon="11.735728947759338"><ele>12.600000000000001</ele><time>2026-04-03T11:11:44Z</time></trkpt><trkpt lat="45.3681002547603" lon="11.735737633200573"><ele>12.200000000000001</ele><time>2026-04-03T11:11:45Z</time></trkpt><trkpt lat="45.36821509032803" lon="11.735752313601097"><ele>11.8</ele><time>2026-04-03T11:11:46Z</time></trkpt><trkpt lat="45.36833450028978" lon="11.735784573794414"><ele>11.4</ele><time>2026-04-03T11:11:47Z</time></trkpt><trkpt lat="45.36846370649706" lon="11.735813926070717"><ele>11.0</ele><time>2026-04-03T11:11:48Z</time></trkpt><trkpt lat="45.368587095939425" lon="11.735832292532836"><ele>11.0</ele><time>2026-04-03T11:11:49Z</time></trkpt><trkpt lat="45.368656507250805" lon="11.7358396467521"><ele>11.0</ele><time>2026-04-03T11:11:50Z</time></trkpt><trkpt lat="45.3687521626101" lon="11.735871828659855"><ele>11.0</ele><time>2026-04-03T11:11:51Z</time></trkpt><trkpt lat="45.36884441138756" lon="11.735888364703818"><ele>11.0</ele><time>2026-04-03T11:11:52Z</time></trkpt><trkpt lat="45.368913598573826" lon="11.73589994467172"><ele>11.0</ele><time>2026-04-03T11:11:53Z</time></trkpt><trkpt lat="45.36899758674404" lon="11.735930967295342"><ele>11.0</ele><time>2026-04-03T11:11:55Z</time></trkpt><trkpt lat="45.36909499339726" lon="11.735746772456729"><ele>11.200000000000001</ele><time>2026-04-03T11:11:58Z</time></trkpt><trkpt lat="45.369134707187705" lon="11.735653400966504"><ele>11.4</ele><time>2026-04-03T11:11:59Z</time></trkpt><trkpt lat="45.36921553139607" lon="11.73549394326727"><ele>11.6</ele><time>2026-04-03T11:12:01Z</time></trkpt><trkpt lat="45.36928102431594" lon="11.73541629302363"><ele>11.8</ele><time>2026-04-03T11:12:02Z</time></trkpt><trkpt lat="45.36934984720945" lon="11.735340435584634"><ele>12.0</ele><time>2026-04-03T11:12:03Z</time></trkpt><trkpt lat="45.36942453286247" lon="11.73527099508969"><ele>11.5</ele><time>2026-04-03T11:12:04Z</time></trkpt><trkpt lat="45.36947577628712" lon="11.73517477329597"><ele>11.0</ele><time>2026-04-03T11:12:05Z</time></trkpt><trkpt lat="45.369509456690096" lon="11.735069905397603"><ele>10.5</ele><time>2026-04-03T11:12:06Z</time></trkpt><trkpt lat="45.36953461789843" lon="11.734975587997114"><ele>10.0</ele><time>2026-04-03T11:12:07Z</time></trkpt><trkpt lat="45.36955537881631" lon="11.734876746360873"><ele>9.5</ele><time>2026-04-03T11:12:08Z</time></trkpt><trkpt lat="45.36957113948556" lon="11.734780123768761"><ele>9.0</ele><time>2026-04-03T11:12:09Z</time></trkpt><trkpt lat="45.369586742198756" lon="11.73467746367608"><ele>9.000000000000002</ele><time>2026-04-03T11:12:10Z</time></trkpt><trkpt lat="45.36960069238609" lon="11.734576292498987"><ele>9.0</ele><time>2026-04-03T11:12:11Z</time></trkpt><trkpt lat="45.36961211833369" lon="11.734470136530383"><ele>9.0</ele><time>2026-04-03T11:12:12Z</time></trkpt><trkpt lat="45.36961933382856" lon="11.734368284133216"><ele>9.0</ele><time>2026-04-03T11:12:13Z</time></trkpt><trkpt lat="45.369628212921405" lon="11.7342642892282"><ele>9.0</ele><time>2026-04-03T11:12:14Z</time></trkpt><trkpt lat="45.3696376184845" lon="11.734160305395543"><ele>9.000000000000002</ele><time>2026-04-03T11:12:15Z</time></trkpt><trkpt lat="45.36964882329952" lon="11.734049444624286"><ele>9.0</ele><time>2026-04-03T11:12:16Z</time></trkpt><trkpt lat="45.369662109204604" lon="11.733946740891176"><ele>9.0</ele><time>2026-04-03T11:12:17Z</time></trkpt><trkpt lat="45.36967931951231" lon="11.73384053284186"><ele>9.0</ele><time>2026-04-03T11:12:18Z</time></trkpt><trkpt lat="45.36968469007181" lon="11.733722126303814"><ele>9.0</ele><time>2026-04-03T11:12:19Z</time></trkpt><trkpt lat="45.369711534061494" lon="11.733612877218807"><ele>9.0</ele><time>2026-04-03T11:12:20Z</time></trkpt><trkpt lat="45.3697361631673" lon="11.733481063772631"><ele>9.0</ele><time>2026-04-03T11:12:21Z</time></trkpt><trkpt lat="45.36976437629905" lon="11.733338005441986"><ele>9.0</ele><time>2026-04-03T11:12:22Z</time></trkpt><trkpt lat="45.36981529398238" lon="11.733194065814287"><ele>9.4</ele><time>2026-04-03T11:12:23Z</time></trkpt><trkpt lat="45.36985560842938" lon="11.733046897263156"><ele>9.8</ele><time>2026-04-03T11:12:24Z</time></trkpt><trkpt lat="45.36988664269953" lon="11.732888046598527"><ele>10.200000000000001</ele><time>2026-04-03T11:12:25Z</time></trkpt><trkpt lat="45.36991687160268" lon="11.732741063188183"><ele>10.600000000000001</ele><time>2026-04-03T11:12:26Z</time></trkpt><trkpt lat="45.369934911179676" lon="11.732585003391806"><ele>11.0</ele><time>2026-04-03T11:12:27Z</time></trkpt><trkpt lat="45.369927325759065" lon="11.73242658308021"><ele>11.200000000000001</ele><time>2026-04-03T11:12:28Z</time></trkpt><trkpt lat="45.36994486580956" lon="11.732275462099933"><ele>11.4</ele><time>2026-04-03T11:12:29Z</time></trkpt><trkpt lat="45.36999859960488" lon="11.732143610037634"><ele>11.6</ele><time>2026-04-03T11:12:30Z</time></trkpt><trkpt lat="45.37004534422911" lon="11.731992627867895"><ele>11.8</ele><time>2026-04-03T11:12:31Z</time></trkpt><trkpt lat="45.3700971996972" lon="11.731846613238899"><ele>12.0</ele><time>2026-04-03T11:12:32Z</time></trkpt><trkpt lat="45.37014969986216" lon="11.731698682876582"><ele>13.0</ele><time>2026-04-03T11:12:33Z</time></trkpt><trkpt lat="45.370179683394696" lon="11.731536641249734"><ele>14.0</ele><time>2026-04-03T11:12:34Z</time></trkpt><trkpt lat="45.370207641833" lon="11.731380472878818"><ele>15.0</ele><time>2026-04-03T11:12:35Z</time></trkpt><trkpt lat="45.370233439804345" lon="11.73122400609789"><ele>16.0</ele><time>2026-04-03T11:12:36Z</time></trkpt><trkpt lat="45.370260510714346" lon="11.731064496646772"><ele>17.25</ele><time>2026-04-03T11:12:37Z</time></trkpt><trkpt lat="45.37029019627556" lon="11.730904487968076"><ele>18.5</ele><time>2026-04-03T11:12:38Z</time></trkpt><trkpt lat="45.37031529296915" lon="11.730740295240455"><ele>19.75</ele><time>2026-04-03T11:12:39Z</time></trkpt><trkpt lat="45.37033156512292" lon="11.730577626448616"><ele>21.0</ele><time>2026-04-03T11:12:40Z</time></trkpt><trkpt lat="45.37034077002539" lon="11.730419037716995"><ele>21.0</ele><time>2026-04-03T11:12:41Z</time></trkpt><trkpt lat="45.37035046401187" lon="11.730254605542072"><ele>21.0</ele><time>2026-04-03T11:12:42Z</time></trkpt><trkpt lat="45.37037674055273" lon="11.730096043655676"><ele>21.0</ele><time>2026-04-03T11:12:43Z</time></trkpt><trkpt lat="45.37039085305263" lon="11.729930057199889"><ele>21.0</ele><time>2026-04-03T11:12:44Z</time></trkpt><trkpt lat="45.370401194037775" lon="11.729752280077692"><ele>19.5</ele><time>2026-04-03T11:12:45Z</time></trkpt><trkpt lat="45.370393666398506" lon="11.729581816556225"><ele>18.0</ele><time>2026-04-03T11:12:46Z</time></trkpt><trkpt lat="45.37036800331051" lon="11.729417506555693"><ele>16.5</ele><time>2026-04-03T11:12:47Z</time></trkpt><trkpt lat="45.37036970925558" lon="11.729233309493267"><ele>15.0</ele><time>2026-04-03T11:12:48Z</time></trkpt><trkpt lat="45.37033192904617" lon="11.72906138328382"><ele>14.25</ele><time>2026-04-03T11:12:49Z</time></trkpt><trkpt lat="45.37031840811877" lon="11.72888118959725"><ele>13.5</ele><time>2026-04-03T11:12:50Z</time></trkpt><trkpt lat="45.37028335331285" lon="11.728707593350538"><ele>12.75</ele><time>2026-04-03T11:12:51Z</time></trkpt><trkpt lat="45.3702378999848" lon="11.72853853920943"><ele>12.0</ele><time>2026-04-03T11:12:52Z</time></trkpt><trkpt lat="45.370205741452715" lon="11.728370484832633"><ele>12.0</ele><time>2026-04-03T11:12:53Z</time></trkpt><trkpt lat="45.370184216599014" lon="11.728222983159503"><ele>12.0</ele><time>2026-04-03T11:12:54Z</time></trkpt><trkpt lat="45.37017219012145" lon="11.728093363473763"><ele>12.0</ele><time>2026-04-03T11:12:55Z</time></trkpt><trkpt lat="45.37013685663278" lon="11.72799059100895"><ele>12.0</ele><time>2026-04-03T11:12:56Z</time></trkpt><trkpt lat="45.37012550848141" lon="11.727891731759467"><ele>12.0</ele><time>2026-04-03T11:12:57Z</time></trkpt><trkpt lat="45.37010886907819" lon="11.72780255931058"><ele>12.0</ele><time>2026-04-03T11:13:00Z</time></trkpt><trkpt lat="45.370241054273315" lon="11.727827943188515"><ele>12.0</ele><time>2026-04-03T11:13:10Z</time></trkpt><trkpt lat="45.37033120335685" lon="11.727823896984214"><ele>12.0</ele><time>2026-04-03T11:13:11Z</time></trkpt><trkpt lat="45.370420187262646" lon="11.727812170936767"><ele>12.0</ele><time>2026-04-03T11:13:12Z</time></trkpt><trkpt lat="45.3705324128284" lon="11.727831581224093"><ele>12.0</ele><time>2026-04-03T11:13:13Z</time></trkpt><trkpt lat="45.37065503184038" lon="11.727811487187596"><ele>12.0</ele><time>2026-04-03T11:13:14Z</time></trkpt><trkpt lat="45.370775174467035" lon="11.727833607718567"><ele>12.0</ele><time>2026-04-03T11:13:15Z</time></trkpt><trkpt lat="45.37090516971095" lon="11.727832812329325"><ele>12.0</ele><time>2026-04-03T11:13:16Z</time></trkpt><trkpt lat="45.37102926606373" lon="11.727817166406652"><ele>12.0</ele><time>2026-04-03T11:13:17Z</time></trkpt><trkpt lat="45.37114424212058" lon="11.727814585183609"><ele>12.0</ele><time>2026-04-03T11:13:18Z</time></trkpt><trkpt lat="45.37124240819637" lon="11.727820005854813"><ele>12.0</ele><time>2026-04-03T11:13:19Z</time></trkpt><trkpt lat="45.371325984559356" lon="11.727829277464535"><ele>12.0</ele><time>2026-04-03T11:13:20Z</time></trkpt><trkpt lat="45.37142609977721" lon="11.727852892209857"><ele>12.0</ele><time>2026-04-03T11:13:22Z</time></trkpt><trkpt lat="45.37148411721372" lon="11.727659621181294"><ele>12.0</ele><time>2026-04-03T11:13:26Z</time></trkpt><trkpt lat="45.37146661096724" lon="11.727529057302325"><ele>12.0</ele><time>2026-04-03T11:13:27Z</time></trkpt><trkpt lat="45.371467155347204" lon="11.72737597861074"><ele>12.75</ele><time>2026-04-03T11:13:28Z</time></trkpt><trkpt lat="45.37145907072289" lon="11.72722593521721"><ele>13.5</ele><time>2026-04-03T11:13:29Z</time></trkpt><trkpt lat="45.37145612980039" lon="11.72704891277179"><ele>14.25</ele><time>2026-04-03T11:13:30Z</time></trkpt><trkpt lat="45.371454333869906" lon="11.726868674617545"><ele>15.0</ele><time>2026-04-03T11:13:31Z</time></trkpt><trkpt lat="45.37144258481365" lon="11.726683392434548"><ele>15.0</ele><time>2026-04-03T11:13:32Z</time></trkpt><trkpt lat="45.37145315774709" lon="11.726487640770465"><ele>15.0</ele><time>2026-04-03T11:13:33Z</time></trkpt><trkpt lat="45.371445592981225" lon="11.726277136280808"><ele>15.0</ele><time>2026-04-03T11:13:34Z</time></trkpt><trkpt lat="45.37142495818116" lon="11.726062840371759"><ele>15.0</ele><time>2026-04-03T11:13:35Z</time></trkpt><trkpt lat="45.371412719348456" lon="11.725850036320733"><ele>15.333333333333332</ele><time>2026-04-03T11:13:36Z</time></trkpt><trkpt lat="45.37140044820195" lon="11.725622913402288"><ele>15.666666666666666</ele><time>2026-04-03T11:13:37Z</time></trkpt><trkpt lat="45.37139709377692" lon="11.725391931008536"><ele>16.0</ele><time>2026-04-03T11:13:38Z</time></trkpt><trkpt lat="45.37139643951331" lon="11.725150045431167"><ele>15.0</ele><time>2026-04-03T11:13:39Z</time></trkpt><trkpt lat="45.37139055694697" lon="11.72490042641234"><ele>14.0</ele><time>2026-04-03T11:13:40Z</time></trkpt><trkpt lat="45.37138654781682" lon="11.72464887814492"><ele>13.0</ele><time>2026-04-03T11:13:41Z</time></trkpt><trkpt lat="45.37138115788877" lon="11.724390469482543"><ele>12.333333333333332</ele><time>2026-04-03T11:13:42Z</time></trkpt><trkpt lat="45.37137514154177" lon="11.724130547952706"><ele>11.666666666666666</ele><time>2026-04-03T11:13:43Z</time></trkpt><trkpt lat="45.37136514003257" lon="11.72389012503431"><ele>11.0</ele><time>2026-04-03T11:13:44Z</time></trkpt><trkpt lat="45.37136312591821" lon="11.723647649787889"><ele>12.333333333333332</ele><time>2026-04-03T11:13:45Z</time></trkpt><trkpt lat="45.371355311936" lon="11.72338733911058"><ele>13.666666666666666</ele><time>2026-04-03T11:13:46Z</time></trkpt><trkpt lat="45.37135123232182" lon="11.723136646597643"><ele>15.0</ele><time>2026-04-03T11:13:47Z</time></trkpt><trkpt lat="45.37134559759365" lon="11.722878330959734"><ele>15.0</ele><time>2026-04-03T11:13:48Z</time></trkpt><trkpt lat="45.37133912046035" lon="11.72262606804438"><ele>15.0</ele><time>2026-04-03T11:13:49Z</time></trkpt><trkpt lat="45.37133148294133" lon="11.72237351606904"><ele>15.0</ele><time>2026-04-03T11:13:50Z</time></trkpt><trkpt lat="45.37132309518278" lon="11.722112850789278"><ele>15.666666666666668</ele><time>2026-04-03T11:13:51Z</time></trkpt><trkpt lat="45.371317217504206" lon="11.721862876235205"><ele>16.333333333333336</ele><time>2026-04-03T11:13:52Z</time></trkpt><trkpt lat="45.3713119129958" lon="11.721614448797352"><ele>17.0</ele><time>2026-04-03T11:13:53Z</time></trkpt><trkpt lat="45.3713035284444" lon="11.721364118867937"><ele>17.0</ele><time>2026-04-03T11:13:54Z</time></trkpt><trkpt lat="45.37129515270036" lon="11.721122433993028"><ele>17.0</ele><time>2026-04-03T11:13:55Z</time></trkpt><trkpt lat="45.371286140562496" lon="11.720882098183283"><ele>17.0</ele><time>2026-04-03T11:13:56Z</time></trkpt><trkpt lat="45.37127983379917" lon="11.720640384189043"><ele>16.333333333333336</ele><time>2026-04-03T11:13:57Z</time></trkpt><trkpt lat="45.37127457092263" lon="11.72039182522954"><ele>15.666666666666668</ele><time>2026-04-03T11:13:58Z</time></trkpt><trkpt lat="45.37126885852693" lon="11.720149491113142"><ele>15.0</ele><time>2026-04-03T11:13:59Z</time></trkpt><trkpt lat="45.37126518496446" lon="11.71990814219978"><ele>15.0</ele><time>2026-04-03T11:14:00Z</time></trkpt><trkpt lat="45.371259971294556" lon="11.719661098096612"><ele>15.0</ele><time>2026-04-03T11:14:01Z</time></trkpt><trkpt lat="45.371256796109485" lon="11.71940955037094"><ele>15.0</ele><time>2026-04-03T11:14:02Z</time></trkpt><trkpt lat="45.371251781358716" lon="11.719168684295623"><ele>15.0</ele><time>2026-04-03T11:14:03Z</time></trkpt><trkpt lat="45.37124092004634" lon="11.7189175688959"><ele>15.0</ele><time>2026-04-03T11:14:04Z</time></trkpt><trkpt lat="45.37124007779016" lon="11.718665750023574"><ele>15.0</ele><time>2026-04-03T11:14:05Z</time></trkpt><trkpt lat="45.37123186606374" lon="11.718432681539767"><ele>15.0</ele><time>2026-04-03T11:14:06Z</time></trkpt><trkpt lat="45.37121954011492" lon="11.718184352909944"><ele>15.0</ele><time>2026-04-03T11:14:07Z</time></trkpt><trkpt lat="45.37119644176849" lon="11.717943439185746"><ele>15.0</ele><time>2026-04-03T11:14:08Z</time></trkpt><trkpt lat="45.37115199874133" lon="11.71770733041368"><ele>15.0</ele><time>2026-04-03T11:14:09Z</time></trkpt><trkpt lat="45.37108696512223" lon="11.717475631022877"><ele>15.0</ele><time>2026-04-03T11:14:10Z</time></trkpt><trkpt lat="45.370990762754836" lon="11.717260533813402"><ele>15.0</ele><time>2026-04-03T11:14:11Z</time></trkpt><trkpt lat="45.37087563695214" lon="11.717064170242194"><ele>15.0</ele><time>2026-04-03T11:14:12Z</time></trkpt><trkpt lat="45.3707478088019" lon="11.716873384780506"><ele>15.0</ele><time>2026-04-03T11:14:13Z</time></trkpt><trkpt lat="45.37062226949544" lon="11.716677207766214"><ele>15.0</ele><time>2026-04-03T11:14:14Z</time></trkpt><trkpt lat="45.37049408498665" lon="11.716474031022594"><ele>15.0</ele><time>2026-04-03T11:14:15Z</time></trkpt><trkpt lat="45.37037177633549" lon="11.716270313678223"><ele>15.0</ele><time>2026-04-03T11:14:16Z</time></trkpt><trkpt lat="45.3702540579047" lon="11.716058380638628"><ele>15.0</ele><time>2026-04-03T11:14:17Z</time></trkpt><trkpt lat="45.370138678148784" lon="11.71584932064464"><ele>15.0</ele><time>2026-04-03T11:14:18Z</time></trkpt><trkpt lat="45.37001982604217" lon="11.715635924863557"><ele>15.0</ele><time>2026-04-03T11:14:19Z</time></trkpt><trkpt lat="45.36990261466688" lon="11.715427869365001"><ele>15.0</ele><time>2026-04-03T11:14:20Z</time></trkpt><trkpt lat="45.36978296487183" lon="11.715221602753024"><ele>15.0</ele><time>2026-04-03T11:14:21Z</time></trkpt><trkpt lat="45.36966025137354" lon="11.71500905784612"><ele>15.0</ele><time>2026-04-03T11:14:22Z</time></trkpt><trkpt lat="45.36953677726028" lon="11.714807603250849"><ele>15.0</ele><time>2026-04-03T11:14:23Z</time></trkpt><trkpt lat="45.369414423443686" lon="11.714599053591606"><ele>14.666666666666668</ele><time>2026-04-03T11:14:24Z</time></trkpt><trkpt lat="45.36929453548868" lon="11.714389147253634"><ele>14.333333333333334</ele><time>2026-04-03T11:14:25Z</time></trkpt><trkpt lat="45.369180577892024" lon="11.714178264003621"><ele>14.0</ele><time>2026-04-03T11:14:26Z</time></trkpt><trkpt lat="45.36906882150092" lon="11.713959657157309"><ele>14.0</ele><time>2026-04-03T11:14:27Z</time></trkpt><trkpt lat="45.368959946944244" lon="11.713739286283861"><ele>14.0</ele><time>2026-04-03T11:14:28Z</time></trkpt><trkpt lat="45.36885703586801" lon="11.713514720147465"><ele>14.0</ele><time>2026-04-03T11:14:29Z</time></trkpt><trkpt lat="45.368756392155234" lon="11.713292572831136"><ele>14.666666666666668</ele><time>2026-04-03T11:14:30Z</time></trkpt><trkpt lat="45.36865214975506" lon="11.713074773050376"><ele>15.333333333333332</ele><time>2026-04-03T11:14:31Z</time></trkpt><trkpt lat="45.36854373227141" lon="11.712855752816964"><ele>16.0</ele><time>2026-04-03T11:14:32Z</time></trkpt><trkpt lat="45.36843662188546" lon="11.712628119980158"><ele>16.0</ele><time>2026-04-03T11:14:33Z</time></trkpt><trkpt lat="45.36832874603813" lon="11.712401943010292"><ele>16.0</ele><time>2026-04-03T11:14:34Z</time></trkpt><trkpt lat="45.368223009200136" lon="11.712173844371696"><ele>16.0</ele><time>2026-04-03T11:14:35Z</time></trkpt><trkpt lat="45.36811342069419" lon="11.711941023227734"><ele>15.333333333333332</ele><time>2026-04-03T11:14:36Z</time></trkpt><trkpt lat="45.36800352594474" lon="11.711709259304579"><ele>14.666666666666668</ele><time>2026-04-03T11:14:37Z</time></trkpt><trkpt lat="45.367896189942556" lon="11.71147859391623"><ele>14.0</ele><time>2026-04-03T11:14:38Z</time></trkpt><trkpt lat="45.36778501970175" lon="11.71124470883082"><ele>14.666666666666668</ele><time>2026-04-03T11:14:39Z</time></trkpt><trkpt lat="45.36767731277357" lon="11.711016407848138"><ele>15.333333333333332</ele><time>2026-04-03T11:14:40Z</time></trkpt><trkpt lat="45.367576014999855" lon="11.710781536169883"><ele>16.0</ele><time>2026-04-03T11:14:41Z</time></trkpt><trkpt lat="45.367480678104094" lon="11.710544575216543"><ele>16.0</ele><time>2026-04-03T11:14:42Z</time></trkpt><trkpt lat="45.367395109036245" lon="11.710305412783294"><ele>16.0</ele><time>2026-04-03T11:14:43Z</time></trkpt><trkpt lat="45.36730921662546" lon="11.71006613732948"><ele>16.0</ele><time>2026-04-03T11:14:44Z</time></trkpt><trkpt lat="45.3672273490463" lon="11.70982795421492"><ele>15.666666666666666</ele><time>2026-04-03T11:14:45Z</time></trkpt><trkpt lat="45.36714221175985" lon="11.709590484963778"><ele>15.333333333333332</ele><time>2026-04-03T11:14:46Z</time></trkpt><trkpt lat="45.367062462439776" lon="11.709373653521826"><ele>15.0</ele><time>2026-04-03T11:14:47Z</time></trkpt><trkpt lat="45.36698406222263" lon="11.709152320946126"><ele>15.0</ele><time>2026-04-03T11:14:48Z</time></trkpt><trkpt lat="45.36690773069138" lon="11.708924230491823"><ele>15.0</ele><time>2026-04-03T11:14:49Z</time></trkpt><trkpt lat="45.366837176023324" lon="11.708717411853952"><ele>15.0</ele><time>2026-04-03T11:14:50Z</time></trkpt><trkpt lat="45.36677104243455" lon="11.70853258953148"><ele>15.5</ele><time>2026-04-03T11:14:51Z</time></trkpt><trkpt lat="45.36670592448421" lon="11.708353026859184"><ele>16.0</ele><time>2026-04-03T11:14:52Z</time></trkpt><trkpt lat="45.36664702007431" lon="11.708173199421536"><ele>16.5</ele><time>2026-04-03T11:14:53Z</time></trkpt><trkpt lat="45.36659014418335" lon="11.708004599269431"><ele>17.0</ele><time>2026-04-03T11:14:54Z</time></trkpt><trkpt lat="45.3665254601285" lon="11.707837354845584"><ele>17.2</ele><time>2026-04-03T11:14:55Z</time></trkpt><trkpt lat="45.36647722537988" lon="11.707689463015985"><ele>17.4</ele><time>2026-04-03T11:14:56Z</time></trkpt><trkpt lat="45.36642220874365" lon="11.707556331088474"><ele>17.6</ele><time>2026-04-03T11:14:57Z</time></trkpt><trkpt lat="45.36636859616872" lon="11.70744061603257"><ele>17.8</ele><time>2026-04-03T11:14:58Z</time></trkpt><trkpt lat="45.36632419970138" lon="11.707351532246756"><ele>18.0</ele><time>2026-04-03T11:14:59Z</time></trkpt><trkpt lat="45.3662739287516" lon="11.707279695943484"><ele>18.0</ele><time>2026-04-03T11:15:00Z</time></trkpt><trkpt lat="45.36620697635691" lon="11.707172725547224"><ele>18.0</ele><time>2026-04-03T11:15:02Z</time></trkpt><trkpt lat="45.36615321418527" lon="11.707086830614335"><ele>18.0</ele><time>2026-04-03T11:15:04Z</time></trkpt><trkpt lat="45.3660101283338" lon="11.70723710296697"><ele>18.0</ele><time>2026-04-03T11:15:05Z</time></trkpt><trkpt lat="45.36594374299558" lon="11.707134613609139"><ele>18.0</ele><time>2026-04-03T11:15:07Z</time></trkpt><trkpt lat="45.36588140654576" lon="11.707089090087242"><ele>18.0</ele><time>2026-04-03T11:15:09Z</time></trkpt><trkpt lat="45.36578664817362" lon="11.707010444376294"><ele>18.0</ele><time>2026-04-03T11:15:55Z</time></trkpt><trkpt lat="45.36571768247341" lon="11.706949869310858"><ele>18.0</ele><time>2026-04-03T11:15:56Z</time></trkpt><trkpt lat="45.365639343299534" lon="11.706888891934515"><ele>18.0</ele><time>2026-04-03T11:15:57Z</time></trkpt><trkpt lat="45.365542798945974" lon="11.706813741332324"><ele>19.0</ele><time>2026-04-03T11:15:58Z</time></trkpt><trkpt lat="45.36543942695071" lon="11.706731185612288"><ele>20.0</ele><time>2026-04-03T11:15:59Z</time></trkpt><trkpt lat="45.36534634422856" lon="11.706644891054586"><ele>21.0</ele><time>2026-04-03T11:16:00Z</time></trkpt><trkpt lat="45.365254900543746" lon="11.706543705422634"><ele>22.0</ele><time>2026-04-03T11:16:01Z</time></trkpt><trkpt lat="45.365162037663886" lon="11.706445388316043"><ele>22.0</ele><time>2026-04-03T11:16:02Z</time></trkpt><trkpt lat="45.36505252597961" lon="11.70637565098848"><ele>22.0</ele><time>2026-04-03T11:16:03Z</time></trkpt><trkpt lat="45.36494160782777" lon="11.706302090446654"><ele>22.0</ele><time>2026-04-03T11:16:04Z</time></trkpt><trkpt lat="45.364807825093585" lon="11.706264964130654"><ele>22.0</ele><time>2026-04-03T11:16:05Z</time></trkpt><trkpt lat="45.36466497346585" lon="11.706223085056305"><ele>23.333333333333332</ele><time>2026-04-03T11:16:06Z</time></trkpt><trkpt lat="45.364510169304666" lon="11.706183870225244"><ele>24.666666666666664</ele><time>2026-04-03T11:16:07Z</time></trkpt><trkpt lat="45.36434000326606" lon="11.706147179950776"><ele>26.0</ele><time>2026-04-03T11:16:08Z</time></trkpt><trkpt lat="45.36417091726497" lon="11.706093621180024"><ele>24.0</ele><time>2026-04-03T11:16:09Z</time></trkpt><trkpt lat="45.3640029151641" lon="11.706058452243697"><ele>22.0</ele><time>2026-04-03T11:16:10Z</time></trkpt><trkpt lat="45.36382233406848" lon="11.706002204357683"><ele>20.0</ele><time>2026-04-03T11:16:11Z</time></trkpt><trkpt lat="45.36364393730002" lon="11.705954903019887"><ele>20.0</ele><time>2026-04-03T11:16:12Z</time></trkpt><trkpt lat="45.36346542109563" lon="11.705910756690946"><ele>20.0</ele><time>2026-04-03T11:16:13Z</time></trkpt><trkpt lat="45.363307429878226" lon="11.70587148199212"><ele>20.0</ele><time>2026-04-03T11:16:14Z</time></trkpt><trkpt lat="45.36315014961462" lon="11.705840675375544"><ele>20.666666666666668</ele><time>2026-04-03T11:16:15Z</time></trkpt><trkpt lat="45.36299057867616" lon="11.70581761402129"><ele>21.333333333333332</ele><time>2026-04-03T11:16:16Z</time></trkpt><trkpt lat="45.362832293025384" lon="11.70580484020027"><ele>22.0</ele><time>2026-04-03T11:16:17Z</time></trkpt><trkpt lat="45.36267960548659" lon="11.705793677574075"><ele>22.0</ele><time>2026-04-03T11:16:18Z</time></trkpt><trkpt lat="45.36252805175612" lon="11.705760785616128"><ele>22.0</ele><time>2026-04-03T11:16:19Z</time></trkpt><trkpt lat="45.362386772012485" lon="11.705670097754021"><ele>22.0</ele><time>2026-04-03T11:16:20Z</time></trkpt><trkpt lat="45.36223768813791" lon="11.705590603727167"><ele>23.5</ele><time>2026-04-03T11:16:21Z</time></trkpt><trkpt lat="45.36209335593381" lon="11.705510692541168"><ele>25.0</ele><time>2026-04-03T11:16:22Z</time></trkpt><trkpt lat="45.36196880412087" lon="11.705439813218653"><ele>26.5</ele><time>2026-04-03T11:16:23Z</time></trkpt><trkpt lat="45.36184146988964" lon="11.705365346194814"><ele>28.0</ele><time>2026-04-03T11:16:24Z</time></trkpt><trkpt lat="45.36169469015672" lon="11.70530124686783"><ele>26.799999999999997</ele><time>2026-04-03T11:16:25Z</time></trkpt><trkpt lat="45.361587905431186" lon="11.705212815989205"><ele>25.599999999999998</ele><time>2026-04-03T11:16:26Z</time></trkpt><trkpt lat="45.361488366545196" lon="11.705141394961021"><ele>24.4</ele><time>2026-04-03T11:16:27Z</time></trkpt><trkpt lat="45.36141088600163" lon="11.705087885822584"><ele>23.200000000000003</ele><time>2026-04-03T11:16:28Z</time></trkpt><trkpt lat="45.36134606808499" lon="11.70505123876421"><ele>22.0</ele><time>2026-04-03T11:16:29Z</time></trkpt><trkpt lat="45.361249132289984" lon="11.704999786133504"><ele>22.0</ele><time>2026-04-03T11:16:31Z</time></trkpt><trkpt lat="45.36125237276087" lon="11.704838100944968"><ele>22.0</ele><time>2026-04-03T11:16:32Z</time></trkpt><trkpt lat="45.36121131963369" lon="11.704751170916396"><ele>22.0</ele><time>2026-04-03T11:16:33Z</time></trkpt><trkpt lat="45.36118178686204" lon="11.704655675262146"><ele>22.0</ele><time>2026-04-03T11:16:34Z</time></trkpt><trkpt lat="45.361150600807385" lon="11.704550630552003"><ele>22.0</ele><time>2026-04-03T11:16:35Z</time></trkpt><trkpt lat="45.361115254461005" lon="11.704447470630996"><ele>22.0</ele><time>2026-04-03T11:16:36Z</time></trkpt><trkpt lat="45.361089973375826" lon="11.70433961026499"><ele>22.333333333333332</ele><time>2026-04-03T11:16:37Z</time></trkpt><trkpt lat="45.361064516394975" lon="11.704235222458472"><ele>22.666666666666664</ele><time>2026-04-03T11:16:38Z</time></trkpt><trkpt lat="45.36104196667566" lon="11.70411578725323"><ele>23.0</ele><time>2026-04-03T11:16:39Z</time></trkpt><trkpt lat="45.36102415364093" lon="11.704016826250147"><ele>23.333333333333332</ele><time>2026-04-03T11:16:40Z</time></trkpt><trkpt lat="45.361011715053074" lon="11.703902374894774"><ele>23.666666666666668</ele><time>2026-04-03T11:16:41Z</time></trkpt><trkpt lat="45.36099894908535" lon="11.703781977438716"><ele>24.0</ele><time>2026-04-03T11:16:42Z</time></trkpt><trkpt lat="45.36098380635424" lon="11.703660729237372"><ele>24.5</ele><time>2026-04-03T11:16:43Z</time></trkpt><trkpt lat="45.360991843249174" lon="11.703537929840989"><ele>25.0</ele><time>2026-04-03T11:16:44Z</time></trkpt><trkpt lat="45.36097684091081" lon="11.703411366390139"><ele>25.5</ele><time>2026-04-03T11:16:45Z</time></trkpt><trkpt lat="45.360944535014184" lon="11.703296720165126"><ele>26.0</ele><time>2026-04-03T11:16:46Z</time></trkpt><trkpt lat="45.360922582153826" lon="11.70318823094218"><ele>26.5</ele><time>2026-04-03T11:16:47Z</time></trkpt><trkpt lat="45.36089788382129" lon="11.703090544878702"><ele>27.0</ele><time>2026-04-03T11:16:48Z</time></trkpt><trkpt lat="45.360876142249694" lon="11.702986333646134"><ele>27.0</ele><time>2026-04-03T11:16:49Z</time></trkpt><trkpt lat="45.36083943025201" lon="11.702880290636122"><ele>27.000000000000004</ele><time>2026-04-03T11:16:50Z</time></trkpt><trkpt lat="45.36079291363718" lon="11.70277919598183"><ele>27.000000000000004</ele><time>2026-04-03T11:16:51Z</time></trkpt><trkpt lat="45.360728249423886" lon="11.702679824294583"><ele>27.0</ele><time>2026-04-03T11:16:52Z</time></trkpt><trkpt lat="45.36068703047208" lon="11.70256394380432"><ele>27.0</ele><time>2026-04-03T11:16:53Z</time></trkpt><trkpt lat="45.36063535628099" lon="11.702438018943932"><ele>28.400000000000002</ele><time>2026-04-03T11:16:54Z</time></trkpt><trkpt lat="45.36058731385093" lon="11.702326543427779"><ele>29.800000000000004</ele><time>2026-04-03T11:16:55Z</time></trkpt><trkpt lat="45.36053364252797" lon="11.702209041032992"><ele>31.2</ele><time>2026-04-03T11:16:56Z</time></trkpt><trkpt lat="45.36047870318139" lon="11.70208978716007"><ele>32.6</ele><time>2026-04-03T11:16:57Z</time></trkpt><trkpt lat="45.36041728510607" lon="11.701962428645421"><ele>34.0</ele><time>2026-04-03T11:16:58Z</time></trkpt><trkpt lat="45.36036956699622" lon="11.701838274012735"><ele>34.0</ele><time>2026-04-03T11:16:59Z</time></trkpt><trkpt lat="45.36032310081583" lon="11.70170234316992"><ele>34.0</ele><time>2026-04-03T11:17:00Z</time></trkpt><trkpt lat="45.36028010533554" lon="11.70155642706568"><ele>34.0</ele><time>2026-04-03T11:17:01Z</time></trkpt><trkpt lat="45.360241337589486" lon="11.70142394982308"><ele>34.0</ele><time>2026-04-03T11:17:02Z</time></trkpt><trkpt lat="45.36021311063048" lon="11.701303894112097"><ele>34.0</ele><time>2026-04-03T11:17:03Z</time></trkpt><trkpt lat="45.360188310192285" lon="11.70119836464804"><ele>33.99999999999999</ele><time>2026-04-03T11:17:04Z</time></trkpt><trkpt lat="45.360163092855856" lon="11.701100248964822"><ele>34.0</ele><time>2026-04-03T11:17:05Z</time></trkpt><trkpt lat="45.3601291435831" lon="11.701016448830178"><ele>34.0</ele><time>2026-04-03T11:17:06Z</time></trkpt><trkpt lat="45.36009435753912" lon="11.700938902334299"><ele>34.0</ele><time>2026-04-03T11:17:07Z</time></trkpt><trkpt lat="45.36003713275034" lon="11.700882863299391"><ele>34.0</ele><time>2026-04-03T11:17:08Z</time></trkpt><trkpt lat="45.3599686720215" lon="11.700846529537044"><ele>33.99999999999999</ele><time>2026-04-03T11:17:09Z</time></trkpt><trkpt lat="45.35987372383705" lon="11.700833513032217"><ele>34.0</ele><time>2026-04-03T11:17:10Z</time></trkpt><trkpt lat="45.35978828776856" lon="11.700811554821945"><ele>33.2</ele><time>2026-04-03T11:17:11Z</time></trkpt><trkpt lat="45.35969846406586" lon="11.700792714693572"><ele>32.4</ele><time>2026-04-03T11:17:12Z</time></trkpt><trkpt lat="45.35959675788386" lon="11.700758499825932"><ele>31.6</ele><time>2026-04-03T11:17:13Z</time></trkpt><trkpt lat="45.359491475095425" lon="11.700711889986621"><ele>30.8</ele><time>2026-04-03T11:17:14Z</time></trkpt><trkpt lat="45.359387165076946" lon="11.70065320149027"><ele>30.0</ele><time>2026-04-03T11:17:15Z</time></trkpt><trkpt lat="45.35930093466242" lon="11.700582478936562"><ele>30.0</ele><time>2026-04-03T11:17:16Z</time></trkpt><trkpt lat="45.35922616063001" lon="11.70054269938962"><ele>30.0</ele><time>2026-04-03T11:17:17Z</time></trkpt><trkpt lat="45.35915865801737" lon="11.700520677458991"><ele>30.0</ele><time>2026-04-03T11:17:18Z</time></trkpt><trkpt lat="45.359095577822785" lon="11.70051857418167"><ele>30.0</ele><time>2026-04-03T11:17:19Z</time></trkpt><trkpt lat="45.35895682226401" lon="11.70057217470004"><ele>30.0</ele><time>2026-04-03T11:17:21Z</time></trkpt><trkpt lat="45.35887344218943" lon="11.700589465023116"><ele>30.0</ele><time>2026-04-03T11:17:22Z</time></trkpt><trkpt lat="45.35877704150368" lon="11.70061763071788"><ele>28.5</ele><time>2026-04-03T11:17:23Z</time></trkpt><trkpt lat="45.35866553529831" lon="11.700657998113916"><ele>27.0</ele><time>2026-04-03T11:17:24Z</time></trkpt><trkpt lat="45.35855151877707" lon="11.700710754084612"><ele>25.5</ele><time>2026-04-03T11:17:25Z</time></trkpt><trkpt lat="45.35843977107832" lon="11.70077065566919"><ele>24.0</ele><time>2026-04-03T11:17:26Z</time></trkpt><trkpt lat="45.35834598419676" lon="11.700821823220164"><ele>24.0</ele><time>2026-04-03T11:17:27Z</time></trkpt><trkpt lat="45.35826732147607" lon="11.700864833014629"><ele>24.0</ele><time>2026-04-03T11:17:28Z</time></trkpt><trkpt lat="45.3581979169764" lon="11.700926971869233"><ele>24.0</ele><time>2026-04-03T11:17:29Z</time></trkpt><trkpt lat="45.35812687418899" lon="11.700947763146837"><ele>24.0</ele><time>2026-04-03T11:17:30Z</time></trkpt><trkpt lat="45.358051214441524" lon="11.70097393770211"><ele>24.0</ele><time>2026-04-03T11:17:31Z</time></trkpt><trkpt lat="45.35797743047776" lon="11.701015719946252"><ele>24.0</ele><time>2026-04-03T11:17:32Z</time></trkpt><trkpt lat="45.357906333885865" lon="11.70103180662624"><ele>24.833333333333332</ele><time>2026-04-03T11:17:33Z</time></trkpt><trkpt lat="45.35783252973971" lon="11.70105635291262"><ele>25.666666666666664</ele><time>2026-04-03T11:17:34Z</time></trkpt><trkpt lat="45.3577519247182" lon="11.701072162311004"><ele>26.5</ele><time>2026-04-03T11:17:35Z</time></trkpt><trkpt lat="45.35766501611824" lon="11.701088993419589"><ele>27.333333333333332</ele><time>2026-04-03T11:17:36Z</time></trkpt><trkpt lat="45.35759405192701" lon="11.70104235547252"><ele>28.166666666666664</ele><time>2026-04-03T11:17:37Z</time></trkpt><trkpt lat="45.357538170596094" lon="11.700964642077512"><ele>29.0</ele><time>2026-04-03T11:17:38Z</time></trkpt><trkpt lat="45.35747086564229" lon="11.70083686336069"><ele>29.0</ele><time>2026-04-03T11:17:40Z</time></trkpt><trkpt lat="45.357407524920696" lon="11.700668864592044"><ele>29.0</ele><time>2026-04-03T11:17:42Z</time></trkpt><trkpt lat="45.3573683425334" lon="11.700507667459789"><ele>29.0</ele><time>2026-04-03T11:17:44Z</time></trkpt><trkpt lat="45.35735553189799" lon="11.700392401159576"><ele>29.0</ele><time>2026-04-03T11:17:46Z</time></trkpt><trkpt lat="45.357362085766795" lon="11.70028788181813"><ele>29.0</ele><time>2026-04-03T11:17:49Z</time></trkpt><trkpt lat="45.35737721571556" lon="11.700197242039843"><ele>28.666666666666664</ele><time>2026-04-03T11:18:07Z</time></trkpt><trkpt lat="45.35739781934133" lon="11.700103733925342"><ele>28.333333333333332</ele><time>2026-04-03T11:18:08Z</time></trkpt><trkpt lat="45.35743326801778" lon="11.699993436621345"><ele>28.0</ele><time>2026-04-03T11:18:09Z</time></trkpt><trkpt lat="45.357476348267255" lon="11.699891133346318"><ele>27.666666666666664</ele><time>2026-04-03T11:18:10Z</time></trkpt><trkpt lat="45.35751189199506" lon="11.699767792854686"><ele>27.333333333333332</ele><time>2026-04-03T11:18:11Z</time></trkpt><trkpt lat="45.35753089639386" lon="11.69963595375322"><ele>27.0</ele><time>2026-04-03T11:18:12Z</time></trkpt><trkpt lat="45.357542782705394" lon="11.69950385357565"><ele>26.6</ele><time>2026-04-03T11:18:13Z</time></trkpt><trkpt lat="45.3575387408647" lon="11.699387698372451"><ele>26.200000000000003</ele><time>2026-04-03T11:18:14Z</time></trkpt><trkpt lat="45.35750397292291" lon="11.699259105762454"><ele>25.8</ele><time>2026-04-03T11:18:15Z</time></trkpt><trkpt lat="45.35746160830068" lon="11.699116611654341"><ele>25.4</ele><time>2026-04-03T11:18:16Z</time></trkpt><trkpt lat="45.35742328095354" lon="11.69898456555236"><ele>25.0</ele><time>2026-04-03T11:18:17Z</time></trkpt><trkpt lat="45.35738547116555" lon="11.698868063765168"><ele>25.0</ele><time>2026-04-03T11:18:18Z</time></trkpt><trkpt lat="45.35734300523254" lon="11.698774965277376"><ele>25.0</ele><time>2026-04-03T11:18:19Z</time></trkpt><trkpt lat="45.357291634386655" lon="11.69868992385511"><ele>25.0</ele><time>2026-04-03T11:18:20Z</time></trkpt><trkpt lat="45.357242689460236" lon="11.698618433499009"><ele>25.0</ele><time>2026-04-03T11:18:21Z</time></trkpt><trkpt lat="45.3571294562167" lon="11.69855203320312"><ele>25.0</ele><time>2026-04-03T11:18:23Z</time></trkpt><trkpt lat="45.35702688046339" lon="11.698490489768659"><ele>25.333333333333336</ele><time>2026-04-03T11:18:24Z</time></trkpt><trkpt lat="45.356916589465065" lon="11.698450269750584"><ele>25.666666666666668</ele><time>2026-04-03T11:18:25Z</time></trkpt><trkpt lat="45.35682087150367" lon="11.69841763022849"><ele>26.0</ele><time>2026-04-03T11:18:26Z</time></trkpt><trkpt lat="45.35674244710571" lon="11.698381623085432"><ele>26.333333333333336</ele><time>2026-04-03T11:18:27Z</time></trkpt><trkpt lat="45.35667406816524" lon="11.69833676591541"><ele>26.666666666666668</ele><time>2026-04-03T11:18:28Z</time></trkpt><trkpt lat="45.356621759674404" lon="11.698272886715138"><ele>27.0</ele><time>2026-04-03T11:18:29Z</time></trkpt><trkpt lat="45.35657736768909" lon="11.698205555494255"><ele>27.0</ele><time>2026-04-03T11:18:30Z</time></trkpt><trkpt lat="45.356501908845445" lon="11.698072427368087"><ele>27.0</ele><time>2026-04-03T11:18:32Z</time></trkpt><trkpt lat="45.35648394899756" lon="11.697973203349044"><ele>27.0</ele><time>2026-04-03T11:18:33Z</time></trkpt><trkpt lat="45.35643902521325" lon="11.697824496734345"><ele>27.0</ele><time>2026-04-03T11:18:35Z</time></trkpt><trkpt lat="45.356397877143955" lon="11.69774752336734"><ele>27.0</ele><time>2026-04-03T11:18:37Z</time></trkpt><trkpt lat="45.35640289680306" lon="11.697648246890672"><ele>27.0</ele><time>2026-04-03T11:18:40Z</time></trkpt><trkpt lat="45.356371558192066" lon="11.69753885779603"><ele>26.333333333333332</ele><time>2026-04-03T11:19:09Z</time></trkpt><trkpt lat="45.35634391093077" lon="11.697454012584501"><ele>25.666666666666668</ele><time>2026-04-03T11:19:10Z</time></trkpt><trkpt lat="45.35630372874647" lon="11.697313393527553"><ele>25.0</ele><time>2026-04-03T11:19:12Z</time></trkpt><trkpt lat="45.35627609886518" lon="11.697227366971935"><ele>24.333333333333336</ele><time>2026-04-03T11:19:13Z</time></trkpt><trkpt lat="45.35621879032787" lon="11.697076638048856"><ele>23.666666666666668</ele><time>2026-04-03T11:19:15Z</time></trkpt><trkpt lat="45.35618828270597" lon="11.696982817599652"><ele>23.0</ele><time>2026-04-03T11:19:17Z</time></trkpt><trkpt lat="45.3561629719784" lon="11.696871742104168"><ele>23.0</ele><time>2026-04-03T11:19:20Z</time></trkpt><trkpt lat="45.35614011646942" lon="11.69675498274138"><ele>23.0</ele><time>2026-04-03T11:19:22Z</time></trkpt><trkpt lat="45.356117784303244" lon="11.69658770853452"><ele>23.0</ele><time>2026-04-03T11:19:24Z</time></trkpt><trkpt lat="45.3561050471248" lon="11.696449101618239"><ele>23.0</ele><time>2026-04-03T11:19:26Z</time></trkpt><trkpt lat="45.35609067713822" lon="11.696301351114535"><ele>23.0</ele><time>2026-04-03T11:19:28Z</time></trkpt><trkpt lat="45.35606786040843" lon="11.696143921315532"><ele>23.0</ele><time>2026-04-03T11:19:30Z</time></trkpt><trkpt lat="45.35559104166383" lon="11.696137480875333"><ele>21.799999999999997</ele><time>2026-04-03T11:19:31Z</time></trkpt><trkpt lat="45.35549817404822" lon="11.696055018045952"><ele>20.599999999999998</ele><time>2026-04-03T11:19:32Z</time></trkpt><trkpt lat="45.355415895484256" lon="11.695977407704865"><ele>19.4</ele><time>2026-04-03T11:19:33Z</time></trkpt><trkpt lat="45.35530588058613" lon="11.69588761393712"><ele>18.2</ele><time>2026-04-03T11:19:34Z</time></trkpt><trkpt lat="45.355226732245576" lon="11.695815190361467"><ele>17.0</ele><time>2026-04-03T11:19:35Z</time></trkpt><trkpt lat="45.355159641572826" lon="11.69574928239948"><ele>17.0</ele><time>2026-04-03T11:19:36Z</time></trkpt><trkpt lat="45.355100123795765" lon="11.69568309461964"><ele>17.0</ele><time>2026-04-03T11:19:37Z</time></trkpt><trkpt lat="45.35504427043208" lon="11.695631522735212"><ele>17.0</ele><time>2026-04-03T11:19:38Z</time></trkpt><trkpt lat="45.354981665091145" lon="11.695605012959682"><ele>17.0</ele><time>2026-04-03T11:19:39Z</time></trkpt><trkpt lat="45.35488740371219" lon="11.695633205180155"><ele>17.0</ele><time>2026-04-03T11:19:41Z</time></trkpt><trkpt lat="45.35483807144476" lon="11.695784212261728"><ele>17.0</ele><time>2026-04-03T11:19:43Z</time></trkpt><trkpt lat="45.35480043550893" lon="11.695856255602601"><ele>17.0</ele><time>2026-04-03T11:19:44Z</time></trkpt><trkpt lat="45.354744568331654" lon="11.695912398472247"><ele>17.0</ele><time>2026-04-03T11:19:45Z</time></trkpt><trkpt lat="45.35467896273087" lon="11.695937483954248"><ele>17.0</ele><time>2026-04-03T11:19:46Z</time></trkpt><trkpt lat="45.35460104771992" lon="11.695946821038897"><ele>17.0</ele><time>2026-04-03T11:19:47Z</time></trkpt><trkpt lat="45.35449422946137" lon="11.695933010561165"><ele>17.0</ele><time>2026-04-03T11:19:49Z</time></trkpt><trkpt lat="45.35438172252462" lon="11.695826991842619"><ele>19.0</ele><time>2026-04-03T11:19:51Z</time></trkpt><trkpt lat="45.35434839441549" lon="11.695710540410378"><ele>21.0</ele><time>2026-04-03T11:19:52Z</time></trkpt><trkpt lat="45.354276578251664" lon="11.695621898867206"><ele>23.000000000000004</ele><time>2026-04-03T11:19:53Z</time></trkpt><trkpt lat="45.35421703932028" lon="11.695527003573435"><ele>25.0</ele><time>2026-04-03T11:19:54Z</time></trkpt><trkpt lat="45.35410877986692" lon="11.695440775781096"><ele>27.0</ele><time>2026-04-03T11:19:55Z</time></trkpt><trkpt lat="45.3540292270017" lon="11.69538754150691"><ele>27.0</ele><time>2026-04-03T11:19:56Z</time></trkpt><trkpt lat="45.35393379311726" lon="11.695328537504052"><ele>27.0</ele><time>2026-04-03T11:19:57Z</time></trkpt><trkpt lat="45.35384814162689" lon="11.695284781991111"><ele>27.0</ele><time>2026-04-03T11:19:58Z</time></trkpt><trkpt lat="45.35375263314762" lon="11.695246314262985"><ele>27.0</ele><time>2026-04-03T11:19:59Z</time></trkpt><trkpt lat="45.353671919472546" lon="11.695250800702963"><ele>27.0</ele><time>2026-04-03T11:20:00Z</time></trkpt><trkpt lat="45.35359983571691" lon="11.695262212739335"><ele>27.0</ele><time>2026-04-03T11:20:01Z</time></trkpt><trkpt lat="45.35353787395387" lon="11.695287134011052"><ele>26.285714285714285</ele><time>2026-04-03T11:20:02Z</time></trkpt><trkpt lat="45.35346902562177" lon="11.6952630682325"><ele>25.57142857142857</ele><time>2026-04-03T11:20:03Z</time></trkpt><trkpt lat="45.353404827739915" lon="11.69523605997975"><ele>24.857142857142858</ele><time>2026-04-03T11:20:04Z</time></trkpt><trkpt lat="45.35332972250665" lon="11.695225767525914"><ele>24.142857142857142</ele><time>2026-04-03T11:20:05Z</time></trkpt><trkpt lat="45.353257415607786" lon="11.695213123530612"><ele>23.428571428571427</ele><time>2026-04-03T11:20:06Z</time></trkpt><trkpt lat="45.353181766980256" lon="11.69516007056499"><ele>22.714285714285715</ele><time>2026-04-03T11:20:07Z</time></trkpt><trkpt lat="45.35311463391373" lon="11.695112941424268"><ele>22.0</ele><time>2026-04-03T11:20:08Z</time></trkpt><trkpt lat="45.35305041718647" lon="11.69507994027138"><ele>22.8</ele><time>2026-04-03T11:20:09Z</time></trkpt><trkpt lat="45.35297827805644" lon="11.695017830815779"><ele>23.6</ele><time>2026-04-03T11:20:10Z</time></trkpt><trkpt lat="45.35290542744422" lon="11.694995941148477"><ele>24.400000000000002</ele><time>2026-04-03T11:20:11Z</time></trkpt><trkpt lat="45.35276196188879" lon="11.694978943837807"><ele>25.200000000000003</ele><time>2026-04-03T11:20:13Z</time></trkpt><trkpt lat="45.352686472003036" lon="11.69498443060957"><ele>26.0</ele><time>2026-04-03T11:20:14Z</time></trkpt><trkpt lat="45.35259458087466" lon="11.694988030132693"><ele>25.999999999999996</ele><time>2026-04-03T11:20:15Z</time></trkpt><trkpt lat="45.35252812054756" lon="11.694979113730081"><ele>26.0</ele><time>2026-04-03T11:20:16Z</time></trkpt><trkpt lat="45.352449014639255" lon="11.69496872859736"><ele>26.0</ele><time>2026-04-03T11:20:17Z</time></trkpt><trkpt lat="45.35237199144333" lon="11.694951834635349"><ele>26.0</ele><time>2026-04-03T11:20:18Z</time></trkpt><trkpt lat="45.35228853004273" lon="11.694955323611538"><ele>25.999999999999996</ele><time>2026-04-03T11:20:19Z</time></trkpt><trkpt lat="45.352195191556106" lon="11.694936313593288"><ele>26.0</ele><time>2026-04-03T11:20:20Z</time></trkpt><trkpt lat="45.3521130361002" lon="11.694929105182359"><ele>26.833333333333332</ele><time>2026-04-03T11:20:21Z</time></trkpt><trkpt lat="45.35204270772509" lon="11.694924948470545"><ele>27.666666666666664</ele><time>2026-04-03T11:20:22Z</time></trkpt><trkpt lat="45.351980294618905" lon="11.694906088623245"><ele>28.5</ele><time>2026-04-03T11:20:23Z</time></trkpt><trkpt lat="45.35190536653674" lon="11.694877138465596"><ele>29.333333333333336</ele><time>2026-04-03T11:20:25Z</time></trkpt><trkpt lat="45.35179051830726" lon="11.694875783270144"><ele>30.166666666666668</ele><time>2026-04-03T11:20:28Z</time></trkpt><trkpt lat="45.35172528070377" lon="11.694862968108989"><ele>31.0</ele><time>2026-04-03T11:20:29Z</time></trkpt><trkpt lat="45.351605898505795" lon="11.694839454717375"><ele>31.000000000000004</ele><time>2026-04-03T11:20:31Z</time></trkpt><trkpt lat="45.35153527108864" lon="11.694863354924667"><ele>31.0</ele><time>2026-04-03T11:20:32Z</time></trkpt><trkpt lat="45.351417334359105" lon="11.694878412990295"><ele>31.0</ele><time>2026-04-03T11:20:34Z</time></trkpt><trkpt lat="45.35135088459019" lon="11.694912163707633"><ele>31.0</ele><time>2026-04-03T11:20:35Z</time></trkpt><trkpt lat="45.351280157133864" lon="11.694952760974562"><ele>31.000000000000004</ele><time>2026-04-03T11:20:36Z</time></trkpt><trkpt lat="45.35121250220755" lon="11.69496726854084"><ele>31.0</ele><time>2026-04-03T11:20:37Z</time></trkpt><trkpt lat="45.351089819988175" lon="11.695057354140456"><ele>30.0</ele><time>2026-04-03T11:20:39Z</time></trkpt><trkpt lat="45.35102306287428" lon="11.695127674937222"><ele>29.0</ele><time>2026-04-03T11:20:40Z</time></trkpt><trkpt lat="45.35094410116765" lon="11.69522979599319"><ele>28.0</ele><time>2026-04-03T11:20:41Z</time></trkpt><trkpt lat="45.35087017064537" lon="11.695343807283686"><ele>27.0</ele><time>2026-04-03T11:20:42Z</time></trkpt><trkpt lat="45.350781417513126" lon="11.695455684130359"><ele>26.0</ele><time>2026-04-03T11:20:43Z</time></trkpt><trkpt lat="45.35071558978276" lon="11.695544861132229"><ele>27.4</ele><time>2026-04-03T11:20:44Z</time></trkpt><trkpt lat="45.350613468533105" lon="11.695654865109743"><ele>28.8</ele><time>2026-04-03T11:20:46Z</time></trkpt><trkpt lat="45.350558995612495" lon="11.695707016628022"><ele>30.199999999999996</ele><time>2026-04-03T11:20:47Z</time></trkpt><trkpt lat="45.350487605904156" lon="11.69576050035144"><ele>31.599999999999998</ele><time>2026-04-03T11:20:48Z</time></trkpt><trkpt lat="45.35040584967164" lon="11.695781058847338"><ele>33.0</ele><time>2026-04-03T11:20:49Z</time></trkpt><trkpt lat="45.35029736215345" lon="11.69579848900359"><ele>33.0</ele><time>2026-04-03T11:20:50Z</time></trkpt><trkpt lat="45.35016633633889" lon="11.695827674504711"><ele>33.0</ele><time>2026-04-03T11:20:51Z</time></trkpt><trkpt lat="45.3500175095652" lon="11.695862194040359"><ele>33.0</ele><time>2026-04-03T11:20:52Z</time></trkpt><trkpt lat="45.34987942522215" lon="11.695913042775636"><ele>33.0</ele><time>2026-04-03T11:20:53Z</time></trkpt><trkpt lat="45.34973131205508" lon="11.695967846578775"><ele>33.0</ele><time>2026-04-03T11:20:54Z</time></trkpt><trkpt lat="45.34962315065375" lon="11.696011061015547"><ele>33.0</ele><time>2026-04-03T11:20:55Z</time></trkpt><trkpt lat="45.349558745782176" lon="11.696062300470613"><ele>33.0</ele><time>2026-04-03T11:20:56Z</time></trkpt><trkpt lat="45.34948729223329" lon="11.696109415970183"><ele>33.0</ele><time>2026-04-03T11:20:58Z</time></trkpt><trkpt lat="45.34949534473641" lon="11.69621658703412"><ele>33.0</ele><time>2026-04-03T11:21:12Z</time></trkpt><trkpt lat="45.34957085299006" lon="11.69631348720072"><ele>33.0</ele><time>2026-04-03T11:21:14Z</time></trkpt><trkpt lat="45.34963181181438" lon="11.69640925928317"><ele>38.2</ele><time>2026-04-03T11:21:16Z</time></trkpt><trkpt lat="45.34972293396883" lon="11.69641418735337"><ele>43.4</ele><time>2026-04-03T11:21:19Z</time></trkpt><trkpt lat="45.34979735531813" lon="11.696387388109425"><ele>48.60000000000001</ele><time>2026-04-03T11:21:21Z</time></trkpt><trkpt lat="45.3498662090533" lon="11.696341939537078"><ele>53.800000000000004</ele><time>2026-04-03T11:21:23Z</time></trkpt><trkpt lat="45.349956760074036" lon="11.69631483878529"><ele>59.0</ele><time>2026-04-03T11:21:25Z</time></trkpt><trkpt lat="45.35007742835203" lon="11.69626948948075"><ele>59.0</ele><time>2026-04-03T11:21:27Z</time></trkpt><trkpt lat="45.35020394179204" lon="11.69623582388138"><ele>59.00000000000001</ele><time>2026-04-03T11:21:29Z</time></trkpt><trkpt lat="45.35027429981286" lon="11.696219658971827"><ele>59.00000000000001</ele><time>2026-04-03T11:21:30Z</time></trkpt><trkpt lat="45.35034773900882" lon="11.696213037130422"><ele>59.0</ele><time>2026-04-03T11:21:31Z</time></trkpt><trkpt lat="45.35042181197957" lon="11.696117534459784"><ele>59.0</ele><time>2026-04-03T11:21:33Z</time></trkpt><trkpt lat="45.350491577317214" lon="11.695997723831573"><ele>56.0</ele><time>2026-04-03T11:21:35Z</time></trkpt><trkpt lat="45.350583044394604" lon="11.695902776694743"><ele>53.00000000000001</ele><time>2026-04-03T11:21:37Z</time></trkpt><trkpt lat="45.350650607894856" lon="11.695771823336512"><ele>50.0</ele><time>2026-04-03T11:21:39Z</time></trkpt><trkpt lat="45.3506923030561" lon="11.695695989062667"><ele>47.0</ele><time>2026-04-03T11:21:40Z</time></trkpt><trkpt lat="45.350719335823364" lon="11.695601276207595"><ele>44.0</ele><time>2026-04-03T11:21:41Z</time></trkpt><trkpt lat="45.35079172431096" lon="11.695460378644276"><ele>44.0</ele><time>2026-04-03T11:21:43Z</time></trkpt><trkpt lat="45.35084562441632" lon="11.695342705140167"><ele>44.0</ele><time>2026-04-03T11:21:45Z</time></trkpt><trkpt lat="45.3509209412576" lon="11.695256189968834"><ele>44.0</ele><time>2026-04-03T11:21:47Z</time></trkpt><trkpt lat="45.3510059186153" lon="11.695155097852044"><ele>44.0</ele><time>2026-04-03T11:21:49Z</time></trkpt><trkpt lat="45.35107465801502" lon="11.695062056961458"><ele>44.0</ele><time>2026-04-03T11:21:51Z</time></trkpt><trkpt lat="45.35113091065467" lon="11.695011469694373"><ele>41.83333333333333</ele><time>2026-04-03T11:21:57Z</time></trkpt><trkpt lat="45.351205957051675" lon="11.694972646203755"><ele>39.666666666666664</ele><time>2026-04-03T11:22:10Z</time></trkpt><trkpt lat="45.35129713370642" lon="11.694921815877105"><ele>37.5</ele><time>2026-04-03T11:22:36Z</time></trkpt><trkpt lat="45.351358995527306" lon="11.694895595045686"><ele>35.333333333333336</ele><time>2026-04-03T11:22:37Z</time></trkpt><trkpt lat="45.35146981196523" lon="11.694858790389826"><ele>33.16666666666667</ele><time>2026-04-03T11:22:39Z</time></trkpt><trkpt lat="45.351554428157435" lon="11.69486443050066"><ele>31.0</ele><time>2026-04-03T11:22:41Z</time></trkpt><trkpt lat="45.351662724023434" lon="11.694835030252987"><ele>31.000000000000004</ele><time>2026-04-03T11:22:43Z</time></trkpt><trkpt lat="45.35172511719502" lon="11.694852589557565"><ele>31.0</ele><time>2026-04-03T11:22:45Z</time></trkpt><trkpt lat="45.35181249877953" lon="11.694869772002276"><ele>31.0</ele><time>2026-04-03T11:22:47Z</time></trkpt><trkpt lat="45.35188875049705" lon="11.694880465478358"><ele>31.0</ele><time>2026-04-03T11:22:50Z</time></trkpt><trkpt lat="45.35197101364787" lon="11.694892153104263"><ele>31.000000000000004</ele><time>2026-04-03T11:22:52Z</time></trkpt><trkpt lat="45.35208027366797" lon="11.694889512452914"><ele>31.0</ele><time>2026-04-03T11:22:54Z</time></trkpt><trkpt lat="45.35218098301363" lon="11.6949076883355"><ele>30.0</ele><time>2026-04-03T11:22:56Z</time></trkpt><trkpt lat="45.35228339386854" lon="11.694917149938625"><ele>29.0</ele><time>2026-04-03T11:22:58Z</time></trkpt><trkpt lat="45.35238033460733" lon="11.69491521234982"><ele>28.0</ele><time>2026-04-03T11:23:00Z</time></trkpt><trkpt lat="45.35242392504848" lon="11.695029653866312"><ele>27.0</ele><time>2026-04-03T11:23:16Z</time></trkpt><trkpt lat="45.35237732754658" lon="11.694954239287487"><ele>26.0</ele><time>2026-04-03T11:23:52Z</time></trkpt><trkpt lat="45.35222732721142" lon="11.694922133814714"><ele>26.833333333333332</ele><time>2026-04-03T11:23:54Z</time></trkpt><trkpt lat="45.35215390144451" lon="11.69493356144758"><ele>27.666666666666664</ele><time>2026-04-03T11:23:55Z</time></trkpt><trkpt lat="45.35207690215921" lon="11.694902630438818"><ele>28.5</ele><time>2026-04-03T11:23:56Z</time></trkpt><trkpt lat="45.35200607359633" lon="11.694888230997323"><ele>29.333333333333336</ele><time>2026-04-03T11:23:57Z</time></trkpt><trkpt lat="45.35190740237986" lon="11.694899071578144"><ele>30.166666666666668</ele><time>2026-04-03T11:23:59Z</time></trkpt><trkpt lat="45.35181832753146" lon="11.694878005830864"><ele>31.0</ele><time>2026-04-03T11:24:02Z</time></trkpt><trkpt lat="45.35170003848082" lon="11.694852056009436"><ele>31.000000000000004</ele><time>2026-04-03T11:24:04Z</time></trkpt><trkpt lat="45.351582442963185" lon="11.694830567601041"><ele>31.0</ele><time>2026-04-03T11:24:06Z</time></trkpt><trkpt lat="45.3515171694509" lon="11.694867981754818"><ele>31.0</ele><time>2026-04-03T11:24:07Z</time></trkpt><trkpt lat="45.35141213430398" lon="11.694881454042449"><ele>31.0</ele><time>2026-04-03T11:24:09Z</time></trkpt><trkpt lat="45.35134743569498" lon="11.694916040256912"><ele>31.000000000000004</ele><time>2026-04-03T11:24:10Z</time></trkpt><trkpt lat="45.3512732534382" lon="11.694954556787655"><ele>31.0</ele><time>2026-04-03T11:24:11Z</time></trkpt><trkpt lat="45.35120748793426" lon="11.694974887574432"><ele>30.166666666666668</ele><time>2026-04-03T11:24:12Z</time></trkpt><trkpt lat="45.35111224467866" lon="11.695044220845679"><ele>29.333333333333336</ele><time>2026-04-03T11:24:14Z</time></trkpt><trkpt lat="45.35102619538594" lon="11.695144207801864"><ele>28.5</ele><time>2026-04-03T11:24:16Z</time></trkpt><trkpt lat="45.35096790882268" lon="11.69522664297809"><ele>27.666666666666664</ele><time>2026-04-03T11:24:17Z</time></trkpt><trkpt lat="45.35091810871547" lon="11.695288212940323"><ele>26.833333333333332</ele><time>2026-04-03T11:24:18Z</time></trkpt><trkpt lat="45.350862482033584" lon="11.69536791794753"><ele>26.0</ele><time>2026-04-03T11:24:20Z</time></trkpt><trkpt lat="45.35081952762689" lon="11.695439439640705"><ele>27.4</ele><time>2026-04-03T11:24:28Z</time></trkpt><trkpt lat="45.35075596645976" lon="11.695587708322355"><ele>28.8</ele><time>2026-04-03T11:24:30Z</time></trkpt><trkpt lat="45.35068260917779" lon="11.695751066509176"><ele>30.199999999999996</ele><time>2026-04-03T11:24:32Z</time></trkpt><trkpt lat="45.35063988280415" lon="11.695833560869207"><ele>31.599999999999998</ele><time>2026-04-03T11:24:33Z</time></trkpt><trkpt lat="45.35059142996864" lon="11.695909620545121"><ele>33.0</ele><time>2026-04-03T11:24:34Z</time></trkpt><trkpt lat="45.350539592087145" lon="11.695966301131476"><ele>33.0</ele><time>2026-04-03T11:24:35Z</time></trkpt><trkpt lat="45.35049025649168" lon="11.696023708047546"><ele>33.0</ele><time>2026-04-03T11:24:36Z</time></trkpt><trkpt lat="45.350429704322906" lon="11.696099696433667"><ele>33.0</ele><time>2026-04-03T11:24:37Z</time></trkpt><trkpt lat="45.35039211174771" lon="11.696179896747617"><ele>33.0</ele><time>2026-04-03T11:24:38Z</time></trkpt><trkpt lat="45.35033195086599" lon="11.696242776164986"><ele>33.0</ele><time>2026-04-03T11:24:40Z</time></trkpt><trkpt lat="45.35021305019169" lon="11.696259327070255"><ele>33.0</ele><time>2026-04-03T11:24:42Z</time></trkpt><trkpt lat="45.35013030866633" lon="11.69626722243406"><ele>37.599999999999994</ele><time>2026-04-03T11:24:43Z</time></trkpt><trkpt lat="45.350020479321664" lon="11.696318124781788"><ele>42.199999999999996</ele><time>2026-04-03T11:24:45Z</time></trkpt><trkpt lat="45.34988949873826" lon="11.696336206670615"><ele>46.8</ele><time>2026-04-03T11:24:47Z</time></trkpt><trkpt lat="45.3498155904289" lon="11.696389610694718"><ele>51.4</ele><time>2026-04-03T11:24:50Z</time></trkpt><trkpt lat="45.34972050501983" lon="11.69642083375672"><ele>56.0</ele><time>2026-04-03T11:24:52Z</time></trkpt><trkpt lat="45.34964116287837" lon="11.696437575034262"><ele>56.0</ele><time>2026-04-03T11:24:54Z</time></trkpt><trkpt lat="45.34956160854645" lon="11.696476718947418"><ele>55.99999999999999</ele><time>2026-04-03T11:24:58Z</time></trkpt><trkpt lat="45.349436480145066" lon="11.6964419793033"><ele>55.99999999999999</ele><time>2026-04-03T11:25:09Z</time></trkpt><trkpt lat="45.349312165534954" lon="11.696410143504943"><ele>56.0</ele><time>2026-04-03T11:25:11Z</time></trkpt><trkpt lat="45.349237254322226" lon="11.696392844024723"><ele>56.0</ele><time>2026-04-03T11:25:12Z</time></trkpt><trkpt lat="45.349172868205585" lon="11.696386401258518"><ele>56.0</ele><time>2026-04-03T11:25:13Z</time></trkpt><trkpt lat="45.34908231219666" lon="11.696373755914925"><ele>55.99999999999999</ele><time>2026-04-03T11:25:14Z</time></trkpt><trkpt lat="45.34900137612209" lon="11.696364358661189"><ele>55.99999999999999</ele><time>2026-04-03T11:25:15Z</time></trkpt><trkpt lat="45.348917294346336" lon="11.696341619484173"><ele>56.0</ele><time>2026-04-03T11:25:16Z</time></trkpt><trkpt lat="45.3488159051464" lon="11.696308482317214"><ele>56.0</ele><time>2026-04-03T11:25:17Z</time></trkpt><trkpt lat="45.34870498938974" lon="11.696279211200622"><ele>57.8</ele><time>2026-04-03T11:25:18Z</time></trkpt><trkpt lat="45.34860613713128" lon="11.696248760277179"><ele>59.599999999999994</ele><time>2026-04-03T11:25:19Z</time></trkpt><trkpt lat="45.34850632146455" lon="11.696222858913849"><ele>61.4</ele><time>2026-04-03T11:25:20Z</time></trkpt><trkpt lat="45.34842422382397" lon="11.696197884811916"><ele>63.2</ele><time>2026-04-03T11:25:21Z</time></trkpt><trkpt lat="45.34833480826395" lon="11.696171749978697"><ele>65.0</ele><time>2026-04-03T11:25:22Z</time></trkpt><trkpt lat="45.34824928240298" lon="11.696147368210942"><ele>65.0</ele><time>2026-04-03T11:25:23Z</time></trkpt><trkpt lat="45.348186525629764" lon="11.696120436252984"><ele>65.0</ele><time>2026-04-03T11:25:24Z</time></trkpt><trkpt lat="45.34812408453469" lon="11.696101514752183"><ele>65.0</ele><time>2026-04-03T11:25:25Z</time></trkpt><trkpt lat="45.348031000518084" lon="11.696077640261105"><ele>65.0</ele><time>2026-04-03T11:25:27Z</time></trkpt><trkpt lat="45.34793293330822" lon="11.69606232063223"><ele>65.0</ele><time>2026-04-03T11:25:29Z</time></trkpt><trkpt lat="45.34787266852751" lon="11.696028744883572"><ele>65.0</ele><time>2026-04-03T11:25:32Z</time></trkpt><trkpt lat="45.34791098973153" lon="11.696135749497698"><ele>65.0</ele><time>2026-04-03T11:25:37Z</time></trkpt><trkpt lat="45.34796531376809" lon="11.696219467558118"><ele>65.0</ele><time>2026-04-03T11:25:38Z</time></trkpt><trkpt lat="45.348036654058056" lon="11.696271633811754"><ele>65.0</ele><time>2026-04-03T11:25:39Z</time></trkpt><trkpt lat="45.34812755490417" lon="11.696402024025518"><ele>65.0</ele><time>2026-04-03T11:25:41Z</time></trkpt><trkpt lat="45.34817105873293" lon="11.696470755471402"><ele>65.0</ele><time>2026-04-03T11:25:42Z</time></trkpt><trkpt lat="45.34823645348959" lon="11.696557760265364"><ele>65.0</ele><time>2026-04-03T11:25:44Z</time></trkpt><trkpt lat="45.34830642752311" lon="11.696575526003565"><ele>65.0</ele><time>2026-04-03T11:25:46Z</time></trkpt><trkpt lat="45.34842905004613" lon="11.696593771041982"><ele>65.0</ele><time>2026-04-03T11:25:48Z</time></trkpt><trkpt lat="45.34853363163995" lon="11.696643037747728"><ele>65.0</ele><time>2026-04-03T11:25:50Z</time></trkpt><trkpt lat="45.348613230881426" lon="11.696649611955541"><ele>65.0</ele><time>2026-04-03T11:25:53Z</time></trkpt><trkpt lat="45.34869379778229" lon="11.696682046898548"><ele>65.0</ele><time>2026-04-03T11:25:55Z</time></trkpt><trkpt lat="45.34875816657058" lon="11.696701601931895"><ele>65.0</ele><time>2026-04-03T11:25:58Z</time></trkpt><trkpt lat="45.348867416223264" lon="11.696728048180747"><ele>65.0</ele><time>2026-04-03T11:26:00Z</time></trkpt><trkpt lat="45.34893606216873" lon="11.696748813613507"><ele>65.0</ele><time>2026-04-03T11:26:01Z</time></trkpt><trkpt lat="45.34902625515912" lon="11.696776469270407"><ele>65.0</ele><time>2026-04-03T11:26:03Z</time></trkpt><trkpt lat="45.34908861620823" lon="11.696797282354984"><ele>65.0</ele><time>2026-04-03T11:26:05Z</time></trkpt><trkpt lat="45.34915904232104" lon="11.696794847716133"><ele>65.0</ele><time>2026-04-03T11:26:07Z</time></trkpt><trkpt lat="45.34923777900141" lon="11.696761821265863"><ele>63.50000000000001</ele><time>2026-04-03T11:26:10Z</time></trkpt><trkpt lat="45.349303678051456" lon="11.696696841032674"><ele>62.0</ele><time>2026-04-03T11:26:13Z</time></trkpt><trkpt lat="45.34936669841169" lon="11.696635285676898"><ele>60.5</ele><time>2026-04-03T11:26:16Z</time></trkpt><trkpt lat="45.34942828234233" lon="11.696592549982022"><ele>59.0</ele><time>2026-04-03T11:26:19Z</time></trkpt><trkpt lat="45.34950064941789" lon="11.696527534899245"><ele>57.50000000000001</ele><time>2026-04-03T11:26:22Z</time></trkpt><trkpt lat="45.349486452613725" lon="11.69642077338865"><ele>56.0</ele><time>2026-04-03T11:26:26Z</time></trkpt><trkpt lat="45.349374552250175" lon="11.696408420214164"><ele>56.00000000000001</ele><time>2026-04-03T11:26:28Z</time></trkpt><trkpt lat="45.349309470391304" lon="11.696405979708054"><ele>56.0</ele><time>2026-04-03T11:26:29Z</time></trkpt><trkpt lat="45.34924798599402" lon="11.696384672219082"><ele>56.0</ele><time>2026-04-03T11:26:30Z</time></trkpt><trkpt lat="45.34914386842628" lon="11.696374437033363"><ele>56.0</ele><time>2026-04-03T11:26:32Z</time></trkpt><trkpt lat="45.34900919203541" lon="11.696368882870024"><ele>56.00000000000001</ele><time>2026-04-03T11:26:34Z</time></trkpt><trkpt lat="45.34893605742112" lon="11.69634350278169"><ele>56.0</ele><time>2026-04-03T11:26:35Z</time></trkpt><trkpt lat="45.348853322341775" lon="11.69631512019893"><ele>57.50000000000001</ele><time>2026-04-03T11:26:36Z</time></trkpt><trkpt lat="45.34876722190666" lon="11.696294137088021"><ele>59.0</ele><time>2026-04-03T11:26:37Z</time></trkpt><trkpt lat="45.34866641764861" lon="11.696265798930453"><ele>60.5</ele><time>2026-04-03T11:26:38Z</time></trkpt><trkpt lat="45.34860078269998" lon="11.696248952406094"><ele>62.0</ele><time>2026-04-03T11:26:39Z</time></trkpt><trkpt lat="45.34853560620324" lon="11.696229345988447"><ele>63.50000000000001</ele><time>2026-04-03T11:26:40Z</time></trkpt><trkpt lat="45.348460631689186" lon="11.696210482184066"><ele>65.0</ele><time>2026-04-03T11:26:41Z</time></trkpt><trkpt lat="45.34837907637975" lon="11.696184939644715"><ele>65.0</ele><time>2026-04-03T11:26:42Z</time></trkpt><trkpt lat="45.34831558707342" lon="11.696167435463448"><ele>65.0</ele><time>2026-04-03T11:26:43Z</time></trkpt><trkpt lat="45.348249733110485" lon="11.696146349121802"><ele>65.0</ele><time>2026-04-03T11:26:44Z</time></trkpt><trkpt lat="45.3481421901589" lon="11.69611184413221"><ele>65.0</ele><time>2026-04-03T11:26:46Z</time></trkpt><trkpt lat="45.348028454331356" lon="11.696089934775065"><ele>65.0</ele><time>2026-04-03T11:26:48Z</time></trkpt><trkpt lat="45.34793285963736" lon="11.696060560229906"><ele>64.0</ele><time>2026-04-03T11:26:50Z</time></trkpt><trkpt lat="45.347841395968786" lon="11.696030774863571"><ele>63.0</ele><time>2026-04-03T11:26:54Z</time></trkpt><trkpt lat="45.347773051872046" lon="11.695973168343325"><ele>62.0</ele><time>2026-04-03T11:26:57Z</time></trkpt><trkpt lat="45.34773102481404" lon="11.695899835853522"><ele>61.0</ele><time>2026-04-03T11:26:59Z</time></trkpt><trkpt lat="45.34766137302314" lon="11.695916443320627"><ele>60.00000000000001</ele><time>2026-04-03T11:27:04Z</time></trkpt><trkpt lat="45.34757386748529" lon="11.69594182874462"><ele>59.0</ele><time>2026-04-03T11:27:06Z</time></trkpt><trkpt lat="45.347478693030375" lon="11.695955356920635"><ele>59.0</ele><time>2026-04-03T11:27:08Z</time></trkpt><trkpt lat="45.34736816660824" lon="11.695977857071274"><ele>59.00000000000001</ele><time>2026-04-03T11:27:10Z</time></trkpt><trkpt lat="45.34729893553577" lon="11.696038615973162"><ele>59.00000000000001</ele><time>2026-04-03T11:27:12Z</time></trkpt><trkpt lat="45.347201110355414" lon="11.69603509180447"><ele>59.0</ele><time>2026-04-03T11:27:14Z</time></trkpt><trkpt lat="45.34713020086735" lon="11.696106101612074"><ele>59.0</ele><time>2026-04-03T11:27:17Z</time></trkpt><trkpt lat="45.347015341336636" lon="11.696147726539118"><ele>64.5</ele><time>2026-04-03T11:27:19Z</time></trkpt><trkpt lat="45.34690105467374" lon="11.696186866848237"><ele>70.0</ele><time>2026-04-03T11:27:21Z</time></trkpt><trkpt lat="45.346835792608076" lon="11.696173889565456"><ele>75.5</ele><time>2026-04-03T11:27:22Z</time></trkpt><trkpt lat="45.34676768276343" lon="11.696124209771092"><ele>81.0</ele><time>2026-04-03T11:27:23Z</time></trkpt><trkpt lat="45.346674697362" lon="11.696112840316898"><ele>86.5</ele><time>2026-04-03T11:27:25Z</time></trkpt><trkpt lat="45.34669350413395" lon="11.69622545371744"><ele>92.0</ele><time>2026-04-03T11:27:27Z</time></trkpt><trkpt lat="45.34677044793156" lon="11.69631102232186"><ele>92.0</ele><time>2026-04-03T11:27:29Z</time></trkpt><trkpt lat="45.34684408737796" lon="11.696389970335884"><ele>92.0</ele><time>2026-04-03T11:27:31Z</time></trkpt><trkpt lat="45.346950951990024" lon="11.696480260094187"><ele>92.0</ele><time>2026-04-03T11:27:33Z</time></trkpt><trkpt lat="45.347013942670365" lon="11.696520488101676"><ele>92.0</ele><time>2026-04-03T11:27:34Z</time></trkpt><trkpt lat="45.34707524042723" lon="11.69656113944247"><ele>92.0</ele><time>2026-04-03T11:27:35Z</time></trkpt><trkpt lat="45.347135320407176" lon="11.696604852975423"><ele>92.0</ele><time>2026-04-03T11:27:36Z</time></trkpt><trkpt lat="45.34719703921287" lon="11.696647273093344"><ele>89.83333333333334</ele><time>2026-04-03T11:27:37Z</time></trkpt><trkpt lat="45.347265514226905" lon="11.6966781590092"><ele>87.66666666666667</ele><time>2026-04-03T11:27:38Z</time></trkpt><trkpt lat="45.34733925814946" lon="11.696717983930437"><ele>85.5</ele><time>2026-04-03T11:27:40Z</time></trkpt><trkpt lat="45.34742003389596" lon="11.696717208358864"><ele>83.33333333333333</ele><time>2026-04-03T11:27:41Z</time></trkpt><trkpt lat="45.34749409301846" lon="11.696742867205927"><ele>81.16666666666666</ele><time>2026-04-03T11:27:42Z</time></trkpt><trkpt lat="45.347567591767316" lon="11.696799438722882"><ele>79.0</ele><time>2026-04-03T11:27:44Z</time></trkpt><trkpt lat="45.34768788349334" lon="11.69692071370402"><ele>82.5</ele><time>2026-04-03T11:27:46Z</time></trkpt><trkpt lat="45.347747337763984" lon="11.696982226813093"><ele>86.0</ele><time>2026-04-03T11:27:47Z</time></trkpt><trkpt lat="45.34782172820863" lon="11.697037765011835"><ele>89.5</ele><time>2026-04-03T11:27:48Z</time></trkpt><trkpt lat="45.34788902887652" lon="11.697107666202822"><ele>93.0</ele><time>2026-04-03T11:27:49Z</time></trkpt><trkpt lat="45.34795206104113" lon="11.69717718377809"><ele>96.50000000000001</ele><time>2026-04-03T11:27:50Z</time></trkpt><trkpt lat="45.34802133662632" lon="11.697237860761119"><ele>100.0</ele><time>2026-04-03T11:27:51Z</time></trkpt><trkpt lat="45.34810410304094" lon="11.697285804918112"><ele>100.00000000000001</ele><time>2026-04-03T11:27:52Z</time></trkpt><trkpt lat="45.348170371163086" lon="11.69733732733141"><ele>100.0</ele><time>2026-04-03T11:27:53Z</time></trkpt><trkpt lat="45.34823345610192" lon="11.697384507454082"><ele>100.0</ele><time>2026-04-03T11:27:54Z</time></trkpt><trkpt lat="45.34830800403686" lon="11.697418174577612"><ele>100.0</ele><time>2026-04-03T11:27:55Z</time></trkpt><trkpt lat="45.348376182088764" lon="11.697456093341874"><ele>100.00000000000001</ele><time>2026-04-03T11:27:56Z</time></trkpt><trkpt lat="45.34849214701341" lon="11.69753178908463"><ele>100.0</ele><time>2026-04-03T11:27:58Z</time></trkpt><trkpt lat="45.34858246699364" lon="11.697590119880548"><ele>100.0</ele><time>2026-04-03T11:28:00Z</time></trkpt><trkpt lat="45.34866311263409" lon="11.697611321862958"><ele>100.0</ele><time>2026-04-03T11:28:01Z</time></trkpt><trkpt lat="45.34873736760259" lon="11.697634373574061"><ele>100.0</ele><time>2026-04-03T11:28:02Z</time></trkpt><trkpt lat="45.34881046880022" lon="11.697678822424306"><ele>100.0</ele><time>2026-04-03T11:28:03Z</time></trkpt><trkpt lat="45.34893785616935" lon="11.697780400676264"><ele>100.0</ele><time>2026-04-03T11:28:05Z</time></trkpt><trkpt lat="45.34902129538728" lon="11.697840323136516"><ele>104.4</ele><time>2026-04-03T11:28:06Z</time></trkpt><trkpt lat="45.34909530770893" lon="11.697902827071456"><ele>108.8</ele><time>2026-04-03T11:28:07Z</time></trkpt><trkpt lat="45.349166945890566" lon="11.6979458272634"><ele>113.19999999999999</ele><time>2026-04-03T11:28:08Z</time></trkpt><trkpt lat="45.349239306294706" lon="11.697996012671716"><ele>117.6</ele><time>2026-04-03T11:28:09Z</time></trkpt><trkpt lat="45.34931060430352" lon="11.698056102807165"><ele>122.0</ele><time>2026-04-03T11:28:10Z</time></trkpt><trkpt lat="45.349445093478074" lon="11.69810272174022"><ele>122.0</ele><time>2026-04-03T11:28:12Z</time></trkpt><trkpt lat="45.349521660545015" lon="11.698109725055714"><ele>121.99999999999999</ele><time>2026-04-03T11:28:13Z</time></trkpt><trkpt lat="45.349628193854755" lon="11.69808964004739"><ele>121.99999999999999</ele><time>2026-04-03T11:28:15Z</time></trkpt><trkpt lat="45.34970110188849" lon="11.698073684324921"><ele>122.0</ele><time>2026-04-03T11:28:16Z</time></trkpt><trkpt lat="45.349821816052426" lon="11.698086295130437"><ele>122.0</ele><time>2026-04-03T11:28:18Z</time></trkpt><trkpt lat="45.34989699058657" lon="11.698075340359052"><ele>122.16666666666666</ele><time>2026-04-03T11:28:19Z</time></trkpt><trkpt lat="45.34998472713066" lon="11.69809125050257"><ele>122.33333333333333</ele><time>2026-04-03T11:28:20Z</time></trkpt><trkpt lat="45.350061396315034" lon="11.698106765585452"><ele>122.5</ele><time>2026-04-03T11:28:21Z</time></trkpt><trkpt lat="45.35013132937275" lon="11.698123082196556"><ele>122.66666666666666</ele><time>2026-04-03T11:28:22Z</time></trkpt><trkpt lat="45.35019751721459" lon="11.698119508383318"><ele>122.83333333333333</ele><time>2026-04-03T11:28:23Z</time></trkpt><trkpt lat="45.3502681653852" lon="11.698120247166909"><ele>123.0</ele><time>2026-04-03T11:28:24Z</time></trkpt><trkpt lat="45.35034842124898" lon="11.698123513140331"><ele>123.0</ele><time>2026-04-03T11:28:25Z</time></trkpt><trkpt lat="45.350415361191196" lon="11.698124748286803"><ele>123.0</ele><time>2026-04-03T11:28:26Z</time></trkpt><trkpt lat="45.35047970195772" lon="11.698100235741139"><ele>123.0</ele><time>2026-04-03T11:28:27Z</time></trkpt><trkpt lat="45.350551986240546" lon="11.698126598102093"><ele>123.0</ele><time>2026-04-03T11:28:28Z</time></trkpt><trkpt lat="45.350637769578846" lon="11.698178575619904"><ele>123.0</ele><time>2026-04-03T11:28:29Z</time></trkpt><trkpt lat="45.350707007059206" lon="11.69819208206406"><ele>123.0</ele><time>2026-04-03T11:28:30Z</time></trkpt><trkpt lat="45.35082821944767" lon="11.698190146881778"><ele>123.0</ele><time>2026-04-03T11:28:32Z</time></trkpt><trkpt lat="45.350878347125295" lon="11.698254721251281"><ele>123.00000000000001</ele><time>2026-04-03T11:28:34Z</time></trkpt><trkpt lat="45.35081793585144" lon="11.698377680553268"><ele>123.00000000000001</ele><time>2026-04-03T11:28:36Z</time></trkpt><trkpt lat="45.35072323162851" lon="11.698358342101985"><ele>123.0</ele><time>2026-04-03T11:28:38Z</time></trkpt><trkpt lat="45.35066776426627" lon="11.69842594650248"><ele>123.0</ele><time>2026-04-03T11:28:53Z</time></trkpt><trkpt lat="45.35053141515141" lon="11.698415473288556"><ele>123.0</ele><time>2026-04-03T11:28:55Z</time></trkpt><trkpt lat="45.35043788691203" lon="11.698460332700694"><ele>123.00000000000001</ele><time>2026-04-03T11:28:56Z</time></trkpt><trkpt lat="45.350351095053355" lon="11.698506210804004"><ele>123.00000000000001</ele><time>2026-04-03T11:28:57Z</time></trkpt><trkpt lat="45.35024268786665" lon="11.698553486492667"><ele>123.0</ele><time>2026-04-03T11:28:58Z</time></trkpt><trkpt lat="45.35013881228023" lon="11.698604203673312"><ele>123.0</ele><time>2026-04-03T11:28:59Z</time></trkpt><trkpt lat="45.35004429197201" lon="11.698651370073039"><ele>122.80000000000001</ele><time>2026-04-03T11:29:00Z</time></trkpt><trkpt lat="45.349950857811244" lon="11.698697075414799"><ele>122.60000000000001</ele><time>2026-04-03T11:29:01Z</time></trkpt><trkpt lat="45.34985845405849" lon="11.698732295447927"><ele>122.39999999999999</ele><time>2026-04-03T11:29:02Z</time></trkpt><trkpt lat="45.34975690092914" lon="11.698761920391087"><ele>122.19999999999999</ele><time>2026-04-03T11:29:03Z</time></trkpt><trkpt lat="45.34965557713427" lon="11.698787855202076"><ele>122.0</ele><time>2026-04-03T11:29:04Z</time></trkpt><trkpt lat="45.3495483407405" lon="11.698771322268087"><ele>123.8</ele><time>2026-04-03T11:29:05Z</time></trkpt><trkpt lat="45.34943883163289" lon="11.698767482495459"><ele>125.6</ele><time>2026-04-03T11:29:06Z</time></trkpt><trkpt lat="45.34932989575636" lon="11.698786996645769"><ele>127.39999999999999</ele><time>2026-04-03T11:29:07Z</time></trkpt><trkpt lat="45.34922415666843" lon="11.698822953943488"><ele>129.2</ele><time>2026-04-03T11:29:08Z</time></trkpt><trkpt lat="45.34911765771974" lon="11.698848303594088"><ele>131.0</ele><time>2026-04-03T11:29:09Z</time></trkpt><trkpt lat="45.34902373491456" lon="11.698878905721804"><ele>131.0</ele><time>2026-04-03T11:29:10Z</time></trkpt><trkpt lat="45.348932906214834" lon="11.698917439383349"><ele>131.0</ele><time>2026-04-03T11:29:11Z</time></trkpt><trkpt lat="45.34884737101699" lon="11.69898375706323"><ele>131.0</ele><time>2026-04-03T11:29:12Z</time></trkpt><trkpt lat="45.34877233130115" lon="11.699019684392589"><ele>131.0</ele><time>2026-04-03T11:29:13Z</time></trkpt><trkpt lat="45.34869057246268" lon="11.699057259842935"><ele>131.0</ele><time>2026-04-03T11:29:14Z</time></trkpt><trkpt lat="45.34861517876342" lon="11.699091014302086"><ele>131.0</ele><time>2026-04-03T11:29:15Z</time></trkpt><trkpt lat="45.348530987629076" lon="11.699128513727306"><ele>133.83333333333331</ele><time>2026-04-03T11:29:16Z</time></trkpt><trkpt lat="45.34844904015269" lon="11.699164501703436"><ele>136.66666666666666</ele><time>2026-04-03T11:29:17Z</time></trkpt><trkpt lat="45.34837625854632" lon="11.69919476650871"><ele>139.5</ele><time>2026-04-03T11:29:18Z</time></trkpt><trkpt lat="45.348297778230844" lon="11.699237217616474"><ele>142.33333333333334</ele><time>2026-04-03T11:29:19Z</time></trkpt><trkpt lat="45.3482168115022" lon="11.699259509806186"><ele>145.16666666666669</ele><time>2026-04-03T11:29:20Z</time></trkpt><trkpt lat="45.34813378999829" lon="11.69927071932759"><ele>148.0</ele><time>2026-04-03T11:29:21Z</time></trkpt><trkpt lat="45.348061242554685" lon="11.699264612313565"><ele>151.33333333333334</ele><time>2026-04-03T11:29:22Z</time></trkpt><trkpt lat="45.347983715996186" lon="11.699246703054763"><ele>154.66666666666669</ele><time>2026-04-03T11:29:23Z</time></trkpt><trkpt lat="45.34790962352591" lon="11.699216372526848"><ele>158.0</ele><time>2026-04-03T11:29:24Z</time></trkpt><trkpt lat="45.34783430218548" lon="11.69918486257801"><ele>161.33333333333334</ele><time>2026-04-03T11:29:25Z</time></trkpt><trkpt lat="45.347768548684016" lon="11.699187408499828"><ele>164.66666666666666</ele><time>2026-04-03T11:29:26Z</time></trkpt><trkpt lat="45.34769970583513" lon="11.699165726133272"><ele>168.0</ele><time>2026-04-03T11:29:27Z</time></trkpt><trkpt lat="45.34760922992786" lon="11.699186419331193"><ele>168.0</ele><time>2026-04-03T11:29:28Z</time></trkpt><trkpt lat="45.3475352675417" lon="11.69921284634011"><ele>168.0</ele><time>2026-04-03T11:29:29Z</time></trkpt><trkpt lat="45.347453279545576" lon="11.6992444967984"><ele>168.0</ele><time>2026-04-03T11:29:30Z</time></trkpt><trkpt lat="45.347367256535186" lon="11.6992715843453"><ele>168.0</ele><time>2026-04-03T11:29:31Z</time></trkpt><trkpt lat="45.34727942376016" lon="11.699278029633312"><ele>168.0</ele><time>2026-04-03T11:29:32Z</time></trkpt><trkpt lat="45.34718726417009" lon="11.69924923537027"><ele>168.0</ele><time>2026-04-03T11:29:33Z</time></trkpt><trkpt lat="45.3470365697158" lon="11.699223124524371"><ele>169.83333333333334</ele><time>2026-04-03T11:29:35Z</time></trkpt><trkpt lat="45.34696623623504" lon="11.699151849765373"><ele>171.66666666666666</ele><time>2026-04-03T11:29:36Z</time></trkpt><trkpt lat="45.346910573131076" lon="11.699103873298712"><ele>173.5</ele><time>2026-04-03T11:29:37Z</time></trkpt><trkpt lat="45.34684324909157" lon="11.699099319602645"><ele>175.33333333333331</ele><time>2026-04-03T11:29:38Z</time></trkpt><trkpt lat="45.34675177450443" lon="11.69908176185128"><ele>177.16666666666666</ele><time>2026-04-03T11:29:39Z</time></trkpt><trkpt lat="45.34665650913933" lon="11.69903911236002"><ele>179.0</ele><time>2026-04-03T11:29:40Z</time></trkpt><trkpt lat="45.34659422700647" lon="11.698972891787358"><ele>179.0</ele><time>2026-04-03T11:29:41Z</time></trkpt><trkpt lat="45.34653515445177" lon="11.698927594314236"><ele>179.0</ele><time>2026-04-03T11:29:42Z</time></trkpt><trkpt lat="45.346466716075724" lon="11.698914328835084"><ele>179.0</ele><time>2026-04-03T11:29:43Z</time></trkpt><trkpt lat="45.34637714603991" lon="11.69893163178332"><ele>179.0</ele><time>2026-04-03T11:29:44Z</time></trkpt><trkpt lat="45.34629214040692" lon="11.698951893035076"><ele>179.0</ele><time>2026-04-03T11:29:45Z</time></trkpt><trkpt lat="45.346185762920854" lon="11.698967927267764"><ele>179.0</ele><time>2026-04-03T11:29:46Z</time></trkpt><trkpt lat="45.34606221811885" lon="11.698978629105973"><ele>180.79999999999998</ele><time>2026-04-03T11:29:47Z</time></trkpt><trkpt lat="45.34595534946007" lon="11.698975145342489"><ele>182.6</ele><time>2026-04-03T11:29:48Z</time></trkpt><trkpt lat="45.345839265460484" lon="11.6988666656558"><ele>184.4</ele><time>2026-04-03T11:29:49Z</time></trkpt><trkpt lat="45.34574917496839" lon="11.698834740701411"><ele>186.2</ele><time>2026-04-03T11:29:50Z</time></trkpt><trkpt lat="45.345652133766784" lon="11.698787129489904"><ele>188.0</ele><time>2026-04-03T11:29:51Z</time></trkpt><trkpt lat="45.34556988145202" lon="11.698736302930614"><ele>189.83333333333331</ele><time>2026-04-03T11:29:52Z</time></trkpt><trkpt lat="45.34549447985585" lon="11.698677953495233"><ele>191.66666666666666</ele><time>2026-04-03T11:29:53Z</time></trkpt><trkpt lat="45.34542575494276" lon="11.698619757122598"><ele>193.5</ele><time>2026-04-03T11:29:54Z</time></trkpt><trkpt lat="45.34534864931144" lon="11.698555146524658"><ele>195.33333333333331</ele><time>2026-04-03T11:29:55Z</time></trkpt><trkpt lat="45.34527328094662" lon="11.698495135385238"><ele>197.16666666666666</ele><time>2026-04-03T11:29:56Z</time></trkpt><trkpt lat="45.34520076205232" lon="11.698448096100297"><ele>199.0</ele><time>2026-04-03T11:29:57Z</time></trkpt><trkpt lat="45.345131258907934" lon="11.698425053411425"><ele>198.99999999999997</ele><time>2026-04-03T11:29:58Z</time></trkpt><trkpt lat="45.34505682520004" lon="11.69842275820318"><ele>199.0</ele><time>2026-04-03T11:29:59Z</time></trkpt><trkpt lat="45.34497021527946" lon="11.698503466544473"><ele>199.0</ele><time>2026-04-03T11:30:01Z</time></trkpt><trkpt lat="45.344940014425454" lon="11.698585304256923"><ele>199.0</ele><time>2026-04-03T11:30:02Z</time></trkpt><trkpt lat="45.344912025723794" lon="11.69867129960896"><ele>198.99999999999997</ele><time>2026-04-03T11:30:03Z</time></trkpt><trkpt lat="45.34486611789641" lon="11.698847080621945"><ele>199.0</ele><time>2026-04-03T11:30:05Z</time></trkpt><trkpt lat="45.34483124294058" lon="11.698939989988666"><ele>199.83333333333331</ele><time>2026-04-03T11:30:06Z</time></trkpt><trkpt lat="45.344750686059676" lon="11.699036133903766"><ele>200.66666666666666</ele><time>2026-04-03T11:30:08Z</time></trkpt><trkpt lat="45.34468856679964" lon="11.699056760180857"><ele>201.5</ele><time>2026-04-03T11:30:09Z</time></trkpt><trkpt lat="45.344625762340584" lon="11.699045095760017"><ele>202.33333333333331</ele><time>2026-04-03T11:30:10Z</time></trkpt><trkpt lat="45.34453929163293" lon="11.699021076790057"><ele>203.16666666666666</ele><time>2026-04-03T11:30:11Z</time></trkpt><trkpt lat="45.344441537132894" lon="11.69898242090054"><ele>204.0</ele><time>2026-04-03T11:30:12Z</time></trkpt><trkpt lat="45.34433973893084" lon="11.698949667580283"><ele>205.0</ele><time>2026-04-03T11:30:13Z</time></trkpt><trkpt lat="45.34422540477151" lon="11.698915777183677"><ele>206.0</ele><time>2026-04-03T11:30:14Z</time></trkpt><trkpt lat="45.34410694616302" lon="11.698855939149025"><ele>207.0</ele><time>2026-04-03T11:30:15Z</time></trkpt><trkpt lat="45.34400801569157" lon="11.698829367237886"><ele>208.0</ele><time>2026-04-03T11:30:16Z</time></trkpt><trkpt lat="45.34391445631465" lon="11.698803429012544"><ele>209.0</ele><time>2026-04-03T11:30:17Z</time></trkpt><trkpt lat="45.34381131663154" lon="11.698770503884495"><ele>209.0</ele><time>2026-04-03T11:30:18Z</time></trkpt><trkpt lat="45.343709436449586" lon="11.698735585026006"><ele>209.0</ele><time>2026-04-03T11:30:19Z</time></trkpt><trkpt lat="45.34359234561805" lon="11.698700330986524"><ele>209.0</ele><time>2026-04-03T11:30:20Z</time></trkpt><trkpt lat="45.3435031848606" lon="11.698656123011443"><ele>209.0</ele><time>2026-04-03T11:30:21Z</time></trkpt><trkpt lat="45.34342065084735" lon="11.698630017133365"><ele>209.0</ele><time>2026-04-03T11:30:22Z</time></trkpt><trkpt lat="45.3433199383858" lon="11.69860894828092"><ele>209.0</ele><time>2026-04-03T11:30:23Z</time></trkpt><trkpt lat="45.34322830759569" lon="11.698588111023799"><ele>209.0</ele><time>2026-04-03T11:30:24Z</time></trkpt><trkpt lat="45.343144298550705" lon="11.698573173376172"><ele>209.0</ele><time>2026-04-03T11:30:25Z</time></trkpt><trkpt lat="45.34303506930331" lon="11.698529930503248"><ele>209.0</ele><time>2026-04-03T11:30:26Z</time></trkpt><trkpt lat="45.34291874294204" lon="11.698493529708252"><ele>209.0</ele><time>2026-04-03T11:30:27Z</time></trkpt><trkpt lat="45.34282346517838" lon="11.698462385166819"><ele>208.16666666666669</ele><time>2026-04-03T11:30:28Z</time></trkpt><trkpt lat="45.342733934319746" lon="11.69843020978847"><ele>207.33333333333334</ele><time>2026-04-03T11:30:29Z</time></trkpt><trkpt lat="45.34266458233224" lon="11.698404202606804"><ele>206.5</ele><time>2026-04-03T11:30:30Z</time></trkpt><trkpt lat="45.34259790144667" lon="11.69838980533263"><ele>205.66666666666669</ele><time>2026-04-03T11:30:31Z</time></trkpt><trkpt lat="45.34251333903174" lon="11.698393521171912"><ele>204.83333333333334</ele><time>2026-04-03T11:30:32Z</time></trkpt><trkpt lat="45.34243104959792" lon="11.69842418287362"><ele>204.0</ele><time>2026-04-03T11:30:33Z</time></trkpt><trkpt lat="45.34237277090331" lon="11.69848368815262"><ele>204.0</ele><time>2026-04-03T11:30:34Z</time></trkpt><trkpt lat="45.34231764310673" lon="11.698526953203613"><ele>204.0</ele><time>2026-04-03T11:30:35Z</time></trkpt><trkpt lat="45.34225055695368" lon="11.698608779025516"><ele>204.0</ele><time>2026-04-03T11:30:37Z</time></trkpt><trkpt lat="45.34219624374128" lon="11.698699064622556"><ele>204.0</ele><time>2026-04-03T11:30:38Z</time></trkpt><trkpt lat="45.34214571907242" lon="11.698833135231945"><ele>204.0</ele><time>2026-04-03T11:30:40Z</time></trkpt><trkpt lat="45.342100439006224" lon="11.698900336022461"><ele>204.0</ele><time>2026-04-03T11:30:41Z</time></trkpt><trkpt lat="45.342057043842566" lon="11.69900215182281"><ele>203.0</ele><time>2026-04-03T11:30:42Z</time></trkpt><trkpt lat="45.34202492712459" lon="11.69912089652334"><ele>202.0</ele><time>2026-04-03T11:30:43Z</time></trkpt><trkpt lat="45.34197443740755" lon="11.699237496617892"><ele>201.0</ele><time>2026-04-03T11:30:44Z</time></trkpt><trkpt lat="45.34190404705159" lon="11.699315702828134"><ele>200.0</ele><time>2026-04-03T11:30:45Z</time></trkpt><trkpt lat="45.34183551885473" lon="11.699437670917307"><ele>199.0</ele><time>2026-04-03T11:30:47Z</time></trkpt><trkpt lat="45.34178593986688" lon="11.699499106481541"><ele>198.99999999999997</ele><time>2026-04-03T11:30:48Z</time></trkpt><trkpt lat="45.34174720927103" lon="11.699578469960215"><ele>199.0</ele><time>2026-04-03T11:30:49Z</time></trkpt><trkpt lat="45.34169127316553" lon="11.699680148996036"><ele>199.0</ele><time>2026-04-03T11:30:51Z</time></trkpt><trkpt lat="45.341736344971046" lon="11.699605911698272"><ele>199.0</ele><time>2026-04-03T11:31:29Z</time></trkpt><trkpt lat="45.34179156207112" lon="11.699471366562085"><ele>198.99999999999997</ele><time>2026-04-03T11:31:31Z</time></trkpt><trkpt lat="45.34186297651258" lon="11.699370897790933"><ele>199.0</ele><time>2026-04-03T11:31:33Z</time></trkpt><trkpt lat="45.34191827426125" lon="11.699295507058604"><ele>198.79999999999998</ele><time>2026-04-03T11:31:35Z</time></trkpt><trkpt lat="45.341975335360694" lon="11.699199404132944"><ele>198.6</ele><time>2026-04-03T11:31:39Z</time></trkpt><trkpt lat="45.341907941569346" lon="11.699079686708458"><ele>198.4</ele><time>2026-04-03T11:32:03Z</time></trkpt><trkpt lat="45.34180552195977" lon="11.698990855785938"><ele>198.2</ele><time>2026-04-03T11:32:05Z</time></trkpt><trkpt lat="45.34174581804281" lon="11.698938429831436"><ele>198.0</ele><time>2026-04-03T11:32:06Z</time></trkpt><trkpt lat="45.34168472410334" lon="11.69888847524311"><ele>198.0</ele><time>2026-04-03T11:32:07Z</time></trkpt><trkpt lat="45.34159697615732" lon="11.698819472402782"><ele>198.0</ele><time>2026-04-03T11:32:09Z</time></trkpt><trkpt lat="45.34154257777586" lon="11.698724562584527"><ele>198.0</ele><time>2026-04-03T11:32:12Z</time></trkpt><trkpt lat="45.341440587498674" lon="11.698686247438724"><ele>198.0</ele><time>2026-04-03T11:32:14Z</time></trkpt><trkpt lat="45.34150684489709" lon="11.698501683383922"><ele>198.0</ele><time>2026-04-03T11:32:16Z</time></trkpt><trkpt lat="45.341527164685154" lon="11.698255696955178"><ele>197.25</ele><time>2026-04-03T11:32:17Z</time></trkpt><trkpt lat="45.34139511505851" lon="11.698117227112002"><ele>196.5</ele><time>2026-04-03T11:32:18Z</time></trkpt><trkpt lat="45.341310678878756" lon="11.698013958952954"><ele>195.75</ele><time>2026-04-03T11:32:20Z</time></trkpt><trkpt lat="45.34118306890074" lon="11.697867796949893"><ele>195.0</ele><time>2026-04-03T11:32:21Z</time></trkpt><trkpt lat="45.34113062909462" lon="11.697754521971635"><ele>195.75</ele><time>2026-04-03T11:32:24Z</time></trkpt><trkpt lat="45.34105802108517" lon="11.697628600714"><ele>196.5</ele><time>2026-04-03T11:32:26Z</time></trkpt><trkpt lat="45.341004033647394" lon="11.697547696036436"><ele>197.25</ele><time>2026-04-03T11:32:28Z</time></trkpt><trkpt lat="45.34094557825633" lon="11.697460096684264"><ele>198.0</ele><time>2026-04-03T11:32:31Z</time></trkpt><trkpt lat="45.34044996631029" lon="11.697612466033313"><ele>198.0</ele><time>2026-04-03T11:32:40Z</time></trkpt><trkpt lat="45.340525450010226" lon="11.697827969671145"><ele>198.0</ele><time>2026-04-03T11:32:57Z</time></trkpt><trkpt lat="45.34044472609964" lon="11.697747269060141"><ele>198.0</ele><time>2026-04-03T11:32:59Z</time></trkpt><trkpt lat="45.34037858002936" lon="11.697681012975806"><ele>198.0</ele><time>2026-04-03T11:33:02Z</time></trkpt><trkpt lat="45.340284839746936" lon="11.697651235601386"><ele>198.0</ele><time>2026-04-03T11:33:05Z</time></trkpt><trkpt lat="45.34026848268646" lon="11.697495369932131"><ele>198.0</ele><time>2026-04-03T11:33:06Z</time></trkpt><trkpt lat="45.340183908883375" lon="11.697406965351975"><ele>198.0</ele><time>2026-04-03T11:33:08Z</time></trkpt><trkpt lat="45.340096522263906" lon="11.697340846968046"><ele>198.0</ele><time>2026-04-03T11:33:10Z</time></trkpt><trkpt lat="45.3400149832713" lon="11.69737887328953"><ele>198.0</ele><time>2026-04-03T11:33:12Z</time></trkpt><trkpt lat="45.33994081842128" lon="11.69740124784648"><ele>198.0</ele><time>2026-04-03T11:33:14Z</time></trkpt><trkpt lat="45.33987138164454" lon="11.69726114819549"><ele>198.0</ele><time>2026-04-03T11:33:16Z</time></trkpt><trkpt lat="45.33975230470584" lon="11.697254907616346"><ele>198.0</ele><time>2026-04-03T11:33:18Z</time></trkpt><trkpt lat="45.339690055688834" lon="11.697218116385605"><ele>198.0</ele><time>2026-04-03T11:33:19Z</time></trkpt><trkpt lat="45.339626156611004" lon="11.69718948025256"><ele>198.0</ele><time>2026-04-03T11:33:20Z</time></trkpt><trkpt lat="45.33952307381108" lon="11.69719800465276"><ele>198.0</ele><time>2026-04-03T11:33:22Z</time></trkpt><trkpt lat="45.33943078691947" lon="11.697284511619465"><ele>200.75</ele><time>2026-04-03T11:33:24Z</time></trkpt><trkpt lat="45.33935372026137" lon="11.697366024783994"><ele>203.5</ele><time>2026-04-03T11:33:26Z</time></trkpt><trkpt lat="45.339242652660175" lon="11.697441455769773"><ele>206.25</ele><time>2026-04-03T11:33:28Z</time></trkpt><trkpt lat="45.33913703293735" lon="11.697482599748794"><ele>209.0</ele><time>2026-04-03T11:33:30Z</time></trkpt><trkpt lat="45.339003703596106" lon="11.6975454417713"><ele>209.0</ele><time>2026-04-03T11:33:32Z</time></trkpt><trkpt lat="45.33895146489264" lon="11.697597566466529"><ele>209.0</ele><time>2026-04-03T11:33:33Z</time></trkpt><trkpt lat="45.33889728777409" lon="11.697654727542785"><ele>209.0</ele><time>2026-04-03T11:33:34Z</time></trkpt><trkpt lat="45.338844077252624" lon="11.69770331326245"><ele>209.0</ele><time>2026-04-03T11:33:35Z</time></trkpt><trkpt lat="45.33878389041744" lon="11.69775408667582"><ele>209.0</ele><time>2026-04-03T11:33:36Z</time></trkpt><trkpt lat="45.33872332894381" lon="11.69780729253954"><ele>209.0</ele><time>2026-04-03T11:33:37Z</time></trkpt><trkpt lat="45.3386544373891" lon="11.697861068381204"><ele>209.0</ele><time>2026-04-03T11:33:39Z</time></trkpt><trkpt lat="45.33860296831032" lon="11.697778212517472"><ele>212.66666666666669</ele><time>2026-04-03T11:33:50Z</time></trkpt><trkpt lat="45.338618345335135" lon="11.697676658775372"><ele>216.33333333333334</ele><time>2026-04-03T11:33:52Z</time></trkpt><trkpt lat="45.33861835736912" lon="11.69757719054417"><ele>220.0</ele><time>2026-04-03T11:33:53Z</time></trkpt><trkpt lat="45.338615714125275" lon="11.69747967354907"><ele>223.66666666666669</ele><time>2026-04-03T11:33:54Z</time></trkpt><trkpt lat="45.33858972531723" lon="11.697315515308564"><ele>227.33333333333334</ele><time>2026-04-03T11:33:56Z</time></trkpt><trkpt lat="45.33855356154287" lon="11.697231246331393"><ele>231.0</ele><time>2026-04-03T11:33:57Z</time></trkpt><trkpt lat="45.33850105148411" lon="11.697138571639533"><ele>231.0</ele><time>2026-04-03T11:33:58Z</time></trkpt><trkpt lat="45.33843732905815" lon="11.697045785764251"><ele>231.0</ele><time>2026-04-03T11:33:59Z</time></trkpt><trkpt lat="45.33837090204328" lon="11.696951242026136"><ele>231.0</ele><time>2026-04-03T11:34:00Z</time></trkpt><trkpt lat="45.33830575920277" lon="11.696844057312275"><ele>231.0</ele><time>2026-04-03T11:34:02Z</time></trkpt><trkpt lat="45.33824576262202" lon="11.69659998046334"><ele>231.33333333333334</ele><time>2026-04-03T11:34:23Z</time></trkpt><trkpt lat="45.338257361150774" lon="11.69651070135934"><ele>231.66666666666669</ele><time>2026-04-03T11:34:24Z</time></trkpt><trkpt lat="45.338341589883065" lon="11.696447143824287"><ele>232.0</ele><time>2026-04-03T11:34:25Z</time></trkpt><trkpt lat="45.3384000547811" lon="11.69638045007749"><ele>232.33333333333334</ele><time>2026-04-03T11:34:26Z</time></trkpt><trkpt lat="45.33846164793437" lon="11.696316211099099"><ele>232.66666666666669</ele><time>2026-04-03T11:34:27Z</time></trkpt><trkpt lat="45.33853100350809" lon="11.696288371994058"><ele>233.0</ele><time>2026-04-03T11:34:28Z</time></trkpt><trkpt lat="45.33858777121735" lon="11.696170507442842"><ele>234.0</ele><time>2026-04-03T11:34:29Z</time></trkpt><trkpt lat="45.33862935544627" lon="11.69604580975334"><ele>235.0</ele><time>2026-04-03T11:34:30Z</time></trkpt><trkpt lat="45.338695113320405" lon="11.695930628964845"><ele>236.0</ele><time>2026-04-03T11:34:31Z</time></trkpt><trkpt lat="45.33875947243319" lon="11.69578380187158"><ele>237.0</ele><time>2026-04-03T11:34:32Z</time></trkpt><trkpt lat="45.338827457013736" lon="11.695643475574322"><ele>238.0</ele><time>2026-04-03T11:34:33Z</time></trkpt><trkpt lat="45.33891639316157" lon="11.69550279761892"><ele>236.8</ele><time>2026-04-03T11:34:34Z</time></trkpt><trkpt lat="45.338988879686" lon="11.695365449865843"><ele>235.60000000000002</ele><time>2026-04-03T11:34:35Z</time></trkpt><trkpt lat="45.339048997921104" lon="11.695222893952776"><ele>234.39999999999998</ele><time>2026-04-03T11:34:36Z</time></trkpt><trkpt lat="45.33911242029394" lon="11.69510633787993"><ele>233.2</ele><time>2026-04-03T11:34:37Z</time></trkpt><trkpt lat="45.339170912168164" lon="11.69498676547039"><ele>232.0</ele><time>2026-04-03T11:34:38Z</time></trkpt><trkpt lat="45.33920963994039" lon="11.694897036580661"><ele>231.99999999999997</ele><time>2026-04-03T11:34:39Z</time></trkpt><trkpt lat="45.33921754316808" lon="11.694778703035926"><ele>232.0</ele><time>2026-04-03T11:34:41Z</time></trkpt><trkpt lat="45.33923200903709" lon="11.694689588636301"><ele>232.0</ele><time>2026-04-03T11:34:43Z</time></trkpt><trkpt lat="45.339173585016674" lon="11.69463165059466"><ele>232.0</ele><time>2026-04-03T11:34:48Z</time></trkpt><trkpt lat="45.33907590845795" lon="11.694587088565013"><ele>231.99999999999997</ele><time>2026-04-03T11:34:50Z</time></trkpt><trkpt lat="45.33901024636588" lon="11.694634324806763"><ele>232.0</ele><time>2026-04-03T11:34:51Z</time></trkpt><trkpt lat="45.33894418883743" lon="11.69470201488541"><ele>232.0</ele><time>2026-04-03T11:34:53Z</time></trkpt><trkpt lat="45.33888446534724" lon="11.694755177125876"><ele>232.0</ele><time>2026-04-03T11:34:55Z</time></trkpt><trkpt lat="45.33878387021683" lon="11.694799629942365"><ele>232.0</ele><time>2026-04-03T11:34:58Z</time></trkpt><trkpt lat="45.338693061587485" lon="11.694831756530126"><ele>232.0</ele><time>2026-04-03T11:35:00Z</time></trkpt><trkpt lat="45.33859783987106" lon="11.694862939762578"><ele>232.0</ele><time>2026-04-03T11:35:02Z</time></trkpt><trkpt lat="45.338516759867126" lon="11.694885748513576"><ele>234.16666666666666</ele><time>2026-04-03T11:35:04Z</time></trkpt><trkpt lat="45.338448651842256" lon="11.69489885928518"><ele>236.33333333333331</ele><time>2026-04-03T11:35:05Z</time></trkpt><trkpt lat="45.33837736367591" lon="11.694909776436251"><ele>238.5</ele><time>2026-04-03T11:35:06Z</time></trkpt><trkpt lat="45.33830407397648" lon="11.69494005304676"><ele>240.66666666666669</ele><time>2026-04-03T11:35:07Z</time></trkpt><trkpt lat="45.33822353761376" lon="11.694940063560782"><ele>242.83333333333334</ele><time>2026-04-03T11:35:08Z</time></trkpt><trkpt lat="45.338143004332494" lon="11.694937277407929"><ele>245.0</ele><time>2026-04-03T11:35:10Z</time></trkpt><trkpt lat="45.338068880059474" lon="11.694939847603328"><ele>244.8</ele><time>2026-04-03T11:35:12Z</time></trkpt><trkpt lat="45.33799908196776" lon="11.694940175060673"><ele>244.6</ele><time>2026-04-03T11:35:14Z</time></trkpt><trkpt lat="45.337913460909824" lon="11.694931165037463"><ele>244.39999999999998</ele><time>2026-04-03T11:35:16Z</time></trkpt><trkpt lat="45.33778798190252" lon="11.694906834054759"><ele>244.2</ele><time>2026-04-03T11:35:18Z</time></trkpt><trkpt lat="45.33770261424787" lon="11.694884269987563"><ele>244.0</ele><time>2026-04-03T11:35:19Z</time></trkpt><trkpt lat="45.337619152291154" lon="11.694857980662611"><ele>244.0</ele><time>2026-04-03T11:35:20Z</time></trkpt><trkpt lat="45.33752678980704" lon="11.694813674947723"><ele>243.99999999999997</ele><time>2026-04-03T11:35:21Z</time></trkpt><trkpt lat="45.337448481306296" lon="11.694771773101985"><ele>243.99999999999997</ele><time>2026-04-03T11:35:22Z</time></trkpt><trkpt lat="45.33739155453082" lon="11.694730715306402"><ele>244.0</ele><time>2026-04-03T11:35:23Z</time></trkpt><trkpt lat="45.3372974270467" lon="11.694662325303646"><ele>244.0</ele><time>2026-04-03T11:35:25Z</time></trkpt><trkpt lat="45.3371908371009" lon="11.69471026104208"><ele>243.0</ele><time>2026-04-03T11:35:27Z</time></trkpt><trkpt lat="45.337073107012266" lon="11.69481862178687"><ele>241.99999999999997</ele><time>2026-04-03T11:35:29Z</time></trkpt><trkpt lat="45.3370007876055" lon="11.694884815417133"><ele>240.99999999999997</ele><time>2026-04-03T11:35:30Z</time></trkpt><trkpt lat="45.33688662323992" lon="11.694975301067592"><ele>240.0</ele><time>2026-04-03T11:35:32Z</time></trkpt><trkpt lat="45.33680881438311" lon="11.695019604407642"><ele>239.0</ele><time>2026-04-03T11:35:33Z</time></trkpt><trkpt lat="45.336731099727714" lon="11.695102959440979"><ele>239.00000000000003</ele><time>2026-04-03T11:35:34Z</time></trkpt><trkpt lat="45.336661390709736" lon="11.69518720929298"><ele>239.0</ele><time>2026-04-03T11:35:35Z</time></trkpt><trkpt lat="45.33662394127586" lon="11.69527551568308"><ele>239.0</ele><time>2026-04-03T11:35:36Z</time></trkpt><trkpt lat="45.33655582586325" lon="11.695350147801898"><ele>239.0</ele><time>2026-04-03T11:35:37Z</time></trkpt><trkpt lat="45.336496506371724" lon="11.695439032501504"><ele>239.00000000000003</ele><time>2026-04-03T11:35:38Z</time></trkpt><trkpt lat="45.33643172248767" lon="11.695515095723575"><ele>239.0</ele><time>2026-04-03T11:35:39Z</time></trkpt><trkpt lat="45.336378194659915" lon="11.695571446261464"><ele>246.0</ele><time>2026-04-03T11:35:40Z</time></trkpt><trkpt lat="45.33626881773269" lon="11.69566694991329"><ele>253.0</ele><time>2026-04-03T11:35:42Z</time></trkpt><trkpt lat="45.3361952074668" lon="11.695719431980468"><ele>260.0</ele><time>2026-04-03T11:35:44Z</time></trkpt><trkpt lat="45.33617492309095" lon="11.69598944498398"><ele>267.0</ele><time>2026-04-03T11:35:47Z</time></trkpt><trkpt lat="45.33615039747416" lon="11.69610372226249"><ele>267.4</ele><time>2026-04-03T11:35:48Z</time></trkpt><trkpt lat="45.336117491861735" lon="11.696231614605786"><ele>267.79999999999995</ele><time>2026-04-03T11:35:49Z</time></trkpt><trkpt lat="45.336080746150394" lon="11.696368863275039"><ele>268.2</ele><time>2026-04-03T11:35:50Z</time></trkpt><trkpt lat="45.33604994623262" lon="11.69653326389837"><ele>268.59999999999997</ele><time>2026-04-03T11:35:51Z</time></trkpt><trkpt lat="45.33600445221453" lon="11.696688710679204"><ele>269.0</ele><time>2026-04-03T11:35:52Z</time></trkpt><trkpt lat="45.335954822828626" lon="11.696798391602806"><ele>269.0</ele><time>2026-04-03T11:35:53Z</time></trkpt><trkpt lat="45.33591738837411" lon="11.696902950007548"><ele>269.0</ele><time>2026-04-03T11:35:54Z</time></trkpt><trkpt lat="45.33587630909384" lon="11.697006091480622"><ele>269.0</ele><time>2026-04-03T11:35:55Z</time></trkpt><trkpt lat="45.33582217537428" lon="11.697117321189605"><ele>269.0</ele><time>2026-04-03T11:35:56Z</time></trkpt><trkpt lat="45.33576646159529" lon="11.697219465555998"><ele>269.0</ele><time>2026-04-03T11:35:57Z</time></trkpt><trkpt lat="45.335698709253116" lon="11.697327209852306"><ele>268.0</ele><time>2026-04-03T11:35:58Z</time></trkpt><trkpt lat="45.335635571300514" lon="11.69741364315929"><ele>267.0</ele><time>2026-04-03T11:35:59Z</time></trkpt><trkpt lat="45.33559354283273" lon="11.697495145615084"><ele>266.0</ele><time>2026-04-03T11:36:00Z</time></trkpt><trkpt lat="45.33556212027723" lon="11.697635011405831"><ele>265.0</ele><time>2026-04-03T11:36:02Z</time></trkpt><trkpt lat="45.33556492187036" lon="11.697755797169643"><ele>264.0</ele><time>2026-04-03T11:36:10Z</time></trkpt><trkpt lat="45.335553793777926" lon="11.697854337128563"><ele>263.0</ele><time>2026-04-03T11:36:11Z</time></trkpt><trkpt lat="45.33561180174019" lon="11.697946025190813"><ele>265.0</ele><time>2026-04-03T11:36:12Z</time></trkpt><trkpt lat="45.335545061375036" lon="11.698059970299118"><ele>267.0</ele><time>2026-04-03T11:36:13Z</time></trkpt><trkpt lat="45.335549529743986" lon="11.698181331981194"><ele>269.0</ele><time>2026-04-03T11:36:14Z</time></trkpt><trkpt lat="45.33554702505323" lon="11.698303147039272"><ele>271.0</ele><time>2026-04-03T11:36:16Z</time></trkpt><trkpt lat="45.33548620620396" lon="11.698329431485037"><ele>273.0</ele><time>2026-04-03T11:36:27Z</time></trkpt><trkpt lat="45.335465605281556" lon="11.698240478678962"><ele>275.0</ele><time>2026-04-03T11:36:29Z</time></trkpt><trkpt lat="45.3355237281877" lon="11.698161719276307"><ele>273.0</ele><time>2026-04-03T11:36:32Z</time></trkpt><trkpt lat="45.33556716071193" lon="11.698087633639542"><ele>271.0</ele><time>2026-04-03T11:36:34Z</time></trkpt><trkpt lat="45.33555789038086" lon="11.697976858714274"><ele>269.0</ele><time>2026-04-03T11:36:36Z</time></trkpt><trkpt lat="45.335565464818536" lon="11.69781991378088"><ele>267.0</ele><time>2026-04-03T11:36:38Z</time></trkpt><trkpt lat="45.335589711245795" lon="11.697700021727801"><ele>265.0</ele><time>2026-04-03T11:36:40Z</time></trkpt><trkpt lat="45.33564521077232" lon="11.697748773109247"><ele>263.0</ele><time>2026-04-03T11:36:48Z</time></trkpt><trkpt lat="45.33561853160673" lon="11.697650945855727"><ele>265.4</ele><time>2026-04-03T11:36:53Z</time></trkpt><trkpt lat="45.33550362417255" lon="11.697655111955964"><ele>267.8</ele><time>2026-04-03T11:36:55Z</time></trkpt><trkpt lat="45.33542040132464" lon="11.697588680905334"><ele>270.2</ele><time>2026-04-03T11:36:57Z</time></trkpt><trkpt lat="45.33534036822552" lon="11.697625724825208"><ele>272.6</ele><time>2026-04-03T11:36:58Z</time></trkpt><trkpt lat="45.33529904484354" lon="11.697706726686024"><ele>275.0</ele><time>2026-04-03T11:37:00Z</time></trkpt><trkpt lat="45.33531939568208" lon="11.698001809457672"><ele>275.0</ele><time>2026-04-03T11:37:01Z</time></trkpt><trkpt lat="45.33532495896342" lon="11.698108441633883"><ele>275.0</ele><time>2026-04-03T11:37:02Z</time></trkpt><trkpt lat="45.335307600611486" lon="11.6982347309964"><ele>275.0</ele><time>2026-04-03T11:37:04Z</time></trkpt><trkpt lat="45.33527609275995" lon="11.698316748743954"><ele>275.0</ele><time>2026-04-03T11:37:06Z</time></trkpt><trkpt lat="45.33519432712859" lon="11.698377699422386"><ele>275.0</ele><time>2026-04-03T11:37:08Z</time></trkpt><trkpt lat="45.335129165333754" lon="11.698409617738593"><ele>275.0</ele><time>2026-04-03T11:37:09Z</time></trkpt><trkpt lat="45.335059891187505" lon="11.698456459905794"><ele>275.0</ele><time>2026-04-03T11:37:10Z</time></trkpt><trkpt lat="45.33498774745498" lon="11.698513964711614"><ele>275.0</ele><time>2026-04-03T11:37:11Z</time></trkpt><trkpt lat="45.33493238765492" lon="11.698595406213185"><ele>275.0</ele><time>2026-04-03T11:37:12Z</time></trkpt><trkpt lat="45.33489476929596" lon="11.698702976175339"><ele>275.0</ele><time>2026-04-03T11:37:13Z</time></trkpt><trkpt lat="45.33486927177519" lon="11.698789432158437"><ele>275.0</ele><time>2026-04-03T11:37:14Z</time></trkpt><trkpt lat="45.33479573432196" lon="11.698914097689007"><ele>275.0</ele><time>2026-04-03T11:37:16Z</time></trkpt><trkpt lat="45.33474498582641" lon="11.69897545241092"><ele>276.6666666666667</ele><time>2026-04-03T11:37:17Z</time></trkpt><trkpt lat="45.334683317187626" lon="11.69903110914701"><ele>278.33333333333337</ele><time>2026-04-03T11:37:18Z</time></trkpt><trkpt lat="45.33461994335478" lon="11.699091661818969"><ele>280.0</ele><time>2026-04-03T11:37:19Z</time></trkpt><trkpt lat="45.334551023233296" lon="11.699137001877665"><ele>281.6666666666667</ele><time>2026-04-03T11:37:20Z</time></trkpt><trkpt lat="45.334466109963415" lon="11.699153975402725"><ele>283.3333333333333</ele><time>2026-04-03T11:37:21Z</time></trkpt><trkpt lat="45.334387147098184" lon="11.699159687661588"><ele>285.0</ele><time>2026-04-03T11:37:22Z</time></trkpt><trkpt lat="45.334295914336444" lon="11.699160347618482"><ele>285.0</ele><time>2026-04-03T11:37:23Z</time></trkpt><trkpt lat="45.334228949375884" lon="11.69914568349354"><ele>285.0</ele><time>2026-04-03T11:37:24Z</time></trkpt><trkpt lat="45.33415580806201" lon="11.699164753163117"><ele>285.0</ele><time>2026-04-03T11:37:27Z</time></trkpt><trkpt lat="45.33407608526796" lon="11.699109114049955"><ele>285.0</ele><time>2026-04-03T11:37:29Z</time></trkpt><trkpt lat="45.33404134341693" lon="11.699028162047767"><ele>285.0</ele><time>2026-04-03T11:37:30Z</time></trkpt><trkpt lat="45.33396560885983" lon="11.698949490317908"><ele>285.0</ele><time>2026-04-03T11:37:32Z</time></trkpt><trkpt lat="45.333870282270205" lon="11.69898124848034"><ele>283.2</ele><time>2026-04-03T11:37:33Z</time></trkpt><trkpt lat="45.333755356085206" lon="11.698930295009603"><ele>281.4</ele><time>2026-04-03T11:37:35Z</time></trkpt><trkpt lat="45.333667560607054" lon="11.698883148586594"><ele>279.6</ele><time>2026-04-03T11:37:37Z</time></trkpt><trkpt lat="45.33356767610129" lon="11.698842846555413"><ele>277.8</ele><time>2026-04-03T11:37:39Z</time></trkpt><trkpt lat="45.33344864977362" lon="11.698820363191215"><ele>276.0</ele><time>2026-04-03T11:37:41Z</time></trkpt><trkpt lat="45.333349080030885" lon="11.698802362099803"><ele>276.0</ele><time>2026-04-03T11:37:43Z</time></trkpt><trkpt lat="45.333284788745104" lon="11.6987508624283"><ele>276.0</ele><time>2026-04-03T11:37:45Z</time></trkpt><trkpt lat="45.33324401117002" lon="11.698677295407307"><ele>276.0</ele><time>2026-04-03T11:37:46Z</time></trkpt><trkpt lat="45.333207704349476" lon="11.698596526505593"><ele>276.0</ele><time>2026-04-03T11:37:47Z</time></trkpt><trkpt lat="45.33313661460245" lon="11.698496886852661"><ele>276.0</ele><time>2026-04-03T11:37:49Z</time></trkpt><trkpt lat="45.33305609707693" lon="11.698491678743864"><ele>276.0</ele><time>2026-04-03T11:37:51Z</time></trkpt><trkpt lat="45.3329347526787" lon="11.698529162544176"><ele>278.2</ele><time>2026-04-03T11:37:53Z</time></trkpt><trkpt lat="45.3328137516631" lon="11.698572163644922"><ele>280.40000000000003</ele><time>2026-04-03T11:37:55Z</time></trkpt><trkpt lat="45.33275059307298" lon="11.698584965895995"><ele>282.6</ele><time>2026-04-03T11:37:56Z</time></trkpt><trkpt lat="45.33263891053171" lon="11.698631121297382"><ele>284.8</ele><time>2026-04-03T11:37:58Z</time></trkpt><trkpt lat="45.33254949742069" lon="11.698662554205153"><ele>287.0</ele><time>2026-04-03T11:38:00Z</time></trkpt><trkpt lat="45.33245692057494" lon="11.698705128345258"><ele>282.83333333333337</ele><time>2026-04-03T11:38:02Z</time></trkpt><trkpt lat="45.332382510261844" lon="11.698723128444891"><ele>278.6666666666667</ele><time>2026-04-03T11:38:05Z</time></trkpt><trkpt lat="45.33230469714539" lon="11.698736464510654"><ele>274.5</ele><time>2026-04-03T11:38:08Z</time></trkpt><trkpt lat="45.33223421420712" lon="11.698782928547425"><ele>270.3333333333333</ele><time>2026-04-03T11:38:11Z</time></trkpt><trkpt lat="45.332118705087936" lon="11.698782078298903"><ele>266.16666666666663</ele><time>2026-04-03T11:38:13Z</time></trkpt><trkpt lat="45.33202654816606" lon="11.698788759278278"><ele>262.0</ele><time>2026-04-03T11:38:15Z</time></trkpt><trkpt lat="45.331934853470585" lon="11.698804915651591"><ele>260.6</ele><time>2026-04-03T11:38:17Z</time></trkpt><trkpt lat="45.33186857002539" lon="11.698840239283763"><ele>259.2</ele><time>2026-04-03T11:38:18Z</time></trkpt><trkpt lat="45.331761457709916" lon="11.698875074834282"><ele>257.8</ele><time>2026-04-03T11:38:20Z</time></trkpt><trkpt lat="45.33168602855031" lon="11.698919874499033"><ele>256.4</ele><time>2026-04-03T11:38:21Z</time></trkpt><trkpt lat="45.331575423969355" lon="11.69895520081343"><ele>255.0</ele><time>2026-04-03T11:38:22Z</time></trkpt><trkpt lat="45.33148464144871" lon="11.698998833352395"><ele>255.0</ele><time>2026-04-03T11:38:23Z</time></trkpt><trkpt lat="45.331421158007515" lon="11.699060432204302"><ele>255.00000000000003</ele><time>2026-04-03T11:38:24Z</time></trkpt><trkpt lat="45.33134716297017" lon="11.699091883949622"><ele>255.0</ele><time>2026-04-03T11:38:25Z</time></trkpt><trkpt lat="45.33128420283683" lon="11.69910368457762"><ele>255.0</ele><time>2026-04-03T11:38:26Z</time></trkpt><trkpt lat="45.33121398088855" lon="11.699137933347085"><ele>255.00000000000003</ele><time>2026-04-03T11:38:28Z</time></trkpt><trkpt lat="45.331160790169726" lon="11.699202986085355"><ele>255.0</ele><time>2026-04-03T11:38:29Z</time></trkpt><trkpt lat="45.33111093428127" lon="11.699261284584919"><ele>255.0</ele><time>2026-04-03T11:38:30Z</time></trkpt><trkpt lat="45.3310434345822" lon="11.699299884412829"><ele>254.8</ele><time>2026-04-03T11:38:31Z</time></trkpt><trkpt lat="45.330919575014754" lon="11.699250267581792"><ele>254.6</ele><time>2026-04-03T11:38:33Z</time></trkpt><trkpt lat="45.33084736706552" lon="11.69925539375555"><ele>254.39999999999998</ele><time>2026-04-03T11:38:34Z</time></trkpt><trkpt lat="45.33076978644053" lon="11.699395201738332"><ele>254.2</ele><time>2026-04-03T11:38:35Z</time></trkpt><trkpt lat="45.33068450454133" lon="11.699330564194696"><ele>254.0</ele><time>2026-04-03T11:38:36Z</time></trkpt><trkpt lat="45.330579585004166" lon="11.699337377284428"><ele>253.5</ele><time>2026-04-03T11:38:37Z</time></trkpt><trkpt lat="45.330452726342855" lon="11.69925052209672"><ele>253.0</ele><time>2026-04-03T11:38:38Z</time></trkpt><trkpt lat="45.330342000389486" lon="11.69920956415011"><ele>252.5</ele><time>2026-04-03T11:38:39Z</time></trkpt><trkpt lat="45.33019529049752" lon="11.699167444990916"><ele>252.0</ele><time>2026-04-03T11:38:40Z</time></trkpt><trkpt lat="45.330066585307016" lon="11.69917320789288"><ele>252.0</ele><time>2026-04-03T11:38:41Z</time></trkpt><trkpt lat="45.329924821879644" lon="11.69920748307541"><ele>252.0</ele><time>2026-04-03T11:38:42Z</time></trkpt><trkpt lat="45.329792516625915" lon="11.699262711964849"><ele>252.0</ele><time>2026-04-03T11:38:43Z</time></trkpt><trkpt lat="45.32969327801538" lon="11.699348050074303"><ele>252.0</ele><time>2026-04-03T11:38:44Z</time></trkpt><trkpt lat="45.32960348818468" lon="11.699385918166655"><ele>247.2</ele><time>2026-04-03T11:38:45Z</time></trkpt><trkpt lat="45.32954439026165" lon="11.699448140559314"><ele>242.39999999999998</ele><time>2026-04-03T11:38:46Z</time></trkpt><trkpt lat="45.329478205866906" lon="11.699587666808833"><ele>237.60000000000002</ele><time>2026-04-03T11:38:48Z</time></trkpt><trkpt lat="45.32957392352404" lon="11.699730701623572"><ele>232.8</ele><time>2026-04-03T11:38:50Z</time></trkpt><trkpt lat="45.329636708225664" lon="11.699744665385658"><ele>228.0</ele><time>2026-04-03T11:38:51Z</time></trkpt><trkpt lat="45.329711502329715" lon="11.699712062122401"><ele>228.0</ele><time>2026-04-03T11:38:52Z</time></trkpt><trkpt lat="45.329797839894674" lon="11.69963205160298"><ele>228.0</ele><time>2026-04-03T11:38:53Z</time></trkpt><trkpt lat="45.329889316785945" lon="11.699564435274576"><ele>228.0</ele><time>2026-04-03T11:38:54Z</time></trkpt><trkpt lat="45.32994488221354" lon="11.69951035636804"><ele>228.0</ele><time>2026-04-03T11:38:55Z</time></trkpt><trkpt lat="45.330030466765024" lon="11.699489728137877"><ele>228.0</ele><time>2026-04-03T11:38:56Z</time></trkpt><trkpt lat="45.33007880358877" lon="11.699645598975362"><ele>228.0</ele><time>2026-04-03T11:38:58Z</time></trkpt><trkpt lat="45.33003395288938" lon="11.699749577826596"><ele>228.0</ele><time>2026-04-03T11:38:59Z</time></trkpt><trkpt lat="45.32993511494824" lon="11.699759475312375"><ele>228.0</ele><time>2026-04-03T11:39:00Z</time></trkpt><trkpt lat="45.32984127585746" lon="11.699796488828406"><ele>228.0</ele><time>2026-04-03T11:39:01Z</time></trkpt><trkpt lat="45.32972613408241" lon="11.699841254318583"><ele>228.0</ele><time>2026-04-03T11:39:02Z</time></trkpt><trkpt lat="45.329604518018286" lon="11.699892624321928"><ele>228.0</ele><time>2026-04-03T11:39:03Z</time></trkpt><trkpt lat="45.32947689188584" lon="11.69994850405263"><ele>228.0</ele><time>2026-04-03T11:39:04Z</time></trkpt><trkpt lat="45.329349394779655" lon="11.700024962527696"><ele>228.0</ele><time>2026-04-03T11:39:05Z</time></trkpt><trkpt lat="45.32920514558423" lon="11.700042081334468"><ele>228.0</ele><time>2026-04-03T11:39:06Z</time></trkpt><trkpt lat="45.329052305376386" lon="11.700021403881383"><ele>228.0</ele><time>2026-04-03T11:39:07Z</time></trkpt><trkpt lat="45.32892146510938" lon="11.699987092828053"><ele>228.0</ele><time>2026-04-03T11:39:08Z</time></trkpt><trkpt lat="45.32879316654657" lon="11.69998208984389"><ele>228.0</ele><time>2026-04-03T11:39:09Z</time></trkpt><trkpt lat="45.32865550598387" lon="11.7000368011051"><ele>228.0</ele><time>2026-04-03T11:39:10Z</time></trkpt><trkpt lat="45.32851237664923" lon="11.700117058214309"><ele>226.75</ele><time>2026-04-03T11:39:11Z</time></trkpt><trkpt lat="45.32839650493335" lon="11.70018633618287"><ele>225.5</ele><time>2026-04-03T11:39:12Z</time></trkpt><trkpt lat="45.32830064261435" lon="11.700277935085701"><ele>224.25</ele><time>2026-04-03T11:39:13Z</time></trkpt><trkpt lat="45.328243648919" lon="11.700414354429489"><ele>223.0</ele><time>2026-04-03T11:39:14Z</time></trkpt><trkpt lat="45.32820910589073" lon="11.700580524842831"><ele>221.25</ele><time>2026-04-03T11:39:15Z</time></trkpt><trkpt lat="45.328180774160096" lon="11.700777456480168"><ele>219.5</ele><time>2026-04-03T11:39:16Z</time></trkpt><trkpt lat="45.32813462023714" lon="11.700964705614444"><ele>217.75</ele><time>2026-04-03T11:39:17Z</time></trkpt><trkpt lat="45.328097273362026" lon="11.701122788545648"><ele>216.0</ele><time>2026-04-03T11:39:18Z</time></trkpt><trkpt lat="45.32805765603593" lon="11.701236913627916"><ele>215.20000000000002</ele><time>2026-04-03T11:39:19Z</time></trkpt><trkpt lat="45.32796444371235" lon="11.701247057688676"><ele>214.40000000000003</ele><time>2026-04-03T11:39:20Z</time></trkpt><trkpt lat="45.32788701928272" lon="11.701263882092327"><ele>213.6</ele><time>2026-04-03T11:39:21Z</time></trkpt><trkpt lat="45.32781689202945" lon="11.701171178380262"><ele>212.8</ele><time>2026-04-03T11:39:22Z</time></trkpt><trkpt lat="45.32772989188418" lon="11.70109854910931"><ele>212.0</ele><time>2026-04-03T11:39:23Z</time></trkpt><trkpt lat="45.32762425744118" lon="11.701023675854561"><ele>212.0</ele><time>2026-04-03T11:39:24Z</time></trkpt><trkpt lat="45.32751183824108" lon="11.700935779952669"><ele>212.0</ele><time>2026-04-03T11:39:25Z</time></trkpt><trkpt lat="45.3273962052446" lon="11.700848525158671"><ele>212.0</ele><time>2026-04-03T11:39:26Z</time></trkpt><trkpt lat="45.32729607090237" lon="11.70074860972079"><ele>212.0</ele><time>2026-04-03T11:39:27Z</time></trkpt><trkpt lat="45.327192653068636" lon="11.700686879129336"><ele>211.0</ele><time>2026-04-03T11:39:28Z</time></trkpt><trkpt lat="45.327097441483865" lon="11.70066638105813"><ele>210.0</ele><time>2026-04-03T11:39:29Z</time></trkpt><trkpt lat="45.327002424541476" lon="11.700696182866116"><ele>209.0</ele><time>2026-04-03T11:39:30Z</time></trkpt><trkpt lat="45.32692229074003" lon="11.700776912000906"><ele>208.0</ele><time>2026-04-03T11:39:31Z</time></trkpt><trkpt lat="45.32688023241584" lon="11.700950210062684"><ele>207.0</ele><time>2026-04-03T11:39:32Z</time></trkpt><trkpt lat="45.32685371203859" lon="11.701128709734316"><ele>207.0</ele><time>2026-04-03T11:39:33Z</time></trkpt><trkpt lat="45.32683946903339" lon="11.701316491917087"><ele>207.0</ele><time>2026-04-03T11:39:34Z</time></trkpt><trkpt lat="45.32679490468115" lon="11.701505029324101"><ele>207.0</ele><time>2026-04-03T11:39:35Z</time></trkpt><trkpt lat="45.32676437149808" lon="11.701683031808948"><ele>207.0</ele><time>2026-04-03T11:39:36Z</time></trkpt><trkpt lat="45.32672650088685" lon="11.701830646568736"><ele>204.8</ele><time>2026-04-03T11:39:37Z</time></trkpt><trkpt lat="45.32668217925491" lon="11.70195067068993"><ele>202.6</ele><time>2026-04-03T11:39:38Z</time></trkpt><trkpt lat="45.32657949203576" lon="11.702001067692915"><ele>200.4</ele><time>2026-04-03T11:39:39Z</time></trkpt><trkpt lat="45.326481467627346" lon="11.702058898615677"><ele>198.20000000000002</ele><time>2026-04-03T11:39:40Z</time></trkpt><trkpt lat="45.32638716299157" lon="11.702154693102196"><ele>196.0</ele><time>2026-04-03T11:39:41Z</time></trkpt><trkpt lat="45.32629710436002" lon="11.702303411214686"><ele>196.0</ele><time>2026-04-03T11:39:42Z</time></trkpt><trkpt lat="45.32622809871377" lon="11.70250397936921"><ele>196.0</ele><time>2026-04-03T11:39:43Z</time></trkpt><trkpt lat="45.3261604580104" lon="11.70269166781313"><ele>196.0</ele><time>2026-04-03T11:39:44Z</time></trkpt><trkpt lat="45.32607037914856" lon="11.70285155820236"><ele>196.0</ele><time>2026-04-03T11:39:45Z</time></trkpt><trkpt lat="45.32595025892034" lon="11.702964355833583"><ele>193.0</ele><time>2026-04-03T11:39:46Z</time></trkpt><trkpt lat="45.32580084484287" lon="11.703039241892844"><ele>190.0</ele><time>2026-04-03T11:39:47Z</time></trkpt><trkpt lat="45.32563018779104" lon="11.703110180365284"><ele>187.0</ele><time>2026-04-03T11:39:48Z</time></trkpt><trkpt lat="45.32545018103962" lon="11.703184367272941"><ele>187.0</ele><time>2026-04-03T11:39:49Z</time></trkpt><trkpt lat="45.32527046376828" lon="11.70325839619262"><ele>187.0</ele><time>2026-04-03T11:39:50Z</time></trkpt><trkpt lat="45.32508070990424" lon="11.703339798072916"><ele>187.0</ele><time>2026-04-03T11:39:51Z</time></trkpt><trkpt lat="45.3248897503065" lon="11.70344977146208"><ele>188.66666666666669</ele><time>2026-04-03T11:39:52Z</time></trkpt><trkpt lat="45.32470377658556" lon="11.703589364820825"><ele>190.33333333333334</ele><time>2026-04-03T11:39:53Z</time></trkpt><trkpt lat="45.32452693303798" lon="11.703745068049662"><ele>192.0</ele><time>2026-04-03T11:39:54Z</time></trkpt><trkpt lat="45.32437473888836" lon="11.703893971802193"><ele>192.0</ele><time>2026-04-03T11:39:55Z</time></trkpt><trkpt lat="45.32424877686486" lon="11.704020418482347"><ele>192.0</ele><time>2026-04-03T11:39:56Z</time></trkpt><trkpt lat="45.32413829901565" lon="11.70415025620644"><ele>192.0</ele><time>2026-04-03T11:39:57Z</time></trkpt><trkpt lat="45.32405177009961" lon="11.704291141750181"><ele>192.0</ele><time>2026-04-03T11:39:58Z</time></trkpt><trkpt lat="45.32398397899112" lon="11.704435461621035"><ele>192.5</ele><time>2026-04-03T11:39:59Z</time></trkpt><trkpt lat="45.3239599607384" lon="11.704625978791947"><ele>193.0</ele><time>2026-04-03T11:40:00Z</time></trkpt><trkpt lat="45.32394856085587" lon="11.704807219622973"><ele>193.5</ele><time>2026-04-03T11:40:01Z</time></trkpt><trkpt lat="45.32397299334844" lon="11.704979853233063"><ele>194.0</ele><time>2026-04-03T11:40:02Z</time></trkpt><trkpt lat="45.3239997369729" lon="11.705129049123745"><ele>195.39999999999998</ele><time>2026-04-03T11:40:03Z</time></trkpt><trkpt lat="45.32403297673181" lon="11.705267543066531"><ele>196.8</ele><time>2026-04-03T11:40:04Z</time></trkpt><trkpt lat="45.324088022817726" lon="11.705395668422504"><ele>198.2</ele><time>2026-04-03T11:40:05Z</time></trkpt><trkpt lat="45.32416724053042" lon="11.705508898589985"><ele>199.60000000000002</ele><time>2026-04-03T11:40:06Z</time></trkpt><trkpt lat="45.32423542498428" lon="11.705593139579463"><ele>201.0</ele><time>2026-04-03T11:40:07Z</time></trkpt><trkpt lat="45.324261016573175" lon="11.705687687512437"><ele>201.0</ele><time>2026-04-03T11:40:09Z</time></trkpt><trkpt lat="45.32415145450069" lon="11.705792469702372"><ele>201.0</ele><time>2026-04-03T11:40:11Z</time></trkpt><trkpt lat="45.32408154786046" lon="11.70584995876271"><ele>201.0</ele><time>2026-04-03T11:40:12Z</time></trkpt><trkpt lat="45.323994115623826" lon="11.7058963761419"><ele>201.0</ele><time>2026-04-03T11:40:13Z</time></trkpt><trkpt lat="45.323889518387595" lon="11.705888203946737"><ele>201.0</ele><time>2026-04-03T11:40:14Z</time></trkpt><trkpt lat="45.323768880271636" lon="11.705878227203819"><ele>202.5</ele><time>2026-04-03T11:40:15Z</time></trkpt><trkpt lat="45.323650547674944" lon="11.705842470076213"><ele>204.0</ele><time>2026-04-03T11:40:16Z</time></trkpt><trkpt lat="45.32352278910787" lon="11.705789842776683"><ele>205.5</ele><time>2026-04-03T11:40:17Z</time></trkpt><trkpt lat="45.32338265583961" lon="11.705736161448106"><ele>207.0</ele><time>2026-04-03T11:40:18Z</time></trkpt><trkpt lat="45.32323227229795" lon="11.705715429609043"><ele>207.0</ele><time>2026-04-03T11:40:19Z</time></trkpt><trkpt lat="45.323087037653906" lon="11.705752534948342"><ele>207.0</ele><time>2026-04-03T11:40:20Z</time></trkpt><trkpt lat="45.32295657749365" lon="11.70587869972496"><ele>207.0</ele><time>2026-04-03T11:40:21Z</time></trkpt><trkpt lat="45.32286407127611" lon="11.706044292757124"><ele>209.5</ele><time>2026-04-03T11:40:22Z</time></trkpt><trkpt lat="45.32276300682558" lon="11.706202123575887"><ele>212.0</ele><time>2026-04-03T11:40:23Z</time></trkpt><trkpt lat="45.32268098571484" lon="11.70638093902061"><ele>214.5</ele><time>2026-04-03T11:40:24Z</time></trkpt><trkpt lat="45.32259668930699" lon="11.706551351044396"><ele>217.0</ele><time>2026-04-03T11:40:25Z</time></trkpt><trkpt lat="45.32249988966546" lon="11.706697808935075"><ele>217.0</ele><time>2026-04-03T11:40:26Z</time></trkpt><trkpt lat="45.3223782699686" lon="11.706791932015914"><ele>217.0</ele><time>2026-04-03T11:40:27Z</time></trkpt><trkpt lat="45.32223966965955" lon="11.706840930823729"><ele>217.0</ele><time>2026-04-03T11:40:28Z</time></trkpt><trkpt lat="45.32209242678825" lon="11.706896355628853"><ele>217.0</ele><time>2026-04-03T11:40:29Z</time></trkpt><trkpt lat="45.32194100527684" lon="11.706952958214856"><ele>221.33333333333331</ele><time>2026-04-03T11:40:30Z</time></trkpt><trkpt lat="45.32179244266309" lon="11.707006690419645"><ele>225.66666666666669</ele><time>2026-04-03T11:40:31Z</time></trkpt><trkpt lat="45.3216376724913" lon="11.707062667823745"><ele>230.0</ele><time>2026-04-03T11:40:32Z</time></trkpt><trkpt lat="45.32148661701689" lon="11.707121258716935"><ele>232.5</ele><time>2026-04-03T11:40:33Z</time></trkpt><trkpt lat="45.321339896756605" lon="11.707189636861836"><ele>235.0</ele><time>2026-04-03T11:40:34Z</time></trkpt><trkpt lat="45.32121775420637" lon="11.70729952419895"><ele>237.5</ele><time>2026-04-03T11:40:35Z</time></trkpt><trkpt lat="45.32110484126" lon="11.707373289417072"><ele>240.0</ele><time>2026-04-03T11:40:36Z</time></trkpt><trkpt lat="45.321005635664775" lon="11.707456050890993"><ele>240.0</ele><time>2026-04-03T11:40:37Z</time></trkpt><trkpt lat="45.32092221894391" lon="11.707533632824262"><ele>240.0</ele><time>2026-04-03T11:40:38Z</time></trkpt><trkpt lat="45.32097923761431" lon="11.707952737864217"><ele>240.0</ele><time>2026-04-03T11:40:39Z</time></trkpt><trkpt lat="45.320932982871206" lon="11.708110061278115"><ele>241.33333333333334</ele><time>2026-04-03T11:40:40Z</time></trkpt><trkpt lat="45.32088237682284" lon="11.708222485398608"><ele>242.66666666666669</ele><time>2026-04-03T11:40:41Z</time></trkpt><trkpt lat="45.32081148580471" lon="11.70829787563959"><ele>244.0</ele><time>2026-04-03T11:40:42Z</time></trkpt><trkpt lat="45.32076311054569" lon="11.7083643757903"><ele>245.33333333333334</ele><time>2026-04-03T11:40:43Z</time></trkpt><trkpt lat="45.32072571493594" lon="11.708473770225746"><ele>246.66666666666669</ele><time>2026-04-03T11:40:45Z</time></trkpt><trkpt lat="45.32078198491976" lon="11.70858125103988"><ele>248.0</ele><time>2026-04-03T11:40:47Z</time></trkpt><trkpt lat="45.320834943340486" lon="11.70864476261431"><ele>250.4</ele><time>2026-04-03T11:40:48Z</time></trkpt><trkpt lat="45.32088513669136" lon="11.708724913131762"><ele>252.8</ele><time>2026-04-03T11:40:49Z</time></trkpt><trkpt lat="45.32094907641503" lon="11.708841341065474"><ele>255.2</ele><time>2026-04-03T11:40:50Z</time></trkpt><trkpt lat="45.32102221774645" lon="11.708959826648346"><ele>257.6</ele><time>2026-04-03T11:40:51Z</time></trkpt><trkpt lat="45.321106772729294" lon="11.709060733968846"><ele>260.0</ele><time>2026-04-03T11:40:52Z</time></trkpt><trkpt lat="45.321187764238964" lon="11.70915367088807"><ele>260.0</ele><time>2026-04-03T11:40:53Z</time></trkpt><trkpt lat="45.32126717136597" lon="11.709221367142014"><ele>260.0</ele><time>2026-04-03T11:40:54Z</time></trkpt><trkpt lat="45.32135566013274" lon="11.709278641938674"><ele>260.0</ele><time>2026-04-03T11:40:55Z</time></trkpt><trkpt lat="45.321447580294176" lon="11.709347699355876"><ele>260.0</ele><time>2026-04-03T11:40:56Z</time></trkpt><trkpt lat="45.32152878859183" lon="11.70943848136417"><ele>260.0</ele><time>2026-04-03T11:40:57Z</time></trkpt><trkpt lat="45.32160474720591" lon="11.709539068180183"><ele>257.8</ele><time>2026-04-03T11:40:58Z</time></trkpt><trkpt lat="45.32166275405875" lon="11.709643039910901"><ele>255.6</ele><time>2026-04-03T11:40:59Z</time></trkpt><trkpt lat="45.321717804068115" lon="11.709738196580593"><ele>253.39999999999998</ele><time>2026-04-03T11:41:00Z</time></trkpt><trkpt lat="45.32178270651601" lon="11.709833312747294"><ele>251.2</ele><time>2026-04-03T11:41:01Z</time></trkpt><trkpt lat="45.321850534327154" lon="11.709930710306253"><ele>249.0</ele><time>2026-04-03T11:41:02Z</time></trkpt><trkpt lat="45.321916002650326" lon="11.710001240470623"><ele>249.0</ele><time>2026-04-03T11:41:03Z</time></trkpt><trkpt lat="45.3219687046946" lon="11.710084105400256"><ele>248.99999999999997</ele><time>2026-04-03T11:41:04Z</time></trkpt><trkpt lat="45.32204165342475" lon="11.710116924146922"><ele>248.99999999999997</ele><time>2026-04-03T11:41:05Z</time></trkpt><trkpt lat="45.322130840854726" lon="11.710172460356896"><ele>249.0</ele><time>2026-04-03T11:41:06Z</time></trkpt><trkpt lat="45.32222948649067" lon="11.710235240574109"><ele>249.0</ele><time>2026-04-03T11:41:07Z</time></trkpt><trkpt lat="45.32231611753708" lon="11.710279091247347"><ele>249.0</ele><time>2026-04-03T11:41:08Z</time></trkpt><trkpt lat="45.32242723181268" lon="11.710321278322178"><ele>248.99999999999997</ele><time>2026-04-03T11:41:09Z</time></trkpt><trkpt lat="45.3225310987567" lon="11.710352265552727"><ele>248.99999999999997</ele><time>2026-04-03T11:41:10Z</time></trkpt><trkpt lat="45.32263338810584" lon="11.710397065478887"><ele>249.0</ele><time>2026-04-03T11:41:11Z</time></trkpt><trkpt lat="45.32274582799768" lon="11.710431789990935"><ele>249.0</ele><time>2026-04-03T11:41:12Z</time></trkpt><trkpt lat="45.322820227538365" lon="11.710468998750223"><ele>249.0</ele><time>2026-04-03T11:41:13Z</time></trkpt><trkpt lat="45.32288836366484" lon="11.710543431594122"><ele>248.99999999999997</ele><time>2026-04-03T11:41:15Z</time></trkpt><trkpt lat="45.32301076076329" lon="11.710649758341694"><ele>248.99999999999997</ele><time>2026-04-03T11:41:17Z</time></trkpt><trkpt lat="45.3230931543089" lon="11.71072439153279"><ele>249.0</ele><time>2026-04-03T11:41:18Z</time></trkpt><trkpt lat="45.3231658538309" lon="11.710778444212124"><ele>249.0</ele><time>2026-04-03T11:41:19Z</time></trkpt><trkpt lat="45.323241160843075" lon="11.71083265925237"><ele>247.2</ele><time>2026-04-03T11:41:20Z</time></trkpt><trkpt lat="45.32332859819402" lon="11.710891100417697"><ele>245.39999999999998</ele><time>2026-04-03T11:41:21Z</time></trkpt><trkpt lat="45.32341499089894" lon="11.710960956842106"><ele>243.6</ele><time>2026-04-03T11:41:22Z</time></trkpt><trkpt lat="45.323494433416606" lon="11.711039580878394"><ele>241.8</ele><time>2026-04-03T11:41:23Z</time></trkpt><trkpt lat="45.323585303115536" lon="11.711113624072812"><ele>240.0</ele><time>2026-04-03T11:41:24Z</time></trkpt><trkpt lat="45.32366546373397" lon="11.711172942563987"><ele>240.0</ele><time>2026-04-03T11:41:25Z</time></trkpt><trkpt lat="45.32374302053458" lon="11.711194129767824"><ele>240.0</ele><time>2026-04-03T11:41:26Z</time></trkpt><trkpt lat="45.3238215190647" lon="11.711222442948056"><ele>240.0</ele><time>2026-04-03T11:41:27Z</time></trkpt><trkpt lat="45.32389232964368" lon="11.711279508515203"><ele>240.0</ele><time>2026-04-03T11:41:28Z</time></trkpt><trkpt lat="45.32396855246145" lon="11.711340092179032"><ele>240.0</ele><time>2026-04-03T11:41:29Z</time></trkpt><trkpt lat="45.324054408435316" lon="11.71138886440794"><ele>240.0</ele><time>2026-04-03T11:41:30Z</time></trkpt><trkpt lat="45.32414320944478" lon="11.711416681589125"><ele>237.0</ele><time>2026-04-03T11:41:31Z</time></trkpt><trkpt lat="45.32423234543385" lon="11.711450359571902"><ele>234.0</ele><time>2026-04-03T11:41:32Z</time></trkpt><trkpt lat="45.324329606463095" lon="11.711487351905369"><ele>231.0</ele><time>2026-04-03T11:41:33Z</time></trkpt><trkpt lat="45.32442787363506" lon="11.711507264957145"><ele>228.0</ele><time>2026-04-03T11:41:34Z</time></trkpt><trkpt lat="45.324504740047594" lon="11.711520865225047"><ele>225.0</ele><time>2026-04-03T11:41:35Z</time></trkpt><trkpt lat="45.32456428376481" lon="11.71159440916478"><ele>222.0</ele><time>2026-04-03T11:41:36Z</time></trkpt><trkpt lat="45.324630767225656" lon="11.711696121370705"><ele>222.0</ele><time>2026-04-03T11:41:37Z</time></trkpt><trkpt lat="45.32467686328351" lon="11.711805192716053"><ele>222.0</ele><time>2026-04-03T11:41:38Z</time></trkpt><trkpt lat="45.324727373761895" lon="11.7119206495418"><ele>222.0</ele><time>2026-04-03T11:41:39Z</time></trkpt><trkpt lat="45.32476562336946" lon="11.712045495968153"><ele>222.0</ele><time>2026-04-03T11:41:40Z</time></trkpt><trkpt lat="45.3247903210275" lon="11.712188379259398"><ele>222.0</ele><time>2026-04-03T11:41:41Z</time></trkpt><trkpt lat="45.324795724968084" lon="11.712337793688167"><ele>219.16666666666666</ele><time>2026-04-03T11:41:42Z</time></trkpt><trkpt lat="45.324798226768515" lon="11.712461607055749"><ele>216.33333333333331</ele><time>2026-04-03T11:41:43Z</time></trkpt><trkpt lat="45.3247938381519" lon="11.712571479103737"><ele>213.5</ele><time>2026-04-03T11:41:44Z</time></trkpt><trkpt lat="45.3247991100554" lon="11.712679899505448"><ele>210.66666666666666</ele><time>2026-04-03T11:41:45Z</time></trkpt><trkpt lat="45.324819966987754" lon="11.71278404123553"><ele>207.83333333333331</ele><time>2026-04-03T11:41:46Z</time></trkpt><trkpt lat="45.32482757338135" lon="11.712879314330678"><ele>205.0</ele><time>2026-04-03T11:41:47Z</time></trkpt><trkpt lat="45.32482777263404" lon="11.712981305516317"><ele>204.33333333333331</ele><time>2026-04-03T11:41:48Z</time></trkpt><trkpt lat="45.324803598952954" lon="11.713064176281483"><ele>203.66666666666666</ele><time>2026-04-03T11:41:49Z</time></trkpt><trkpt lat="45.32476127051432" lon="11.71316080844802"><ele>203.0</ele><time>2026-04-03T11:41:50Z</time></trkpt><trkpt lat="45.32470045779561" lon="11.713245889321932"><ele>202.33333333333331</ele><time>2026-04-03T11:41:51Z</time></trkpt><trkpt lat="45.3246312301443" lon="11.7133353464403"><ele>201.66666666666666</ele><time>2026-04-03T11:41:52Z</time></trkpt><trkpt lat="45.32456742737418" lon="11.713428923518359"><ele>201.0</ele><time>2026-04-03T11:41:53Z</time></trkpt><trkpt lat="45.32449603113931" lon="11.713512878770157"><ele>199.0</ele><time>2026-04-03T11:41:54Z</time></trkpt><trkpt lat="45.324404283120366" lon="11.713620812588386"><ele>197.0</ele><time>2026-04-03T11:41:55Z</time></trkpt><trkpt lat="45.324317691439724" lon="11.713702642698127"><ele>195.0</ele><time>2026-04-03T11:41:56Z</time></trkpt><trkpt lat="45.324243314981295" lon="11.713783016241388"><ele>193.0</ele><time>2026-04-03T11:41:57Z</time></trkpt><trkpt lat="45.3241816239129" lon="11.71384396825032"><ele>191.0</ele><time>2026-04-03T11:41:58Z</time></trkpt><trkpt lat="45.324073239952725" lon="11.713914367962756"><ele>191.0</ele><time>2026-04-03T11:42:00Z</time></trkpt><trkpt lat="45.323971338041495" lon="11.713961138422848"><ele>191.0</ele><time>2026-04-03T11:42:02Z</time></trkpt><trkpt lat="45.32393291673839" lon="11.714095248958571"><ele>191.0</ele><time>2026-04-03T11:42:04Z</time></trkpt><trkpt lat="45.32390849795922" lon="11.714179529048591"><ele>191.0</ele><time>2026-04-03T11:42:05Z</time></trkpt><trkpt lat="45.323884188821104" lon="11.714272359349225"><ele>191.0</ele><time>2026-04-03T11:42:06Z</time></trkpt><trkpt lat="45.32383643872309" lon="11.714348949458293"><ele>191.0</ele><time>2026-04-03T11:42:07Z</time></trkpt><trkpt lat="45.32380138647301" lon="11.714431297786597"><ele>190.57142857142858</ele><time>2026-04-03T11:42:08Z</time></trkpt><trkpt lat="45.32376796485416" lon="11.714517330341405"><ele>190.14285714285714</ele><time>2026-04-03T11:42:09Z</time></trkpt><trkpt lat="45.323731685600514" lon="11.714602887125366"><ele>189.71428571428572</ele><time>2026-04-03T11:42:10Z</time></trkpt><trkpt lat="45.3236969930548" lon="11.714689385095285"><ele>189.28571428571428</ele><time>2026-04-03T11:42:11Z</time></trkpt><trkpt lat="45.323658465143616" lon="11.714772590775345"><ele>188.85714285714283</ele><time>2026-04-03T11:42:12Z</time></trkpt><trkpt lat="45.32362156340042" lon="11.71485545335706"><ele>188.42857142857142</ele><time>2026-04-03T11:42:13Z</time></trkpt><trkpt lat="45.32358637539832" lon="11.71493565687377"><ele>188.0</ele><time>2026-04-03T11:42:14Z</time></trkpt><trkpt lat="45.3235469181797" lon="11.715019123243763"><ele>188.0</ele><time>2026-04-03T11:42:15Z</time></trkpt><trkpt lat="45.323515983308866" lon="11.715105876920138"><ele>188.0</ele><time>2026-04-03T11:42:16Z</time></trkpt><trkpt lat="45.32348684453867" lon="11.715201908636626"><ele>188.0</ele><time>2026-04-03T11:42:17Z</time></trkpt><trkpt lat="45.32345868564381" lon="11.715299592288018"><ele>188.0</ele><time>2026-04-03T11:42:18Z</time></trkpt><trkpt lat="45.32343022819115" lon="11.71539031492405"><ele>188.0</ele><time>2026-04-03T11:42:19Z</time></trkpt><trkpt lat="45.32340382044854" lon="11.715486153897839"><ele>188.0</ele><time>2026-04-03T11:42:21Z</time></trkpt><trkpt lat="45.323374389840204" lon="11.715629222226113"><ele>186.66666666666666</ele><time>2026-04-03T11:42:30Z</time></trkpt><trkpt lat="45.323361936494926" lon="11.715725223541474"><ele>185.33333333333331</ele><time>2026-04-03T11:42:31Z</time></trkpt><trkpt lat="45.32336544903948" lon="11.715841548781796"><ele>184.0</ele><time>2026-04-03T11:42:32Z</time></trkpt><trkpt lat="45.323362147127064" lon="11.715957823829543"><ele>182.66666666666666</ele><time>2026-04-03T11:42:33Z</time></trkpt><trkpt lat="45.323372015175195" lon="11.71609211368012"><ele>181.33333333333334</ele><time>2026-04-03T11:42:34Z</time></trkpt><trkpt lat="45.32340413324132" lon="11.716237731561323"><ele>180.0</ele><time>2026-04-03T11:42:35Z</time></trkpt><trkpt lat="45.32342977681688" lon="11.716395384015156"><ele>178.4</ele><time>2026-04-03T11:42:36Z</time></trkpt><trkpt lat="45.32349145283501" lon="11.716539472383538"><ele>176.8</ele><time>2026-04-03T11:42:37Z</time></trkpt><trkpt lat="45.323545693919954" lon="11.716676470449421"><ele>175.2</ele><time>2026-04-03T11:42:38Z</time></trkpt><trkpt lat="45.32362106623028" lon="11.71679505555646"><ele>173.6</ele><time>2026-04-03T11:42:39Z</time></trkpt><trkpt lat="45.323698294879385" lon="11.71688643093309"><ele>172.0</ele><time>2026-04-03T11:42:40Z</time></trkpt><trkpt lat="45.323796063639215" lon="11.716939284823312"><ele>170.0</ele><time>2026-04-03T11:42:41Z</time></trkpt><trkpt lat="45.32388202361295" lon="11.716978151845886"><ele>168.0</ele><time>2026-04-03T11:42:42Z</time></trkpt><trkpt lat="45.32396442026449" lon="11.717005308727067"><ele>166.0</ele><time>2026-04-03T11:42:43Z</time></trkpt><trkpt lat="45.324033923513475" lon="11.71702261708403"><ele>164.0</ele><time>2026-04-03T11:42:44Z</time></trkpt><trkpt lat="45.32407968098669" lon="11.717086568526812"><ele>162.0</ele><time>2026-04-03T11:42:47Z</time></trkpt><trkpt lat="45.32399756177871" lon="11.717150910029465"><ele>160.0</ele><time>2026-04-03T11:42:48Z</time></trkpt><trkpt lat="45.32395235069205" lon="11.717253694338211"><ele>159.83333333333334</ele><time>2026-04-03T11:42:49Z</time></trkpt><trkpt lat="45.32388308228529" lon="11.717303460221524"><ele>159.66666666666669</ele><time>2026-04-03T11:42:50Z</time></trkpt><trkpt lat="45.3238051547361" lon="11.71736551711955"><ele>159.5</ele><time>2026-04-03T11:42:51Z</time></trkpt><trkpt lat="45.32373168082588" lon="11.717401630409846"><ele>159.33333333333334</ele><time>2026-04-03T11:42:52Z</time></trkpt><trkpt lat="45.323654698163" lon="11.717419175781354"><ele>159.16666666666666</ele><time>2026-04-03T11:42:53Z</time></trkpt><trkpt lat="45.323561462707836" lon="11.717428677165879"><ele>159.0</ele><time>2026-04-03T11:42:54Z</time></trkpt><trkpt lat="45.32346570949837" lon="11.717444702952331"><ele>159.0</ele><time>2026-04-03T11:42:55Z</time></trkpt><trkpt lat="45.32336245182849" lon="11.717484719426235"><ele>159.0</ele><time>2026-04-03T11:42:56Z</time></trkpt><trkpt lat="45.32326918634017" lon="11.71753214032647"><ele>159.0</ele><time>2026-04-03T11:42:57Z</time></trkpt><trkpt lat="45.32319777543679" lon="11.717567249238126"><ele>159.0</ele><time>2026-04-03T11:42:58Z</time></trkpt><trkpt lat="45.32310138383985" lon="11.717614639781003"><ele>159.0</ele><time>2026-04-03T11:43:00Z</time></trkpt><trkpt lat="45.32301717864796" lon="11.717656039276727"><ele>159.8</ele><time>2026-04-03T11:43:02Z</time></trkpt><trkpt lat="45.322919833338986" lon="11.717704218485466"><ele>160.60000000000002</ele><time>2026-04-03T11:43:04Z</time></trkpt><trkpt lat="45.32282608020417" lon="11.717751485180647"><ele>161.4</ele><time>2026-04-03T11:43:06Z</time></trkpt><trkpt lat="45.32273210140107" lon="11.71779886565082"><ele>162.20000000000002</ele><time>2026-04-03T11:43:08Z</time></trkpt><trkpt lat="45.32262669045447" lon="11.717852009840179"><ele>163.0</ele><time>2026-04-03T11:43:10Z</time></trkpt><trkpt lat="45.322560359711936" lon="11.717885270984674"><ele>163.8</ele><time>2026-04-03T11:43:11Z</time></trkpt><trkpt lat="45.32248197744786" lon="11.71792366154904"><ele>164.60000000000002</ele><time>2026-04-03T11:43:12Z</time></trkpt><trkpt lat="45.32241136854403" lon="11.71795824481839"><ele>165.39999999999998</ele><time>2026-04-03T11:43:13Z</time></trkpt><trkpt lat="45.32230547566207" lon="11.718036613275476"><ele>166.2</ele><time>2026-04-03T11:43:15Z</time></trkpt><trkpt lat="45.32219772702827" lon="11.718086896984415"><ele>167.0</ele><time>2026-04-03T11:43:17Z</time></trkpt><trkpt lat="45.322134801394085" lon="11.71821702904675"><ele>167.0</ele><time>2026-04-03T11:43:19Z</time></trkpt><trkpt lat="45.322081600098485" lon="11.718316487428654"><ele>167.0</ele><time>2026-04-03T11:43:21Z</time></trkpt><trkpt lat="45.32200704637738" lon="11.718430396464885"><ele>167.0</ele><time>2026-04-03T11:43:23Z</time></trkpt><trkpt lat="45.32189566767702" lon="11.718520727254935"><ele>167.0</ele><time>2026-04-03T11:43:25Z</time></trkpt><trkpt lat="45.32182522127297" lon="11.718558716131907"><ele>167.0</ele><time>2026-04-03T11:43:26Z</time></trkpt><trkpt lat="45.32176318054579" lon="11.718577211409588"><ele>167.0</ele><time>2026-04-03T11:43:27Z</time></trkpt><trkpt lat="45.32169328603263" lon="11.718579698041193"><ele>167.0</ele><time>2026-04-03T11:43:28Z</time></trkpt><trkpt lat="45.32162221765193" lon="11.718535350018342"><ele>167.0</ele><time>2026-04-03T11:43:29Z</time></trkpt><trkpt lat="45.321547602582676" lon="11.718496746164357"><ele>167.0</ele><time>2026-04-03T11:43:30Z</time></trkpt><trkpt lat="45.32147295840914" lon="11.718455365967303"><ele>167.0</ele><time>2026-04-03T11:43:31Z</time></trkpt><trkpt lat="45.32138156915246" lon="11.718433237216784"><ele>167.0</ele><time>2026-04-03T11:43:33Z</time></trkpt><trkpt lat="45.32139375878221" lon="11.71856354843387"><ele>166.6</ele><time>2026-04-03T11:43:36Z</time></trkpt><trkpt lat="45.32140799115537" lon="11.718656502598263"><ele>166.2</ele><time>2026-04-03T11:43:37Z</time></trkpt><trkpt lat="45.32150002889195" lon="11.718784284941295"><ele>165.8</ele><time>2026-04-03T11:43:39Z</time></trkpt><trkpt lat="45.321543010292764" lon="11.718935553829452"><ele>165.4</ele><time>2026-04-03T11:43:41Z</time></trkpt><trkpt lat="45.32157272939727" lon="11.719057566517195"><ele>165.0</ele><time>2026-04-03T11:43:43Z</time></trkpt><trkpt lat="45.321572821983295" lon="11.719155074168011"><ele>165.0</ele><time>2026-04-03T11:43:44Z</time></trkpt><trkpt lat="45.32151161728096" lon="11.719330699074074"><ele>165.0</ele><time>2026-04-03T11:43:46Z</time></trkpt><trkpt lat="45.321472658616244" lon="11.719407077789157"><ele>165.0</ele><time>2026-04-03T11:43:47Z</time></trkpt><trkpt lat="45.32142284883956" lon="11.719487584564636"><ele>165.0</ele><time>2026-04-03T11:43:48Z</time></trkpt><trkpt lat="45.3213886164005" lon="11.71960206162688"><ele>165.0</ele><time>2026-04-03T11:43:49Z</time></trkpt><trkpt lat="45.32135487506964" lon="11.71969954398433"><ele>165.0</ele><time>2026-04-03T11:43:50Z</time></trkpt><trkpt lat="45.321346081115266" lon="11.719809121348094"><ele>167.8</ele><time>2026-04-03T11:43:51Z</time></trkpt><trkpt lat="45.32132334716172" lon="11.719945308560872"><ele>170.6</ele><time>2026-04-03T11:43:52Z</time></trkpt><trkpt lat="45.32127685308949" lon="11.720054532749343"><ele>173.39999999999998</ele><time>2026-04-03T11:43:53Z</time></trkpt><trkpt lat="45.32121909850669" lon="11.720186988650623"><ele>176.2</ele><time>2026-04-03T11:43:54Z</time></trkpt><trkpt lat="45.32115881183277" lon="11.720287216239988"><ele>179.0</ele><time>2026-04-03T11:43:55Z</time></trkpt><trkpt lat="45.32110803792988" lon="11.720353262957559"><ele>179.0</ele><time>2026-04-03T11:43:56Z</time></trkpt><trkpt lat="45.32104626529974" lon="11.720413457842112"><ele>179.0</ele><time>2026-04-03T11:43:57Z</time></trkpt><trkpt lat="45.320980371485284" lon="11.72048088501465"><ele>179.0</ele><time>2026-04-03T11:43:58Z</time></trkpt><trkpt lat="45.320917655081026" lon="11.720547078183616"><ele>179.0</ele><time>2026-04-03T11:43:59Z</time></trkpt><trkpt lat="45.32085921994938" lon="11.720651091880605"><ele>179.0</ele><time>2026-04-03T11:44:01Z</time></trkpt><trkpt lat="45.32091249878901" lon="11.720826839886318"><ele>179.0</ele><time>2026-04-03T11:44:03Z</time></trkpt><trkpt lat="45.32092152536003" lon="11.720966992748957"><ele>179.0</ele><time>2026-04-03T11:44:04Z</time></trkpt><trkpt lat="45.320916823201635" lon="11.721102154609225"><ele>179.0</ele><time>2026-04-03T11:44:05Z</time></trkpt><trkpt lat="45.320914100561296" lon="11.721223830266297"><ele>179.0</ele><time>2026-04-03T11:44:06Z</time></trkpt><trkpt lat="45.320927331699224" lon="11.721318047239413"><ele>179.0</ele><time>2026-04-03T11:44:07Z</time></trkpt><trkpt lat="45.32100190933581" lon="11.72146640671854"><ele>177.66666666666666</ele><time>2026-04-03T11:44:09Z</time></trkpt><trkpt lat="45.32103676396755" lon="11.721543553000982"><ele>176.33333333333331</ele><time>2026-04-03T11:44:10Z</time></trkpt><trkpt lat="45.321047199933126" lon="11.721639261420226"><ele>175.0</ele><time>2026-04-03T11:44:11Z</time></trkpt><trkpt lat="45.32105369735303" lon="11.721750859779625"><ele>173.66666666666666</ele><time>2026-04-03T11:44:13Z</time></trkpt><trkpt lat="45.32101249395558" lon="11.72191985315015"><ele>172.33333333333334</ele><time>2026-04-03T11:44:15Z</time></trkpt><trkpt lat="45.32102031171658" lon="11.722033132295431"><ele>171.0</ele><time>2026-04-03T11:44:16Z</time></trkpt><trkpt lat="45.321012422077615" lon="11.722122191683109"><ele>169.0</ele><time>2026-04-03T11:44:17Z</time></trkpt><trkpt lat="45.320992248141486" lon="11.722213768225314"><ele>167.0</ele><time>2026-04-03T11:44:18Z</time></trkpt><trkpt lat="45.320957954040026" lon="11.72235680458371"><ele>165.0</ele><time>2026-04-03T11:44:20Z</time></trkpt><trkpt lat="45.32094363866749" lon="11.722491374620002"><ele>163.0</ele><time>2026-04-03T11:44:22Z</time></trkpt><trkpt lat="45.3209542711447" lon="11.72266956573111"><ele>161.0</ele><time>2026-04-03T11:44:24Z</time></trkpt><trkpt lat="45.32101547571655" lon="11.722808340019728"><ele>157.8</ele><time>2026-04-03T11:44:26Z</time></trkpt><trkpt lat="45.32106444902491" lon="11.722869435274664"><ele>154.60000000000002</ele><time>2026-04-03T11:44:28Z</time></trkpt><trkpt lat="45.32116396673346" lon="11.722847787084506"><ele>151.4</ele><time>2026-04-03T11:44:30Z</time></trkpt><trkpt lat="45.321307950933715" lon="11.722903851130622"><ele>148.2</ele><time>2026-04-03T11:44:32Z</time></trkpt><trkpt lat="45.32140029677343" lon="11.72290877321704"><ele>145.0</ele><time>2026-04-03T11:44:33Z</time></trkpt><trkpt lat="45.32148865652256" lon="11.722951191011942"><ele>145.0</ele><time>2026-04-03T11:44:35Z</time></trkpt><trkpt lat="45.321450385356336" lon="11.723078469581825"><ele>145.0</ele><time>2026-04-03T11:44:40Z</time></trkpt><trkpt lat="45.32139111196107" lon="11.72317692175311"><ele>145.0</ele><time>2026-04-03T11:44:42Z</time></trkpt><trkpt lat="45.32134920711387" lon="11.72324817935947"><ele>145.0</ele><time>2026-04-03T11:44:43Z</time></trkpt><trkpt lat="45.32130594955897" lon="11.723341776942817"><ele>145.0</ele><time>2026-04-03T11:44:44Z</time></trkpt><trkpt lat="45.32125130658497" lon="11.723420419794772"><ele>145.0</ele><time>2026-04-03T11:44:45Z</time></trkpt><trkpt lat="45.32120029842579" lon="11.723493440903459"><ele>142.33333333333334</ele><time>2026-04-03T11:44:46Z</time></trkpt><trkpt lat="45.32117084402304" lon="11.723581339222244"><ele>139.66666666666669</ele><time>2026-04-03T11:44:47Z</time></trkpt><trkpt lat="45.32119227070067" lon="11.723689011665533"><ele>137.0</ele><time>2026-04-03T11:44:48Z</time></trkpt><trkpt lat="45.32116550765361" lon="11.723808203774707"><ele>134.33333333333334</ele><time>2026-04-03T11:44:50Z</time></trkpt><trkpt lat="45.32113527947983" lon="11.723907011684284"><ele>131.66666666666666</ele><time>2026-04-03T11:44:52Z</time></trkpt><trkpt lat="45.32109602364228" lon="11.72399487698932"><ele>129.0</ele><time>2026-04-03T11:44:54Z</time></trkpt><trkpt lat="45.32098939999547" lon="11.72391410056655"><ele>129.0</ele><time>2026-04-03T11:44:59Z</time></trkpt><trkpt lat="45.32093556001587" lon="11.723856197930699"><ele>129.0</ele><time>2026-04-03T11:45:00Z</time></trkpt><trkpt lat="45.320863040622484" lon="11.723723061782126"><ele>129.0</ele><time>2026-04-03T11:45:02Z</time></trkpt><trkpt lat="45.320809212197254" lon="11.723638825906544"><ele>129.0</ele><time>2026-04-03T11:45:03Z</time></trkpt><trkpt lat="45.320732089553175" lon="11.723534895835652"><ele>129.0</ele><time>2026-04-03T11:45:05Z</time></trkpt><trkpt lat="45.320645167608106" lon="11.723437271901814"><ele>133.0</ele><time>2026-04-03T11:45:07Z</time></trkpt><trkpt lat="45.320559733292384" lon="11.723348629600357"><ele>137.0</ele><time>2026-04-03T11:45:08Z</time></trkpt><trkpt lat="45.320473482519404" lon="11.723278284301538"><ele>141.0</ele><time>2026-04-03T11:45:09Z</time></trkpt><trkpt lat="45.320410697737" lon="11.723235968888883"><ele>145.0</ele><time>2026-04-03T11:45:10Z</time></trkpt><trkpt lat="45.32032355764945" lon="11.72318811953578"><ele>149.0</ele><time>2026-04-03T11:45:12Z</time></trkpt><trkpt lat="45.32020683171928" lon="11.723293603474053"><ele>149.0</ele><time>2026-04-03T11:45:14Z</time></trkpt><trkpt lat="45.32016057725298" lon="11.723417592412222"><ele>149.0</ele><time>2026-04-03T11:45:15Z</time></trkpt><trkpt lat="45.320126636680925" lon="11.723517484465793"><ele>149.0</ele><time>2026-04-03T11:45:16Z</time></trkpt><trkpt lat="45.320096595298445" lon="11.723625871926597"><ele>149.0</ele><time>2026-04-03T11:45:17Z</time></trkpt><trkpt lat="45.3200707921413" lon="11.723730071980164"><ele>149.0</ele><time>2026-04-03T11:45:18Z</time></trkpt><trkpt lat="45.32006272876005" lon="11.723838211785731"><ele>149.0</ele><time>2026-04-03T11:45:19Z</time></trkpt><trkpt lat="45.320028700058586" lon="11.723932243173993"><ele>146.0</ele><time>2026-04-03T11:45:20Z</time></trkpt><trkpt lat="45.32000177091782" lon="11.724052262405166"><ele>143.0</ele><time>2026-04-03T11:45:21Z</time></trkpt><trkpt lat="45.31997331368191" lon="11.724157634967305"><ele>140.0</ele><time>2026-04-03T11:45:22Z</time></trkpt><trkpt lat="45.31993953655693" lon="11.724268100042618"><ele>137.0</ele><time>2026-04-03T11:45:23Z</time></trkpt><trkpt lat="45.31989832185649" lon="11.724367736051768"><ele>134.0</ele><time>2026-04-03T11:45:24Z</time></trkpt><trkpt lat="45.31985207394967" lon="11.72446805796109"><ele>131.0</ele><time>2026-04-03T11:45:25Z</time></trkpt><trkpt lat="45.319803594146116" lon="11.72456463126481"><ele>128.66666666666666</ele><time>2026-04-03T11:45:26Z</time></trkpt><trkpt lat="45.31974911460635" lon="11.724663537978177"><ele>126.33333333333333</ele><time>2026-04-03T11:45:27Z</time></trkpt><trkpt lat="45.31970725706679" lon="11.724731015590274"><ele>124.0</ele><time>2026-04-03T11:45:28Z</time></trkpt><trkpt lat="45.31963129652909" lon="11.72484124569168"><ele>121.66666666666666</ele><time>2026-04-03T11:45:30Z</time></trkpt><trkpt lat="45.31957606358591" lon="11.724908126000177"><ele>119.33333333333333</ele><time>2026-04-03T11:45:31Z</time></trkpt><trkpt lat="45.319521108814776" lon="11.724972620471998"><ele>117.0</ele><time>2026-04-03T11:45:32Z</time></trkpt><trkpt lat="45.31946304067195" lon="11.7250346354084"><ele>117.0</ele><time>2026-04-03T11:45:33Z</time></trkpt><trkpt lat="45.31939669376617" lon="11.72509784029168"><ele>117.0</ele><time>2026-04-03T11:45:34Z</time></trkpt><trkpt lat="45.31933241324339" lon="11.725148340914089"><ele>117.0</ele><time>2026-04-03T11:45:36Z</time></trkpt><trkpt lat="45.31930083529616" lon="11.725275411395273"><ele>117.0</ele><time>2026-04-03T11:45:38Z</time></trkpt><trkpt lat="45.31921621178785" lon="11.725260851308159"><ele>117.0</ele><time>2026-04-03T11:45:39Z</time></trkpt><trkpt lat="45.31912752672714" lon="11.725253860503244"><ele>117.0</ele><time>2026-04-03T11:45:40Z</time></trkpt><trkpt lat="45.319049823144404" lon="11.725264457050322"><ele>113.33333333333333</ele><time>2026-04-03T11:45:41Z</time></trkpt><trkpt lat="45.31898031336182" lon="11.725264896961791"><ele>109.66666666666667</ele><time>2026-04-03T11:45:42Z</time></trkpt><trkpt lat="45.3189158565891" lon="11.725253096509737"><ele>106.0</ele><time>2026-04-03T11:45:43Z</time></trkpt><trkpt lat="45.31880784086914" lon="11.725183300124048"><ele>102.33333333333334</ele><time>2026-04-03T11:45:45Z</time></trkpt><trkpt lat="45.31874939922275" lon="11.72511700970521"><ele>98.66666666666667</ele><time>2026-04-03T11:45:46Z</time></trkpt><trkpt lat="45.318706558397615" lon="11.724991598897367"><ele>95.0</ele><time>2026-04-03T11:45:47Z</time></trkpt><trkpt lat="45.31864078142239" lon="11.724931856079067"><ele>95.0</ele><time>2026-04-03T11:45:48Z</time></trkpt><trkpt lat="45.31858144226502" lon="11.724864066431087"><ele>95.0</ele><time>2026-04-03T11:45:49Z</time></trkpt><trkpt lat="45.31850541889159" lon="11.72483052309573"><ele>95.0</ele><time>2026-04-03T11:45:50Z</time></trkpt><trkpt lat="45.31846830856811" lon="11.724747448091424"><ele>95.0</ele><time>2026-04-03T11:45:51Z</time></trkpt><trkpt lat="45.31841843781571" lon="11.724661143749534"><ele>95.0</ele><time>2026-04-03T11:45:52Z</time></trkpt><trkpt lat="45.318389957496905" lon="11.7245682225323"><ele>95.0</ele><time>2026-04-03T11:45:53Z</time></trkpt><trkpt lat="45.31829176922582" lon="11.724530429643064"><ele>95.0</ele><time>2026-04-03T11:45:55Z</time></trkpt><trkpt lat="45.31820997744659" lon="11.724630017599063"><ele>95.0</ele><time>2026-04-03T11:46:07Z</time></trkpt><trkpt lat="45.318180101353846" lon="11.724765482339187"><ele>95.0</ele><time>2026-04-03T11:46:09Z</time></trkpt><trkpt lat="45.31818138524782" lon="11.724920839007375"><ele>95.0</ele><time>2026-04-03T11:46:11Z</time></trkpt><trkpt lat="45.31817440299901" lon="11.725041956400343"><ele>95.0</ele><time>2026-04-03T11:46:13Z</time></trkpt><trkpt lat="45.31817277845646" lon="11.725198193604802"><ele>91.0</ele><time>2026-04-03T11:46:15Z</time></trkpt><trkpt lat="45.318161925788864" lon="11.725291726114515"><ele>87.0</ele><time>2026-04-03T11:46:16Z</time></trkpt><trkpt lat="45.31812885654211" lon="11.725375046712433"><ele>83.0</ele><time>2026-04-03T11:46:17Z</time></trkpt><trkpt lat="45.318069466905975" lon="11.725512263450073"><ele>79.0</ele><time>2026-04-03T11:46:19Z</time></trkpt><trkpt lat="45.31798816767584" lon="11.725595139663437"><ele>75.0</ele><time>2026-04-03T11:46:21Z</time></trkpt><trkpt lat="45.3178737590318" lon="11.72569056687554"><ele>74.16666666666667</ele><time>2026-04-03T11:46:23Z</time></trkpt><trkpt lat="45.31780129408059" lon="11.725753765861423"><ele>73.33333333333333</ele><time>2026-04-03T11:46:24Z</time></trkpt><trkpt lat="45.3177470241671" lon="11.725799916588208"><ele>72.5</ele><time>2026-04-03T11:46:25Z</time></trkpt><trkpt lat="45.317681224801255" lon="11.725842986987349"><ele>71.66666666666666</ele><time>2026-04-03T11:46:26Z</time></trkpt><trkpt lat="45.31759568977913" lon="11.725895796080637"><ele>70.83333333333333</ele><time>2026-04-03T11:46:27Z</time></trkpt><trkpt lat="45.31753330424854" lon="11.725945424332984"><ele>70.0</ele><time>2026-04-03T11:46:28Z</time></trkpt><trkpt lat="45.3174732762721" lon="11.725981312269704"><ele>70.0</ele><time>2026-04-03T11:46:29Z</time></trkpt><trkpt lat="45.317416909825134" lon="11.726049282459337"><ele>70.0</ele><time>2026-04-03T11:46:30Z</time></trkpt><trkpt lat="45.31733089157374" lon="11.726124614188539"><ele>70.0</ele><time>2026-04-03T11:46:32Z</time></trkpt><trkpt lat="45.31726018756606" lon="11.726175994426743"><ele>70.0</ele><time>2026-04-03T11:46:33Z</time></trkpt><trkpt lat="45.31720213777699" lon="11.726213683353457"><ele>70.0</ele><time>2026-04-03T11:46:34Z</time></trkpt><trkpt lat="45.31714033971834" lon="11.726236797086177"><ele>70.0</ele><time>2026-04-03T11:46:35Z</time></trkpt><trkpt lat="45.31707502205654" lon="11.726239355864777"><ele>70.0</ele><time>2026-04-03T11:46:36Z</time></trkpt><trkpt lat="45.31697064322087" lon="11.726178787757314"><ele>68.6</ele><time>2026-04-03T11:46:38Z</time></trkpt><trkpt lat="45.31688503542746" lon="11.726184305429776"><ele>67.2</ele><time>2026-04-03T11:46:39Z</time></trkpt><trkpt lat="45.31678701491658" lon="11.726127882009397"><ele>65.8</ele><time>2026-04-03T11:46:41Z</time></trkpt><trkpt lat="45.316727025711245" lon="11.72608309221392"><ele>64.4</ele><time>2026-04-03T11:46:42Z</time></trkpt><trkpt lat="45.3166682948739" lon="11.7260474826889"><ele>63.0</ele><time>2026-04-03T11:46:43Z</time></trkpt><trkpt lat="45.31652993752169" lon="11.725977142977301"><ele>63.0</ele><time>2026-04-03T11:46:45Z</time></trkpt><trkpt lat="45.31644599946347" lon="11.725957576858015"><ele>63.0</ele><time>2026-04-03T11:46:47Z</time></trkpt><trkpt lat="45.31640029831433" lon="11.72608068762545"><ele>63.0</ele><time>2026-04-03T11:46:49Z</time></trkpt><trkpt lat="45.31635708307862" lon="11.726232266340984"><ele>63.0</ele><time>2026-04-03T11:46:51Z</time></trkpt><trkpt lat="45.31629226807095" lon="11.726293877583648"><ele>63.0</ele><time>2026-04-03T11:46:52Z</time></trkpt><trkpt lat="45.316203088725274" lon="11.726276957708972"><ele>59.833333333333336</ele><time>2026-04-03T11:46:53Z</time></trkpt><trkpt lat="45.3160924264196" lon="11.726389136682279"><ele>56.666666666666664</ele><time>2026-04-03T11:46:55Z</time></trkpt><trkpt lat="45.31604325960011" lon="11.726488376521326"><ele>53.5</ele><time>2026-04-03T11:46:56Z</time></trkpt><trkpt lat="45.31599567183177" lon="11.726582917859785"><ele>50.33333333333333</ele><time>2026-04-03T11:46:57Z</time></trkpt><trkpt lat="45.315950371028215" lon="11.726670647311705"><ele>47.166666666666664</ele><time>2026-04-03T11:46:58Z</time></trkpt><trkpt lat="45.31591140204532" lon="11.72674611515809"><ele>44.0</ele><time>2026-04-03T11:46:59Z</time></trkpt><trkpt lat="45.315853680890726" lon="11.726854474092043"><ele>44.0</ele><time>2026-04-03T11:47:01Z</time></trkpt><trkpt lat="45.31578850786136" lon="11.72691777817876"><ele>44.0</ele><time>2026-04-03T11:47:03Z</time></trkpt><trkpt lat="45.315699741095834" lon="11.726853323908342"><ele>44.0</ele><time>2026-04-03T11:47:06Z</time></trkpt><trkpt lat="45.31563905194875" lon="11.726773040138909"><ele>44.0</ele><time>2026-04-03T11:47:08Z</time></trkpt><trkpt lat="45.31556697081493" lon="11.726680855894463"><ele>44.0</ele><time>2026-04-03T11:47:10Z</time></trkpt><trkpt lat="45.31549486654301" lon="11.726594268113969"><ele>42.0</ele><time>2026-04-03T11:47:12Z</time></trkpt><trkpt lat="45.315412127633984" lon="11.726499860673137"><ele>40.0</ele><time>2026-04-03T11:47:14Z</time></trkpt><trkpt lat="45.31532051924982" lon="11.726427854090739"><ele>38.0</ele><time>2026-04-03T11:47:16Z</time></trkpt><trkpt lat="45.315222504689885" lon="11.72637725070996"><ele>36.0</ele><time>2026-04-03T11:47:18Z</time></trkpt><trkpt lat="45.315160892473514" lon="11.726348795069777"><ele>34.0</ele><time>2026-04-03T11:47:19Z</time></trkpt><trkpt lat="45.31508762845071" lon="11.726314958112095"><ele>34.0</ele><time>2026-04-03T11:47:20Z</time></trkpt><trkpt lat="45.31500150066513" lon="11.726274918543027"><ele>34.0</ele><time>2026-04-03T11:47:21Z</time></trkpt><trkpt lat="45.314908488286825" lon="11.726231639830509"><ele>34.0</ele><time>2026-04-03T11:47:22Z</time></trkpt><trkpt lat="45.31480636267587" lon="11.72618412073675"><ele>34.0</ele><time>2026-04-03T11:47:23Z</time></trkpt><trkpt lat="45.31470522296553" lon="11.726137159878169"><ele>34.0</ele><time>2026-04-03T11:47:24Z</time></trkpt><trkpt lat="45.314613904999035" lon="11.726119034249802"><ele>34.0</ele><time>2026-04-03T11:47:25Z</time></trkpt><trkpt lat="45.314539854179905" lon="11.726086132502937"><ele>34.0</ele><time>2026-04-03T11:47:26Z</time></trkpt><trkpt lat="45.31446823973262" lon="11.726049418975515"><ele>34.0</ele><time>2026-04-03T11:47:27Z</time></trkpt><trkpt lat="45.3143877308617" lon="11.72607191509888"><ele>34.0</ele><time>2026-04-03T11:47:28Z</time></trkpt><trkpt lat="45.31432877677861" lon="11.726162143897511"><ele>34.0</ele><time>2026-04-03T11:47:29Z</time></trkpt><trkpt lat="45.314283502460924" lon="11.726285859246484"><ele>34.0</ele><time>2026-04-03T11:47:30Z</time></trkpt><trkpt lat="45.31422312064879" lon="11.72642289776957"><ele>34.0</ele><time>2026-04-03T11:47:31Z</time></trkpt><trkpt lat="45.31415442722202" lon="11.726577117789972"><ele>34.0</ele><time>2026-04-03T11:47:32Z</time></trkpt><trkpt lat="45.31409625587974" lon="11.726747641895125"><ele>34.0</ele><time>2026-04-03T11:47:33Z</time></trkpt><trkpt lat="45.31401433389675" lon="11.726893729884367"><ele>34.0</ele><time>2026-04-03T11:47:34Z</time></trkpt><trkpt lat="45.31395075187339" lon="11.727052418298571"><ele>34.25</ele><time>2026-04-03T11:47:35Z</time></trkpt><trkpt lat="45.31387490003269" lon="11.727187750143658"><ele>34.5</ele><time>2026-04-03T11:47:36Z</time></trkpt><trkpt lat="45.313805433083196" lon="11.727319828233554"><ele>34.75</ele><time>2026-04-03T11:47:37Z</time></trkpt><trkpt lat="45.31372920336425" lon="11.727441341735707"><ele>35.0</ele><time>2026-04-03T11:47:38Z</time></trkpt><trkpt lat="45.31365065653211" lon="11.72756607862428"><ele>35.0</ele><time>2026-04-03T11:47:39Z</time></trkpt><trkpt lat="45.31357762002443" lon="11.727678020474332"><ele>35.0</ele><time>2026-04-03T11:47:40Z</time></trkpt><trkpt lat="45.31351295063107" lon="11.727776405373676"><ele>35.0</ele><time>2026-04-03T11:47:41Z</time></trkpt><trkpt lat="45.31345110633255" lon="11.727866303127929"><ele>35.0</ele><time>2026-04-03T11:47:42Z</time></trkpt><trkpt lat="45.31340056303091" lon="11.727965721383104"><ele>35.0</ele><time>2026-04-03T11:47:43Z</time></trkpt><trkpt lat="45.31336302514845" lon="11.72806274196577"><ele>34.0</ele><time>2026-04-03T11:47:44Z</time></trkpt><trkpt lat="45.31335664176529" lon="11.72817735946229"><ele>33.0</ele><time>2026-04-03T11:47:45Z</time></trkpt><trkpt lat="45.31337071686261" lon="11.72830109952104"><ele>32.0</ele><time>2026-04-03T11:47:46Z</time></trkpt><trkpt lat="45.31339795486298" lon="11.728425582531663"><ele>31.0</ele><time>2026-04-03T11:47:47Z</time></trkpt><trkpt lat="45.3134008334084" lon="11.72854768882493"><ele>29.999999999999996</ele><time>2026-04-03T11:47:48Z</time></trkpt><trkpt lat="45.313409434250545" lon="11.728650116255066"><ele>29.0</ele><time>2026-04-03T11:47:49Z</time></trkpt><trkpt lat="45.31339331132379" lon="11.72880316072897"><ele>28.799999999999997</ele><time>2026-04-03T11:47:51Z</time></trkpt><trkpt lat="45.31337511741912" lon="11.728896771817348"><ele>28.599999999999998</ele><time>2026-04-03T11:47:52Z</time></trkpt><trkpt lat="45.31336321839093" lon="11.729028466812943"><ele>28.4</ele><time>2026-04-03T11:47:53Z</time></trkpt><trkpt lat="45.313368827149915" lon="11.729179353008611"><ele>28.2</ele><time>2026-04-03T11:47:54Z</time></trkpt><trkpt lat="45.313366852217825" lon="11.729327322906475"><ele>28.0</ele><time>2026-04-03T11:47:55Z</time></trkpt><trkpt lat="45.313341538658754" lon="11.729441648962112"><ele>28.333333333333336</ele><time>2026-04-03T11:47:56Z</time></trkpt><trkpt lat="45.31328296563978" lon="11.729527647958108"><ele>28.666666666666668</ele><time>2026-04-03T11:47:57Z</time></trkpt><trkpt lat="45.31320931100087" lon="11.729546142355789"><ele>29.0</ele><time>2026-04-03T11:47:58Z</time></trkpt><trkpt lat="45.31313732657558" lon="11.729589143876588"><ele>29.333333333333336</ele><time>2026-04-03T11:47:59Z</time></trkpt><trkpt lat="45.31304653968558" lon="11.729592174989639"><ele>29.666666666666668</ele><time>2026-04-03T11:48:00Z</time></trkpt><trkpt lat="45.312951767211985" lon="11.729638837874086"><ele>30.0</ele><time>2026-04-03T11:48:01Z</time></trkpt><trkpt lat="45.31283809977286" lon="11.72962870728271"><ele>30.0</ele><time>2026-04-03T11:48:02Z</time></trkpt><trkpt lat="45.31273022604285" lon="11.729613681889502"><ele>30.0</ele><time>2026-04-03T11:48:03Z</time></trkpt><trkpt lat="45.3126287485364" lon="11.729590705473123"><ele>30.0</ele><time>2026-04-03T11:48:04Z</time></trkpt><trkpt lat="45.3125362253306" lon="11.72957654291863"><ele>30.0</ele><time>2026-04-03T11:48:05Z</time></trkpt><trkpt lat="45.312439538231885" lon="11.72957373029536"><ele>30.0</ele><time>2026-04-03T11:48:06Z</time></trkpt><trkpt lat="45.31234266880864" lon="11.729588926858824"><ele>30.0</ele><time>2026-04-03T11:48:07Z</time></trkpt><trkpt lat="45.312247261833946" lon="11.729619831809519"><ele>30.0</ele><time>2026-04-03T11:48:08Z</time></trkpt><trkpt lat="45.31217288038193" lon="11.729648181018455"><ele>30.0</ele><time>2026-04-03T11:48:09Z</time></trkpt><trkpt lat="45.31210914479687" lon="11.729674701555522"><ele>30.0</ele><time>2026-04-03T11:48:10Z</time></trkpt><trkpt lat="45.312171423469906" lon="11.729619371702146"><ele>30.0</ele><time>2026-04-03T11:48:18Z</time></trkpt><trkpt lat="45.31230686713875" lon="11.729583446466604"><ele>30.0</ele><time>2026-04-03T11:48:20Z</time></trkpt><trkpt lat="45.3123779205316" lon="11.729558586708764"><ele>30.0</ele><time>2026-04-03T11:48:21Z</time></trkpt><trkpt lat="45.31245156424408" lon="11.729551539281525"><ele>30.0</ele><time>2026-04-03T11:48:22Z</time></trkpt><trkpt lat="45.31253467771698" lon="11.72955160743625"><ele>30.0</ele><time>2026-04-03T11:48:23Z</time></trkpt><trkpt lat="45.31261287584062" lon="11.729555720422397"><ele>30.0</ele><time>2026-04-03T11:48:24Z</time></trkpt><trkpt lat="45.312681674682004" lon="11.729558663018853"><ele>30.0</ele><time>2026-04-03T11:48:25Z</time></trkpt><trkpt lat="45.312761311986065" lon="11.729552898586972"><ele>30.0</ele><time>2026-04-03T11:48:26Z</time></trkpt><trkpt lat="45.31284036401743" lon="11.729557090927251"><ele>30.0</ele><time>2026-04-03T11:48:27Z</time></trkpt><trkpt lat="45.31291024784725" lon="11.729558082433403"><ele>30.0</ele><time>2026-04-03T11:48:28Z</time></trkpt><trkpt lat="45.31300186008476" lon="11.72954613283935"><ele>30.0</ele><time>2026-04-03T11:48:30Z</time></trkpt><trkpt lat="45.312955654459756" lon="11.729244510827485"><ele>30.0</ele><time>2026-04-03T11:48:35Z</time></trkpt><trkpt lat="45.312944629780056" lon="11.729148170909015"><ele>30.0</ele><time>2026-04-03T11:48:37Z</time></trkpt><trkpt lat="45.31294172055841" lon="11.729029193449406"><ele>30.0</ele><time>2026-04-03T11:48:39Z</time></trkpt><trkpt lat="45.31294786399979" lon="11.729158103290812"><ele>30.0</ele><time>2026-04-03T11:48:55Z</time></trkpt><trkpt lat="45.31297356374517" lon="11.729301105364062"><ele>30.0</ele><time>2026-04-03T11:48:57Z</time></trkpt><trkpt lat="45.31300309174835" lon="11.729417638887837"><ele>30.0</ele><time>2026-04-03T11:48:59Z</time></trkpt><trkpt lat="45.31297941271529" lon="11.729502510693237"><ele>30.0</ele><time>2026-04-03T11:49:04Z</time></trkpt><trkpt lat="45.312913904139215" lon="11.729531995371884"><ele>30.0</ele><time>2026-04-03T11:49:26Z</time></trkpt><trkpt lat="45.31298239757423" lon="11.7295147160804"><ele>30.0</ele><time>2026-04-03T11:49:42Z</time></trkpt><trkpt lat="45.31294275656982" lon="11.72939474635022"><ele>30.0</ele><time>2026-04-03T11:49:53Z</time></trkpt><trkpt lat="45.313032351326264" lon="11.729345089170248"><ele>30.0</ele><time>2026-04-03T11:49:54Z</time></trkpt><trkpt lat="45.31301746297492" lon="11.729237280247476"><ele>30.0</ele><time>2026-04-03T11:49:57Z</time></trkpt><trkpt lat="45.31299293426598" lon="11.729127492414317"><ele>32.5</ele><time>2026-04-03T11:49:59Z</time></trkpt><trkpt lat="45.31296657347302" lon="11.729018562768738"><ele>35.0</ele><time>2026-04-03T11:50:03Z</time></trkpt><trkpt lat="45.31293463769852" lon="11.728912038049002"><ele>37.5</ele><time>2026-04-03T11:50:07Z</time></trkpt><trkpt lat="45.31290608023034" lon="11.728818926816372"><ele>40.0</ele><time>2026-04-03T11:50:09Z</time></trkpt><trkpt lat="45.31288612117024" lon="11.72871434362207"><ele>42.5</ele><time>2026-04-03T11:50:11Z</time></trkpt><trkpt lat="45.31288115456764" lon="11.7285333700114"><ele>45.0</ele><time>2026-04-03T11:50:13Z</time></trkpt><trkpt lat="45.312877621090514" lon="11.72842303947029"><ele>49.0</ele><time>2026-04-03T11:50:14Z</time></trkpt><trkpt lat="45.312818751005686" lon="11.728285272922486"><ele>53.0</ele><time>2026-04-03T11:50:15Z</time></trkpt><trkpt lat="45.312753842762824" lon="11.728182794409436"><ele>57.0</ele><time>2026-04-03T11:50:16Z</time></trkpt><trkpt lat="45.31272436664039" lon="11.72805895797956"><ele>61.0</ele><time>2026-04-03T11:50:17Z</time></trkpt><trkpt lat="45.31268229859439" lon="11.727960588555613"><ele>65.0</ele><time>2026-04-03T11:50:18Z</time></trkpt><trkpt lat="45.31265157786332" lon="11.727854110051698"><ele>65.2</ele><time>2026-04-03T11:50:19Z</time></trkpt><trkpt lat="45.31262003296468" lon="11.727722745058033"><ele>65.4</ele><time>2026-04-03T11:50:20Z</time></trkpt><trkpt lat="45.31257532568349" lon="11.727588361522416"><ele>65.6</ele><time>2026-04-03T11:50:21Z</time></trkpt><trkpt lat="45.31253542917674" lon="11.727462612843032"><ele>65.8</ele><time>2026-04-03T11:50:22Z</time></trkpt><trkpt lat="45.31248833590975" lon="11.727357979251204"><ele>66.0</ele><time>2026-04-03T11:50:23Z</time></trkpt><trkpt lat="45.31244857613096" lon="11.727253865920535"><ele>66.0</ele><time>2026-04-03T11:50:24Z</time></trkpt><trkpt lat="45.31242790464337" lon="11.727147867644769"><ele>66.0</ele><time>2026-04-03T11:50:25Z</time></trkpt><trkpt lat="45.31242895323468" lon="11.727036400975134"><ele>66.0</ele><time>2026-04-03T11:50:26Z</time></trkpt><trkpt lat="45.312431734030724" lon="11.726937557477697"><ele>66.0</ele><time>2026-04-03T11:50:27Z</time></trkpt><trkpt lat="45.312446428601696" lon="11.72684777332047"><ele>66.0</ele><time>2026-04-03T11:50:28Z</time></trkpt><trkpt lat="45.312480483232264" lon="11.72674702277967"><ele>66.0</ele><time>2026-04-03T11:50:29Z</time></trkpt><trkpt lat="45.31251818513113" lon="11.726674622532661"><ele>66.0</ele><time>2026-04-03T11:50:30Z</time></trkpt><trkpt lat="45.31255743904577" lon="11.726595002397605"><ele>67.6</ele><time>2026-04-03T11:50:31Z</time></trkpt><trkpt lat="45.31258182763688" lon="11.726495234960465"><ele>69.19999999999999</ele><time>2026-04-03T11:50:32Z</time></trkpt><trkpt lat="45.31262700168663" lon="11.726386955298159"><ele>70.80000000000001</ele><time>2026-04-03T11:50:33Z</time></trkpt><trkpt lat="45.31268816247054" lon="11.726278148637595"><ele>72.4</ele><time>2026-04-03T11:50:34Z</time></trkpt><trkpt lat="45.31274059667102" lon="11.72615586395788"><ele>74.0</ele><time>2026-04-03T11:50:35Z</time></trkpt><trkpt lat="45.312778982718584" lon="11.726037864202691"><ele>76.16666666666667</ele><time>2026-04-03T11:50:36Z</time></trkpt><trkpt lat="45.31281044164466" lon="11.725945984367712"><ele>78.33333333333334</ele><time>2026-04-03T11:50:37Z</time></trkpt><trkpt lat="45.31283081285034" lon="11.725841663420534"><ele>80.5</ele><time>2026-04-03T11:50:38Z</time></trkpt><trkpt lat="45.3128338022312" lon="11.725729490625202"><ele>82.66666666666667</ele><time>2026-04-03T11:50:39Z</time></trkpt><trkpt lat="45.31281570596149" lon="11.725629830599512"><ele>84.83333333333333</ele><time>2026-04-03T11:50:40Z</time></trkpt><trkpt lat="45.31279026379434" lon="11.725504161481215"><ele>87.0</ele><time>2026-04-03T11:50:41Z</time></trkpt><trkpt lat="45.3127727206891" lon="11.72536813100328"><ele>87.39999999999999</ele><time>2026-04-03T11:50:42Z</time></trkpt><trkpt lat="45.31276868693631" lon="11.725216874270624"><ele>87.8</ele><time>2026-04-03T11:50:44Z</time></trkpt><trkpt lat="45.31275885159438" lon="11.725097015958777"><ele>88.2</ele><time>2026-04-03T11:50:48Z</time></trkpt><trkpt lat="45.31274768126113" lon="11.724957420635135"><ele>88.6</ele><time>2026-04-03T11:50:50Z</time></trkpt><trkpt lat="45.31269556388982" lon="11.724807268327254"><ele>89.0</ele><time>2026-04-03T11:50:52Z</time></trkpt><trkpt lat="45.31269145951321" lon="11.724706550188172"><ele>89.0</ele><time>2026-04-03T11:50:53Z</time></trkpt><trkpt lat="45.31265202229405" lon="11.724585199692976"><ele>89.0</ele><time>2026-04-03T11:50:54Z</time></trkpt><trkpt lat="45.312633050163456" lon="11.724434688300253"><ele>89.0</ele><time>2026-04-03T11:50:55Z</time></trkpt><trkpt lat="45.31262876846606" lon="11.724269851215496"><ele>89.0</ele><time>2026-04-03T11:50:56Z</time></trkpt><trkpt lat="45.31260590279867" lon="11.724098405713606"><ele>89.0</ele><time>2026-04-03T11:50:57Z</time></trkpt><trkpt lat="45.3125957728018" lon="11.723926033904785"><ele>88.80000000000001</ele><time>2026-04-03T11:50:58Z</time></trkpt><trkpt lat="45.31258308937144" lon="11.723753236668198"><ele>88.60000000000001</ele><time>2026-04-03T11:50:59Z</time></trkpt><trkpt lat="45.312587479569636" lon="11.723593502970317"><ele>88.4</ele><time>2026-04-03T11:51:00Z</time></trkpt><trkpt lat="45.31258535585705" lon="11.7234528712997"><ele>88.2</ele><time>2026-04-03T11:51:01Z</time></trkpt><trkpt lat="45.312584701643104" lon="11.723323427914952"><ele>88.0</ele><time>2026-04-03T11:51:02Z</time></trkpt><trkpt lat="45.31258524804724" lon="11.72318415428398"><ele>88.4</ele><time>2026-04-03T11:51:03Z</time></trkpt><trkpt lat="45.31257534489897" lon="11.723057521166261"><ele>88.80000000000001</ele><time>2026-04-03T11:51:04Z</time></trkpt><trkpt lat="45.312583514438785" lon="11.722918825809966"><ele>89.2</ele><time>2026-04-03T11:51:05Z</time></trkpt><trkpt lat="45.31262118960622" lon="11.722814731636563"><ele>89.6</ele><time>2026-04-03T11:51:06Z</time></trkpt><trkpt lat="45.312647942304636" lon="11.722690905823884"><ele>90.0</ele><time>2026-04-03T11:51:07Z</time></trkpt><trkpt lat="45.312629861657484" lon="11.72252749481643"><ele>90.2</ele><time>2026-04-03T11:51:08Z</time></trkpt><trkpt lat="45.31266888240414" lon="11.722381305864767"><ele>90.4</ele><time>2026-04-03T11:51:09Z</time></trkpt><trkpt lat="45.31269273418323" lon="11.722256397484578"><ele>90.6</ele><time>2026-04-03T11:51:10Z</time></trkpt><trkpt lat="45.312740242139235" lon="11.72212451999438"><ele>90.8</ele><time>2026-04-03T11:51:11Z</time></trkpt><trkpt lat="45.312783660663605" lon="11.722001343522967"><ele>91.0</ele><time>2026-04-03T11:51:12Z</time></trkpt><trkpt lat="45.3128123754094" lon="11.721900305678178"><ele>90.0</ele><time>2026-04-03T11:51:13Z</time></trkpt><trkpt lat="45.31284374550263" lon="11.721817600969684"><ele>89.0</ele><time>2026-04-03T11:51:14Z</time></trkpt><trkpt lat="45.31290221724558" lon="11.721730566169631"><ele>88.0</ele><time>2026-04-03T11:51:15Z</time></trkpt><trkpt lat="45.31295660737676" lon="11.721632860004503"><ele>87.0</ele><time>2026-04-03T11:51:16Z</time></trkpt><trkpt lat="45.31300719817526" lon="11.721550237711607"><ele>86.0</ele><time>2026-04-03T11:51:17Z</time></trkpt><trkpt lat="45.313051530677946" lon="11.72144836079737"><ele>85.0</ele><time>2026-04-03T11:51:19Z</time></trkpt><trkpt lat="45.31299424430854" lon="11.721381946418287"><ele>85.0</ele><time>2026-04-03T11:51:22Z</time></trkpt><trkpt lat="45.31303928627019" lon="11.721234672149832"><ele>85.0</ele><time>2026-04-03T11:51:25Z</time></trkpt><trkpt lat="45.313075514191965" lon="11.72113015907712"><ele>85.0</ele><time>2026-04-03T11:51:26Z</time></trkpt><trkpt lat="45.31312975841214" lon="11.72102133312223"><ele>85.0</ele><time>2026-04-03T11:51:27Z</time></trkpt><trkpt lat="45.31319752645198" lon="11.720930220695275"><ele>85.0</ele><time>2026-04-03T11:51:28Z</time></trkpt><trkpt lat="45.31328250474547" lon="11.720857132989412"><ele>87.66666666666666</ele><time>2026-04-03T11:51:29Z</time></trkpt><trkpt lat="45.31335775353241" lon="11.720778078462166"><ele>90.33333333333333</ele><time>2026-04-03T11:51:30Z</time></trkpt><trkpt lat="45.313394338282514" lon="11.720679348038953"><ele>93.0</ele><time>2026-04-03T11:51:31Z</time></trkpt><trkpt lat="45.313394160748764" lon="11.72057195433666"><ele>95.66666666666666</ele><time>2026-04-03T11:51:32Z</time></trkpt><trkpt lat="45.31338776264323" lon="11.720459213152996"><ele>98.33333333333333</ele><time>2026-04-03T11:51:33Z</time></trkpt><trkpt lat="45.31336559898831" lon="11.720341746800688"><ele>101.0</ele><time>2026-04-03T11:51:34Z</time></trkpt><trkpt lat="45.31335570066513" lon="11.720220118390424"><ele>101.5</ele><time>2026-04-03T11:51:35Z</time></trkpt><trkpt lat="45.31323429398846" lon="11.720124854794138"><ele>102.0</ele><time>2026-04-03T11:51:36Z</time></trkpt><trkpt lat="45.313131537997975" lon="11.72005102636928"><ele>102.5</ele><time>2026-04-03T11:51:37Z</time></trkpt><trkpt lat="45.31302733699417" lon="11.719971485074257"><ele>103.0</ele><time>2026-04-03T11:51:38Z</time></trkpt><trkpt lat="45.312937544214506" lon="11.719898752062653"><ele>103.0</ele><time>2026-04-03T11:51:39Z</time></trkpt><trkpt lat="45.312858681216426" lon="11.719832508934084"><ele>103.0</ele><time>2026-04-03T11:51:40Z</time></trkpt><trkpt lat="45.312768721517735" lon="11.719753742462322"><ele>103.0</ele><time>2026-04-03T11:51:41Z</time></trkpt><trkpt lat="45.31268893946955" lon="11.719683548800736"><ele>103.0</ele><time>2026-04-03T11:51:42Z</time></trkpt><trkpt lat="45.31262328113749" lon="11.719608693342627"><ele>103.0</ele><time>2026-04-03T11:51:43Z</time></trkpt><trkpt lat="45.31256225871679" lon="11.719521949583282"><ele>103.0</ele><time>2026-04-03T11:51:44Z</time></trkpt><trkpt lat="45.31251963322803" lon="11.719412196752065"><ele>103.0</ele><time>2026-04-03T11:51:45Z</time></trkpt><trkpt lat="45.312480959398414" lon="11.71927593527355"><ele>103.0</ele><time>2026-04-03T11:51:46Z</time></trkpt><trkpt lat="45.312436957864946" lon="11.719142784830803"><ele>103.0</ele><time>2026-04-03T11:51:47Z</time></trkpt><trkpt lat="45.31237230216104" lon="11.71901048908187"><ele>103.0</ele><time>2026-04-03T11:51:48Z</time></trkpt><trkpt lat="45.312290727766985" lon="11.718894702587487"><ele>102.33333333333334</ele><time>2026-04-03T11:51:49Z</time></trkpt><trkpt lat="45.312225899272" lon="11.71878497978947"><ele>101.66666666666667</ele><time>2026-04-03T11:51:50Z</time></trkpt><trkpt lat="45.31218159913722" lon="11.718698992610292"><ele>101.0</ele><time>2026-04-03T11:51:51Z</time></trkpt><trkpt lat="45.312151750147194" lon="11.718614262589465"><ele>100.33333333333334</ele><time>2026-04-03T11:51:52Z</time></trkpt><trkpt lat="45.312116826748806" lon="11.718492872774533"><ele>99.66666666666667</ele><time>2026-04-03T11:51:53Z</time></trkpt><trkpt lat="45.31208525613494" lon="11.71836524653175"><ele>99.0</ele><time>2026-04-03T11:51:54Z</time></trkpt><trkpt lat="45.31208525790453" lon="11.718228346913003"><ele>99.0</ele><time>2026-04-03T11:51:55Z</time></trkpt><trkpt lat="45.31211300632839" lon="11.718099612519048"><ele>99.0</ele><time>2026-04-03T11:51:56Z</time></trkpt><trkpt lat="45.31212928030788" lon="11.717988318392239"><ele>99.0</ele><time>2026-04-03T11:51:57Z</time></trkpt><trkpt lat="45.312189339487325" lon="11.717906754943765"><ele>99.0</ele><time>2026-04-03T11:51:58Z</time></trkpt><trkpt lat="45.31223336552905" lon="11.717816537605701"><ele>99.0</ele><time>2026-04-03T11:51:59Z</time></trkpt><trkpt lat="45.312238865175374" lon="11.717632922700904"><ele>100.0</ele><time>2026-04-03T11:52:01Z</time></trkpt><trkpt lat="45.3121831057221" lon="11.717541363870081"><ele>101.0</ele><time>2026-04-03T11:52:02Z</time></trkpt><trkpt lat="45.312102419561405" lon="11.717494284718597"><ele>102.0</ele><time>2026-04-03T11:52:03Z</time></trkpt><trkpt lat="45.31203810268647" lon="11.717440513354276"><ele>103.0</ele><time>2026-04-03T11:52:04Z</time></trkpt><trkpt lat="45.31198009039696" lon="11.71739886835195"><ele>104.0</ele><time>2026-04-03T11:52:05Z</time></trkpt><trkpt lat="45.311930823258464" lon="11.717324282103844"><ele>105.0</ele><time>2026-04-03T11:52:06Z</time></trkpt><trkpt lat="45.31187580728541" lon="11.717244850546026"><ele>105.0</ele><time>2026-04-03T11:52:07Z</time></trkpt><trkpt lat="45.31182036230085" lon="11.717161649469206"><ele>105.0</ele><time>2026-04-03T11:52:08Z</time></trkpt><trkpt lat="45.31176689058024" lon="11.717077726623241"><ele>105.0</ele><time>2026-04-03T11:52:09Z</time></trkpt><trkpt lat="45.31172364680172" lon="11.717005007534377"><ele>105.0</ele><time>2026-04-03T11:52:10Z</time></trkpt><trkpt lat="45.31165852165743" lon="11.716880761681447"><ele>105.0</ele><time>2026-04-03T11:52:12Z</time></trkpt><trkpt lat="45.3116075279094" lon="11.716735498207164"><ele>107.0</ele><time>2026-04-03T11:52:14Z</time></trkpt><trkpt lat="45.31158684110489" lon="11.716642269435946"><ele>109.0</ele><time>2026-04-03T11:52:15Z</time></trkpt><trkpt lat="45.31155154672448" lon="11.716540237926347"><ele>111.0</ele><time>2026-04-03T11:52:16Z</time></trkpt><trkpt lat="45.311523791370995" lon="11.71644051178227"><ele>113.0</ele><time>2026-04-03T11:52:17Z</time></trkpt><trkpt lat="45.311498604169245" lon="11.716338683563826"><ele>115.0</ele><time>2026-04-03T11:52:18Z</time></trkpt><trkpt lat="45.311471182441835" lon="11.71623179756485"><ele>117.0</ele><time>2026-04-03T11:52:19Z</time></trkpt><trkpt lat="45.31144221373847" lon="11.71611447363769"><ele>119.0</ele><time>2026-04-03T11:52:20Z</time></trkpt><trkpt lat="45.31141346010253" lon="11.715997942848313"><ele>121.0</ele><time>2026-04-03T11:52:21Z</time></trkpt><trkpt lat="45.31138610627951" lon="11.715888069629097"><ele>123.0</ele><time>2026-04-03T11:52:22Z</time></trkpt><trkpt lat="45.31137365919923" lon="11.715784334969937"><ele>125.0</ele><time>2026-04-03T11:52:23Z</time></trkpt><trkpt lat="45.31136873672968" lon="11.71564799721071"><ele>127.0</ele><time>2026-04-03T11:52:24Z</time></trkpt><trkpt lat="45.31136611241138" lon="11.715504648526958"><ele>129.0</ele><time>2026-04-03T11:52:25Z</time></trkpt><trkpt lat="45.311352611662635" lon="11.715361846810314"><ele>125.4</ele><time>2026-04-03T11:52:26Z</time></trkpt><trkpt lat="45.31134688181872" lon="11.715190883868882"><ele>121.80000000000001</ele><time>2026-04-03T11:52:27Z</time></trkpt><trkpt lat="45.31134538141454" lon="11.715035277415842"><ele>118.19999999999999</ele><time>2026-04-03T11:52:28Z</time></trkpt><trkpt lat="45.311323490300104" lon="11.714925051239772"><ele>114.6</ele><time>2026-04-03T11:52:29Z</time></trkpt><trkpt lat="45.31130349466146" lon="11.71474918436493"><ele>111.0</ele><time>2026-04-03T11:52:31Z</time></trkpt><trkpt lat="45.31133115655442" lon="11.714641052392382"><ele>111.0</ele><time>2026-04-03T11:52:32Z</time></trkpt><trkpt lat="45.31136117827811" lon="11.714542058182932"><ele>111.0</ele><time>2026-04-03T11:52:33Z</time></trkpt><trkpt lat="45.31139028161252" lon="11.714448768741486"><ele>111.0</ele><time>2026-04-03T11:52:34Z</time></trkpt><trkpt lat="45.31142481304068" lon="11.714367317397697"><ele>111.0</ele><time>2026-04-03T11:52:35Z</time></trkpt><trkpt lat="45.311477152467994" lon="11.714268057758074"><ele>111.0</ele><time>2026-04-03T11:52:36Z</time></trkpt><trkpt lat="45.31153294293509" lon="11.714153681366867"><ele>111.0</ele><time>2026-04-03T11:52:37Z</time></trkpt><trkpt lat="45.31157755984164" lon="11.714047261602879"><ele>115.0</ele><time>2026-04-03T11:52:38Z</time></trkpt><trkpt lat="45.31165298598099" lon="11.713925356444324"><ele>119.0</ele><time>2026-04-03T11:52:40Z</time></trkpt><trkpt lat="45.31177227228056" lon="11.713871591987798"><ele>123.0</ele><time>2026-04-03T11:52:42Z</time></trkpt><trkpt lat="45.31185241836944" lon="11.713878312422349"><ele>127.0</ele><time>2026-04-03T11:52:43Z</time></trkpt><trkpt lat="45.311932201856706" lon="11.713887372351058"><ele>131.0</ele><time>2026-04-03T11:52:44Z</time></trkpt><trkpt lat="45.31204780228534" lon="11.713883454259683"><ele>131.0</ele><time>2026-04-03T11:52:46Z</time></trkpt><trkpt lat="45.31206435045341" lon="11.713779914199572"><ele>131.0</ele><time>2026-04-03T11:52:49Z</time></trkpt><trkpt lat="45.311962477889416" lon="11.713682424989736"><ele>131.0</ele><time>2026-04-03T11:52:51Z</time></trkpt><trkpt lat="45.31190544839301" lon="11.71363388954322"><ele>131.0</ele><time>2026-04-03T11:52:52Z</time></trkpt><trkpt lat="45.31188194796114" lon="11.713547663428864"><ele>131.0</ele><time>2026-04-03T11:52:53Z</time></trkpt><trkpt lat="45.31190214795333" lon="11.713413441599732"><ele>131.0</ele><time>2026-04-03T11:53:10Z</time></trkpt><trkpt lat="45.31192619189106" lon="11.7132718081739"><ele>131.0</ele><time>2026-04-03T11:53:12Z</time></trkpt><trkpt lat="45.31198978353932" lon="11.713136158013576"><ele>131.0</ele><time>2026-04-03T11:53:14Z</time></trkpt><trkpt lat="45.31205482576846" lon="11.71299483847058"><ele>131.0</ele><time>2026-04-03T11:53:16Z</time></trkpt><trkpt lat="45.312105901523445" lon="11.712905981018555"><ele>131.0</ele><time>2026-04-03T11:53:17Z</time></trkpt><trkpt lat="45.31215759570348" lon="11.712816472595367"><ele>131.0</ele><time>2026-04-03T11:53:18Z</time></trkpt><trkpt lat="45.312203486756125" lon="11.712720819043732"><ele>137.6</ele><time>2026-04-03T11:53:19Z</time></trkpt><trkpt lat="45.31226523601206" lon="11.712615069691664"><ele>144.2</ele><time>2026-04-03T11:53:20Z</time></trkpt><trkpt lat="45.31232097543485" lon="11.712517600352083"><ele>150.79999999999998</ele><time>2026-04-03T11:53:21Z</time></trkpt><trkpt lat="45.31238566545036" lon="11.71240753879222"><ele>157.39999999999998</ele><time>2026-04-03T11:53:22Z</time></trkpt><trkpt lat="45.31244136505234" lon="11.712314501051802"><ele>164.0</ele><time>2026-04-03T11:53:23Z</time></trkpt><trkpt lat="45.31248580050863" lon="11.712216133792337"><ele>164.0</ele><time>2026-04-03T11:53:24Z</time></trkpt><trkpt lat="45.312551751339925" lon="11.712156773681656"><ele>164.0</ele><time>2026-04-03T11:53:25Z</time></trkpt><trkpt lat="45.312652324397206" lon="11.712075106357261"><ele>164.0</ele><time>2026-04-03T11:53:27Z</time></trkpt><trkpt lat="45.31272688932302" lon="11.712085945625695"><ele>164.0</ele><time>2026-04-03T11:53:29Z</time></trkpt><trkpt lat="45.31280934621762" lon="11.712041199627402"><ele>164.0</ele><time>2026-04-03T11:53:31Z</time></trkpt><trkpt lat="45.3128414624962" lon="11.71194676699312"><ele>164.0</ele><time>2026-04-03T11:53:33Z</time></trkpt><trkpt lat="45.31284711999917" lon="11.711801439816847"><ele>162.33333333333331</ele><time>2026-04-03T11:53:35Z</time></trkpt><trkpt lat="45.31292124602211" lon="11.711692442270602"><ele>160.66666666666666</ele><time>2026-04-03T11:53:37Z</time></trkpt><trkpt lat="45.312971369218126" lon="11.711626898141942"><ele>159.0</ele><time>2026-04-03T11:53:38Z</time></trkpt><trkpt lat="45.31302043590282" lon="11.711558433789646"><ele>157.33333333333334</ele><time>2026-04-03T11:53:39Z</time></trkpt><trkpt lat="45.31307710128066" lon="11.71150856968378"><ele>155.66666666666669</ele><time>2026-04-03T11:53:40Z</time></trkpt><trkpt lat="45.31315360757025" lon="11.711450237212288"><ele>154.0</ele><time>2026-04-03T11:53:41Z</time></trkpt><trkpt lat="45.313224732800215" lon="11.711399357364787"><ele>159.16666666666669</ele><time>2026-04-03T11:53:42Z</time></trkpt><trkpt lat="45.31330419049151" lon="11.711346069582804"><ele>164.33333333333334</ele><time>2026-04-03T11:53:43Z</time></trkpt><trkpt lat="45.3133694280403" lon="11.711199746080046"><ele>169.5</ele><time>2026-04-03T11:53:45Z</time></trkpt><trkpt lat="45.3133952312602" lon="11.711093318295388"><ele>174.66666666666666</ele><time>2026-04-03T11:53:46Z</time></trkpt><trkpt lat="45.31341623757627" lon="11.711008788401658"><ele>179.83333333333331</ele><time>2026-04-03T11:53:47Z</time></trkpt><trkpt lat="45.31341464856306" lon="11.710917979297873"><ele>185.0</ele><time>2026-04-03T11:53:48Z</time></trkpt><trkpt lat="45.31339531252159" lon="11.710800842194072"><ele>185.0</ele><time>2026-04-03T11:53:49Z</time></trkpt><trkpt lat="45.31339756202129" lon="11.710701733671328"><ele>185.0</ele><time>2026-04-03T11:53:50Z</time></trkpt><trkpt lat="45.313400401904765" lon="11.710598622029858"><ele>185.0</ele><time>2026-04-03T11:53:51Z</time></trkpt><trkpt lat="45.313413739802506" lon="11.710488377013009"><ele>185.0</ele><time>2026-04-03T11:53:52Z</time></trkpt><trkpt lat="45.31348617803897" lon="11.710372070054717"><ele>185.0</ele><time>2026-04-03T11:53:53Z</time></trkpt><trkpt lat="45.31355263639973" lon="11.710229321861679"><ele>183.4</ele><time>2026-04-03T11:53:54Z</time></trkpt><trkpt lat="45.313611910032584" lon="11.71008871484778"><ele>181.8</ele><time>2026-04-03T11:53:55Z</time></trkpt><trkpt lat="45.313655998362606" lon="11.709969793377201"><ele>180.2</ele><time>2026-04-03T11:53:56Z</time></trkpt><trkpt lat="45.313689541490106" lon="11.7098391326926"><ele>178.6</ele><time>2026-04-03T11:53:57Z</time></trkpt><trkpt lat="45.31370014203382" lon="11.70970318435898"><ele>177.0</ele><time>2026-04-03T11:53:58Z</time></trkpt><trkpt lat="45.31373630257191" lon="11.70960940633356"><ele>177.0</ele><time>2026-04-03T11:53:59Z</time></trkpt><trkpt lat="45.313779633873715" lon="11.70954438231127"><ele>177.0</ele><time>2026-04-03T11:54:00Z</time></trkpt><trkpt lat="45.31385210031104" lon="11.709452370200188"><ele>177.0</ele><time>2026-04-03T11:54:01Z</time></trkpt><trkpt lat="45.31390289857179" lon="11.709375181503868"><ele>177.0</ele><time>2026-04-03T11:54:02Z</time></trkpt><trkpt lat="45.3140128372283" lon="11.709290686319173"><ele>177.0</ele><time>2026-04-03T11:54:04Z</time></trkpt><trkpt lat="45.31408360320438" lon="11.709273184549767"><ele>177.0</ele><time>2026-04-03T11:54:05Z</time></trkpt><trkpt lat="45.3141606441917" lon="11.709275052930781"><ele>180.5</ele><time>2026-04-03T11:54:06Z</time></trkpt><trkpt lat="45.31422584963063" lon="11.709265989282915"><ele>184.0</ele><time>2026-04-03T11:54:07Z</time></trkpt><trkpt lat="45.31429714910539" lon="11.709254099136393"><ele>187.5</ele><time>2026-04-03T11:54:08Z</time></trkpt><trkpt lat="45.314373506399384" lon="11.709250395501591"><ele>191.0</ele><time>2026-04-03T11:54:09Z</time></trkpt><trkpt lat="45.31443548978229" lon="11.709269717349683"><ele>194.5</ele><time>2026-04-03T11:54:10Z</time></trkpt><trkpt lat="45.314540311404826" lon="11.709292763079059"><ele>198.0</ele><time>2026-04-03T11:54:12Z</time></trkpt><trkpt lat="45.31456775535301" lon="11.70918593901092"><ele>198.0</ele><time>2026-04-03T11:54:14Z</time></trkpt><trkpt lat="45.314576104877965" lon="11.709027344149565"><ele>198.0</ele><time>2026-04-03T11:54:16Z</time></trkpt><trkpt lat="45.31461226272687" lon="11.708882997916096"><ele>198.0</ele><time>2026-04-03T11:54:19Z</time></trkpt><trkpt lat="45.31457335044758" lon="11.708763054481114"><ele>198.0</ele><time>2026-04-03T11:54:21Z</time></trkpt><trkpt lat="45.3145218035679" lon="11.708705708595323"><ele>198.0</ele><time>2026-04-03T11:54:22Z</time></trkpt><trkpt lat="45.314499417425054" lon="11.708577005504933"><ele>197.16666666666666</ele><time>2026-04-03T11:54:24Z</time></trkpt><trkpt lat="45.31454135132677" lon="11.708485926105618"><ele>196.33333333333331</ele><time>2026-04-03T11:54:25Z</time></trkpt><trkpt lat="45.31462161464659" lon="11.70837665036378"><ele>195.5</ele><time>2026-04-03T11:54:27Z</time></trkpt><trkpt lat="45.31468573350165" lon="11.708428342104257"><ele>194.66666666666666</ele><time>2026-04-03T11:54:28Z</time></trkpt><trkpt lat="45.314743419254754" lon="11.708508567496537"><ele>193.83333333333331</ele><time>2026-04-03T11:54:29Z</time></trkpt><trkpt lat="45.31477517570735" lon="11.708395212054155"><ele>193.0</ele><time>2026-04-03T11:54:32Z</time></trkpt><trkpt lat="45.31479302751042" lon="11.708275198623381"><ele>197.60000000000002</ele><time>2026-04-03T11:54:34Z</time></trkpt><trkpt lat="45.314795461984524" lon="11.708106434181166"><ele>202.20000000000002</ele><time>2026-04-03T11:54:36Z</time></trkpt><trkpt lat="45.314819019813214" lon="11.708001437243018"><ele>206.8</ele><time>2026-04-03T11:54:37Z</time></trkpt><trkpt lat="45.314854337190205" lon="11.707891718514183"><ele>211.4</ele><time>2026-04-03T11:54:38Z</time></trkpt><trkpt lat="45.31491676509434" lon="11.70773224742218"><ele>216.0</ele><time>2026-04-03T11:54:40Z</time></trkpt><trkpt lat="45.3149738451849" lon="11.707651843449234"><ele>216.0</ele><time>2026-04-03T11:54:41Z</time></trkpt><trkpt lat="45.31501728754163" lon="11.707563795945783"><ele>216.0</ele><time>2026-04-03T11:54:42Z</time></trkpt><trkpt lat="45.31505620049907" lon="11.707489268539803"><ele>216.0</ele><time>2026-04-03T11:54:43Z</time></trkpt><trkpt lat="45.315158043225715" lon="11.707390814795595"><ele>216.0</ele><time>2026-04-03T11:54:45Z</time></trkpt><trkpt lat="45.31520322969788" lon="11.707327528427648"><ele>216.0</ele><time>2026-04-03T11:54:46Z</time></trkpt><trkpt lat="45.31524900717513" lon="11.70717734939358"><ele>216.0</ele><time>2026-04-03T11:54:48Z</time></trkpt><trkpt lat="45.3152631980527" lon="11.707089956159692"><ele>216.0</ele><time>2026-04-03T11:54:49Z</time></trkpt><trkpt lat="45.31535085145228" lon="11.706991042864514"><ele>216.0</ele><time>2026-04-03T11:54:51Z</time></trkpt><trkpt lat="45.31537616423663" lon="11.706844695404502"><ele>216.0</ele><time>2026-04-03T11:54:53Z</time></trkpt><trkpt lat="45.31538309283709" lon="11.70674243367584"><ele>216.0</ele><time>2026-04-03T11:54:54Z</time></trkpt><trkpt lat="45.31539081040255" lon="11.706648105071489"><ele>216.0</ele><time>2026-04-03T11:54:55Z</time></trkpt><trkpt lat="45.31540665540795" lon="11.70654085155501"><ele>216.0</ele><time>2026-04-03T11:54:56Z</time></trkpt><trkpt lat="45.3154260569922" lon="11.706434999666646"><ele>217.0</ele><time>2026-04-03T11:54:57Z</time></trkpt><trkpt lat="45.315456251661715" lon="11.706338430092808"><ele>218.0</ele><time>2026-04-03T11:54:58Z</time></trkpt><trkpt lat="45.3154854867844" lon="11.706229351441856"><ele>219.0</ele><time>2026-04-03T11:54:59Z</time></trkpt><trkpt lat="45.3155118971113" lon="11.706122719528874"><ele>220.0</ele><time>2026-04-03T11:55:00Z</time></trkpt><trkpt lat="45.31554442583467" lon="11.706022933137334"><ele>221.0</ele><time>2026-04-03T11:55:01Z</time></trkpt><trkpt lat="45.315578215436695" lon="11.70593029575342"><ele>222.0</ele><time>2026-04-03T11:55:02Z</time></trkpt><trkpt lat="45.315614225729625" lon="11.705813352778748"><ele>225.8</ele><time>2026-04-03T11:55:04Z</time></trkpt><trkpt lat="45.31557421555646" lon="11.70571344891333"><ele>229.6</ele><time>2026-04-03T11:55:06Z</time></trkpt><trkpt lat="45.31553450487932" lon="11.705570228775168"><ele>233.40000000000003</ele><time>2026-04-03T11:55:08Z</time></trkpt><trkpt lat="45.315528402554136" lon="11.705437867943946"><ele>237.20000000000002</ele><time>2026-04-03T11:55:10Z</time></trkpt><trkpt lat="45.31550979215773" lon="11.705332413352268"><ele>241.0</ele><time>2026-04-03T11:55:12Z</time></trkpt><trkpt lat="45.31547882855038" lon="11.705188542752627"><ele>243.33333333333331</ele><time>2026-04-03T11:55:15Z</time></trkpt><trkpt lat="45.31544683009237" lon="11.705098195504986"><ele>245.66666666666666</ele><time>2026-04-03T11:55:16Z</time></trkpt><trkpt lat="45.31542431918257" lon="11.704989019923454"><ele>248.0</ele><time>2026-04-03T11:55:17Z</time></trkpt><trkpt lat="45.31537682107358" lon="11.70487915463853"><ele>250.33333333333331</ele><time>2026-04-03T11:55:19Z</time></trkpt><trkpt lat="45.31529530506012" lon="11.704923742603004"><ele>252.66666666666666</ele><time>2026-04-03T11:55:21Z</time></trkpt><trkpt lat="45.31523705547836" lon="11.704854227462642"><ele>255.0</ele><time>2026-04-03T11:55:25Z</time></trkpt><trkpt lat="45.315237785271314" lon="11.704764080518844"><ele>255.0</ele><time>2026-04-03T11:55:27Z</time></trkpt><trkpt lat="45.31528000186385" lon="11.70461029679749"><ele>255.0</ele><time>2026-04-03T11:55:29Z</time></trkpt><trkpt lat="45.315298353324344" lon="11.704437866126487"><ele>255.0</ele><time>2026-04-03T11:55:31Z</time></trkpt><trkpt lat="45.31529370339358" lon="11.7043461681275"><ele>255.0</ele><time>2026-04-03T11:55:32Z</time></trkpt><trkpt lat="45.31527594487939" lon="11.704175842140065"><ele>255.0</ele><time>2026-04-03T11:55:34Z</time></trkpt><trkpt lat="45.31526956771011" lon="11.703998895570265"><ele>256.1666666666667</ele><time>2026-04-03T11:55:36Z</time></trkpt><trkpt lat="45.31526236218544" lon="11.703900800245277"><ele>257.3333333333333</ele><time>2026-04-03T11:55:37Z</time></trkpt><trkpt lat="45.315249271589934" lon="11.70381268752183"><ele>258.5</ele><time>2026-04-03T11:55:38Z</time></trkpt><trkpt lat="45.31522795525032" lon="11.703724045144693"><ele>259.66666666666663</ele><time>2026-04-03T11:55:39Z</time></trkpt><trkpt lat="45.31521413531838" lon="11.703553847453653"><ele>260.8333333333333</ele><time>2026-04-03T11:55:41Z</time></trkpt><trkpt lat="45.31523442809651" lon="11.703463382106086"><ele>262.0</ele><time>2026-04-03T11:55:42Z</time></trkpt><trkpt lat="45.31524838764721" lon="11.703360446827404"><ele>263.2857142857143</ele><time>2026-04-03T11:55:43Z</time></trkpt><trkpt lat="45.315254646878834" lon="11.703262569923035"><ele>264.5714285714286</ele><time>2026-04-03T11:55:44Z</time></trkpt><trkpt lat="45.31525865963389" lon="11.703155754503252"><ele>265.8571428571429</ele><time>2026-04-03T11:55:45Z</time></trkpt><trkpt lat="45.31525987208361" lon="11.703061032889552"><ele>267.14285714285717</ele><time>2026-04-03T11:55:46Z</time></trkpt><trkpt lat="45.31524386938136" lon="11.702968349048763"><ele>268.42857142857144</ele><time>2026-04-03T11:55:47Z</time></trkpt><trkpt lat="45.315245580276205" lon="11.702857865158304"><ele>269.7142857142857</ele><time>2026-04-03T11:55:48Z</time></trkpt><trkpt lat="45.315253009254164" lon="11.702754910533995"><ele>271.0</ele><time>2026-04-03T11:55:49Z</time></trkpt><trkpt lat="45.31527465540043" lon="11.702653381220212"><ele>272.5</ele><time>2026-04-03T11:55:50Z</time></trkpt><trkpt lat="45.31530071970879" lon="11.702522205059937"><ele>274.0</ele><time>2026-04-03T11:55:52Z</time></trkpt><trkpt lat="45.31526541594892" lon="11.702436239808549"><ele>275.5</ele><time>2026-04-03T11:55:55Z</time></trkpt><trkpt lat="45.31522219307093" lon="11.702357490513075"><ele>277.0</ele><time>2026-04-03T11:55:57Z</time></trkpt><trkpt lat="45.31512227392877" lon="11.702308592760238"><ele>278.5</ele><time>2026-04-03T11:55:59Z</time></trkpt><trkpt lat="45.31503678616709" lon="11.702308995856066"><ele>280.0</ele><time>2026-04-03T11:56:00Z</time></trkpt><trkpt lat="45.314941033877524" lon="11.702310770150172"><ele>280.0</ele><time>2026-04-03T11:56:01Z</time></trkpt><trkpt lat="45.314845218046734" lon="11.702327525864716"><ele>280.0</ele><time>2026-04-03T11:56:02Z</time></trkpt><trkpt lat="45.314753938773144" lon="11.702344652426657"><ele>280.0</ele><time>2026-04-03T11:56:03Z</time></trkpt><trkpt lat="45.31467142847238" lon="11.702338021523781"><ele>280.0</ele><time>2026-04-03T11:56:04Z</time></trkpt><trkpt lat="45.3145860331911" lon="11.702300460191106"><ele>280.0</ele><time>2026-04-03T11:56:05Z</time></trkpt><trkpt lat="45.31448788389948" lon="11.702244688787347"><ele>281.5</ele><time>2026-04-03T11:56:06Z</time></trkpt><trkpt lat="45.314396906352535" lon="11.702210661506385"><ele>283.0</ele><time>2026-04-03T11:56:07Z</time></trkpt><trkpt lat="45.31431448083841" lon="11.702182005996645"><ele>284.5</ele><time>2026-04-03T11:56:08Z</time></trkpt><trkpt lat="45.31424861785821" lon="11.702152476318815"><ele>286.0</ele><time>2026-04-03T11:56:09Z</time></trkpt><trkpt lat="45.314172520791544" lon="11.702165264518623"><ele>287.5</ele><time>2026-04-03T11:56:11Z</time></trkpt><trkpt lat="45.31409678084951" lon="11.702203804561245"><ele>289.0</ele><time>2026-04-03T11:56:13Z</time></trkpt><trkpt lat="45.31403044619315" lon="11.702214297765176"><ele>289.0</ele><time>2026-04-03T11:56:15Z</time></trkpt><trkpt lat="45.31396265376945" lon="11.702242518699759"><ele>289.0</ele><time>2026-04-03T11:56:17Z</time></trkpt><trkpt lat="45.31388737830926" lon="11.702276515798777"><ele>289.0</ele><time>2026-04-03T11:56:18Z</time></trkpt><trkpt lat="45.31381099455179" lon="11.70230739340086"><ele>289.0</ele><time>2026-04-03T11:56:19Z</time></trkpt><trkpt lat="45.313725815736575" lon="11.702342823674242"><ele>289.0</ele><time>2026-04-03T11:56:20Z</time></trkpt><trkpt lat="45.31364203584029" lon="11.702382015352455"><ele>289.0</ele><time>2026-04-03T11:56:21Z</time></trkpt><trkpt lat="45.3135600917118" lon="11.702331308838877"><ele>291.0</ele><time>2026-04-03T11:56:23Z</time></trkpt><trkpt lat="45.31359305753701" lon="11.702243772227556"><ele>293.0</ele><time>2026-04-03T11:56:25Z</time></trkpt><trkpt lat="45.313648823036466" lon="11.702164701325689"><ele>295.0</ele><time>2026-04-03T11:56:28Z</time></trkpt><trkpt lat="45.313643295557" lon="11.702071557713253"><ele>297.0</ele><time>2026-04-03T11:56:34Z</time></trkpt><trkpt lat="45.31357056084033" lon="11.70211348896666"><ele>299.0</ele><time>2026-04-03T11:56:52Z</time></trkpt><trkpt lat="45.313518853789525" lon="11.702203455283088"><ele>301.0</ele><time>2026-04-03T11:56:55Z</time></trkpt><trkpt lat="45.313516757700825" lon="11.702297543506567"><ele>303.0</ele><time>2026-04-03T11:56:57Z</time></trkpt><trkpt lat="45.313533564672724" lon="11.702446871877779"><ele>303.0</ele><time>2026-04-03T11:56:59Z</time></trkpt><trkpt lat="45.31349627819902" lon="11.702563568666667"><ele>303.0</ele><time>2026-04-03T11:57:01Z</time></trkpt><trkpt lat="45.31338800221207" lon="11.702576322852927"><ele>303.0</ele><time>2026-04-03T11:57:03Z</time></trkpt><trkpt lat="45.31326829531505" lon="11.702594704641356"><ele>303.0</ele><time>2026-04-03T11:57:05Z</time></trkpt><trkpt lat="45.31320458922258" lon="11.702628884222076"><ele>303.0</ele><time>2026-04-03T11:57:06Z</time></trkpt><trkpt lat="45.313083671725686" lon="11.702680876236954"><ele>303.8</ele><time>2026-04-03T11:57:08Z</time></trkpt><trkpt lat="45.31300863343505" lon="11.702711097437188"><ele>304.6</ele><time>2026-04-03T11:57:09Z</time></trkpt><trkpt lat="45.31291710370034" lon="11.702741398213176"><ele>305.4</ele><time>2026-04-03T11:57:10Z</time></trkpt><trkpt lat="45.31284534678132" lon="11.70279956361968"><ele>306.2</ele><time>2026-04-03T11:57:11Z</time></trkpt><trkpt lat="45.31276438206977" lon="11.702807697283388"><ele>307.0</ele><time>2026-04-03T11:57:13Z</time></trkpt><trkpt lat="45.31265857962406" lon="11.702722495799296"><ele>307.0</ele><time>2026-04-03T11:57:15Z</time></trkpt><trkpt lat="45.31260224294538" lon="11.702658917602308"><ele>307.0</ele><time>2026-04-03T11:57:16Z</time></trkpt><trkpt lat="45.31249341303044" lon="11.702591408329774"><ele>307.0</ele><time>2026-04-03T11:57:18Z</time></trkpt><trkpt lat="45.31243088899279" lon="11.702570665095205"><ele>307.0</ele><time>2026-04-03T11:57:19Z</time></trkpt><trkpt lat="45.31231191575513" lon="11.702546515698206"><ele>307.0</ele><time>2026-04-03T11:57:21Z</time></trkpt><trkpt lat="45.31221304618098" lon="11.702611783801467"><ele>304.5</ele><time>2026-04-03T11:57:23Z</time></trkpt><trkpt lat="45.31213347357087" lon="11.702770156080872"><ele>302.0</ele><time>2026-04-03T11:57:25Z</time></trkpt><trkpt lat="45.31209896493628" lon="11.702864611383735"><ele>299.5</ele><time>2026-04-03T11:57:26Z</time></trkpt><trkpt lat="45.3120707629997" lon="11.702954895092558"><ele>297.0</ele><time>2026-04-03T11:57:27Z</time></trkpt><trkpt lat="45.31201550263437" lon="11.703057343782346"><ele>294.5</ele><time>2026-04-03T11:57:28Z</time></trkpt><trkpt lat="45.31198583754738" lon="11.703152958512655"><ele>292.0</ele><time>2026-04-03T11:57:29Z</time></trkpt><trkpt lat="45.31194944813765" lon="11.703358654552524"><ele>292.0</ele><time>2026-04-03T11:57:31Z</time></trkpt><trkpt lat="45.31193737214386" lon="11.703507383810798"><ele>292.0</ele><time>2026-04-03T11:57:32Z</time></trkpt><trkpt lat="45.311903020183834" lon="11.703667845059657"><ele>292.0</ele><time>2026-04-03T11:57:33Z</time></trkpt><trkpt lat="45.311860677976405" lon="11.70383965854862"><ele>292.0</ele><time>2026-04-03T11:57:34Z</time></trkpt><trkpt lat="45.3118426928646" lon="11.703981485382213"><ele>293.3333333333333</ele><time>2026-04-03T11:57:35Z</time></trkpt><trkpt lat="45.31181004115293" lon="11.704082596481426"><ele>294.66666666666663</ele><time>2026-04-03T11:57:36Z</time></trkpt><trkpt lat="45.31177317406369" lon="11.704187931745729"><ele>296.0</ele><time>2026-04-03T11:57:37Z</time></trkpt><trkpt lat="45.3117488163774" lon="11.704301300688327"><ele>297.3333333333333</ele><time>2026-04-03T11:57:38Z</time></trkpt><trkpt lat="45.31171896252278" lon="11.704484880200758"><ele>298.6666666666667</ele><time>2026-04-03T11:57:40Z</time></trkpt><trkpt lat="45.31172250927499" lon="11.704576595203818"><ele>300.0</ele><time>2026-04-03T11:57:41Z</time></trkpt><trkpt lat="45.31173745304468" lon="11.70468441630311"><ele>300.8333333333333</ele><time>2026-04-03T11:57:42Z</time></trkpt><trkpt lat="45.3117652029619" lon="11.70480063504652"><ele>301.6666666666667</ele><time>2026-04-03T11:57:43Z</time></trkpt><trkpt lat="45.31179732660266" lon="11.704933520065605"><ele>302.5</ele><time>2026-04-03T11:57:44Z</time></trkpt><trkpt lat="45.31183596472151" lon="11.705042519265437"><ele>303.33333333333337</ele><time>2026-04-03T11:57:45Z</time></trkpt><trkpt lat="45.31186579641469" lon="11.705148716722933"><ele>304.1666666666667</ele><time>2026-04-03T11:57:46Z</time></trkpt><trkpt lat="45.31188147204121" lon="11.705249248866446"><ele>305.0</ele><time>2026-04-03T11:57:47Z</time></trkpt><trkpt lat="45.31190454067872" lon="11.705416227548902"><ele>305.2</ele><time>2026-04-03T11:57:49Z</time></trkpt><trkpt lat="45.311905212842795" lon="11.705516657978128"><ele>305.4</ele><time>2026-04-03T11:57:51Z</time></trkpt><trkpt lat="45.31182040033818" lon="11.70564729160425"><ele>305.6</ele><time>2026-04-03T11:57:54Z</time></trkpt><trkpt lat="45.31176953770299" lon="11.705769721844778"><ele>305.8</ele><time>2026-04-03T11:57:56Z</time></trkpt><trkpt lat="45.3117013907774" lon="11.705807335348723"><ele>306.0</ele><time>2026-04-03T11:57:59Z</time></trkpt><trkpt lat="45.31159414402562" lon="11.705863045805494"><ele>306.0</ele><time>2026-04-03T11:58:01Z</time></trkpt><trkpt lat="45.31147899601666" lon="11.705911716521989"><ele>306.0</ele><time>2026-04-03T11:58:03Z</time></trkpt><trkpt lat="45.31136065171142" lon="11.705924980371691"><ele>306.0</ele><time>2026-04-03T11:58:05Z</time></trkpt><trkpt lat="45.31125946288244" lon="11.70598372410874"><ele>306.0</ele><time>2026-04-03T11:58:07Z</time></trkpt><trkpt lat="45.31118591816916" lon="11.706044716196521"><ele>306.0</ele><time>2026-04-03T11:58:08Z</time></trkpt><trkpt lat="45.311107864671506" lon="11.7060759212045"><ele>302.8</ele><time>2026-04-03T11:58:09Z</time></trkpt><trkpt lat="45.31100902480743" lon="11.706136750985014"><ele>299.6</ele><time>2026-04-03T11:58:11Z</time></trkpt><trkpt lat="45.31092524646517" lon="11.706164456060867"><ele>296.4</ele><time>2026-04-03T11:58:13Z</time></trkpt><trkpt lat="45.31083615267071" lon="11.706141076900318"><ele>293.2</ele><time>2026-04-03T11:58:16Z</time></trkpt><trkpt lat="45.310817565059835" lon="11.706035357933926"><ele>290.0</ele><time>2026-04-03T11:58:20Z</time></trkpt><trkpt lat="45.310905646128894" lon="11.705956918461569"><ele>287.6666666666667</ele><time>2026-04-03T11:58:22Z</time></trkpt><trkpt lat="45.31094935713916" lon="11.705883519027434"><ele>285.33333333333337</ele><time>2026-04-03T11:58:24Z</time></trkpt><trkpt lat="45.31096744762774" lon="11.705785979688345"><ele>283.0</ele><time>2026-04-03T11:58:26Z</time></trkpt><trkpt lat="45.31101893126551" lon="11.705708309190369"><ele>280.6666666666667</ele><time>2026-04-03T11:58:28Z</time></trkpt><trkpt lat="45.3110659316867" lon="11.705574514620182"><ele>278.3333333333333</ele><time>2026-04-03T11:58:30Z</time></trkpt><trkpt lat="45.31112752303834" lon="11.705443299357228"><ele>276.0</ele><time>2026-04-03T11:58:32Z</time></trkpt><trkpt lat="45.31118982285519" lon="11.705355799947911"><ele>276.0</ele><time>2026-04-03T11:58:34Z</time></trkpt><trkpt lat="45.3112069564753" lon="11.705266950622788"><ele>276.0</ele><time>2026-04-03T11:58:36Z</time></trkpt><trkpt lat="45.31116251012021" lon="11.705135715578587"><ele>276.0</ele><time>2026-04-03T11:58:38Z</time></trkpt><trkpt lat="45.3111191135896" lon="11.705061468344466"><ele>276.0</ele><time>2026-04-03T11:58:39Z</time></trkpt><trkpt lat="45.31110710222967" lon="11.704919170545509"><ele>276.0</ele><time>2026-04-03T11:58:41Z</time></trkpt><trkpt lat="45.31106239027712" lon="11.704844634945253"><ele>276.0</ele><time>2026-04-03T11:58:42Z</time></trkpt><trkpt lat="45.311016439904364" lon="11.70474150600675"><ele>271.6</ele><time>2026-04-03T11:58:44Z</time></trkpt><trkpt lat="45.31101918041035" lon="11.704573870965968"><ele>267.20000000000005</ele><time>2026-04-03T11:58:46Z</time></trkpt><trkpt lat="45.31101695914051" lon="11.704433607279451"><ele>262.79999999999995</ele><time>2026-04-03T11:58:48Z</time></trkpt><trkpt lat="45.311019839010015" lon="11.704307302426267"><ele>258.4</ele><time>2026-04-03T11:58:50Z</time></trkpt><trkpt lat="45.31102955589001" lon="11.704185603228838"><ele>254.0</ele><time>2026-04-03T11:58:52Z</time></trkpt><trkpt lat="45.31101409540925" lon="11.704041452128864"><ele>252.39999999999998</ele><time>2026-04-03T11:58:54Z</time></trkpt><trkpt lat="45.31100735529996" lon="11.703882139594718"><ele>250.79999999999998</ele><time>2026-04-03T11:58:56Z</time></trkpt><trkpt lat="45.31100651489" lon="11.703791271592213"><ele>249.20000000000002</ele><time>2026-04-03T11:58:57Z</time></trkpt><trkpt lat="45.311010838039756" lon="11.703645264283196"><ele>247.60000000000002</ele><time>2026-04-03T11:58:59Z</time></trkpt><trkpt lat="45.31101338726337" lon="11.703491196144057"><ele>246.0</ele><time>2026-04-03T11:59:01Z</time></trkpt><trkpt lat="45.31100824930715" lon="11.703391902261666"><ele>245.33333333333334</ele><time>2026-04-03T11:59:02Z</time></trkpt><trkpt lat="45.31102486928733" lon="11.703213730144679"><ele>244.66666666666669</ele><time>2026-04-03T11:59:04Z</time></trkpt><trkpt lat="45.311022650388765" lon="11.703107489688646"><ele>244.0</ele><time>2026-04-03T11:59:05Z</time></trkpt><trkpt lat="45.31101005357749" lon="11.702992839703036"><ele>243.33333333333334</ele><time>2026-04-03T11:59:06Z</time></trkpt><trkpt lat="45.311006411398104" lon="11.70288961145519"><ele>242.66666666666669</ele><time>2026-04-03T11:59:07Z</time></trkpt><trkpt lat="45.31103859236614" lon="11.702802418505257"><ele>242.0</ele><time>2026-04-03T11:59:08Z</time></trkpt><trkpt lat="45.31106732016354" lon="11.702705024250413"><ele>242.00000000000003</ele><time>2026-04-03T11:59:09Z</time></trkpt><trkpt lat="45.31107927846772" lon="11.702607153653787"><ele>242.0</ele><time>2026-04-03T11:59:10Z</time></trkpt><trkpt lat="45.31104830711767" lon="11.702447363409775"><ele>242.0</ele><time>2026-04-03T11:59:12Z</time></trkpt><trkpt lat="45.31102685014129" lon="11.702355591507054"><ele>242.0</ele><time>2026-04-03T11:59:13Z</time></trkpt><trkpt lat="45.31103462414105" lon="11.7022347355922"><ele>242.00000000000003</ele><time>2026-04-03T11:59:15Z</time></trkpt><trkpt lat="45.31097728827883" lon="11.702151503400398"><ele>242.0</ele><time>2026-04-03T11:59:18Z</time></trkpt><trkpt lat="45.310930371832335" lon="11.702261747267304"><ele>242.00000000000003</ele><time>2026-04-03T11:59:20Z</time></trkpt><trkpt lat="45.310905654087286" lon="11.702357477107897"><ele>242.0</ele><time>2026-04-03T11:59:21Z</time></trkpt><trkpt lat="45.31088072198521" lon="11.702450684792094"><ele>242.0</ele><time>2026-04-03T11:59:22Z</time></trkpt><trkpt lat="45.3108379780796" lon="11.702621572412701"><ele>242.0</ele><time>2026-04-03T11:59:24Z</time></trkpt><trkpt lat="45.31080225238586" lon="11.70271130716054"><ele>242.00000000000003</ele><time>2026-04-03T11:59:25Z</time></trkpt><trkpt lat="45.31075689814683" lon="11.70280136513159"><ele>242.0</ele><time>2026-04-03T11:59:26Z</time></trkpt><trkpt lat="45.3107045342517" lon="11.702865154218916"><ele>241.66666666666669</ele><time>2026-04-03T11:59:27Z</time></trkpt><trkpt lat="45.310655667503504" lon="11.702940615718394"><ele>241.33333333333334</ele><time>2026-04-03T11:59:28Z</time></trkpt><trkpt lat="45.31063620379328" lon="11.703076558634022"><ele>241.0</ele><time>2026-04-03T11:59:30Z</time></trkpt><trkpt lat="45.310569804432184" lon="11.703185796275019"><ele>240.66666666666669</ele><time>2026-04-03T11:59:32Z</time></trkpt><trkpt lat="45.31052576097067" lon="11.703252600146195"><ele>240.33333333333334</ele><time>2026-04-03T11:59:33Z</time></trkpt><trkpt lat="45.31048161887135" lon="11.703373228301365"><ele>240.0</ele><time>2026-04-03T11:59:35Z</time></trkpt><trkpt lat="45.31042827959877" lon="11.703513607567462"><ele>234.83333333333334</ele><time>2026-04-03T11:59:37Z</time></trkpt><trkpt lat="45.31038540943802" lon="11.703588408575479"><ele>229.66666666666669</ele><time>2026-04-03T11:59:38Z</time></trkpt><trkpt lat="45.31035245452224" lon="11.703668809617875"><ele>224.5</ele><time>2026-04-03T11:59:39Z</time></trkpt><trkpt lat="45.31033728082459" lon="11.703762660248985"><ele>219.33333333333334</ele><time>2026-04-03T11:59:40Z</time></trkpt><trkpt lat="45.31032289072744" lon="11.70389455348025"><ele>214.16666666666669</ele><time>2026-04-03T11:59:42Z</time></trkpt><trkpt lat="45.31025271233572" lon="11.703993256721532"><ele>209.0</ele><time>2026-04-03T11:59:44Z</time></trkpt><trkpt lat="45.3102255602152" lon="11.704146342772807"><ele>209.0</ele><time>2026-04-03T11:59:46Z</time></trkpt><trkpt lat="45.310176580140606" lon="11.704263964296416"><ele>209.0</ele><time>2026-04-03T11:59:48Z</time></trkpt><trkpt lat="45.31009847428771" lon="11.704340817016478"><ele>209.0</ele><time>2026-04-03T11:59:50Z</time></trkpt><trkpt lat="45.31001191126904" lon="11.704389553742752"><ele>209.0</ele><time>2026-04-03T11:59:52Z</time></trkpt><trkpt lat="45.309927199142436" lon="11.70446014223597"><ele>209.0</ele><time>2026-04-03T11:59:54Z</time></trkpt><trkpt lat="45.30984795865957" lon="11.704555248768704"><ele>209.2</ele><time>2026-04-03T11:59:56Z</time></trkpt><trkpt lat="45.309790584256" lon="11.70462592710832"><ele>209.39999999999998</ele><time>2026-04-03T11:59:58Z</time></trkpt><trkpt lat="45.30972837547441" lon="11.704654409823352"><ele>209.6</ele><time>2026-04-03T12:00:00Z</time></trkpt><trkpt lat="45.30961632056107" lon="11.704735210164017"><ele>209.8</ele><time>2026-04-03T12:00:02Z</time></trkpt><trkpt lat="45.30952141640434" lon="11.704823603323465"><ele>210.0</ele><time>2026-04-03T12:00:04Z</time></trkpt><trkpt lat="45.30944823870115" lon="11.704897686466913"><ele>205.66666666666666</ele><time>2026-04-03T12:00:06Z</time></trkpt><trkpt lat="45.309398410061014" lon="11.70495843571844"><ele>201.33333333333334</ele><time>2026-04-03T12:00:08Z</time></trkpt><trkpt lat="45.30932210007335" lon="11.704895507639666"><ele>197.0</ele><time>2026-04-03T12:00:11Z</time></trkpt><trkpt lat="45.309259481945546" lon="11.70492769470658"><ele>192.66666666666669</ele><time>2026-04-03T12:00:14Z</time></trkpt><trkpt lat="45.30918854643318" lon="11.70498382144042"><ele>188.33333333333334</ele><time>2026-04-03T12:00:16Z</time></trkpt><trkpt lat="45.30909860158903" lon="11.705107743365732"><ele>184.0</ele><time>2026-04-03T12:00:18Z</time></trkpt><trkpt lat="45.309058890785145" lon="11.70517843515968"><ele>184.0</ele><time>2026-04-03T12:00:19Z</time></trkpt><trkpt lat="45.30900263847336" lon="11.70523384416286"><ele>184.0</ele><time>2026-04-03T12:00:20Z</time></trkpt><trkpt lat="45.30892409309704" lon="11.705278534164199"><ele>184.0</ele><time>2026-04-03T12:00:21Z</time></trkpt><trkpt lat="45.30882602475641" lon="11.705320939593847"><ele>184.0</ele><time>2026-04-03T12:00:23Z</time></trkpt><trkpt lat="45.3087554026978" lon="11.705479061210696"><ele>184.0</ele><time>2026-04-03T12:00:25Z</time></trkpt><trkpt lat="45.30872028339452" lon="11.705559346193358"><ele>180.5</ele><time>2026-04-03T12:00:26Z</time></trkpt><trkpt lat="45.30866184356959" lon="11.70565691611061"><ele>177.0</ele><time>2026-04-03T12:00:28Z</time></trkpt><trkpt lat="45.308617970170694" lon="11.705721154719845"><ele>173.5</ele><time>2026-04-03T12:00:29Z</time></trkpt><trkpt lat="45.30857264847614" lon="11.705784887114113"><ele>170.0</ele><time>2026-04-03T12:00:30Z</time></trkpt><trkpt lat="45.308473996265235" lon="11.705883794263695"><ele>166.5</ele><time>2026-04-03T12:00:32Z</time></trkpt><trkpt lat="45.3084101633674" lon="11.70592814337804"><ele>163.0</ele><time>2026-04-03T12:00:33Z</time></trkpt><trkpt lat="45.308340239852086" lon="11.705972719445858"><ele>163.0</ele><time>2026-04-03T12:00:34Z</time></trkpt><trkpt lat="45.308282692522035" lon="11.706014160931531"><ele>163.0</ele><time>2026-04-03T12:00:35Z</time></trkpt><trkpt lat="45.30822713380155" lon="11.706058615932251"><ele>163.0</ele><time>2026-04-03T12:00:36Z</time></trkpt><trkpt lat="45.30816559130204" lon="11.706143355545658"><ele>163.0</ele><time>2026-04-03T12:00:38Z</time></trkpt><trkpt lat="45.30804662622834" lon="11.70621088983956"><ele>163.0</ele><time>2026-04-03T12:00:40Z</time></trkpt><trkpt lat="45.307973722526086" lon="11.706194318038673"><ele>163.0</ele><time>2026-04-03T12:00:41Z</time></trkpt><trkpt lat="45.30790112711583" lon="11.706174408987033"><ele>159.66666666666669</ele><time>2026-04-03T12:00:42Z</time></trkpt><trkpt lat="45.30782634050833" lon="11.7061363230659"><ele>156.33333333333334</ele><time>2026-04-03T12:00:43Z</time></trkpt><trkpt lat="45.3077460911051" lon="11.70612366540967"><ele>153.0</ele><time>2026-04-03T12:00:44Z</time></trkpt><trkpt lat="45.30766743943108" lon="11.706158435337723"><ele>149.66666666666666</ele><time>2026-04-03T12:00:45Z</time></trkpt><trkpt lat="45.30761105857769" lon="11.706221153117022"><ele>146.33333333333331</ele><time>2026-04-03T12:00:46Z</time></trkpt><trkpt lat="45.30753079291941" lon="11.706342913784523"><ele>143.0</ele><time>2026-04-03T12:00:47Z</time></trkpt><trkpt lat="45.3074561999072" lon="11.706420955000565"><ele>143.0</ele><time>2026-04-03T12:00:48Z</time></trkpt><trkpt lat="45.30739650531247" lon="11.706454404041114"><ele>143.0</ele><time>2026-04-03T12:00:49Z</time></trkpt><trkpt lat="45.30726969719699" lon="11.706442714216108"><ele>143.0</ele><time>2026-04-03T12:00:51Z</time></trkpt><trkpt lat="45.30719270053275" lon="11.706442682417196"><ele>143.0</ele><time>2026-04-03T12:00:52Z</time></trkpt><trkpt lat="45.307120758215284" lon="11.706448889548724"><ele>143.0</ele><time>2026-04-03T12:00:53Z</time></trkpt><trkpt lat="45.30704371786222" lon="11.706466982389209"><ele>143.0</ele><time>2026-04-03T12:00:55Z</time></trkpt><trkpt lat="45.30702249903823" lon="11.70630654432619"><ele>144.0</ele><time>2026-04-03T12:01:04Z</time></trkpt><trkpt lat="45.30700605824389" lon="11.706217341200661"><ele>145.0</ele><time>2026-04-03T12:01:05Z</time></trkpt><trkpt lat="45.306996540240995" lon="11.706097908423391"><ele>146.0</ele><time>2026-04-03T12:01:06Z</time></trkpt><trkpt lat="45.30699706615488" lon="11.705998155110366"><ele>147.0</ele><time>2026-04-03T12:01:07Z</time></trkpt><trkpt lat="45.30701573813451" lon="11.705895736441724"><ele>148.0</ele><time>2026-04-03T12:01:08Z</time></trkpt><trkpt lat="45.30709446464396" lon="11.705864451689786"><ele>149.0</ele><time>2026-04-03T12:01:10Z</time></trkpt><trkpt lat="45.307193296287956" lon="11.706027311025833"><ele>150.0</ele><time>2026-04-03T12:01:12Z</time></trkpt><trkpt lat="45.307265844334665" lon="11.70610232608391"><ele>151.0</ele><time>2026-04-03T12:01:13Z</time></trkpt><trkpt lat="45.30733010878173" lon="11.706140811146746"><ele>152.0</ele><time>2026-04-03T12:01:14Z</time></trkpt><trkpt lat="45.307380402241655" lon="11.705949005775848"><ele>153.0</ele><time>2026-04-03T12:01:16Z</time></trkpt><trkpt lat="45.30739546451427" lon="11.705851418146954"><ele>154.0</ele><time>2026-04-03T12:01:17Z</time></trkpt><trkpt lat="45.30734789122603" lon="11.705708446813532"><ele>154.0</ele><time>2026-04-03T12:01:18Z</time></trkpt><trkpt lat="45.30731446614534" lon="11.705592712433718"><ele>154.0</ele><time>2026-04-03T12:01:19Z</time></trkpt><trkpt lat="45.30731403765959" lon="11.705442626901279"><ele>154.0</ele><time>2026-04-03T12:01:20Z</time></trkpt><trkpt lat="45.30734174990562" lon="11.705276560497962"><ele>154.0</ele><time>2026-04-03T12:01:21Z</time></trkpt><trkpt lat="45.30742712297182" lon="11.705177355349445"><ele>154.0</ele><time>2026-04-03T12:01:22Z</time></trkpt><trkpt lat="45.307484553025596" lon="11.70504002939383"><ele>157.25</ele><time>2026-04-03T12:01:23Z</time></trkpt><trkpt lat="45.307555405923004" lon="11.704927318132885"><ele>160.5</ele><time>2026-04-03T12:01:24Z</time></trkpt><trkpt lat="45.307616673108434" lon="11.704777345249013"><ele>163.75</ele><time>2026-04-03T12:01:25Z</time></trkpt><trkpt lat="45.307664788261604" lon="11.704603203015136"><ele>167.0</ele><time>2026-04-03T12:01:26Z</time></trkpt><trkpt lat="45.3077030401541" lon="11.704451858146266"><ele>167.0</ele><time>2026-04-03T12:01:27Z</time></trkpt><trkpt lat="45.307751702833386" lon="11.704367052725376"><ele>167.0</ele><time>2026-04-03T12:01:28Z</time></trkpt><trkpt lat="45.30785147581968" lon="11.704382844453843"><ele>167.0</ele><time>2026-04-03T12:01:30Z</time></trkpt><trkpt lat="45.307894305563224" lon="11.704578641397017"><ele>167.0</ele><time>2026-04-03T12:01:31Z</time></trkpt><trkpt lat="45.30800275380477" lon="11.704572890369603"><ele>167.0</ele><time>2026-04-03T12:01:33Z</time></trkpt><trkpt lat="45.308068754029236" lon="11.7045693903719"><ele>169.16666666666666</ele><time>2026-04-03T12:01:34Z</time></trkpt><trkpt lat="45.30812392567176" lon="11.70450426005491"><ele>171.33333333333331</ele><time>2026-04-03T12:01:35Z</time></trkpt><trkpt lat="45.30820592009701" lon="11.704467363285083"><ele>173.5</ele><time>2026-04-03T12:01:36Z</time></trkpt><trkpt lat="45.30828744188878" lon="11.704404612262762"><ele>175.66666666666666</ele><time>2026-04-03T12:01:37Z</time></trkpt><trkpt lat="45.308347608518694" lon="11.70433095479236"><ele>177.83333333333334</ele><time>2026-04-03T12:01:38Z</time></trkpt><trkpt lat="45.3083933187295" lon="11.70425865974612"><ele>180.0</ele><time>2026-04-03T12:01:39Z</time></trkpt><trkpt lat="45.30840521893578" lon="11.704159877994071"><ele>182.4</ele><time>2026-04-03T12:01:40Z</time></trkpt><trkpt lat="45.308425633877704" lon="11.704064975616038"><ele>184.8</ele><time>2026-04-03T12:01:41Z</time></trkpt><trkpt lat="45.30846679214571" lon="11.703970155638057"><ele>187.2</ele><time>2026-04-03T12:01:42Z</time></trkpt><trkpt lat="45.30849942235242" lon="11.703869614233263"><ele>189.6</ele><time>2026-04-03T12:01:43Z</time></trkpt><trkpt lat="45.30840865041779" lon="11.703663084056288"><ele>192.0</ele><time>2026-04-03T12:01:45Z</time></trkpt><trkpt lat="45.30837379957071" lon="11.703558660592746"><ele>193.0</ele><time>2026-04-03T12:01:46Z</time></trkpt><trkpt lat="45.30833729776371" lon="11.703432666113471"><ele>194.0</ele><time>2026-04-03T12:01:47Z</time></trkpt><trkpt lat="45.30832381168423" lon="11.703274101226576"><ele>195.0</ele><time>2026-04-03T12:01:48Z</time></trkpt><trkpt lat="45.30834658109522" lon="11.703113453479041"><ele>196.0</ele><time>2026-04-03T12:01:49Z</time></trkpt><trkpt lat="45.308366681741745" lon="11.70294291706136"><ele>197.0</ele><time>2026-04-03T12:01:50Z</time></trkpt><trkpt lat="45.308393120921714" lon="11.702826653971922"><ele>198.66666666666669</ele><time>2026-04-03T12:01:51Z</time></trkpt><trkpt lat="45.30842813816279" lon="11.702739076393982"><ele>200.33333333333334</ele><time>2026-04-03T12:01:53Z</time></trkpt><trkpt lat="45.308442993530875" lon="11.7025963819339"><ele>202.0</ele><time>2026-04-03T12:01:56Z</time></trkpt><trkpt lat="45.30843385531998" lon="11.702491053702131"><ele>203.66666666666669</ele><time>2026-04-03T12:01:57Z</time></trkpt><trkpt lat="45.30843207014637" lon="11.702377112128794"><ele>205.33333333333334</ele><time>2026-04-03T12:01:58Z</time></trkpt><trkpt lat="45.30843066430524" lon="11.702241060996789"><ele>207.0</ele><time>2026-04-03T12:01:59Z</time></trkpt><trkpt lat="45.308466078419656" lon="11.70214327123267"><ele>207.0</ele><time>2026-04-03T12:02:00Z</time></trkpt><trkpt lat="45.30853038863938" lon="11.702103781710845"><ele>207.0</ele><time>2026-04-03T12:02:01Z</time></trkpt><trkpt lat="45.3086129951802" lon="11.702084645485025"><ele>207.0</ele><time>2026-04-03T12:02:02Z</time></trkpt><trkpt lat="45.308693475729726" lon="11.702056219914345"><ele>207.0</ele><time>2026-04-03T12:02:03Z</time></trkpt><trkpt lat="45.308741880981025" lon="11.701970762738808"><ele>207.0</ele><time>2026-04-03T12:02:04Z</time></trkpt><trkpt lat="45.30876141759201" lon="11.701850801059832"><ele>207.0</ele><time>2026-04-03T12:02:05Z</time></trkpt><trkpt lat="45.30875901892614" lon="11.701712729328374"><ele>209.39999999999998</ele><time>2026-04-03T12:02:06Z</time></trkpt><trkpt lat="45.308768274848276" lon="11.70155626974986"><ele>211.79999999999998</ele><time>2026-04-03T12:02:07Z</time></trkpt><trkpt lat="45.30879802288613" lon="11.70138166724139"><ele>214.2</ele><time>2026-04-03T12:02:08Z</time></trkpt><trkpt lat="45.30884331913326" lon="11.701269532109581"><ele>216.6</ele><time>2026-04-03T12:02:09Z</time></trkpt><trkpt lat="45.308890987660156" lon="11.701208654183768"><ele>219.0</ele><time>2026-04-03T12:02:10Z</time></trkpt><trkpt lat="45.3089519329639" lon="11.701168209279167"><ele>221.6</ele><time>2026-04-03T12:02:11Z</time></trkpt><trkpt lat="45.309051120981444" lon="11.701239160471252"><ele>224.2</ele><time>2026-04-03T12:02:13Z</time></trkpt><trkpt lat="45.30910543159529" lon="11.701322023485206"><ele>226.79999999999998</ele><time>2026-04-03T12:02:14Z</time></trkpt><trkpt lat="45.30917191542196" lon="11.70131368147599"><ele>229.39999999999998</ele><time>2026-04-03T12:02:16Z</time></trkpt><trkpt lat="45.30925790062339" lon="11.701176281606607"><ele>232.0</ele><time>2026-04-03T12:02:18Z</time></trkpt><trkpt lat="45.30930092889223" lon="11.70106234572136"><ele>233.66666666666666</ele><time>2026-04-03T12:02:19Z</time></trkpt><trkpt lat="45.30934973480884" lon="11.700947438488637"><ele>235.33333333333331</ele><time>2026-04-03T12:02:20Z</time></trkpt><trkpt lat="45.30938530456862" lon="11.700848711243015"><ele>237.0</ele><time>2026-04-03T12:02:21Z</time></trkpt><trkpt lat="45.309423253484425" lon="11.700752279696024"><ele>238.66666666666669</ele><time>2026-04-03T12:02:22Z</time></trkpt><trkpt lat="45.30946762557496" lon="11.700658835202386"><ele>240.33333333333334</ele><time>2026-04-03T12:02:23Z</time></trkpt><trkpt lat="45.309536110728715" lon="11.700560594949012"><ele>242.0</ele><time>2026-04-03T12:02:24Z</time></trkpt><trkpt lat="45.30961571207588" lon="11.700477710180733"><ele>242.00000000000003</ele><time>2026-04-03T12:02:25Z</time></trkpt><trkpt lat="45.309663293160675" lon="11.700401641350648"><ele>242.0</ele><time>2026-04-03T12:02:26Z</time></trkpt><trkpt lat="45.30971827867066" lon="11.700303415701116"><ele>242.0</ele><time>2026-04-03T12:02:27Z</time></trkpt><trkpt lat="45.30976889304316" lon="11.700200120099813"><ele>242.0</ele><time>2026-04-03T12:02:28Z</time></trkpt><trkpt lat="45.30980009504996" lon="11.700103204339133"><ele>242.00000000000003</ele><time>2026-04-03T12:02:29Z</time></trkpt><trkpt lat="45.3097946077445" lon="11.699993472819173"><ele>242.0</ele><time>2026-04-03T12:02:30Z</time></trkpt><trkpt lat="45.3097817888643" lon="11.699901391345954"><ele>246.2</ele><time>2026-04-03T12:02:32Z</time></trkpt><trkpt lat="45.30972053124123" lon="11.699866943726368"><ele>250.39999999999998</ele><time>2026-04-03T12:02:34Z</time></trkpt><trkpt lat="45.30965222514828" lon="11.699923998141678"><ele>254.60000000000002</ele><time>2026-04-03T12:02:35Z</time></trkpt><trkpt lat="45.309556418983085" lon="11.69999445860175"><ele>258.8</ele><time>2026-04-03T12:02:36Z</time></trkpt><trkpt lat="45.30944270521843" lon="11.700033905923195"><ele>263.0</ele><time>2026-04-03T12:02:37Z</time></trkpt><trkpt lat="45.30934660650544" lon="11.700143422821668"><ele>263.0</ele><time>2026-04-03T12:02:38Z</time></trkpt><trkpt lat="45.30924669549249" lon="11.700199657159025"><ele>263.0</ele><time>2026-04-03T12:02:39Z</time></trkpt><trkpt lat="45.30917195065027" lon="11.700281121565565"><ele>263.0</ele><time>2026-04-03T12:02:40Z</time></trkpt><trkpt lat="45.30909461439051" lon="11.700302095086608"><ele>263.0</ele><time>2026-04-03T12:02:41Z</time></trkpt><trkpt lat="45.30901688929974" lon="11.700323252664033"><ele>263.0</ele><time>2026-04-03T12:02:42Z</time></trkpt><trkpt lat="45.30892010313854" lon="11.700311546549598"><ele>263.75</ele><time>2026-04-03T12:02:43Z</time></trkpt><trkpt lat="45.308811288560015" lon="11.700292736271656"><ele>264.5</ele><time>2026-04-03T12:02:44Z</time></trkpt><trkpt lat="45.30869778099523" lon="11.700283616862324"><ele>265.25</ele><time>2026-04-03T12:02:45Z</time></trkpt><trkpt lat="45.3085776637832" lon="11.700269652080136"><ele>266.0</ele><time>2026-04-03T12:02:46Z</time></trkpt><trkpt lat="45.308458445469135" lon="11.700239966531205"><ele>266.0</ele><time>2026-04-03T12:02:47Z</time></trkpt><trkpt lat="45.30833721663024" lon="11.700177586375327"><ele>266.0</ele><time>2026-04-03T12:02:48Z</time></trkpt><trkpt lat="45.30820623951422" lon="11.700117999122991"><ele>266.0</ele><time>2026-04-03T12:02:49Z</time></trkpt><trkpt lat="45.30807265106721" lon="11.700062073848624"><ele>266.0</ele><time>2026-04-03T12:02:50Z</time></trkpt><trkpt lat="45.30793477365701" lon="11.700023431440751"><ele>263.0</ele><time>2026-04-03T12:02:51Z</time></trkpt><trkpt lat="45.307812067006424" lon="11.699925206453763"><ele>260.0</ele><time>2026-04-03T12:02:52Z</time></trkpt><trkpt lat="45.307692747047746" lon="11.699832561860333"><ele>257.0</ele><time>2026-04-03T12:02:53Z</time></trkpt><trkpt lat="45.307561790508146" lon="11.699772398759139"><ele>254.0</ele><time>2026-04-03T12:02:54Z</time></trkpt><trkpt lat="45.30743973129455" lon="11.699698756043102"><ele>254.0</ele><time>2026-04-03T12:02:55Z</time></trkpt><trkpt lat="45.30733671723521" lon="11.699587133423474"><ele>254.0</ele><time>2026-04-03T12:02:56Z</time></trkpt><trkpt lat="45.30724374382003" lon="11.69946538339376"><ele>254.0</ele><time>2026-04-03T12:02:57Z</time></trkpt><trkpt lat="45.307158355082436" lon="11.699351147671779"><ele>254.0</ele><time>2026-04-03T12:02:58Z</time></trkpt><trkpt lat="45.307041092867046" lon="11.699227606879013"><ele>256.4</ele><time>2026-04-03T12:02:59Z</time></trkpt><trkpt lat="45.30694550002564" lon="11.699108296987987"><ele>258.79999999999995</ele><time>2026-04-03T12:03:00Z</time></trkpt><trkpt lat="45.30687564991152" lon="11.698990604930874"><ele>261.20000000000005</ele><time>2026-04-03T12:03:01Z</time></trkpt><trkpt lat="45.30678802212667" lon="11.698890357691516"><ele>263.6</ele><time>2026-04-03T12:03:02Z</time></trkpt><trkpt lat="45.30671272218217" lon="11.698811056832803"><ele>266.0</ele><time>2026-04-03T12:03:04Z</time></trkpt><trkpt lat="45.30666891374451" lon="11.698736151426251"><ele>266.0</ele><time>2026-04-03T12:03:05Z</time></trkpt><trkpt lat="45.30661268569034" lon="11.698631061830465"><ele>266.0</ele><time>2026-04-03T12:03:06Z</time></trkpt><trkpt lat="45.306541128606646" lon="11.69853816001523"><ele>266.0</ele><time>2026-04-03T12:03:07Z</time></trkpt><trkpt lat="45.30649932660112" lon="11.69840912768711"><ele>266.0</ele><time>2026-04-03T12:03:08Z</time></trkpt><trkpt lat="45.306455725311416" lon="11.698332381068997"><ele>266.0</ele><time>2026-04-03T12:03:09Z</time></trkpt><trkpt lat="45.3063996573992" lon="11.698219407918346"><ele>267.25</ele><time>2026-04-03T12:03:11Z</time></trkpt><trkpt lat="45.306356047198854" lon="11.698114633046833"><ele>268.5</ele><time>2026-04-03T12:03:13Z</time></trkpt><trkpt lat="45.3062065942843" lon="11.698216413717581"><ele>269.75</ele><time>2026-04-03T12:03:14Z</time></trkpt><trkpt lat="45.30611697347296" lon="11.698249337189878"><ele>271.0</ele><time>2026-04-03T12:03:15Z</time></trkpt><trkpt lat="45.30601501683465" lon="11.69831393089254"><ele>271.0</ele><time>2026-04-03T12:03:16Z</time></trkpt><trkpt lat="45.305902242705194" lon="11.69835534824095"><ele>271.0</ele><time>2026-04-03T12:03:17Z</time></trkpt><trkpt lat="45.30580556371044" lon="11.698393921163147"><ele>271.0</ele><time>2026-04-03T12:03:18Z</time></trkpt><trkpt lat="45.30572163849676" lon="11.698432048935873"><ele>271.0</ele><time>2026-04-03T12:03:19Z</time></trkpt><trkpt lat="45.305685325751746" lon="11.698574667248396"><ele>271.0</ele><time>2026-04-03T12:03:20Z</time></trkpt><trkpt lat="45.305638292349094" lon="11.698719339180043"><ele>274.0</ele><time>2026-04-03T12:03:21Z</time></trkpt><trkpt lat="45.3055970513737" lon="11.698881373309364"><ele>277.0</ele><time>2026-04-03T12:03:22Z</time></trkpt><trkpt lat="45.30553667658976" lon="11.699027130684295"><ele>280.0</ele><time>2026-04-03T12:03:23Z</time></trkpt><trkpt lat="45.30545799796229" lon="11.69913252285118"><ele>283.0</ele><time>2026-04-03T12:03:24Z</time></trkpt><trkpt lat="45.30535053653774" lon="11.699177575371591"><ele>286.0</ele><time>2026-04-03T12:03:25Z</time></trkpt><trkpt lat="45.3052313826422" lon="11.699209526247225"><ele>289.0</ele><time>2026-04-03T12:03:26Z</time></trkpt><trkpt lat="45.30510373399874" lon="11.699217239576814"><ele>292.0</ele><time>2026-04-03T12:03:27Z</time></trkpt><trkpt lat="45.30497384415673" lon="11.699188426604561"><ele>295.0</ele><time>2026-04-03T12:03:28Z</time></trkpt><trkpt lat="45.30484791567061" lon="11.699133593806144"><ele>296.5</ele><time>2026-04-03T12:03:29Z</time></trkpt><trkpt lat="45.30472266210447" lon="11.699129651111612"><ele>298.0</ele><time>2026-04-03T12:03:30Z</time></trkpt><trkpt lat="45.304596165377546" lon="11.699147714276199"><ele>299.5</ele><time>2026-04-03T12:03:31Z</time></trkpt><trkpt lat="45.30447599750096" lon="11.699208027585168"><ele>301.0</ele><time>2026-04-03T12:03:32Z</time></trkpt><trkpt lat="45.30435725978791" lon="11.699299718420214"><ele>301.0</ele><time>2026-04-03T12:03:33Z</time></trkpt><trkpt lat="45.3042152782983" lon="11.699328499126958"><ele>301.0</ele><time>2026-04-03T12:03:34Z</time></trkpt><trkpt lat="45.30406596481867" lon="11.699329212076956"><ele>301.0</ele><time>2026-04-03T12:03:35Z</time></trkpt><trkpt lat="45.30390235330005" lon="11.699376636641164"><ele>308.0</ele><time>2026-04-03T12:03:36Z</time></trkpt><trkpt lat="45.30373508704118" lon="11.699421468652725"><ele>315.0</ele><time>2026-04-03T12:03:37Z</time></trkpt><trkpt lat="45.30356958395825" lon="11.699478727351526"><ele>322.0</ele><time>2026-04-03T12:03:38Z</time></trkpt><trkpt lat="45.303420864293074" lon="11.699503865744221"><ele>322.0</ele><time>2026-04-03T12:03:39Z</time></trkpt><trkpt lat="45.30332503380954" lon="11.699602861810497"><ele>322.0</ele><time>2026-04-03T12:03:40Z</time></trkpt><trkpt lat="45.30322308648125" lon="11.699719119239695"><ele>322.0</ele><time>2026-04-03T12:03:41Z</time></trkpt><trkpt lat="45.3031234345481" lon="11.69986911112776"><ele>322.0</ele><time>2026-04-03T12:03:42Z</time></trkpt><trkpt lat="45.30304831839919" lon="11.70004017144182"><ele>320.0</ele><time>2026-04-03T12:03:43Z</time></trkpt><trkpt lat="45.302969850175145" lon="11.700115582252236"><ele>318.0</ele><time>2026-04-03T12:03:44Z</time></trkpt><trkpt lat="45.3028886675036" lon="11.700167822167016"><ele>316.0</ele><time>2026-04-03T12:03:45Z</time></trkpt><trkpt lat="45.30279956602473" lon="11.700108086104121"><ele>314.0</ele><time>2026-04-03T12:03:46Z</time></trkpt><trkpt lat="45.30269301095333" lon="11.700070746966382"><ele>312.0</ele><time>2026-04-03T12:03:47Z</time></trkpt><trkpt lat="45.30258416552806" lon="11.70009327185493"><ele>312.0</ele><time>2026-04-03T12:03:48Z</time></trkpt><trkpt lat="45.30248178486996" lon="11.70015116141571"><ele>312.0</ele><time>2026-04-03T12:03:49Z</time></trkpt><trkpt lat="45.30238578533026" lon="11.700243831849116"><ele>312.0</ele><time>2026-04-03T12:03:50Z</time></trkpt><trkpt lat="45.30233563667641" lon="11.700404302064678"><ele>312.0</ele><time>2026-04-03T12:03:51Z</time></trkpt><trkpt lat="45.30227449190729" lon="11.700579839532812"><ele>313.75</ele><time>2026-04-03T12:03:52Z</time></trkpt><trkpt lat="45.302209105770785" lon="11.700748035344366"><ele>315.5</ele><time>2026-04-03T12:03:53Z</time></trkpt><trkpt lat="45.302128873895875" lon="11.700872648164365"><ele>317.25</ele><time>2026-04-03T12:03:54Z</time></trkpt><trkpt lat="45.302032592317" lon="11.700912324066023"><ele>319.0</ele><time>2026-04-03T12:03:55Z</time></trkpt><trkpt lat="45.3019218960599" lon="11.700972989660917"><ele>319.0</ele><time>2026-04-03T12:03:56Z</time></trkpt><trkpt lat="45.30179116004524" lon="11.701041144872253"><ele>319.0</ele><time>2026-04-03T12:03:57Z</time></trkpt><trkpt lat="45.30165634551041" lon="11.701105372975736"><ele>319.0</ele><time>2026-04-03T12:03:58Z</time></trkpt><trkpt lat="45.301521511444065" lon="11.701165634396036"><ele>319.0</ele><time>2026-04-03T12:03:59Z</time></trkpt><trkpt lat="45.301379718568526" lon="11.701226338905625"><ele>321.75</ele><time>2026-04-03T12:04:00Z</time></trkpt><trkpt lat="45.30126034925986" lon="11.701274381552242"><ele>324.5</ele><time>2026-04-03T12:04:01Z</time></trkpt><trkpt lat="45.301149020899494" lon="11.701336381823666"><ele>327.25</ele><time>2026-04-03T12:04:02Z</time></trkpt><trkpt lat="45.30103824307795" lon="11.701382327005364"><ele>330.0</ele><time>2026-04-03T12:04:03Z</time></trkpt><trkpt lat="45.30092402005841" lon="11.701454126108532"><ele>330.0</ele><time>2026-04-03T12:04:04Z</time></trkpt><trkpt lat="45.30082719078655" lon="11.70156549947054"><ele>330.0</ele><time>2026-04-03T12:04:05Z</time></trkpt><trkpt lat="45.30075038554015" lon="11.70172015396198"><ele>330.0</ele><time>2026-04-03T12:04:06Z</time></trkpt><trkpt lat="45.300684735727486" lon="11.701890510821752"><ele>330.0</ele><time>2026-04-03T12:04:07Z</time></trkpt><trkpt lat="45.30062264468256" lon="11.702061898657366"><ele>328.75</ele><time>2026-04-03T12:04:08Z</time></trkpt><trkpt lat="45.300565985727864" lon="11.70224960575333"><ele>327.5</ele><time>2026-04-03T12:04:09Z</time></trkpt><trkpt lat="45.30049926778322" lon="11.702439389071815"><ele>326.25</ele><time>2026-04-03T12:04:10Z</time></trkpt><trkpt lat="45.30042273913737" lon="11.702599845205777"><ele>325.0</ele><time>2026-04-03T12:04:11Z</time></trkpt><trkpt lat="45.30034255095654" lon="11.702724563893199"><ele>332.25</ele><time>2026-04-03T12:04:12Z</time></trkpt><trkpt lat="45.30024087239886" lon="11.702811645605038"><ele>339.5</ele><time>2026-04-03T12:04:13Z</time></trkpt><trkpt lat="45.30012359156212" lon="11.702860270086255"><ele>346.75</ele><time>2026-04-03T12:04:14Z</time></trkpt><trkpt lat="45.29999006050259" lon="11.702869108019252"><ele>354.0</ele><time>2026-04-03T12:04:15Z</time></trkpt><trkpt lat="45.29986066609682" lon="11.70283342948592"><ele>350.3333333333333</ele><time>2026-04-03T12:04:16Z</time></trkpt><trkpt lat="45.2996959869451" lon="11.702817163746637"><ele>346.66666666666663</ele><time>2026-04-03T12:04:17Z</time></trkpt><trkpt lat="45.299541786551714" lon="11.702794820572269"><ele>343.0</ele><time>2026-04-03T12:04:18Z</time></trkpt><trkpt lat="45.29938880517002" lon="11.702804047990181"><ele>343.0</ele><time>2026-04-03T12:04:19Z</time></trkpt><trkpt lat="45.29926050907424" lon="11.702826770793502"><ele>343.0</ele><time>2026-04-03T12:04:20Z</time></trkpt><trkpt lat="45.299154558674296" lon="11.702851261797083"><ele>343.0</ele><time>2026-04-03T12:04:21Z</time></trkpt><trkpt lat="45.29905597281392" lon="11.70289329364423"><ele>343.0</ele><time>2026-04-03T12:04:22Z</time></trkpt><trkpt lat="45.29895540329044" lon="11.702974194174152"><ele>340.75</ele><time>2026-04-03T12:04:23Z</time></trkpt><trkpt lat="45.29887735281865" lon="11.703115255211765"><ele>338.5</ele><time>2026-04-03T12:04:24Z</time></trkpt><trkpt lat="45.298818252198004" lon="11.703277838720686"><ele>336.25</ele><time>2026-04-03T12:04:25Z</time></trkpt><trkpt lat="45.29878799098162" lon="11.703447757078923"><ele>334.0</ele><time>2026-04-03T12:04:26Z</time></trkpt><trkpt lat="45.29875392067027" lon="11.703617871558855"><ele>334.0</ele><time>2026-04-03T12:04:27Z</time></trkpt><trkpt lat="45.298737431545206" lon="11.703764952956146"><ele>334.0</ele><time>2026-04-03T12:04:28Z</time></trkpt><trkpt lat="45.29871108642856" lon="11.703871418543645"><ele>334.0</ele><time>2026-04-03T12:04:29Z</time></trkpt><trkpt lat="45.29867661672274" lon="11.703957622246081"><ele>334.0</ele><time>2026-04-03T12:04:30Z</time></trkpt><trkpt lat="45.298631358617094" lon="11.704038930886338"><ele>334.0</ele><time>2026-04-03T12:04:31Z</time></trkpt><trkpt lat="45.29857830557243" lon="11.704113136897769"><ele>334.0</ele><time>2026-04-03T12:04:32Z</time></trkpt><trkpt lat="45.29851969587726" lon="11.704178178889887"><ele>334.0</ele><time>2026-04-03T12:04:33Z</time></trkpt><trkpt lat="45.29844493832762" lon="11.704255961308174"><ele>334.0</ele><time>2026-04-03T12:04:34Z</time></trkpt><trkpt lat="45.298358906894705" lon="11.704323261285687"><ele>334.0</ele><time>2026-04-03T12:04:35Z</time></trkpt><trkpt lat="45.29826285721765" lon="11.704384706589918"><ele>334.0</ele><time>2026-04-03T12:04:36Z</time></trkpt><trkpt lat="45.29816646262058" lon="11.704440773382236"><ele>334.0</ele><time>2026-04-03T12:04:37Z</time></trkpt><trkpt lat="45.2980783392683" lon="11.704508758443424"><ele>333.5</ele><time>2026-04-03T12:04:38Z</time></trkpt><trkpt lat="45.298007598468594" lon="11.70458885470782"><ele>333.0</ele><time>2026-04-03T12:04:39Z</time></trkpt><trkpt lat="45.29793741290025" lon="11.704663688339187"><ele>332.5</ele><time>2026-04-03T12:04:40Z</time></trkpt><trkpt lat="45.297858067513026" lon="11.704748288393956"><ele>332.0</ele><time>2026-04-03T12:04:41Z</time></trkpt><trkpt lat="45.297870526052606" lon="11.705025018679178"><ele>332.0</ele><time>2026-04-03T12:04:42Z</time></trkpt><trkpt lat="45.29778755741012" lon="11.705171727717554"><ele>332.0</ele><time>2026-04-03T12:04:43Z</time></trkpt><trkpt lat="45.29766922077897" lon="11.705289396034964"><ele>332.0</ele><time>2026-04-03T12:04:44Z</time></trkpt><trkpt lat="45.297527799389236" lon="11.705369602401245"><ele>332.0</ele><time>2026-04-03T12:04:45Z</time></trkpt><trkpt lat="45.29739605534688" lon="11.705447421220072"><ele>334.0</ele><time>2026-04-03T12:04:46Z</time></trkpt><trkpt lat="45.297280386695824" lon="11.70553277768292"><ele>336.0</ele><time>2026-04-03T12:04:47Z</time></trkpt><trkpt lat="45.29717792731942" lon="11.70561815230247"><ele>338.0</ele><time>2026-04-03T12:04:48Z</time></trkpt><trkpt lat="45.29708401612148" lon="11.70570519025553"><ele>340.0</ele><time>2026-04-03T12:04:49Z</time></trkpt><trkpt lat="45.2969964624002" lon="11.705800928073103"><ele>338.25</ele><time>2026-04-03T12:04:50Z</time></trkpt><trkpt lat="45.2969145567118" lon="11.705919586695808"><ele>336.5</ele><time>2026-04-03T12:04:51Z</time></trkpt><trkpt lat="45.296833746926346" lon="11.70606034966211"><ele>334.75</ele><time>2026-04-03T12:04:52Z</time></trkpt><trkpt lat="45.29675758982365" lon="11.706215811440867"><ele>333.0</ele><time>2026-04-03T12:04:53Z</time></trkpt><trkpt lat="45.296659961177106" lon="11.706337033078475"><ele>333.0</ele><time>2026-04-03T12:04:54Z</time></trkpt><trkpt lat="45.296526318383656" lon="11.706416125856112"><ele>333.0</ele><time>2026-04-03T12:04:55Z</time></trkpt><trkpt lat="45.29637472979387" lon="11.706470364391496"><ele>333.0</ele><time>2026-04-03T12:04:56Z</time></trkpt><trkpt lat="45.296222597802256" lon="11.706535879508463"><ele>330.3333333333333</ele><time>2026-04-03T12:04:57Z</time></trkpt><trkpt lat="45.29607032339815" lon="11.706614904256924"><ele>327.66666666666663</ele><time>2026-04-03T12:04:58Z</time></trkpt><trkpt lat="45.29592678245362" lon="11.706687766788159"><ele>325.0</ele><time>2026-04-03T12:04:59Z</time></trkpt><trkpt lat="45.295799105304" lon="11.706750210449682"><ele>325.0</ele><time>2026-04-03T12:05:00Z</time></trkpt><trkpt lat="45.29569222238466" lon="11.706802265614316"><ele>325.0</ele><time>2026-04-03T12:05:01Z</time></trkpt><trkpt lat="45.29560320785477" lon="11.706860946775791"><ele>325.0</ele><time>2026-04-03T12:05:02Z</time></trkpt><trkpt lat="45.29551754893623" lon="11.706939355187826"><ele>325.0</ele><time>2026-04-03T12:05:03Z</time></trkpt><trkpt lat="45.295428541721996" lon="11.707047064713596"><ele>325.0</ele><time>2026-04-03T12:05:04Z</time></trkpt><trkpt lat="45.29533226373266" lon="11.707175586245418"><ele>324.5</ele><time>2026-04-03T12:05:05Z</time></trkpt><trkpt lat="45.295213377994145" lon="11.707278915849889"><ele>324.0</ele><time>2026-04-03T12:05:06Z</time></trkpt><trkpt lat="45.29509373877075" lon="11.707385962577566"><ele>323.5</ele><time>2026-04-03T12:05:07Z</time></trkpt><trkpt lat="45.29496145245696" lon="11.707472620581335"><ele>323.0</ele><time>2026-04-03T12:05:08Z</time></trkpt><trkpt lat="45.29482025742125" lon="11.707531805158718"><ele>320.25</ele><time>2026-04-03T12:05:09Z</time></trkpt><trkpt lat="45.29467902051579" lon="11.707579907984458"><ele>317.5</ele><time>2026-04-03T12:05:10Z</time></trkpt><trkpt lat="45.29454019657478" lon="11.707623013412965"><ele>314.75</ele><time>2026-04-03T12:05:11Z</time></trkpt><trkpt lat="45.294414562145334" lon="11.70768141681958"><ele>312.0</ele><time>2026-04-03T12:05:12Z</time></trkpt><trkpt lat="45.294286711037145" lon="11.707697864455696"><ele>312.0</ele><time>2026-04-03T12:05:13Z</time></trkpt><trkpt lat="45.294168447713375" lon="11.707740087290698"><ele>312.0</ele><time>2026-04-03T12:05:14Z</time></trkpt><trkpt lat="45.294043045069465" lon="11.707813382811443"><ele>312.0</ele><time>2026-04-03T12:05:15Z</time></trkpt><trkpt lat="45.29392124526078" lon="11.707851839326079"><ele>312.0</ele><time>2026-04-03T12:05:16Z</time></trkpt><trkpt lat="45.29381189950702" lon="11.707888707618146"><ele>310.25</ele><time>2026-04-03T12:05:17Z</time></trkpt><trkpt lat="45.293697801575824" lon="11.707910408055099"><ele>308.5</ele><time>2026-04-03T12:05:18Z</time></trkpt><trkpt lat="45.29357297943506" lon="11.707907301663115"><ele>306.75</ele><time>2026-04-03T12:05:19Z</time></trkpt><trkpt lat="45.293442599226225" lon="11.707877660025625"><ele>305.0</ele><time>2026-04-03T12:05:20Z</time></trkpt><trkpt lat="45.293302933521254" lon="11.707827308364456"><ele>305.0</ele><time>2026-04-03T12:05:21Z</time></trkpt><trkpt lat="45.293158518854014" lon="11.707789447477284"><ele>305.0</ele><time>2026-04-03T12:05:22Z</time></trkpt><trkpt lat="45.293012709772185" lon="11.707729537090762"><ele>305.0</ele><time>2026-04-03T12:05:23Z</time></trkpt><trkpt lat="45.29286248600249" lon="11.707684709740931"><ele>304.75</ele><time>2026-04-03T12:05:24Z</time></trkpt><trkpt lat="45.29270182974537" lon="11.707655428164758"><ele>304.5</ele><time>2026-04-03T12:05:25Z</time></trkpt><trkpt lat="45.292552589269036" lon="11.707652968226874"><ele>304.25</ele><time>2026-04-03T12:05:26Z</time></trkpt><trkpt lat="45.29241483009279" lon="11.707650468547968"><ele>304.0</ele><time>2026-04-03T12:05:27Z</time></trkpt><trkpt lat="45.29228726441647" lon="11.707641809665684"><ele>304.2</ele><time>2026-04-03T12:05:28Z</time></trkpt><trkpt lat="45.29217543388904" lon="11.707607021558717"><ele>304.4</ele><time>2026-04-03T12:05:29Z</time></trkpt><trkpt lat="45.29207586011553" lon="11.707585941454221"><ele>304.6</ele><time>2026-04-03T12:05:30Z</time></trkpt><trkpt lat="45.292007976378336" lon="11.70755242156281"><ele>304.8</ele><time>2026-04-03T12:05:31Z</time></trkpt><trkpt lat="45.29193277030195" lon="11.707509530829954"><ele>305.0</ele><time>2026-04-03T12:05:33Z</time></trkpt><trkpt lat="45.29186121680479" lon="11.707449866434526"><ele>305.0</ele><time>2026-04-03T12:05:36Z</time></trkpt><trkpt lat="45.291776452370215" lon="11.707369795227054"><ele>305.0</ele><time>2026-04-03T12:05:38Z</time></trkpt><trkpt lat="45.29164012892582" lon="11.707244905245352"><ele>305.0</ele><time>2026-04-03T12:05:40Z</time></trkpt><trkpt lat="45.29151675907514" lon="11.707843949730155"><ele>304.83333333333337</ele><time>2026-04-03T12:05:42Z</time></trkpt><trkpt lat="45.29144032776984" lon="11.707913622406247"><ele>304.6666666666667</ele><time>2026-04-03T12:05:43Z</time></trkpt><trkpt lat="45.29137304669593" lon="11.707942185712588"><ele>304.5</ele><time>2026-04-03T12:05:44Z</time></trkpt><trkpt lat="45.29130892341322" lon="11.707986579058973"><ele>304.3333333333333</ele><time>2026-04-03T12:05:46Z</time></trkpt><trkpt lat="45.29124896817023" lon="11.708034572358159"><ele>304.16666666666663</ele><time>2026-04-03T12:05:53Z</time></trkpt><trkpt lat="45.29115480125128" lon="11.708054257883337"><ele>304.0</ele><time>2026-04-03T12:05:56Z</time></trkpt><trkpt lat="45.2910903347608" lon="11.708034905192251"><ele>304.0</ele><time>2026-04-03T12:05:58Z</time></trkpt><trkpt lat="45.291002425696966" lon="11.708089879541246"><ele>304.0</ele><time>2026-04-03T12:06:03Z</time></trkpt><trkpt lat="45.29095045011083" lon="11.70814631320174"><ele>304.0</ele><time>2026-04-03T12:06:04Z</time></trkpt><trkpt lat="45.29085161480597" lon="11.708192224067517"><ele>304.0</ele><time>2026-04-03T12:06:06Z</time></trkpt><trkpt lat="45.29078098899019" lon="11.708227044490751"><ele>304.0</ele><time>2026-04-03T12:06:07Z</time></trkpt><trkpt lat="45.29072843310096" lon="11.708285499623681"><ele>304.0</ele><time>2026-04-03T12:06:08Z</time></trkpt><trkpt lat="45.29064171363956" lon="11.708371728058836"><ele>303.5</ele><time>2026-04-03T12:06:10Z</time></trkpt><trkpt lat="45.290560892576124" lon="11.70841166376356"><ele>303.0</ele><time>2026-04-03T12:06:12Z</time></trkpt><trkpt lat="45.290488380794365" lon="11.70843126248183"><ele>302.5</ele><time>2026-04-03T12:06:14Z</time></trkpt><trkpt lat="45.29038696243024" lon="11.70848952357659"><ele>302.0</ele><time>2026-04-03T12:06:16Z</time></trkpt><trkpt lat="45.29032275847372" lon="11.708549168656937"><ele>301.5</ele><time>2026-04-03T12:06:17Z</time></trkpt><trkpt lat="45.290257921270296" lon="11.708591247444803"><ele>301.0</ele><time>2026-04-03T12:06:18Z</time></trkpt><trkpt lat="45.290194700195414" lon="11.708639632051552"><ele>301.0</ele><time>2026-04-03T12:06:20Z</time></trkpt><trkpt lat="45.29008074579559" lon="11.708615652699375"><ele>301.0</ele><time>2026-04-03T12:06:22Z</time></trkpt><trkpt lat="45.28995820552221" lon="11.708584658114567"><ele>301.0</ele><time>2026-04-03T12:06:23Z</time></trkpt><trkpt lat="45.28982600348887" lon="11.708562029391686"><ele>301.0</ele><time>2026-04-03T12:06:25Z</time></trkpt><trkpt lat="45.289754263641825" lon="11.708570306585294"><ele>301.0</ele><time>2026-04-03T12:06:27Z</time></trkpt><trkpt lat="45.28967242100836" lon="11.708550032361682"><ele>299.5</ele><time>2026-04-03T12:06:31Z</time></trkpt><trkpt lat="45.28957018536483" lon="11.708468720718432"><ele>298.0</ele><time>2026-04-03T12:06:33Z</time></trkpt><trkpt lat="45.28950052674588" lon="11.708432591018173"><ele>296.5</ele><time>2026-04-03T12:06:34Z</time></trkpt><trkpt lat="45.28944067690946" lon="11.708389326729788"><ele>295.0</ele><time>2026-04-03T12:06:35Z</time></trkpt><trkpt lat="45.289379880887545" lon="11.70833092276209"><ele>293.5</ele><time>2026-04-03T12:06:36Z</time></trkpt><trkpt lat="45.28929732725672" lon="11.708286593381448"><ele>292.0</ele><time>2026-04-03T12:06:37Z</time></trkpt><trkpt lat="45.28923383723622" lon="11.708290262989149"><ele>292.0</ele><time>2026-04-03T12:06:38Z</time></trkpt><trkpt lat="45.28913538272094" lon="11.708285397553608"><ele>292.0</ele><time>2026-04-03T12:06:40Z</time></trkpt><trkpt lat="45.28906884658575" lon="11.708209678632713"><ele>292.0</ele><time>2026-04-03T12:06:43Z</time></trkpt><trkpt lat="45.289017354747834" lon="11.70806414939694"><ele>292.0</ele><time>2026-04-03T12:06:49Z</time></trkpt><trkpt lat="45.28898674710889" lon="11.707964526840875"><ele>292.0</ele><time>2026-04-03T12:06:50Z</time></trkpt><trkpt lat="45.28896519638085" lon="11.707857737432718"><ele>292.0</ele><time>2026-04-03T12:06:51Z</time></trkpt><trkpt lat="45.28894401547885" lon="11.707757324563742"><ele>292.0</ele><time>2026-04-03T12:06:52Z</time></trkpt><trkpt lat="45.2889198980956" lon="11.707663453572179"><ele>292.0</ele><time>2026-04-03T12:06:53Z</time></trkpt><trkpt lat="45.28889607732051" lon="11.707573910584792"><ele>292.0</ele><time>2026-04-03T12:06:54Z</time></trkpt><trkpt lat="45.28883155517308" lon="11.707414369602189"><ele>292.0</ele><time>2026-04-03T12:06:56Z</time></trkpt><trkpt lat="45.288771767892996" lon="11.707326582715321"><ele>292.0</ele><time>2026-04-03T12:06:57Z</time></trkpt><trkpt lat="45.288715573119106" lon="11.707216726838688"><ele>289.0</ele><time>2026-04-03T12:06:58Z</time></trkpt><trkpt lat="45.28864126758003" lon="11.707092523631186"><ele>286.0</ele><time>2026-04-03T12:06:59Z</time></trkpt><trkpt lat="45.28855733664707" lon="11.706955445852989"><ele>283.0</ele><time>2026-04-03T12:07:00Z</time></trkpt><trkpt lat="45.288467014359554" lon="11.706821337683866"><ele>280.0</ele><time>2026-04-03T12:07:01Z</time></trkpt><trkpt lat="45.288380255165926" lon="11.706687297661315"><ele>278.5</ele><time>2026-04-03T12:07:02Z</time></trkpt><trkpt lat="45.28827487906724" lon="11.706596107105748"><ele>277.0</ele><time>2026-04-03T12:07:03Z</time></trkpt><trkpt lat="45.288148908980446" lon="11.706528058202155"><ele>275.5</ele><time>2026-04-03T12:07:04Z</time></trkpt><trkpt lat="45.288032186021375" lon="11.706444894102859"><ele>274.0</ele><time>2026-04-03T12:07:05Z</time></trkpt><trkpt lat="45.28791744777234" lon="11.706351540464254"><ele>273.59999999999997</ele><time>2026-04-03T12:07:06Z</time></trkpt><trkpt lat="45.28781929711979" lon="11.706249827144632"><ele>273.2</ele><time>2026-04-03T12:07:07Z</time></trkpt><trkpt lat="45.287748512202505" lon="11.706168723735775"><ele>272.79999999999995</ele><time>2026-04-03T12:07:08Z</time></trkpt><trkpt lat="45.28772585148089" lon="11.7060603174345"><ele>272.4</ele><time>2026-04-03T12:07:09Z</time></trkpt><trkpt lat="45.2877253017614" lon="11.705934714992956"><ele>272.0</ele><time>2026-04-03T12:07:10Z</time></trkpt><trkpt lat="45.28774924993926" lon="11.705785813179583"><ele>272.0</ele><time>2026-04-03T12:07:11Z</time></trkpt><trkpt lat="45.28779337525975" lon="11.70563373517939"><ele>272.0</ele><time>2026-04-03T12:07:12Z</time></trkpt><trkpt lat="45.28780772456126" lon="11.705502900273022"><ele>272.0</ele><time>2026-04-03T12:07:13Z</time></trkpt><trkpt lat="45.28777760414986" lon="11.705387124976987"><ele>272.0</ele><time>2026-04-03T12:07:14Z</time></trkpt><trkpt lat="45.28771853720633" lon="11.705265438686666"><ele>272.0</ele><time>2026-04-03T12:07:15Z</time></trkpt><trkpt lat="45.28763363432548" lon="11.705147366516032"><ele>270.6</ele><time>2026-04-03T12:07:16Z</time></trkpt><trkpt lat="45.28754342946731" lon="11.70505089435334"><ele>269.2</ele><time>2026-04-03T12:07:17Z</time></trkpt><trkpt lat="45.28746440994863" lon="11.704967427322892"><ele>267.8</ele><time>2026-04-03T12:07:18Z</time></trkpt><trkpt lat="45.287373867974516" lon="11.704884058557786"><ele>266.4</ele><time>2026-04-03T12:07:19Z</time></trkpt><trkpt lat="45.28728398271006" lon="11.704802366041143"><ele>265.0</ele><time>2026-04-03T12:07:20Z</time></trkpt><trkpt lat="45.28719421630698" lon="11.70472509274503"><ele>265.0</ele><time>2026-04-03T12:07:21Z</time></trkpt><trkpt lat="45.28711817226594" lon="11.704617009329104"><ele>265.0</ele><time>2026-04-03T12:07:22Z</time></trkpt><trkpt lat="45.28703964135806" lon="11.704517840501456"><ele>265.0</ele><time>2026-04-03T12:07:23Z</time></trkpt><trkpt lat="45.28695016038851" lon="11.704423988936016"><ele>265.0</ele><time>2026-04-03T12:07:24Z</time></trkpt><trkpt lat="45.286879148265164" lon="11.704312329640748"><ele>265.0</ele><time>2026-04-03T12:07:25Z</time></trkpt><trkpt lat="45.28683229615443" lon="11.704203580477852"><ele>262.66666666666663</ele><time>2026-04-03T12:07:26Z</time></trkpt><trkpt lat="45.286804016273194" lon="11.704100554224995"><ele>260.3333333333333</ele><time>2026-04-03T12:07:27Z</time></trkpt><trkpt lat="45.28682867783872" lon="11.703991136395093"><ele>258.0</ele><time>2026-04-03T12:07:28Z</time></trkpt><trkpt lat="45.286833319611766" lon="11.703883673898785"><ele>255.66666666666669</ele><time>2026-04-03T12:07:29Z</time></trkpt><trkpt lat="45.28683192554441" lon="11.703747314942193"><ele>253.33333333333334</ele><time>2026-04-03T12:07:30Z</time></trkpt><trkpt lat="45.286793414180025" lon="11.703628738383259"><ele>251.0</ele><time>2026-04-03T12:07:31Z</time></trkpt><trkpt lat="45.286753816446655" lon="11.703533981925656"><ele>249.16666666666669</ele><time>2026-04-03T12:07:32Z</time></trkpt><trkpt lat="45.28674416135788" lon="11.703435358339949"><ele>247.33333333333334</ele><time>2026-04-03T12:07:33Z</time></trkpt><trkpt lat="45.28675970089499" lon="11.703331080183194"><ele>245.5</ele><time>2026-04-03T12:07:34Z</time></trkpt><trkpt lat="45.286810866115374" lon="11.703240739622691"><ele>243.66666666666669</ele><time>2026-04-03T12:07:35Z</time></trkpt><trkpt lat="45.2868520771568" lon="11.703166340187053"><ele>241.83333333333334</ele><time>2026-04-03T12:07:36Z</time></trkpt><trkpt lat="45.28686450379735" lon="11.70305436894468"><ele>240.0</ele><time>2026-04-03T12:07:37Z</time></trkpt><trkpt lat="45.28685060433139" lon="11.702891504313014"><ele>238.0</ele><time>2026-04-03T12:07:38Z</time></trkpt><trkpt lat="45.28684483179373" lon="11.702714626328017"><ele>236.0</ele><time>2026-04-03T12:07:39Z</time></trkpt><trkpt lat="45.286834477147494" lon="11.70256179368136"><ele>234.0</ele><time>2026-04-03T12:07:40Z</time></trkpt><trkpt lat="45.28683148445288" lon="11.702412692757969"><ele>232.0</ele><time>2026-04-03T12:07:41Z</time></trkpt><trkpt lat="45.28679196494775" lon="11.702249668120377"><ele>232.0</ele><time>2026-04-03T12:07:42Z</time></trkpt><trkpt lat="45.28675893879355" lon="11.702067171243174"><ele>232.0</ele><time>2026-04-03T12:07:43Z</time></trkpt><trkpt lat="45.286703111809864" lon="11.701886956543616"><ele>232.0</ele><time>2026-04-03T12:07:44Z</time></trkpt><trkpt lat="45.286653398294725" lon="11.701721754120022"><ele>232.0</ele><time>2026-04-03T12:07:45Z</time></trkpt><trkpt lat="45.28661946237272" lon="11.701571386119545"><ele>230.75</ele><time>2026-04-03T12:07:46Z</time></trkpt><trkpt lat="45.28656347421006" lon="11.70141892422215"><ele>229.5</ele><time>2026-04-03T12:07:47Z</time></trkpt><trkpt lat="45.286513749367096" lon="11.701272325806947"><ele>228.25</ele><time>2026-04-03T12:07:48Z</time></trkpt><trkpt lat="45.28642700261014" lon="11.701122360820817"><ele>227.0</ele><time>2026-04-03T12:07:49Z</time></trkpt><trkpt lat="45.28635489346888" lon="11.700980766155379"><ele>222.8</ele><time>2026-04-03T12:07:50Z</time></trkpt><trkpt lat="45.286290358871646" lon="11.700861380263559"><ele>218.6</ele><time>2026-04-03T12:07:51Z</time></trkpt><trkpt lat="45.286251855311804" lon="11.70075787227468"><ele>214.4</ele><time>2026-04-03T12:07:52Z</time></trkpt><trkpt lat="45.28621148968347" lon="11.700623514343611"><ele>210.20000000000002</ele><time>2026-04-03T12:07:53Z</time></trkpt><trkpt lat="45.28617720206468" lon="11.700474026612998"><ele>206.0</ele><time>2026-04-03T12:07:54Z</time></trkpt><trkpt lat="45.2861506691081" lon="11.700306321029059"><ele>204.75</ele><time>2026-04-03T12:07:55Z</time></trkpt><trkpt lat="45.286134147512314" lon="11.700115060048669"><ele>203.5</ele><time>2026-04-03T12:07:56Z</time></trkpt><trkpt lat="45.28612169857502" lon="11.699924541555804"><ele>202.25</ele><time>2026-04-03T12:07:57Z</time></trkpt><trkpt lat="45.28612437129473" lon="11.699735385570298"><ele>201.0</ele><time>2026-04-03T12:07:58Z</time></trkpt><trkpt lat="45.28611686080122" lon="11.699529038903698"><ele>200.5</ele><time>2026-04-03T12:07:59Z</time></trkpt><trkpt lat="45.28611189627295" lon="11.699356187256146"><ele>200.0</ele><time>2026-04-03T12:08:00Z</time></trkpt><trkpt lat="45.2861079443393" lon="11.699208325926655"><ele>199.5</ele><time>2026-04-03T12:08:01Z</time></trkpt><trkpt lat="45.2860999892145" lon="11.699099315932227"><ele>199.0</ele><time>2026-04-03T12:08:02Z</time></trkpt><trkpt lat="45.286093096235355" lon="11.699004976459339"><ele>198.5</ele><time>2026-04-03T12:08:03Z</time></trkpt><trkpt lat="45.286114042817886" lon="11.698919631310128"><ele>198.0</ele><time>2026-04-03T12:08:04Z</time></trkpt><trkpt lat="45.28614967143757" lon="11.698812617715397"><ele>198.0</ele><time>2026-04-03T12:08:05Z</time></trkpt><trkpt lat="45.28619357181485" lon="11.698707829068498"><ele>198.0</ele><time>2026-04-03T12:08:06Z</time></trkpt><trkpt lat="45.28625378736819" lon="11.698617106506765"><ele>198.0</ele><time>2026-04-03T12:08:07Z</time></trkpt><trkpt lat="45.286245638252204" lon="11.698521147204179"><ele>198.0</ele><time>2026-04-03T12:08:08Z</time></trkpt><trkpt lat="45.286195511841285" lon="11.698383566732925"><ele>198.0</ele><time>2026-04-03T12:08:10Z</time></trkpt><trkpt lat="45.28608728968836" lon="11.698303402551652"><ele>197.2</ele><time>2026-04-03T12:08:11Z</time></trkpt><trkpt lat="45.28598057157268" lon="11.6982433532102"><ele>196.4</ele><time>2026-04-03T12:08:12Z</time></trkpt><trkpt lat="45.28588377905799" lon="11.698211887741211"><ele>195.6</ele><time>2026-04-03T12:08:13Z</time></trkpt><trkpt lat="45.285796615391256" lon="11.698150085830818"><ele>194.79999999999998</ele><time>2026-04-03T12:08:14Z</time></trkpt><trkpt lat="45.28570743440502" lon="11.698095159053292"><ele>194.0</ele><time>2026-04-03T12:08:15Z</time></trkpt><trkpt lat="45.28563037546571" lon="11.698028873118272"><ele>189.83333333333334</ele><time>2026-04-03T12:08:16Z</time></trkpt><trkpt lat="45.285545634761334" lon="11.697970231639545"><ele>185.66666666666669</ele><time>2026-04-03T12:08:17Z</time></trkpt><trkpt lat="45.28547464732058" lon="11.697905076036726"><ele>181.5</ele><time>2026-04-03T12:08:18Z</time></trkpt><trkpt lat="45.28541598601328" lon="11.697826153568812"><ele>177.33333333333334</ele><time>2026-04-03T12:08:19Z</time></trkpt><trkpt lat="45.28536092169566" lon="11.697735061668537"><ele>173.16666666666669</ele><time>2026-04-03T12:08:20Z</time></trkpt><trkpt lat="45.2853230754099" lon="11.697628635256018"><ele>169.0</ele><time>2026-04-03T12:08:21Z</time></trkpt><trkpt lat="45.285286404951876" lon="11.69751144780535"><ele>168.66666666666669</ele><time>2026-04-03T12:08:22Z</time></trkpt><trkpt lat="45.28527684071242" lon="11.697404001490863"><ele>168.33333333333334</ele><time>2026-04-03T12:08:23Z</time></trkpt><trkpt lat="45.28527780710113" lon="11.697282095307672"><ele>168.0</ele><time>2026-04-03T12:08:24Z</time></trkpt><trkpt lat="45.285275608801534" lon="11.697139767457397"><ele>167.66666666666666</ele><time>2026-04-03T12:08:25Z</time></trkpt><trkpt lat="45.2852630396406" lon="11.697033473564227"><ele>167.33333333333331</ele><time>2026-04-03T12:08:26Z</time></trkpt><trkpt lat="45.28524809446347" lon="11.696907050540004"><ele>167.0</ele><time>2026-04-03T12:08:27Z</time></trkpt><trkpt lat="45.28520151526948" lon="11.696795719950265"><ele>167.0</ele><time>2026-04-03T12:08:28Z</time></trkpt><trkpt lat="45.2851286819571" lon="11.696708829407916"><ele>167.0</ele><time>2026-04-03T12:08:29Z</time></trkpt><trkpt lat="45.285041703608364" lon="11.696630432220369"><ele>167.0</ele><time>2026-04-03T12:08:30Z</time></trkpt><trkpt lat="45.28495561666478" lon="11.696553219016872"><ele>167.0</ele><time>2026-04-03T12:08:31Z</time></trkpt><trkpt lat="45.28487084426803" lon="11.696458011947854"><ele>167.0</ele><time>2026-04-03T12:08:32Z</time></trkpt><trkpt lat="45.28482828597828" lon="11.696372559894687"><ele>163.33333333333331</ele><time>2026-04-03T12:08:33Z</time></trkpt><trkpt lat="45.284759590592785" lon="11.696297162183388"><ele>159.66666666666666</ele><time>2026-04-03T12:08:34Z</time></trkpt><trkpt lat="45.28470093666808" lon="11.69621114259769"><ele>156.0</ele><time>2026-04-03T12:08:35Z</time></trkpt><trkpt lat="45.28466301893708" lon="11.69611591540721"><ele>152.33333333333334</ele><time>2026-04-03T12:08:36Z</time></trkpt><trkpt lat="45.28461869724647" lon="11.696041031957144"><ele>148.66666666666669</ele><time>2026-04-03T12:08:37Z</time></trkpt><trkpt lat="45.28454181666268" lon="11.69591162885262"><ele>145.0</ele><time>2026-04-03T12:08:39Z</time></trkpt><trkpt lat="45.28450334587587" lon="11.695820426751316"><ele>144.16666666666669</ele><time>2026-04-03T12:08:40Z</time></trkpt><trkpt lat="45.28447107616212" lon="11.695708818961158"><ele>143.33333333333334</ele><time>2026-04-03T12:08:41Z</time></trkpt><trkpt lat="45.28444512703857" lon="11.695600490580105"><ele>142.5</ele><time>2026-04-03T12:08:42Z</time></trkpt><trkpt lat="45.2844229836833" lon="11.695479020427989"><ele>141.66666666666666</ele><time>2026-04-03T12:08:43Z</time></trkpt><trkpt lat="45.284422630729566" lon="11.695351559287392"><ele>140.83333333333331</ele><time>2026-04-03T12:08:44Z</time></trkpt><trkpt lat="45.28440049547392" lon="11.69522746991218"><ele>140.0</ele><time>2026-04-03T12:08:45Z</time></trkpt><trkpt lat="45.284377927396" lon="11.695097906747586"><ele>139.0</ele><time>2026-04-03T12:08:46Z</time></trkpt><trkpt lat="45.2843612177088" lon="11.69500197656384"><ele>138.0</ele><time>2026-04-03T12:08:47Z</time></trkpt><trkpt lat="45.28433673970868" lon="11.694837636956304"><ele>137.0</ele><time>2026-04-03T12:08:49Z</time></trkpt><trkpt lat="45.28432791741259" lon="11.694743281110984"><ele>136.0</ele><time>2026-04-03T12:08:51Z</time></trkpt><trkpt lat="45.284252746170516" lon="11.694815280537707"><ele>135.0</ele><time>2026-04-03T12:08:54Z</time></trkpt><trkpt lat="45.28417562522887" lon="11.694953091525432"><ele>135.0</ele><time>2026-04-03T12:08:56Z</time></trkpt><trkpt lat="45.28410707992038" lon="11.694975676432383"><ele>135.0</ele><time>2026-04-03T12:08:58Z</time></trkpt><trkpt lat="45.28403797361333" lon="11.694859431254475"><ele>135.0</ele><time>2026-04-03T12:09:00Z</time></trkpt><trkpt lat="45.28405386007687" lon="11.694750012886038"><ele>135.0</ele><time>2026-04-03T12:09:01Z</time></trkpt><trkpt lat="45.283991101542334" lon="11.6946575252611"><ele>135.0</ele><time>2026-04-03T12:09:02Z</time></trkpt><trkpt lat="45.28391071632688" lon="11.694576105543433"><ele>135.0</ele><time>2026-04-03T12:09:03Z</time></trkpt><trkpt lat="45.28376373654178" lon="11.69445006432658"><ele>130.25</ele><time>2026-04-03T12:09:04Z</time></trkpt><trkpt lat="45.28364946345919" lon="11.69438581368056"><ele>125.5</ele><time>2026-04-03T12:09:05Z</time></trkpt><trkpt lat="45.28356607811569" lon="11.694284144493276"><ele>120.75</ele><time>2026-04-03T12:09:06Z</time></trkpt><trkpt lat="45.28343950264838" lon="11.694202718253969"><ele>116.0</ele><time>2026-04-03T12:09:07Z</time></trkpt><trkpt lat="45.28331583531308" lon="11.69412326850424"><ele>116.0</ele><time>2026-04-03T12:09:08Z</time></trkpt><trkpt lat="45.28324057146114" lon="11.694037216312038"><ele>116.0</ele><time>2026-04-03T12:09:09Z</time></trkpt><trkpt lat="45.283172703100796" lon="11.693955763010894"><ele>116.0</ele><time>2026-04-03T12:09:10Z</time></trkpt><trkpt lat="45.283105625207" lon="11.693876155228894"><ele>116.0</ele><time>2026-04-03T12:09:11Z</time></trkpt><trkpt lat="45.283007288316654" lon="11.693799848587034"><ele>116.0</ele><time>2026-04-03T12:09:12Z</time></trkpt><trkpt lat="45.282893734311855" lon="11.693758877293076"><ele>114.19999999999999</ele><time>2026-04-03T12:09:13Z</time></trkpt><trkpt lat="45.2827712187577" lon="11.69368180840513"><ele>112.39999999999999</ele><time>2026-04-03T12:09:14Z</time></trkpt><trkpt lat="45.28265459637732" lon="11.693647208718316"><ele>110.6</ele><time>2026-04-03T12:09:15Z</time></trkpt><trkpt lat="45.28257529609535" lon="11.693595010892794"><ele>108.8</ele><time>2026-04-03T12:09:16Z</time></trkpt><trkpt lat="45.282503949480876" lon="11.69359712550361"><ele>107.0</ele><time>2026-04-03T12:09:17Z</time></trkpt><trkpt lat="45.28242587544103" lon="11.693604297186829"><ele>106.99999999999999</ele><time>2026-04-03T12:09:18Z</time></trkpt><trkpt lat="45.282363491653406" lon="11.693638367056447"><ele>107.0</ele><time>2026-04-03T12:09:19Z</time></trkpt><trkpt lat="45.282325569147936" lon="11.693720478340106"><ele>107.0</ele><time>2026-04-03T12:09:20Z</time></trkpt><trkpt lat="45.28228505301974" lon="11.693839097709965"><ele>107.0</ele><time>2026-04-03T12:09:21Z</time></trkpt><trkpt lat="45.28225641749779" lon="11.693937929829866"><ele>106.99999999999999</ele><time>2026-04-03T12:09:22Z</time></trkpt><trkpt lat="45.28219302556547" lon="11.694015889432531"><ele>107.0</ele><time>2026-04-03T12:09:24Z</time></trkpt><trkpt lat="45.28214015891605" lon="11.69395101871408"><ele>105.8</ele><time>2026-04-03T12:09:26Z</time></trkpt><trkpt lat="45.28207261736978" lon="11.693842596746233"><ele>104.6</ele><time>2026-04-03T12:09:27Z</time></trkpt><trkpt lat="45.282005613233075" lon="11.693723965900404"><ele>103.39999999999999</ele><time>2026-04-03T12:09:28Z</time></trkpt><trkpt lat="45.28196413419445" lon="11.693624329509529"><ele>102.19999999999999</ele><time>2026-04-03T12:09:29Z</time></trkpt><trkpt lat="45.28193239598064" lon="11.69347293684587"><ele>101.0</ele><time>2026-04-03T12:09:31Z</time></trkpt><trkpt lat="45.28192591541838" lon="11.69334712592313"><ele>100.99999999999999</ele><time>2026-04-03T12:09:32Z</time></trkpt><trkpt lat="45.281919015931585" lon="11.693194551591487"><ele>101.0</ele><time>2026-04-03T12:09:33Z</time></trkpt><trkpt lat="45.2819175001008" lon="11.693051799054313"><ele>101.0</ele><time>2026-04-03T12:09:34Z</time></trkpt><trkpt lat="45.2818815715356" lon="11.692947207678909"><ele>101.0</ele><time>2026-04-03T12:09:35Z</time></trkpt><trkpt lat="45.28184987812165" lon="11.692854013388144"><ele>100.99999999999999</ele><time>2026-04-03T12:09:36Z</time></trkpt><trkpt lat="45.28181171188632" lon="11.692750425082334"><ele>101.0</ele><time>2026-04-03T12:09:37Z</time></trkpt><trkpt lat="45.28174597312451" lon="11.69261396274237"><ele>99.6</ele><time>2026-04-03T12:09:38Z</time></trkpt><trkpt lat="45.281657952984894" lon="11.692469108157601"><ele>98.19999999999999</ele><time>2026-04-03T12:09:39Z</time></trkpt><trkpt lat="45.28156479327866" lon="11.692372939636622"><ele>96.80000000000001</ele><time>2026-04-03T12:09:40Z</time></trkpt><trkpt lat="45.281479484682656" lon="11.69232025614506"><ele>95.4</ele><time>2026-04-03T12:09:41Z</time></trkpt><trkpt lat="45.2813844724063" lon="11.692301352722238"><ele>94.0</ele><time>2026-04-03T12:09:42Z</time></trkpt><trkpt lat="45.28129782138715" lon="11.692292697404522"><ele>94.0</ele><time>2026-04-03T12:09:43Z</time></trkpt><trkpt lat="45.281236455354275" lon="11.69225973945743"><ele>94.0</ele><time>2026-04-03T12:09:44Z</time></trkpt><trkpt lat="45.281173592293726" lon="11.69220355396234"><ele>94.0</ele><time>2026-04-03T12:09:45Z</time></trkpt><trkpt lat="45.281088259420585" lon="11.692123278683662"><ele>94.0</ele><time>2026-04-03T12:09:46Z</time></trkpt><trkpt lat="45.28098115091367" lon="11.692015728406554"><ele>94.0</ele><time>2026-04-03T12:09:47Z</time></trkpt><trkpt lat="45.28088641351244" lon="11.691943310022165"><ele>94.0</ele><time>2026-04-03T12:09:48Z</time></trkpt><trkpt lat="45.280746654511326" lon="11.69194967388592"><ele>94.0</ele><time>2026-04-03T12:09:49Z</time></trkpt><trkpt lat="45.280572265125684" lon="11.691929649269099"><ele>94.0</ele><time>2026-04-03T12:09:50Z</time></trkpt><trkpt lat="45.28043237186906" lon="11.691859277289293"><ele>88.0</ele><time>2026-04-03T12:09:51Z</time></trkpt><trkpt lat="45.28028168382269" lon="11.691796376642142"><ele>82.0</ele><time>2026-04-03T12:09:52Z</time></trkpt><trkpt lat="45.28011537614512" lon="11.691723434338353"><ele>76.0</ele><time>2026-04-03T12:09:53Z</time></trkpt><trkpt lat="45.27995212982303" lon="11.691662864942334"><ele>76.0</ele><time>2026-04-03T12:09:54Z</time></trkpt><trkpt lat="45.27980256087918" lon="11.691636744690799"><ele>76.0</ele><time>2026-04-03T12:09:55Z</time></trkpt><trkpt lat="45.27970687578148" lon="11.691611253121314"><ele>76.0</ele><time>2026-04-03T12:09:56Z</time></trkpt><trkpt lat="45.27960405274535" lon="11.691614754754204"><ele>76.0</ele><time>2026-04-03T12:09:57Z</time></trkpt><trkpt lat="45.27948928544776" lon="11.691696216615057"><ele>75.0</ele><time>2026-04-03T12:09:58Z</time></trkpt><trkpt lat="45.27938827855021" lon="11.691720443327899"><ele>74.0</ele><time>2026-04-03T12:09:59Z</time></trkpt><trkpt lat="45.27930804331681" lon="11.691725525435283"><ele>73.0</ele><time>2026-04-03T12:10:00Z</time></trkpt><trkpt lat="45.27921726901074" lon="11.691686998366361"><ele>72.0</ele><time>2026-04-03T12:10:01Z</time></trkpt><trkpt lat="45.27907837578378" lon="11.691651809797468"><ele>71.0</ele><time>2026-04-03T12:10:02Z</time></trkpt><trkpt lat="45.278936699804575" lon="11.691607551849893"><ele>69.25</ele><time>2026-04-03T12:10:03Z</time></trkpt><trkpt lat="45.278849771748796" lon="11.691559903581702"><ele>67.5</ele><time>2026-04-03T12:10:04Z</time></trkpt><trkpt lat="45.27876708918627" lon="11.691505779867684"><ele>65.75</ele><time>2026-04-03T12:10:05Z</time></trkpt><trkpt lat="45.27861602016881" lon="11.691484646056942"><ele>64.0</ele><time>2026-04-03T12:10:06Z</time></trkpt><trkpt lat="45.278443463980004" lon="11.69143249535862"><ele>64.0</ele><time>2026-04-03T12:10:07Z</time></trkpt><trkpt lat="45.27821447530973" lon="11.69138941561706"><ele>64.0</ele><time>2026-04-03T12:10:08Z</time></trkpt><trkpt lat="45.27802833252957" lon="11.69134802487241"><ele>64.0</ele><time>2026-04-03T12:10:09Z</time></trkpt><trkpt lat="45.27789390855989" lon="11.691319995025792"><ele>64.0</ele><time>2026-04-03T12:10:10Z</time></trkpt><trkpt lat="45.27779362678188" lon="11.691293103140204"><ele>64.0</ele><time>2026-04-03T12:10:11Z</time></trkpt><trkpt lat="45.27771687349823" lon="11.691260815344178"><ele>64.0</ele><time>2026-04-03T12:10:12Z</time></trkpt><trkpt lat="45.277607798804134" lon="11.691205569596875"><ele>64.0</ele><time>2026-04-03T12:10:14Z</time></trkpt><trkpt lat="45.2775634709216" lon="11.691131191443693"><ele>64.0</ele><time>2026-04-03T12:10:16Z</time></trkpt><trkpt lat="45.27755977348058" lon="11.690960231356309"><ele>63.0</ele><time>2026-04-03T12:10:18Z</time></trkpt><trkpt lat="45.277561527581284" lon="11.690833420070415"><ele>62.00000000000001</ele><time>2026-04-03T12:10:19Z</time></trkpt><trkpt lat="45.277557266041256" lon="11.690694678530694"><ele>61.00000000000001</ele><time>2026-04-03T12:10:20Z</time></trkpt><trkpt lat="45.27753206032345" lon="11.690589698286162"><ele>60.0</ele><time>2026-04-03T12:10:21Z</time></trkpt><trkpt lat="45.2774646740433" lon="11.690501995575133"><ele>59.0</ele><time>2026-04-03T12:10:23Z</time></trkpt><trkpt lat="45.27736812759116" lon="11.690606672715173"><ele>59.0</ele><time>2026-04-03T12:10:26Z</time></trkpt><trkpt lat="45.27728150088634" lon="11.690736316964678"><ele>59.00000000000001</ele><time>2026-04-03T12:10:39Z</time></trkpt><trkpt lat="45.27721917595856" lon="11.690818471271038"><ele>59.00000000000001</ele><time>2026-04-03T12:10:40Z</time></trkpt><trkpt lat="45.27714042193007" lon="11.690885928681812"><ele>59.0</ele><time>2026-04-03T12:10:41Z</time></trkpt><trkpt lat="45.27703389166671" lon="11.690916280269606"><ele>59.0</ele><time>2026-04-03T12:10:42Z</time></trkpt><trkpt lat="45.276896636577725" lon="11.690947848228944"><ele>58.75</ele><time>2026-04-03T12:10:43Z</time></trkpt><trkpt lat="45.27676873169615" lon="11.690965722228329"><ele>58.5</ele><time>2026-04-03T12:10:44Z</time></trkpt><trkpt lat="45.27664626747016" lon="11.690961443237716"><ele>58.25</ele><time>2026-04-03T12:10:45Z</time></trkpt><trkpt lat="45.2764989805727" lon="11.690940761031664"><ele>58.0</ele><time>2026-04-03T12:10:46Z</time></trkpt><trkpt lat="45.2763403948652" lon="11.690875618802146"><ele>56.33333333333333</ele><time>2026-04-03T12:10:47Z</time></trkpt><trkpt lat="45.27619781358892" lon="11.690834627232247"><ele>54.66666666666667</ele><time>2026-04-03T12:10:48Z</time></trkpt><trkpt lat="45.27604397070989" lon="11.690782722099986"><ele>53.0</ele><time>2026-04-03T12:10:49Z</time></trkpt><trkpt lat="45.27587836869633" lon="11.690788806929458"><ele>53.0</ele><time>2026-04-03T12:10:50Z</time></trkpt><trkpt lat="45.27572952050801" lon="11.690769567308916"><ele>53.0</ele><time>2026-04-03T12:10:51Z</time></trkpt><trkpt lat="45.27560335513394" lon="11.69068857584761"><ele>53.0</ele><time>2026-04-03T12:10:52Z</time></trkpt><trkpt lat="45.27547902301105" lon="11.690630186629209"><ele>53.0</ele><time>2026-04-03T12:10:53Z</time></trkpt><trkpt lat="45.275357231417075" lon="11.690633646905534"><ele>52.25</ele><time>2026-04-03T12:10:54Z</time></trkpt><trkpt lat="45.275243110940224" lon="11.690675907599498"><ele>51.5</ele><time>2026-04-03T12:10:55Z</time></trkpt><trkpt lat="45.27512613474916" lon="11.690759198905623"><ele>50.75</ele><time>2026-04-03T12:10:56Z</time></trkpt><trkpt lat="45.27500320069036" lon="11.69084167651533"><ele>50.0</ele><time>2026-04-03T12:10:57Z</time></trkpt><trkpt lat="45.274892372890505" lon="11.690918301190468"><ele>50.0</ele><time>2026-04-03T12:10:58Z</time></trkpt><trkpt lat="45.27478721949759" lon="11.69095414201053"><ele>50.0</ele><time>2026-04-03T12:10:59Z</time></trkpt><trkpt lat="45.274663033543376" lon="11.69097320753626"><ele>50.0</ele><time>2026-04-03T12:11:00Z</time></trkpt><trkpt lat="45.27450896186051" lon="11.691008021500549"><ele>50.0</ele><time>2026-04-03T12:11:01Z</time></trkpt><trkpt lat="45.274355852631466" lon="11.69108436536747"><ele>49.0</ele><time>2026-04-03T12:11:02Z</time></trkpt><trkpt lat="45.27418573362073" lon="11.69115889347812"><ele>48.0</ele><time>2026-04-03T12:11:03Z</time></trkpt><trkpt lat="45.274007766487664" lon="11.691229469625888"><ele>47.0</ele><time>2026-04-03T12:11:04Z</time></trkpt><trkpt lat="45.273824256734684" lon="11.69129660312999"><ele>45.666666666666664</ele><time>2026-04-03T12:11:05Z</time></trkpt><trkpt lat="45.273637375590965" lon="11.691351097410625"><ele>44.333333333333336</ele><time>2026-04-03T12:11:06Z</time></trkpt><trkpt lat="45.27345841780781" lon="11.691402945155453"><ele>43.0</ele><time>2026-04-03T12:11:07Z</time></trkpt><trkpt lat="45.27327568617801" lon="11.691481317508941"><ele>42.66666666666667</ele><time>2026-04-03T12:11:08Z</time></trkpt><trkpt lat="45.273090160829" lon="11.691581022232578"><ele>42.333333333333336</ele><time>2026-04-03T12:11:09Z</time></trkpt><trkpt lat="45.272921435889835" lon="11.691684811979789"><ele>42.0</ele><time>2026-04-03T12:11:10Z</time></trkpt><trkpt lat="45.27275713593176" lon="11.69178062794068"><ele>42.0</ele><time>2026-04-03T12:11:11Z</time></trkpt><trkpt lat="45.27258201582354" lon="11.691852789338508"><ele>42.0</ele><time>2026-04-03T12:11:12Z</time></trkpt><trkpt lat="45.27238590727268" lon="11.691893370988048"><ele>42.0</ele><time>2026-04-03T12:11:13Z</time></trkpt><trkpt lat="45.27216749716274" lon="11.691909669690478"><ele>41.666666666666664</ele><time>2026-04-03T12:11:14Z</time></trkpt><trkpt lat="45.27197225512319" lon="11.691908159641761"><ele>41.33333333333333</ele><time>2026-04-03T12:11:15Z</time></trkpt><trkpt lat="45.27176278391467" lon="11.691893589497386"><ele>41.0</ele><time>2026-04-03T12:11:16Z</time></trkpt><trkpt lat="45.271558085823706" lon="11.691869789143022"><ele>40.666666666666664</ele><time>2026-04-03T12:11:17Z</time></trkpt><trkpt lat="45.27137287732249" lon="11.691891985697968"><ele>40.333333333333336</ele><time>2026-04-03T12:11:18Z</time></trkpt><trkpt lat="45.271188308201765" lon="11.691919474743605"><ele>40.0</ele><time>2026-04-03T12:11:19Z</time></trkpt><trkpt lat="45.27099904031865" lon="11.691959964003859"><ele>40.0</ele><time>2026-04-03T12:11:20Z</time></trkpt><trkpt lat="45.27079803138358" lon="11.69196304238802"><ele>40.0</ele><time>2026-04-03T12:11:21Z</time></trkpt><trkpt lat="45.270595658992036" lon="11.691964018935096"><ele>40.0</ele><time>2026-04-03T12:11:22Z</time></trkpt><trkpt lat="45.27038037357881" lon="11.691956379765156"><ele>38.66666666666667</ele><time>2026-04-03T12:11:23Z</time></trkpt><trkpt lat="45.27017285677899" lon="11.69194346292746"><ele>37.333333333333336</ele><time>2026-04-03T12:11:24Z</time></trkpt><trkpt lat="45.269989258981425" lon="11.691946094482718"><ele>36.0</ele><time>2026-04-03T12:11:25Z</time></trkpt><trkpt lat="45.2697987247412" lon="11.691936591441127"><ele>35.0</ele><time>2026-04-03T12:11:26Z</time></trkpt><trkpt lat="45.26959424679443" lon="11.6919166904727"><ele>34.0</ele><time>2026-04-03T12:11:27Z</time></trkpt><trkpt lat="45.269379142910594" lon="11.691895186230491"><ele>33.0</ele><time>2026-04-03T12:11:28Z</time></trkpt><trkpt lat="45.26915788708103" lon="11.69186707819872"><ele>33.0</ele><time>2026-04-03T12:11:29Z</time></trkpt><trkpt lat="45.26893549501306" lon="11.691830791631213"><ele>33.0</ele><time>2026-04-03T12:11:30Z</time></trkpt><trkpt lat="45.26871440209486" lon="11.691784091123443"><ele>33.0</ele><time>2026-04-03T12:11:31Z</time></trkpt><trkpt lat="45.26849711034976" lon="11.691733078230202"><ele>33.0</ele><time>2026-04-03T12:11:32Z</time></trkpt><trkpt lat="45.268277007996204" lon="11.691677598143531"><ele>33.0</ele><time>2026-04-03T12:11:33Z</time></trkpt><trkpt lat="45.26805730143379" lon="11.691632831555093"><ele>33.0</ele><time>2026-04-03T12:11:34Z</time></trkpt><trkpt lat="45.26783191772765" lon="11.69160769400259"><ele>32.333333333333336</ele><time>2026-04-03T12:11:35Z</time></trkpt><trkpt lat="45.26761722666698" lon="11.691580524334897"><ele>31.666666666666668</ele><time>2026-04-03T12:11:36Z</time></trkpt><trkpt lat="45.26742953774066" lon="11.69154368198081"><ele>31.0</ele><time>2026-04-03T12:11:37Z</time></trkpt><trkpt lat="45.26724148289508" lon="11.691511571621229"><ele>30.666666666666668</ele><time>2026-04-03T12:11:38Z</time></trkpt><trkpt lat="45.26707330528091" lon="11.691403805207491"><ele>30.333333333333336</ele><time>2026-04-03T12:11:39Z</time></trkpt><trkpt lat="45.26692019914533" lon="11.691284655611398"><ele>30.0</ele><time>2026-04-03T12:11:40Z</time></trkpt><trkpt lat="45.266793295282326" lon="11.691173848821027"><ele>30.0</ele><time>2026-04-03T12:11:41Z</time></trkpt><trkpt lat="45.26668277529699" lon="11.691103365912271"><ele>30.0</ele><time>2026-04-03T12:11:42Z</time></trkpt><trkpt lat="45.26653125600969" lon="11.691066432141179"><ele>30.0</ele><time>2026-04-03T12:11:43Z</time></trkpt><trkpt lat="45.266361324102256" lon="11.691072079239053"><ele>30.0</ele><time>2026-04-03T12:11:44Z</time></trkpt><trkpt lat="45.2661752841051" lon="11.690985679655087"><ele>29.0</ele><time>2026-04-03T12:11:45Z</time></trkpt><trkpt lat="45.26599600059047" lon="11.69088734546831"><ele>28.0</ele><time>2026-04-03T12:11:46Z</time></trkpt><trkpt lat="45.26580588092132" lon="11.690800956054415"><ele>27.0</ele><time>2026-04-03T12:11:47Z</time></trkpt><trkpt lat="45.26560965234013" lon="11.69071809835065"><ele>27.0</ele><time>2026-04-03T12:11:48Z</time></trkpt><trkpt lat="45.26540946786625" lon="11.690633570173832"><ele>27.0</ele><time>2026-04-03T12:11:49Z</time></trkpt><trkpt lat="45.265203063488194" lon="11.690556724037464"><ele>27.0</ele><time>2026-04-03T12:11:50Z</time></trkpt><trkpt lat="45.26500971550095" lon="11.690486008516492"><ele>27.0</ele><time>2026-04-03T12:11:51Z</time></trkpt><trkpt lat="45.26484317187175" lon="11.690409151886366"><ele>27.0</ele><time>2026-04-03T12:11:52Z</time></trkpt><trkpt lat="45.264680356974345" lon="11.690318479187027"><ele>27.0</ele><time>2026-04-03T12:11:53Z</time></trkpt><trkpt lat="45.26450884132314" lon="11.690213596191876"><ele>26.666666666666664</ele><time>2026-04-03T12:11:54Z</time></trkpt><trkpt lat="45.26433486363464" lon="11.690102578438864"><ele>26.333333333333332</ele><time>2026-04-03T12:11:55Z</time></trkpt><trkpt lat="45.26416530023535" lon="11.689991925424518"><ele>26.0</ele><time>2026-04-03T12:11:56Z</time></trkpt><trkpt lat="45.264010598132955" lon="11.689885839167497"><ele>25.75</ele><time>2026-04-03T12:11:57Z</time></trkpt><trkpt lat="45.26387933109704" lon="11.68978665244586"><ele>25.5</ele><time>2026-04-03T12:11:58Z</time></trkpt><trkpt lat="45.26377010610777" lon="11.689675480258046"><ele>25.25</ele><time>2026-04-03T12:11:59Z</time></trkpt><trkpt lat="45.263690323312694" lon="11.689548108160466"><ele>25.0</ele><time>2026-04-03T12:12:00Z</time></trkpt><trkpt lat="45.26365429870362" lon="11.689416517394648"><ele>25.0</ele><time>2026-04-03T12:12:01Z</time></trkpt><trkpt lat="45.26364001083873" lon="11.689318226841264"><ele>25.0</ele><time>2026-04-03T12:12:03Z</time></trkpt><trkpt lat="45.2637229238808" lon="11.689172556529709"><ele>25.0</ele><time>2026-04-03T12:12:05Z</time></trkpt><trkpt lat="45.26376973266439" lon="11.689062789713399"><ele>25.0</ele><time>2026-04-03T12:12:07Z</time></trkpt><trkpt lat="45.26383088229689" lon="11.689008928297389"><ele>25.0</ele><time>2026-04-03T12:13:09Z</time></trkpt></trkseg></trk></gpx>